<
# Wetter Temperatur Luftdruck Luftfeuchtigkeit Sichtweite Windgeschwindigkeit Windrichtung Zeit
1 Clouds 10 1021 49 10000 7.2 290 13:25 22.04.2021
2 Clouds 10 1021 57 10000 7.2 300 12:56 22.04.2021
3 Clouds 10 1021 57 10000 7.2 300 12:37 22.04.2021
4 Clouds 10 1021 57 10000 8.23 300 12:19 22.04.2021
5 Clouds 9 1021 57 10000 7.72 290 11:43 22.04.2021
6 Clouds 8 1021 61 10000 7.72 310 11:22 22.04.2021
7 Clouds 8 1021 61 10000 7.72 300 10:43 22.04.2021
8 Clouds 8 1021 61 10000 7.2 290 10:21 22.04.2021
9 Clouds 7 1021 61 10000 7.2 290 09:41 22.04.2021
10 Clouds 7 1020 61 10000 6.69 290 09:19 22.04.2021
11 Clouds 6 1020 65 10000 6.69 280 08:38 22.04.2021
12 Clouds 5 1020 65 10000 6.17 280 08:18 22.04.2021
13 Clouds 5 1020 65 10000 5.14 280 07:38 22.04.2021
14 Clouds 4 1020 70 10000 5.66 280 07:19 22.04.2021
15 Clouds 4 1020 70 10000 4.63 280 06:23 22.04.2021
16 Clouds 3 1020 70 10000 4.12 280 05:25 22.04.2021
17 Clouds 4 1019 65 10000 4.12 280 03:25 22.04.2021
18 Clouds 4 1019 65 10000 3.6 290 00:52 22.04.2021
19 Clouds 5 1019 60 10000 3.6 300 23:47 21.04.2021
20 Clouds 5 1018 60 10000 4.12 300 23:25 21.04.2021
21 Clouds 6 1018 56 10000 4.63 310 22:42 21.04.2021
22 Clouds 6 1018 56 10000 4.63 310 22:23 21.04.2021
23 Clouds 7 1017 53 10000 5.66 310 21:42 21.04.2021
24 Clouds 8 1017 49 10000 5.14 320 21:23 21.04.2021
25 Clear 8 1016 46 10000 5.14 320 20:43 21.04.2021
26 Clear 10 1016 53 10000 5.66 300 20:20 21.04.2021
27 Clouds 10 1015 54 10000 5.66 330 19:43 21.04.2021
28 Clouds 11 1015 54 10000 6.69 310 19:23 21.04.2021
29 Clouds 12 1015 58 10000 6.69 330 18:46 21.04.2021
30 Clouds 13 1015 54 10000 7.72 310 18:26 21.04.2021
31 Clear 13 1014 44 10000 7.2 310 17:48 21.04.2021
32 Clear 14 1014 44 10000 6.69 300 17:24 21.04.2021
33 Clear 15 1014 44 10000 5.66 310 16:49 21.04.2021
34 Clear 16 1014 31 10000 6.17 290 15:59 21.04.2021
35 Clear 17 1014 31 10000 6.17 290 15:41 21.04.2021
36 Clear 17 1015 36 10000 5.66 280 14:55 21.04.2021
37 Clear 16 1015 36 10000 5.66 280 14:36 21.04.2021
38 Clear 16 1015 36 10000 4.63 310 14:18 21.04.2021
39 Clear 16 1015 36 10000 5.14 320 13:40 21.04.2021
40 Clear 16 1015 33 10000 4.12 280 13:20 21.04.2021
41 Clear 15 1015 38 10000 2.57 300 12:30 21.04.2021
42 Clear 15 1015 47 10000 3.6 290 11:50 21.04.2021
43 Clear 14 1015 50 10000 2.57 290 11:29 21.04.2021
44 Clear 13 1015 58 10000 2.57 280 10:52 21.04.2021
45 Clear 13 1015 58 10000 2.57 280 10:34 21.04.2021
46 Clear 11 1015 54 10000 2.57 250 09:51 21.04.2021
47 Clear 10 1015 57 10000 1.54 250 09:19 21.04.2021
48 Clear 8 1015 71 10000 2.06 260 08:41 21.04.2021
49 Clear 7 1015 81 10000 2.37 276 08:20 21.04.2021
50 Clear 4 1015 87 10000 2.37 276 07:32 21.04.2021
51 Clear 3 1015 87 10000 2.11 267 06:57 21.04.2021
52 Clear 3 1015 87 10000 2.11 267 06:57 21.04.2021
53 Clear 4 1015 75 10000 1.68 285 05:26 21.04.2021
54 Clear 6 1015 70 10000 0.8 50 01:33 21.04.2021
55 Clouds 9 1015 50 10000 1.03 0 23:51 20.04.2021
56 Clouds 9 1015 50 10000 1.03 0 23:32 20.04.2021
57 Clear 10 1015 47 10000 1.54 0 22:42 20.04.2021
58 Clear 10 1014 60 10000 1.79 358 22:23 20.04.2021
59 Clear 10 1013 75 10000 2.41 62 21:47 20.04.2021
60 Clear 12 1014 44 10000 1.98 79 21:27 20.04.2021
61 Clear 16 1014 44 10000 1.98 79 20:57 20.04.2021
62 Clear 15 1014 44 10000 1.98 79 20:38 20.04.2021
63 Clear 14 1014 44 10000 1.68 78 20:18 20.04.2021
64 Clear 17 1014 39 10000 1.54 50 19:44 20.04.2021
65 Clear 16 1014 39 10000 1.54 10 19:25 20.04.2021
66 Clear 16 1014 36 10000 2.06 10 18:41 20.04.2021
67 Clear 17 1014 42 10000 2.57 360 18:21 20.04.2021
68 Clear 17 1014 45 10000 2.06 340 17:39 20.04.2021
69 Clear 17 1015 42 10000 1.54 330 16:50 20.04.2021
70 Clear 17 1015 42 10000 2.06 270 15:53 20.04.2021
71 Clear 17 1015 45 10000 2.06 0 15:30 20.04.2021
72 Clear 17 1015 45 10000 2.06 0 15:30 20.04.2021
73 Clear 17 1016 48 10000 2.57 300 14:59 20.04.2021
74 Clear 16 1016 48 10000 2.57 300 14:35 20.04.2021
75 Clear 16 1016 55 10000 1.54 0 13:54 20.04.2021
76 Clear 15 1016 58 10000 1.03 0 13:24 20.04.2021
77 Clear 15 1016 58 10000 1.03 0 12:48 20.04.2021
78 Clear 14 1017 67 10000 2.06 300 12:23 20.04.2021
79 Clear 13 1017 66 10000 2.57 290 11:46 20.04.2021
80 Clear 12 1017 71 10000 2.06 280 11:24 20.04.2021
81 Clear 11 1017 71 10000 2.57 290 10:45 20.04.2021
82 Clear 11 1017 76 10000 2.06 290 10:23 20.04.2021
83 Clear 9 1017 87 10000 1.03 0 09:45 20.04.2021
84 Clear 8 1016 83 10000 0.89 311 08:57 20.04.2021
85 Clear 7 1017 93 10000 2.06 340 08:33 20.04.2021
86 Fog 5 1017 100 350 1.54 280 07:50 20.04.2021
87 Clouds 4 1017 100 250 1.54 270 07:21 20.04.2021
88 Clouds 3 1017 100 350 1.28 323 05:41 20.04.2021
89 Clouds 4 1017 93 300 1.17 340 04:42 20.04.2021
90 Clear 6 1018 93 2500 1.59 2 02:47 20.04.2021
91 Clouds 8 1018 93 9000 2.03 17 00:49 20.04.2021
92 Clouds 8 1019 87 10000 2.05 0 23:47 19.04.2021
93 Clouds 9 1019 81 10000 2.01 337 23:27 19.04.2021
94 Clouds 9 1019 81 10000 2.01 337 22:37 19.04.2021
95 Clouds 8 1019 76 10000 1.81 315 22:19 19.04.2021
96 Clouds 9 1019 76 10000 0.51 290 21:38 19.04.2021
97 Clouds 9 1019 76 10000 1.53 296 21:19 19.04.2021
98 Clouds 11 1019 71 10000 1.54 280 20:40 19.04.2021
99 Clouds 11 1019 71 10000 1.58 292 20:20 19.04.2021
100 Clear 12 1019 67 10000 1.54 330 19:44 19.04.2021
101 Clear 13 1019 67 10000 1.54 340 19:25 19.04.2021
102 Clear 13 1019 62 10000 1.54 360 18:48 19.04.2021
103 Clear 13 1019 62 10000 1.54 360 18:48 19.04.2021
104 Clear 13 1019 67 10000 1.54 340 18:24 19.04.2021
105 Clear 14 1019 62 10000 1.54 60 17:58 19.04.2021
106 Clear 14 1019 62 10000 1.54 60 17:39 19.04.2021
107 Clouds 14 1020 67 10000 2.06 100 17:20 19.04.2021
108 Clouds 13 1020 67 10000 2.57 100 16:41 19.04.2021
109 Rain 13 1020 62 10000 2.06 100 16:21 19.04.2021
110 Clouds 14 1020 67 10000 2.06 10 15:40 19.04.2021
111 Clouds 14 1020 71 10000 2.06 0 15:22 19.04.2021
112 Clouds 14 1020 67 10000 2.06 0 14:38 19.04.2021
113 Clouds 13 1021 71 10000 2.57 0 14:19 19.04.2021
114 Clouds 12 1021 81 9000 2.57 330 13:44 19.04.2021
115 Clouds 12 1021 81 9000 2.57 360 13:25 19.04.2021
116 Clouds 11 1021 76 9000 1.03 0 12:43 19.04.2021
117 Clouds 11 1021 87 8000 1.54 360 12:24 19.04.2021
118 Clouds 10 1021 87 8000 1.54 40 11:54 19.04.2021
119 Clouds 9 1021 87 10000 2.06 30 11:26 19.04.2021
120 Clouds 9 1021 93 9000 0.51 0 10:51 19.04.2021
121 Clouds 8 1021 93 6000 1.03 0 10:26 19.04.2021
122 Clouds 8 1021 100 5000 2.06 110 09:57 19.04.2021
123 Mist 8 1021 100 3300 1.54 70 09:30 19.04.2021
124 Clouds 7 1021 93 8000 2.57 110 08:59 19.04.2021
125 Clouds 7 1021 93 7000 2.06 70 08:29 19.04.2021
126 Clouds 7 1021 93 4500 1.54 80 07:49 19.04.2021
127 Clouds 7 1021 93 3500 2.57 80 07:19 19.04.2021
128 Clouds 7 1020 93 1000 1.54 80 06:37 19.04.2021
129 Clouds 8 1020 100 6000 1.03 0 02:36 19.04.2021
130 Clouds 8 1020 100 5000 2.22 41 01:29 19.04.2021
131 Clouds 8 1021 100 6000 1.87 23 00:23 19.04.2021
132 Clouds 9 1021 93 8000 1.9 350 23:19 18.04.2021
133 Clouds 9 1021 100 6000 1.9 350 22:49 18.04.2021
134 Clouds 9 1021 100 10000 1.9 350 22:30 18.04.2021
135 Clouds 9 1021 93 10000 1.84 345 21:45 18.04.2021
136 Clouds 9 1021 93 10000 1.69 8 21:23 18.04.2021
137 Clouds 9 1021 93 10000 1.69 8 21:23 18.04.2021
138 Clouds 9 1020 93 10000 1.03 0 20:40 18.04.2021
139 Clouds 10 1020 93 10000 1.54 30 20:21 18.04.2021
140 Clouds 10 1020 87 10000 1.54 40 19:56 18.04.2021
141 Rain 10 1020 87 10000 1.54 40 19:35 18.04.2021
142 Rain 11 1020 82 10000 2.57 50 18:54 18.04.2021
143 Drizzle 11 1020 82 10000 1.54 60 18:31 18.04.2021
144 Drizzle 12 1020 71 10000 2.06 50 17:59 18.04.2021
145 Rain 12 1020 71 10000 2.06 50 17:41 18.04.2021
146 Clouds 12 1020 76 10000 2.06 100 17:23 18.04.2021
147 Clouds 12 1020 82 10000 3.09 100 16:41 18.04.2021
148 Rain 12 1020 76 10000 3.6 100 16:19 18.04.2021
149 Rain 13 1020 71 10000 2.06 70 15:41 18.04.2021
150 Rain 13 1020 62 10000 2.06 70 15:23 18.04.2021
151 Clouds 13 1020 62 10000 2.06 0 14:42 18.04.2021
152 Clouds 13 1020 71 10000 1.54 20 14:20 18.04.2021
153 Clouds 12 1021 71 10000 2.57 0 13:54 18.04.2021
154 Clouds 12 1021 71 10000 2.57 0 13:31 18.04.2021
155 Clouds 10 1021 76 10000 1.54 0 12:44 18.04.2021
156 Clouds 10 1021 76 10000 1.54 0 12:44 18.04.2021
157 Clouds 10 1021 81 10000 1.54 0 12:24 18.04.2021
158 Clouds 9 1021 81 10000 1.54 350 11:41 18.04.2021
159 Clouds 9 1021 81 10000 2.06 360 11:20 18.04.2021
160 Clouds 8 1021 87 10000 1.54 360 10:46 18.04.2021
161 Clouds 8 1021 87 10000 1.03 0 10:22 18.04.2021
162 Clouds 8 1021 87 10000 1.54 90 09:47 18.04.2021
163 Clouds 8 1021 87 10000 1.54 100 09:28 18.04.2021
164 Clouds 7 1021 87 10000 1.03 0 08:56 18.04.2021
165 Clouds 7 1021 87 10000 1.03 0 08:34 18.04.2021
166 Clouds 7 1021 87 10000 0.51 0 07:55 18.04.2021
167 Clouds 7 1021 87 10000 0.51 0 07:37 18.04.2021
168 Clouds 7 1020 81 10000 1.03 0 05:42 18.04.2021
169 Clouds 6 1020 81 10000 1.67 25 05:23 18.04.2021
170 Clouds 7 1021 76 10000 2.06 330 02:39 18.04.2021
171 Clouds 8 1021 76 10000 1.03 0 02:20 18.04.2021
172 Clouds 8 1021 71 10000 2.06 10 00:37 18.04.2021
173 Clouds 9 1021 71 10000 1.54 350 23:33 17.04.2021
174 Clouds 10 1021 66 10000 1.03 0 22:51 17.04.2021
175 Clouds 10 1022 62 10000 2.17 338 22:30 17.04.2021
176 Clouds 10 1021 58 10000 2.28 342 21:50 17.04.2021
177 Clouds 11 1021 58 10000 1.93 350 21:28 17.04.2021
178 Clouds 11 1021 62 10000 1.93 350 20:48 17.04.2021
179 Clouds 12 1021 54 10000 1.03 0 20:27 17.04.2021
180 Clouds 12 1021 54 10000 2.16 31 19:45 17.04.2021
181 Clouds 12 1021 50 10000 1.54 20 19:21 17.04.2021
182 Clouds 12 1021 50 10000 1.03 0 18:55 17.04.2021
183 Clouds 12 1021 50 10000 1.03 0 18:35 17.04.2021
184 Clear 12 1021 50 10000 1.03 0 17:56 17.04.2021
185 Clear 12 1021 50 10000 1.03 0 17:56 17.04.2021
186 Clear 12 1021 50 10000 1.03 0 17:38 17.04.2021
187 Clouds 12 1021 50 10000 2.06 0 16:52 17.04.2021
188 Clear 12 1022 47 10000 1.54 0 16:27 17.04.2021
189 Clear 11 1022 46 10000 2.57 360 15:42 17.04.2021
190 Clouds 10 1022 50 10000 2.57 0 14:50 17.04.2021
191 Clouds 10 1022 49 10000 2.57 10 14:30 17.04.2021
192 Clouds 10 1022 46 10000 2.57 0 13:47 17.04.2021
193 Clear 10 1022 46 10000 3.09 10 13:20 17.04.2021
194 Clear 10 1022 53 10000 3.09 330 12:39 17.04.2021
195 Clear 9 1023 53 10000 3.09 340 12:18 17.04.2021
196 Clear 9 1023 57 10000 2.06 0 11:39 17.04.2021
197 Clear 8 1023 61 10000 3.09 330 11:21 17.04.2021
198 Clear 8 1023 61 10000 4.12 290 10:41 17.04.2021
199 Clear 7 1023 65 10000 3.6 290 10:23 17.04.2021
200 Clear 5 1023 70 10000 3.09 270 09:19 17.04.2021
201 Clouds 4 1024 70 10000 2.06 290 08:34 17.04.2021
202 Clouds 4 1024 75 10000 2.06 270 07:59 17.04.2021
203 Rain 3 1024 75 10000 1.54 290 06:43 17.04.2021
204 Clouds 3 1024 70 10000 1.54 340 03:51 17.04.2021
205 Clouds 3 1025 70 10000 1.54 340 02:40 17.04.2021
206 Clouds 5 1025 61 10000 1.54 350 00:44 17.04.2021
207 Clouds 5 1025 56 10000 1.03 0 00:23 17.04.2021
208 Clouds 5 1025 56 10000 1.03 0 23:46 16.04.2021
209 Clouds 5 1025 56 10000 1.03 0 23:23 16.04.2021
210 Clouds 5 1025 52 10000 0.51 0 22:43 16.04.2021
211 Clouds 6 1026 49 10000 1.03 0 22:20 16.04.2021
212 Clouds 7 1025 46 10000 2.06 10 21:50 16.04.2021
213 Clear 7 1025 43 10000 3.09 360 21:29 16.04.2021
214 Clear 9 1025 43 10000 3.09 360 20:50 16.04.2021
215 Clear 9 1025 43 10000 2.57 0 20:24 16.04.2021
216 Clear 10 1025 40 10000 1.54 20 19:50 16.04.2021
217 Clear 9 1025 40 10000 2.06 40 19:28 16.04.2021
218 Clear 10 1025 40 10000 2.57 30 18:36 16.04.2021
219 Clear 10 1025 40 10000 2.57 60 18:18 16.04.2021
220 Clear 10 1025 43 10000 2.57 60 17:37 16.04.2021
221 Clear 10 1025 40 10000 4.12 70 17:18 16.04.2021
222 Clear 11 1025 37 10000 3.6 50 16:41 16.04.2021
223 Clear 11 1025 35 10000 3.09 20 16:22 16.04.2021
224 Clear 12 1025 35 10000 3.09 0 15:44 16.04.2021
225 Clear 11 1025 37 10000 3.6 0 15:18 16.04.2021
226 Clear 11 1025 40 10000 4.12 0 14:42 16.04.2021
227 Clear 11 1025 37 10000 3.09 0 14:18 16.04.2021
228 Clear 11 1025 40 10000 2.57 0 13:42 16.04.2021
229 Clear 10 1026 40 10000 3.6 0 13:20 16.04.2021
230 Clear 10 1026 40 10000 2.57 0 12:47 16.04.2021
231 Clear 9 1026 43 10000 3.09 40 12:27 16.04.2021
232 Clear 9 1026 43 10000 3.09 40 12:27 16.04.2021
233 Clouds 9 1026 39 10000 4.12 40 11:52 16.04.2021
234 Clear 9 1026 46 10000 3.6 0 11:26 16.04.2021
235 Clear 9 1026 46 10000 3.6 0 11:26 16.04.2021
236 Clear 8 1026 49 10000 3.09 20 10:53 16.04.2021
237 Clear 8 1026 49 10000 3.09 20 10:34 16.04.2021
238 Clear 6 1026 60 10000 2.57 10 09:53 16.04.2021
239 Clear 5 1026 65 10000 1.54 0 09:24 16.04.2021
240 Clear 5 1026 70 10000 2.06 340 08:47 16.04.2021
241 Clear 4 1026 70 10000 2.06 340 08:28 16.04.2021
242 Clear 4 1026 70 10000 2.06 340 07:53 16.04.2021
243 Clear 4 1026 70 10000 2.06 340 07:35 16.04.2021
244 Clouds 4 1026 70 10000 2.57 330 06:58 16.04.2021
245 Clouds 4 1026 65 10000 2.06 320 05:34 16.04.2021
246 Rain 3 1027 70 10000 2.06 310 04:20 16.04.2021
247 Rain 5 1028 52 10000 1.03 0 00:58 16.04.2021
248 Rain 5 1028 52 10000 1.03 0 00:40 16.04.2021
249 Rain 5 1028 52 10000 1.03 0 00:18 16.04.2021
250 Clouds 5 1028 52 10000 1.03 0 23:41 15.04.2021
251 Clear 6 1028 45 10000 1.54 40 23:22 15.04.2021
252 Clear 6 1028 45 10000 1.03 0 22:40 15.04.2021
253 Clear 6 1028 45 10000 1.03 0 22:21 15.04.2021
254 Clear 5 1028 49 10000 0.51 0 21:42 15.04.2021
255 Clear 5 1028 49 10000 3.04 22 21:20 15.04.2021
256 Clear 6 1027 49 10000 3.04 22 20:44 15.04.2021
257 Clouds 7 1027 45 10000 1.54 40 20:23 15.04.2021
258 Clouds 7 1027 45 10000 2.57 40 19:44 15.04.2021
259 Clouds 8 1027 42 10000 3.09 30 19:26 15.04.2021
260 Clouds 8 1028 42 10000 2.06 10 18:42 15.04.2021
261 Clouds 8 1028 42 10000 2.06 20 18:21 15.04.2021
262 Clouds 8 1028 46 10000 3.09 40 17:55 15.04.2021
263 Clouds 8 1028 46 10000 3.09 40 17:36 15.04.2021
264 Clouds 8 1028 46 10000 3.09 40 17:36 15.04.2021
265 Clouds 8 1028 42 10000 3.6 360 16:58 15.04.2021
266 Clouds 8 1028 42 10000 3.6 360 16:40 15.04.2021
267 Clouds 8 1028 42 10000 1.54 350 16:21 15.04.2021
268 Clouds 8 1029 49 10000 4.12 350 15:45 15.04.2021
269 Clouds 8 1029 49 10000 4.12 350 15:45 15.04.2021
270 Rain 8 1029 49 10000 1.54 330 15:25 15.04.2021
271 Rain 8 1029 49 10000 3.09 0 14:41 15.04.2021
272 Clouds 8 1029 49 10000 3.09 330 14:23 15.04.2021
273 Clouds 8 1029 49 10000 3.09 330 14:23 15.04.2021
274 Clouds 8 1029 46 10000 2.57 50 13:42 15.04.2021
275 Clouds 8 1029 42 10000 2.57 20 13:19 15.04.2021
276 Clouds 8 1029 49 10000 3.6 340 12:42 15.04.2021
277 Clear 8 1029 49 10000 3.09 350 12:21 15.04.2021
278 Clear 8 1030 57 10000 2.57 350 11:46 15.04.2021
279 Clouds 7 1029 58 10000 1.34 47 11:24 15.04.2021
280 Clouds 6 1030 70 10000 2.06 340 10:55 15.04.2021
281 Clouds 5 1030 70 10000 2.06 340 10:28 15.04.2021
282 Clear 4 1029 75 10000 0.51 0 09:50 15.04.2021
283 Clear 3 1029 80 10000 1.03 330 09:28 15.04.2021
284 Clear 2 1029 86 10000 1.03 0 08:49 15.04.2021
285 Clouds 1 1029 90 10000 1.47 344 08:24 15.04.2021
286 Fog -1 1029 93 7000 1.47 344 07:30 15.04.2021
287 Clouds -1 1028 93 1500 0.51 0 06:55 15.04.2021
288 Clouds -1 1028 93 1500 0.51 0 06:33 15.04.2021
289 Clouds 0 1028 100 10000 0.51 300 04:53 15.04.2021
290 Clouds 2 1028 87 10000 1.54 300 02:58 15.04.2021
291 Clouds 4 1028 75 10000 1.03 0 23:49 14.04.2021
292 Clouds 4 1028 75 10000 1.31 6 23:29 14.04.2021
293 Clouds 4 1028 75 10000 1.54 330 22:47 14.04.2021
294 Clouds 4 1028 75 10000 3.09 320 22:28 14.04.2021
295 Clouds 4 1028 75 10000 2.06 320 21:56 14.04.2021
296 Clouds 4 1028 75 10000 2.06 320 21:37 14.04.2021
297 Clouds 5 1028 70 10000 1.03 0 21:18 14.04.2021
298 Clouds 5 1027 75 10000 1.54 330 20:37 14.04.2021
299 Clouds 5 1027 70 10000 2.57 320 20:19 14.04.2021
300 Clouds 6 1027 65 10000 3.6 300 19:39 14.04.2021
301 Clouds 6 1027 61 10000 3.09 330 19:18 14.04.2021
302 Clouds 7 1027 65 10000 4.12 320 18:50 14.04.2021
303 Clouds 7 1027 61 10000 2.68 349 18:19 14.04.2021
304 Clouds 8 1027 57 10000 4.12 300 17:55 14.04.2021
305 Clouds 8 1027 65 10000 4.63 320 17:24 14.04.2021
306 Clouds 8 1027 49 10000 5.14 320 16:46 14.04.2021
307 Clouds 8 1028 53 10000 5.14 300 16:22 14.04.2021
308 Clouds 8 1028 70 10000 2.57 290 15:41 14.04.2021
309 Clouds 7 1028 65 10000 5.14 310 15:22 14.04.2021
310 Rain 8 1028 49 10000 4.12 320 14:43 14.04.2021
311 Clouds 9 1027 53 10000 4.02 358 14:22 14.04.2021
312 Clouds 9 1028 57 10000 5.66 290 13:49 14.04.2021
313 Clouds 7 1029 61 10000 4.12 290 12:58 14.04.2021
314 Clouds 7 1029 61 10000 4.12 290 12:35 14.04.2021
315 Clouds 6 1029 75 10000 4.63 300 11:43 14.04.2021
316 Clouds 6 1029 75 10000 3.6 340 11:24 14.04.2021
317 Clouds 5 1029 75 10000 4.12 300 10:35 14.04.2021
318 Clouds 4 1029 87 10000 4.12 300 09:59 14.04.2021
319 Clouds 4 1029 87 10000 4.12 300 09:41 14.04.2021
320 Clouds 3 1030 93 10000 3.6 290 09:19 14.04.2021
321 Clouds 2 1030 93 10000 2.57 290 08:34 14.04.2021
322 Clear 1 1029 93 10000 1.54 280 07:56 14.04.2021
323 Clear -1 1029 100 10000 2.57 270 06:48 14.04.2021
324 Clear -1 1029 93 10000 2.06 280 06:23 14.04.2021
325 Clouds 0 1029 100 10000 2.06 280 03:59 14.04.2021
326 Clouds 1 1030 93 10000 2.06 280 01:41 14.04.2021
327 Clouds 1 1029 86 10000 3.09 280 00:34 14.04.2021
328 Clouds 2 1029 86 10000 2.57 260 23:39 13.04.2021
329 Clouds 2 1030 86 10000 2.57 270 23:21 13.04.2021
330 Clouds 3 1030 81 10000 3.09 280 22:41 13.04.2021
331 Clouds 3 1029 87 10000 2.57 290 22:19 13.04.2021
332 Clouds 3 1029 87 10000 2.06 280 21:45 13.04.2021
333 Clouds 3 1029 81 10000 4.12 280 21:27 13.04.2021
334 Clouds 4 1029 70 10000 4.63 290 20:42 13.04.2021
335 Clouds 5 1029 70 10000 5.14 290 20:21 13.04.2021
336 Clouds 6 1028 65 10000 4.63 310 19:43 13.04.2021
337 Clouds 7 1028 61 10000 5.66 300 19:23 13.04.2021
338 Clouds 7 1028 61 10000 6.17 300 18:40 13.04.2021
339 Clouds 8 1028 61 10000 6.69 290 17:56 13.04.2021
340 Clouds 7 1028 61 10000 6.69 290 17:36 13.04.2021
341 Clouds 8 1028 61 10000 8.23 290 17:18 13.04.2021
342 Clouds 8 1028 65 10000 3.6 260 16:43 13.04.2021
343 Rain 7 1029 70 10000 3.09 310 16:20 13.04.2021
344 Clouds 8 1029 61 10000 3.6 270 15:44 13.04.2021
345 Clouds 8 1029 75 10000 2.57 220 15:22 13.04.2021
346 Clouds 7 1029 81 10000 9.26 310 14:46 13.04.2021
347 Rain 8 1029 57 10000 4.63 300 14:19 13.04.2021
348 Clouds 8 1029 53 10000 4.63 270 13:45 13.04.2021
349 Clouds 8 1029 53 10000 4.63 300 13:24 13.04.2021
350 Clouds 8 1029 65 10000 6.17 280 12:56 13.04.2021
351 Clouds 7 1029 65 10000 6.17 280 12:28 13.04.2021
352 Clouds 7 1029 65 10000 5.66 290 11:56 13.04.2021
353 Clouds 7 1029 75 10000 5.14 280 11:30 13.04.2021
354 Clouds 6 1029 81 10000 4.63 270 10:53 13.04.2021
355 Clouds 6 1029 76 10000 4.02 0 10:21 13.04.2021
356 Clouds 6 1029 76 10000 4.02 0 10:21 13.04.2021
357 Clouds 4 1029 87 10000 4.63 260 09:57 13.04.2021
358 Clouds 4 1029 87 10000 4.63 260 09:36 13.04.2021
359 Clouds 3 1029 87 10000 4.12 260 08:57 13.04.2021
360 Clouds 3 1029 87 10000 4.12 260 08:38 13.04.2021
361 Clouds 2 1029 87 10000 3.6 250 08:20 13.04.2021
362 Clouds 1 1028 86 10000 2.57 250 07:36 13.04.2021
363 Clouds 1 1028 86 10000 4.12 250 06:31 13.04.2021
364 Clear 0 1028 86 10000 3.09 240 04:50 13.04.2021
365 Clear 1 1028 86 10000 3.09 260 02:37 13.04.2021
366 Clear 1 1027 86 10000 2.57 260 00:33 13.04.2021
367 Clear 2 1027 86 10000 2.57 270 23:49 12.04.2021
368 Clear 2 1027 80 10000 3.09 260 23:26 12.04.2021
369 Clear 2 1027 87 10000 2.06 270 22:39 12.04.2021
370 Clouds 3 1027 81 10000 2.06 300 22:18 12.04.2021
371 Clouds 3 1027 70 10000 3.6 290 21:45 12.04.2021
372 Clouds 3 1026 81 10000 3.09 270 21:20 12.04.2021
373 Clear 4 1026 75 10000 3.6 270 20:41 12.04.2021
374 Clear 4 1026 75 10000 3.6 270 20:22 12.04.2021
375 Clear 5 1026 60 10000 4.63 260 19:57 12.04.2021
376 Clear 5 1026 60 10000 4.63 260 19:38 12.04.2021
377 Clear 6 1025 70 10000 3.6 280 19:19 12.04.2021
378 Clouds 6 1025 70 10000 7.2 290 18:44 12.04.2021
379 Clouds 7 1025 57 10000 3.09 280 18:25 12.04.2021
380 Clouds 7 1025 61 10000 3.6 270 17:44 12.04.2021
381 Clouds 7 1025 65 10000 5.14 300 17:24 12.04.2021
382 Clouds 7 1024 56 10000 6.17 290 16:47 12.04.2021
383 Clear 8 1024 42 10000 5.66 270 16:27 12.04.2021
384 Clouds 9 1024 49 10000 3.09 300 15:54 12.04.2021
385 Clouds 9 1024 49 10000 3.09 300 15:33 12.04.2021
386 Clouds 9 1024 49 10000 5.14 270 14:55 12.04.2021
387 Clouds 8 1024 49 10000 5.14 270 14:36 12.04.2021
388 Clouds 7 1024 61 10000 4.12 300 13:53 12.04.2021
389 Clouds 7 1024 61 10000 3.6 300 13:31 12.04.2021
390 Clouds 7 1024 61 10000 4.63 300 12:59 12.04.2021
391 Clouds 7 1024 65 10000 4.12 290 12:38 12.04.2021
392 Clouds 7 1024 65 10000 4.12 290 12:19 12.04.2021
393 Clouds 6 1023 75 10000 4.12 290 11:26 12.04.2021
394 Clouds 5 1023 81 10000 4.63 280 10:51 12.04.2021
395 Clouds 4 1023 87 10000 4.12 290 10:27 12.04.2021
396 Clouds 3 1023 87 10000 3.6 290 09:51 12.04.2021
397 Clouds 3 1022 87 10000 3.6 280 09:23 12.04.2021
398 Clouds 3 1022 87 10000 4.63 280 08:44 12.04.2021
399 Clear 2 1021 87 10000 3.6 290 07:53 12.04.2021
400 Clouds 2 1021 87 10000 4.12 290 07:29 12.04.2021
401 Clouds 2 1020 87 10000 4.12 290 06:29 12.04.2021
402 Clouds 2 1020 87 10000 4.12 290 05:47 12.04.2021
403 Clouds 3 1018 87 10000 4.12 290 02:27 12.04.2021
404 Clouds 3 1017 93 10000 3.09 280 00:27 12.04.2021
405 Clouds 4 1016 87 10000 4.12 300 23:55 11.04.2021
406 Rain 4 1016 87 10000 4.12 300 23:36 11.04.2021
407 Rain 4 1016 87 10000 3.6 280 23:18 11.04.2021
408 Rain 3 1016 100 10000 3.09 280 22:37 11.04.2021
409 Rain 3 1015 93 10000 3.09 280 22:18 11.04.2021
410 Rain 3 1015 93 10000 2.57 270 21:42 11.04.2021
411 Rain 3 1015 93 10000 4.63 290 21:23 11.04.2021
412 Rain 3 1014 93 10000 5.14 300 20:42 11.04.2021
413 Rain 3 1014 93 10000 6.17 300 20:23 11.04.2021
414 Rain 4 1013 87 10000 5.66 290 19:41 11.04.2021
415 Rain 4 1013 93 9000 4.63 290 19:20 11.04.2021
416 Rain 4 1012 93 10000 5.66 290 18:57 11.04.2021
417 Rain 4 1012 93 10000 5.66 290 18:39 11.04.2021
418 Rain 5 1012 87 10000 6.17 290 18:20 11.04.2021
419 Rain 5 1012 93 6000 6.17 290 17:40 11.04.2021
420 Rain 5 1012 93 6000 6.17 290 17:40 11.04.2021
421 Clouds 5 1011 93 6000 6.17 290 17:22 11.04.2021
422 Rain 6 1011 93 10000 6.17 290 16:42 11.04.2021
423 Rain 7 1010 87 10000 6.69 300 16:21 11.04.2021
424 Clouds 8 1009 93 10000 6.17 300 15:46 11.04.2021
425 Clouds 8 1009 93 10000 6.17 300 15:46 11.04.2021
426 Clouds 10 1009 93 10000 5.66 280 15:26 11.04.2021
427 Clouds 11 1009 87 10000 5.14 280 14:51 11.04.2021
428 Clouds 11 1008 82 10000 4.63 270 14:27 11.04.2021
429 Clouds 12 1008 76 10000 5.66 270 13:45 11.04.2021
430 Clouds 13 1008 71 10000 4.63 250 13:27 11.04.2021
431 Clouds 13 1008 67 10000 5.14 240 12:44 11.04.2021
432 Clouds 13 1007 71 10000 5.66 230 12:20 11.04.2021
433 Clouds 13 1007 71 10000 4.12 220 11:48 11.04.2021
434 Clouds 13 1007 76 10000 2.57 200 11:22 11.04.2021
435 Clouds 12 1007 82 10000 3.09 170 10:47 11.04.2021
436 Clouds 11 1007 87 10000 3.09 160 10:26 11.04.2021
437 Clouds 11 1007 93 10000 4.12 150 09:53 11.04.2021
438 Clouds 10 1007 93 10000 4.12 150 09:32 11.04.2021
439 Clouds 8 1007 100 8000 3.09 150 08:42 11.04.2021
440 Clouds 8 1007 100 5000 2.57 110 07:59 11.04.2021
441 Clouds 7 1007 100 5000 3.09 140 07:21 11.04.2021
442 Rain 7 1007 92 10000 1.79 0 06:26 11.04.2021
443 Rain 7 1007 100 8000 3.6 140 05:37 11.04.2021
444 Rain 7 1007 100 7000 2.06 130 05:18 11.04.2021
445 Clouds 7 1008 100 5000 2.57 120 04:33 11.04.2021
446 Clouds 7 1010 100 10000 5.66 110 01:40 11.04.2021
447 Clouds 7 1011 93 7000 5.66 110 00:33 11.04.2021
448 Rain 7 1012 93 5000 5.66 110 23:47 10.04.2021
449 Rain 7 1012 100 5000 5.66 110 23:24 10.04.2021
450 Rain 7 1012 93 5000 5.66 110 22:43 10.04.2021
451 Rain 7 1013 93 5000 5.14 110 22:20 10.04.2021
452 Rain 7 1013 93 5000 4.63 100 21:40 10.04.2021
453 Rain 7 1013 93 6000 3.6 90 21:20 10.04.2021
454 Rain 7 1013 93 9000 2.57 90 20:42 10.04.2021
455 Rain 7 1013 87 10000 3.09 90 20:23 10.04.2021
456 Rain 7 1013 87 10000 3.09 90 19:44 10.04.2021
457 Rain 7 1014 81 10000 3.6 90 19:25 10.04.2021
458 Rain 8 1014 76 10000 3.6 90 18:50 10.04.2021
459 Rain 8 1014 76 10000 4.12 90 18:28 10.04.2021
460 Clouds 8 1015 76 10000 4.12 90 17:37 10.04.2021
461 Clouds 8 1015 71 10000 3.6 90 16:57 10.04.2021
462 Clouds 8 1015 71 10000 2.57 80 16:27 10.04.2021
463 Clouds 8 1016 71 10000 3.09 70 15:54 10.04.2021
464 Clouds 8 1016 76 10000 2.57 90 15:23 10.04.2021
465 Clouds 8 1016 76 10000 2.57 90 14:42 10.04.2021
466 Clouds 8 1016 76 10000 2.57 90 14:19 10.04.2021
467 Clouds 7 1016 70 10000 2.57 90 13:42 10.04.2021
468 Clouds 7 1016 87 10000 1.54 50 12:53 10.04.2021
469 Clouds 7 1016 87 10000 1.03 0 12:29 10.04.2021
470 Clouds 6 1016 87 10000 1.54 60 11:49 10.04.2021
471 Clouds 6 1015 93 10000 1.54 50 11:26 10.04.2021
472 Clouds 6 1015 100 10000 1.03 0 10:52 10.04.2021
473 Clouds 5 1015 100 10000 1.54 50 10:31 10.04.2021
474 Clouds 5 1014 100 10000 1.03 0 09:50 10.04.2021
475 Clouds 5 1014 93 10000 1.03 0 09:23 10.04.2021
476 Clouds 5 1014 93 10000 1.03 0 08:49 10.04.2021
477 Clouds 5 1013 93 10000 1.03 0 08:29 10.04.2021
478 Clouds 5 1013 100 10000 1.54 30 07:40 10.04.2021
479 Clouds 5 1013 100 10000 0.51 0 07:21 10.04.2021
480 Clouds 5 1013 93 10000 1.54 360 06:24 10.04.2021
481 Rain 5 1012 87 10000 2.38 25 04:40 10.04.2021
482 Clouds 6 1012 87 10000 1.03 100 02:53 10.04.2021
483 Clouds 6 1012 87 10000 1.03 100 02:34 10.04.2021
484 Clouds 6 1012 81 10000 1.54 50 00:45 10.04.2021
485 Clouds 7 1012 65 10000 2.57 360 00:26 10.04.2021
486 Rain 8 1012 61 10000 2.06 0 23:42 09.04.2021
487 Clouds 7 1012 57 10000 1.95 300 23:18 09.04.2021
488 Clouds 7 1012 57 10000 1.03 270 22:42 09.04.2021
489 Clouds 7 1012 57 10000 1.03 0 22:22 09.04.2021
490 Clouds 9 1012 57 10000 2.06 240 21:39 09.04.2021
491 Clouds 9 1012 53 10000 2.57 240 21:19 09.04.2021
492 Clear 10 1012 53 10000 3.6 250 20:44 09.04.2021
493 Clear 10 1012 50 10000 4.12 250 20:23 09.04.2021
494 Clear 11 1012 46 10000 4.63 250 19:57 09.04.2021
495 Clear 11 1012 46 10000 4.63 250 19:38 09.04.2021
496 Clear 11 1012 46 10000 6.17 250 19:20 09.04.2021
497 Clear 11 1012 46 10000 5.14 250 18:41 09.04.2021
498 Clear 11 1012 46 10000 5.66 260 18:19 09.04.2021
499 Clear 12 1012 43 10000 5.66 260 17:41 09.04.2021
500 Clear 13 1012 40 10000 7.72 250 16:57 09.04.2021
501 Clear 13 1012 40 10000 7.72 250 16:38 09.04.2021
502 Clear 13 1012 43 10000 7.72 250 15:59 09.04.2021
503 Clear 13 1012 43 10000 7.72 250 15:40 09.04.2021
504 Clouds 13 1012 47 10000 7.2 250 15:19 09.04.2021
505 Clouds 13 1012 47 10000 6.17 240 14:42 09.04.2021
506 Clear 12 1012 46 10000 8.23 240 13:57 09.04.2021
507 Clear 12 1012 46 10000 8.23 240 13:39 09.04.2021
508 Clouds 12 1013 46 10000 7.2 250 13:21 09.04.2021
509 Clouds 11 1013 46 10000 8.23 240 12:46 09.04.2021
510 Clear 10 1013 49 10000 7.2 250 11:52 09.04.2021
511 Clear 10 1013 49 10000 5.66 230 11:28 09.04.2021
512 Clear 9 1013 49 10000 6.17 230 10:53 09.04.2021
513 Clear 9 1013 49 10000 6.17 230 10:34 09.04.2021
514 Clouds 7 1014 49 10000 6.17 230 09:55 09.04.2021
515 Clouds 6 1014 52 10000 5.66 220 09:27 09.04.2021
516 Clouds 5 1014 56 10000 5.14 220 08:54 09.04.2021
517 Clear 5 1014 52 10000 5.66 220 08:23 09.04.2021
518 Clear 3 1014 56 10000 5.14 220 07:21 09.04.2021
519 Clear 3 1015 60 10000 3.09 210 06:21 09.04.2021
520 Clouds 1 1017 64 10000 2.06 180 03:56 09.04.2021
521 Clouds 1 1017 64 10000 2.06 180 03:38 09.04.2021
522 Clouds 2 1019 64 10000 2.57 170 00:38 09.04.2021
523 Clouds 2 1019 64 10000 2.57 180 00:20 09.04.2021
524 Clouds 3 1019 56 10000 2.57 180 23:32 08.04.2021
525 Clouds 3 1020 52 10000 2.57 200 22:51 08.04.2021
526 Clouds 3 1020 56 10000 3.09 210 22:27 08.04.2021
527 Clouds 4 1020 56 10000 3.6 220 21:58 08.04.2021
528 Clouds 4 1020 56 10000 3.6 220 21:40 08.04.2021
529 Clouds 4 1020 56 10000 4.12 220 21:21 08.04.2021
530 Clouds 5 1020 56 10000 4.12 220 20:56 08.04.2021
531 Clouds 5 1020 56 10000 4.12 220 20:35 08.04.2021
532 Clear 5 1021 56 10000 5.14 230 19:58 08.04.2021
533 Clear 5 1021 52 10000 5.14 250 19:27 08.04.2021
534 Clouds 6 1021 52 10000 5.14 240 18:58 08.04.2021
535 Clouds 6 1021 52 10000 5.14 240 18:39 08.04.2021
536 Clear 6 1021 52 10000 5.14 260 18:19 08.04.2021
537 Clear 5 1021 56 10000 6.17 260 17:41 08.04.2021
538 Clouds 5 1021 60 10000 6.17 250 17:19 08.04.2021
539 Clouds 6 1022 52 10000 4.63 270 16:44 08.04.2021
540 Clouds 5 1022 56 10000 6.17 270 16:22 08.04.2021
541 Clouds 6 1022 56 10000 6.17 270 15:45 08.04.2021
542 Clouds 6 1022 60 10000 6.17 250 15:25 08.04.2021
543 Clouds 5 1022 60 10000 6.17 260 14:42 08.04.2021
544 Clouds 5 1022 56 10000 6.69 270 14:21 08.04.2021
545 Rain 5 1022 60 10000 7.72 250 13:48 08.04.2021
546 Clouds 5 1022 60 10000 6.69 280 13:24 08.04.2021
547 Clouds 6 1021 65 10000 6.69 270 12:57 08.04.2021
548 Clouds 6 1021 65 10000 6.69 270 12:33 08.04.2021
549 Clouds 5 1021 75 10000 6.17 270 11:57 08.04.2021
550 Clouds 5 1021 75 10000 6.69 280 11:26 08.04.2021
551 Clouds 4 1021 81 10000 6.69 270 10:55 08.04.2021
552 Clouds 4 1021 75 10000 6.17 270 10:25 08.04.2021
553 Rain 3 1021 87 10000 6.69 270 09:46 08.04.2021
554 Clouds 3 1020 87 10000 6.17 270 09:27 08.04.2021
555 Clouds 2 1020 87 10000 6.17 280 08:44 08.04.2021
556 Clouds 2 1019 86 10000 5.66 280 08:22 08.04.2021
557 Clouds 1 1019 86 10000 5.66 280 07:46 08.04.2021
558 Clouds 0 1018 93 10000 5.14 270 06:46 08.04.2021
559 Clouds 2 1016 87 10000 7.72 270 01:28 08.04.2021
560 Clouds 1 1015 93 10000 6.69 280 00:32 08.04.2021
561 Clouds 2 1015 87 10000 7.2 280 23:50 07.04.2021
562 Clouds 2 1014 87 10000 6.69 280 23:27 07.04.2021
563 Clouds 2 1014 87 10000 6.69 280 22:58 07.04.2021
564 Clouds 2 1014 87 10000 6.69 280 22:39 07.04.2021
565 Clouds 2 1014 87 10000 6.17 280 22:21 07.04.2021
566 Clouds 2 1013 87 10000 5.66 280 21:35 07.04.2021
567 Clouds 2 1013 87 10000 5.66 290 20:59 07.04.2021
568 Clouds 3 1013 87 10000 5.66 290 20:40 07.04.2021
569 Clouds 3 1012 87 10000 7.72 290 20:19 07.04.2021
570 Clouds 3 1012 93 10000 6.69 300 19:41 07.04.2021
571 Clouds 3 1011 93 10000 4.63 270 19:22 07.04.2021
572 Clouds 3 1011 93 10000 6.17 270 18:42 07.04.2021
573 Rain 4 1011 93 10000 6.17 270 18:19 07.04.2021
574 Rain 4 1011 93 10000 6.17 280 17:50 07.04.2021
575 Rain 4 1011 93 10000 6.17 280 17:32 07.04.2021
576 Rain 4 1010 81 10000 6.17 270 16:47 07.04.2021
577 Clouds 5 1010 81 10000 6.17 260 16:22 07.04.2021
578 Clouds 5 1010 75 10000 7.2 250 15:56 07.04.2021
579 Rain 5 1010 75 10000 7.2 250 15:38 07.04.2021
580 Clouds 5 1011 70 10000 6.69 250 14:52 07.04.2021
581 Clouds 4 1011 70 10000 6.17 260 14:25 07.04.2021
582 Clouds 3 1011 75 10000 6.69 250 13:47 07.04.2021
583 Clouds 3 1011 81 10000 6.69 250 13:23 07.04.2021
584 Clouds 3 1010 75 10000 7.2 250 12:50 07.04.2021
585 Clouds 3 1010 80 10000 7.2 250 12:24 07.04.2021
586 Clouds 3 1010 80 10000 6.17 250 11:48 07.04.2021
587 Clouds 3 1010 75 10000 7.72 260 11:25 07.04.2021
588 Clouds 2 1010 80 10000 7.2 260 10:52 07.04.2021
589 Clouds 2 1010 80 10000 7.2 250 10:19 07.04.2021
590 Clouds 1 1010 80 10000 6.69 250 09:40 07.04.2021
591 Clouds 1 1010 80 10000 6.69 260 09:21 07.04.2021
592 Clouds 0 1010 86 10000 6.69 250 08:41 07.04.2021
593 Clouds 0 1009 86 10000 6.17 260 08:18 07.04.2021
594 Clouds -1 1009 93 10000 5.14 260 07:42 07.04.2021
595 Clouds 0 1009 86 10000 4.63 260 07:21 07.04.2021
596 Clouds 0 1008 93 10000 5.66 270 06:24 07.04.2021
597 Clouds 0 1008 100 10000 5.14 290 04:23 07.04.2021
598 Snow 0 1007 100 4300 4.63 280 00:21 07.04.2021
599 Snow 0 1006 100 9000 5.14 270 23:46 06.04.2021
600 Snow 1 1006 100 6000 4.63 280 23:21 06.04.2021
601 Snow 1 1006 86 10000 5.66 270 22:40 06.04.2021
602 Clouds 1 1006 86 10000 5.14 260 22:19 06.04.2021
603 Clouds 0 1006 93 10000 5.14 260 21:41 06.04.2021
604 Clouds 1 1006 86 10000 4.63 260 21:22 06.04.2021
605 Clouds 1 1006 86 10000 4.12 270 20:54 06.04.2021
606 Clouds 1 1006 100 10000 5.14 280 20:24 06.04.2021
607 Clouds 1 1005 100 10000 5.14 270 19:56 06.04.2021
608 Clouds 1 1005 100 10000 5.14 270 19:34 06.04.2021
609 Clouds 2 1006 93 1200 5.66 300 18:57 06.04.2021
610 Snow 2 1006 93 1200 5.66 300 18:39 06.04.2021
611 Rain 3 1005 75 10000 5.66 320 18:19 06.04.2021
612 Clouds 4 1005 65 10000 8.75 270 17:41 06.04.2021
613 Clouds 4 1005 52 10000 9.77 280 17:18 06.04.2021
614 Clouds 5 1005 60 10000 8.75 270 16:46 06.04.2021
615 Clouds 5 1005 65 10000 8.75 280 16:26 06.04.2021
616 Rain 5 1006 87 10000 6.69 300 15:26 06.04.2021
617 Rain 5 1005 56 10000 8.75 270 14:45 06.04.2021
618 Rain 5 1005 56 10000 8.75 270 14:45 06.04.2021
619 Clouds 5 1006 65 10000 7.2 280 14:24 06.04.2021
620 Clouds 5 1006 60 10000 7.72 280 13:47 06.04.2021
621 Clouds 4 1006 65 10000 7.2 280 13:26 06.04.2021
622 Clouds 4 1007 65 10000 7.72 280 12:55 06.04.2021
623 Clouds 4 1007 65 10000 7.72 280 12:36 06.04.2021
624 Clouds 4 1007 65 10000 8.23 280 12:18 06.04.2021
625 Clouds 4 1007 75 10000 6.69 280 11:43 06.04.2021
626 Clouds 3 1007 75 10000 7.2 280 11:19 06.04.2021
627 Clouds 2 1007 86 10000 5.66 280 10:43 06.04.2021
628 Snow 2 1007 93 10000 5.66 280 10:22 06.04.2021
629 Clouds 1 1007 100 10000 5.66 280 09:45 06.04.2021
630 Clouds 1 1007 100 10000 4.12 280 09:25 06.04.2021
631 Clouds 0 1007 93 10000 3.6 270 08:34 06.04.2021
632 Snow -1 1006 93 10000 5.66 270 07:32 06.04.2021
633 Clouds -1 1006 100 10000 3.6 260 06:54 06.04.2021
634 Clouds -1 1006 100 10000 2.57 270 04:53 06.04.2021
635 Clouds -1 1007 86 10000 4.63 260 01:34 06.04.2021
636 Clouds -1 1007 86 10000 4.63 250 00:42 06.04.2021
637 Clouds -1 1007 86 10000 5.66 260 00:20 06.04.2021
638 Clouds -1 1007 86 10000 5.14 270 23:42 05.04.2021
639 Clouds -1 1007 86 10000 5.66 270 23:18 05.04.2021
640 Clouds 0 1007 80 10000 6.69 270 22:43 05.04.2021
641 Clouds 0 1007 74 10000 7.2 270 22:24 05.04.2021
642 Clouds 0 1007 74 10000 6.69 270 21:39 05.04.2021
643 Clouds 0 1006 74 10000 6.17 260 21:20 05.04.2021
644 Clouds 0 1006 74 10000 6.69 280 20:42 05.04.2021
645 Clear 0 1006 69 10000 7.2 280 20:23 05.04.2021
646 Clear 1 1005 75 10000 6.17 270 19:39 05.04.2021
647 Snow 1 1005 80 10000 6.17 280 19:19 05.04.2021
648 Snow 1 1005 80 10000 6.17 280 19:19 05.04.2021
649 Snow 1 1005 86 4000 6.69 300 18:43 05.04.2021
650 Snow 2 1005 64 3000 7.72 330 18:25 05.04.2021
651 Rain 3 1004 45 10000 10.29 300 17:55 05.04.2021
652 Clouds 4 1004 45 10000 10.29 300 17:36 05.04.2021
653 Clouds 4 1004 48 10000 8.75 300 17:18 05.04.2021
654 Clouds 4 1004 60 10000 7.2 290 16:39 05.04.2021
655 Clouds 4 1003 100 10000 7.2 290 16:19 05.04.2021
656 Clouds 3 1003 74 10000 5.36 282 15:48 05.04.2021
657 Clouds 2 1003 65 10000 6.69 290 15:27 05.04.2021
658 Clouds 2 1003 100 10000 7.2 310 14:36 05.04.2021
659 Clouds 2 1002 86 10000 7.2 310 13:59 05.04.2021
660 Clouds 2 1002 87 9000 6.69 300 13:31 05.04.2021
661 Snow 2 1001 81 3000 7.2 300 12:48 05.04.2021
662 Rain 3 1001 93 10000 6.69 300 12:26 05.04.2021
663 Clouds 3 1001 93 10000 5.66 300 11:54 05.04.2021
664 Rain 3 1001 93 10000 5.66 300 11:33 05.04.2021
665 Rain 3 1000 100 10000 4.63 300 10:59 05.04.2021
666 Rain 2 1000 100 10000 4.63 300 10:40 05.04.2021
667 Snow 2 1000 93 5000 6.69 320 10:19 05.04.2021
668 Rain 5 999 93 5000 9.26 260 09:45 05.04.2021
669 Rain 6 999 87 8000 8.75 250 09:22 05.04.2021
670 Rain 6 999 81 9000 9.77 250 08:40 05.04.2021
671 Rain 6 1000 75 10000 9.77 250 08:20 05.04.2021
672 Clouds 6 1000 75 10000 9.77 250 07:35 05.04.2021
673 Clouds 5 1005 75 10000 5.14 240 04:23 05.04.2021
674 Clouds 4 1009 75 10000 4.63 240 01:35 05.04.2021
675 Clouds 5 1012 70 10000 6.17 250 00:29 05.04.2021
676 Clouds 5 1013 70 10000 6.17 250 23:43 04.04.2021
677 Clouds 5 1013 70 10000 6.17 250 23:23 04.04.2021
678 Clouds 6 1014 65 10000 5.66 260 22:50 04.04.2021
679 Clouds 6 1015 65 10000 6.69 260 22:28 04.04.2021
680 Clouds 6 1016 70 10000 5.14 270 21:26 04.04.2021
681 Clouds 6 1016 70 10000 5.66 270 20:56 04.04.2021
682 Clouds 6 1017 70 10000 6.17 270 20:29 04.04.2021
683 Clouds 7 1017 65 10000 6.17 270 19:54 04.04.2021
684 Clouds 7 1017 65 10000 6.17 270 19:36 04.04.2021
685 Clouds 7 1017 70 10000 6.69 270 19:18 04.04.2021
686 Clouds 7 1018 70 10000 6.69 270 18:41 04.04.2021
687 Clouds 7 1018 65 10000 5.66 270 18:20 04.04.2021
688 Clouds 6 1019 75 10000 6.17 280 17:41 04.04.2021
689 Clouds 7 1019 70 10000 5.66 270 17:22 04.04.2021
690 Clouds 7 1020 70 10000 5.14 270 16:43 04.04.2021
691 Clouds 7 1020 75 10000 4.63 280 16:18 04.04.2021
692 Clouds 6 1021 75 10000 5.66 280 15:34 04.04.2021
693 Clouds 7 1021 70 10000 5.14 290 14:46 04.04.2021
694 Clouds 7 1022 65 10000 5.14 280 14:27 04.04.2021
695 Clouds 7 1022 65 10000 5.14 270 13:50 04.04.2021
696 Clouds 7 1022 61 10000 5.66 270 13:24 04.04.2021
697 Clouds 6 1023 61 10000 6.17 270 12:43 04.04.2021
698 Clouds 6 1023 61 10000 5.66 290 12:24 04.04.2021
699 Clouds 6 1023 61 10000 5.14 290 11:42 04.04.2021
700 Clouds 6 1023 65 10000 4.63 290 11:23 04.04.2021
701 Clouds 6 1023 65 10000 5.14 290 10:44 04.04.2021
702 Clouds 6 1023 75 10000 4.12 290 09:55 04.04.2021
703 Clouds 5 1023 81 10000 3.6 280 09:26 04.04.2021
704 Clouds 5 1023 87 10000 3.09 270 08:55 04.04.2021
705 Clouds 4 1023 80 10000 2.24 0 08:37 04.04.2021
706 Clouds 4 1023 87 10000 3.09 270 08:19 04.04.2021
707 Clouds 2 1023 93 10000 2.57 280 06:38 04.04.2021
708 Clouds 1 1024 100 10000 1.54 280 05:33 04.04.2021
709 Clouds 4 1025 65 10000 1.03 260 01:30 04.04.2021
710 Clouds 4 1025 56 10000 0.56 124 00:22 04.04.2021
711 Clouds 4 1025 52 10000 0.51 0 23:51 03.04.2021
712 Clouds 4 1025 52 10000 0.51 0 23:32 03.04.2021
713 Clouds 4 1024 52 10000 1.03 0 22:53 03.04.2021
714 Clouds 5 1024 56 10000 1.54 90 22:22 03.04.2021
715 Clouds 6 1024 53 10000 2.06 340 21:56 03.04.2021
716 Clouds 7 1024 53 10000 2.06 340 21:38 03.04.2021
717 Clouds 7 1023 49 10000 2.06 310 21:18 03.04.2021
718 Clear 9 1023 40 10000 2.57 350 20:30 03.04.2021
719 Clear 10 1023 37 10000 4.12 340 19:52 03.04.2021
720 Clear 10 1023 37 10000 4.12 340 19:34 03.04.2021
721 Clear 11 1023 35 10000 4.12 330 18:57 03.04.2021
722 Clear 11 1023 35 10000 4.12 330 18:36 03.04.2021
723 Clear 11 1023 32 10000 5.66 330 17:58 03.04.2021
724 Clear 12 1023 32 10000 5.14 330 17:28 03.04.2021
725 Clear 12 1023 35 10000 4.63 340 16:58 03.04.2021
726 Clear 11 1023 35 10000 4.63 340 16:32 03.04.2021
727 Clear 11 1024 32 10000 4.63 350 15:57 03.04.2021
728 Clear 12 1024 32 10000 4.63 350 15:39 03.04.2021
729 Clear 11 1024 32 10000 5.14 360 15:18 03.04.2021
730 Clear 11 1024 32 10000 5.66 330 14:37 03.04.2021
731 Clear 11 1024 35 10000 5.14 0 14:19 03.04.2021
732 Clear 11 1024 43 10000 5.14 330 13:42 03.04.2021
733 Clouds 11 1024 43 10000 4.63 340 13:20 03.04.2021
734 Clouds 9 1024 53 10000 4.12 330 12:47 03.04.2021
735 Clouds 10 1024 57 10000 3.6 310 12:20 03.04.2021
736 Clouds 9 1024 66 10000 4.12 260 11:35 03.04.2021
737 Clear 7 1024 75 10000 3.6 270 10:50 03.04.2021
738 Clouds 6 1024 87 10000 3.09 290 10:31 03.04.2021
739 Clouds 5 1024 87 10000 2.57 280 09:54 03.04.2021
740 Clouds 4 1024 93 10000 3.09 290 09:28 03.04.2021
741 Clouds 3 1023 93 10000 3.09 300 08:47 03.04.2021
742 Clouds 2 1023 93 10000 3.09 290 08:28 03.04.2021
743 Clouds 1 1022 93 10000 2.57 290 07:28 03.04.2021
744 Clouds 1 1022 93 10000 2.57 280 06:39 03.04.2021
745 Clouds 3 1021 87 10000 3.6 300 03:52 03.04.2021
746 Clouds 4 1021 87 10000 4.12 310 02:51 03.04.2021
747 Clouds 4 1021 87 10000 4.12 300 02:25 03.04.2021
748 Clouds 5 1020 81 10000 5.66 300 00:21 03.04.2021
749 Clouds 5 1020 81 10000 5.66 310 23:49 02.04.2021
750 Clouds 5 1020 81 10000 5.66 300 23:24 02.04.2021
751 Clouds 5 1020 81 10000 5.66 300 22:55 02.04.2021
752 Clouds 5 1020 81 10000 5.66 300 22:36 02.04.2021
753 Clouds 6 1020 75 10000 6.17 300 21:46 02.04.2021
754 Clouds 6 1020 81 10000 5.14 300 21:26 02.04.2021
755 Clouds 6 1020 70 10000 5.66 310 20:53 02.04.2021
756 Clouds 6 1020 70 10000 5.66 310 20:34 02.04.2021
757 Clouds 7 1020 61 10000 7.2 300 19:59 02.04.2021
758 Clouds 7 1020 61 10000 7.2 300 19:39 02.04.2021
759 Clouds 7 1020 57 10000 6.69 300 19:21 02.04.2021
760 Clouds 7 1020 57 10000 7.2 300 18:41 02.04.2021
761 Clouds 7 1020 57 10000 7.2 300 18:41 02.04.2021
762 Clouds 8 1020 57 10000 7.72 300 18:21 02.04.2021
763 Clouds 8 1020 61 10000 7.2 300 17:40 02.04.2021
764 Clouds 8 1020 65 10000 6.69 290 17:18 02.04.2021
765 Clouds 9 1021 65 10000 7.2 300 16:23 02.04.2021
766 Clouds 9 1021 61 10000 7.2 290 15:42 02.04.2021
767 Clouds 9 1021 65 10000 7.2 300 14:57 02.04.2021
768 Clouds 9 1021 65 10000 7.2 300 14:33 02.04.2021
769 Clouds 9 1022 65 10000 7.2 290 13:47 02.04.2021
770 Clouds 9 1022 70 10000 5.66 280 13:27 02.04.2021
771 Clouds 9 1022 65 10000 5.14 300 12:47 02.04.2021
772 Clouds 9 1022 66 10000 4.12 310 12:20 02.04.2021
773 Clouds 8 1023 65 10000 3.6 320 11:58 02.04.2021
774 Clouds 7 1023 70 10000 4.12 300 11:21 02.04.2021
775 Clouds 6 1023 75 10000 3.6 320 10:51 02.04.2021
776 Clouds 6 1023 75 10000 3.6 320 10:33 02.04.2021
777 Clouds 6 1023 75 10000 3.6 280 09:57 02.04.2021
778 Clouds 6 1023 75 10000 3.6 280 09:37 02.04.2021
779 Clouds 6 1023 70 10000 3.09 290 09:18 02.04.2021
780 Clouds 6 1023 75 10000 3.6 310 08:44 02.04.2021
781 Clouds 5 1023 81 10000 2.57 290 08:22 02.04.2021
782 Clouds 5 1023 81 10000 2.06 310 07:20 02.04.2021
783 Clouds 5 1023 81 10000 1.03 0 06:31 02.04.2021
784 Clouds 5 1023 87 10000 2.57 10 03:24 02.04.2021
785 Clouds 6 1023 87 10000 2.57 10 01:31 02.04.2021
786 Clouds 7 1023 81 10000 3.09 360 00:38 02.04.2021
787 Clouds 8 1022 76 10000 2.57 340 23:43 01.04.2021
788 Clouds 8 1022 70 10000 4.12 330 23:25 01.04.2021
789 Clouds 7 1022 70 10000 2.57 330 22:22 01.04.2021
790 Clouds 7 1022 75 10000 3.09 330 21:59 01.04.2021
791 Clouds 7 1022 75 10000 3.09 330 21:40 01.04.2021
792 Clouds 7 1022 70 10000 3.09 360 21:20 01.04.2021
793 Clouds 7 1021 76 10000 3.6 10 20:39 01.04.2021
794 Clouds 8 1021 71 10000 3.09 0 20:21 01.04.2021
795 Clouds 10 1020 66 10000 3.6 20 19:40 01.04.2021
796 Clouds 12 1019 50 10000 4.63 310 18:59 01.04.2021
797 Clouds 12 1019 50 10000 4.63 310 18:41 01.04.2021
798 Clouds 12 1019 54 10000 6.17 330 18:18 01.04.2021
799 Clouds 12 1019 66 10000 5.14 350 17:39 01.04.2021
800 Clouds 14 1019 58 10000 7.2 310 17:20 01.04.2021
801 Clouds 14 1018 58 10000 5.66 340 16:47 01.04.2021
802 Clouds 16 1018 51 10000 6.69 310 16:18 01.04.2021
803 Clouds 17 1018 59 10000 5.66 310 15:39 01.04.2021
804 Clouds 17 1018 55 10000 6.69 310 15:19 01.04.2021
805 Clear 17 1018 45 10000 6.69 320 14:39 01.04.2021
806 Clear 17 1017 42 10000 6.69 310 14:20 01.04.2021
807 Clear 17 1017 42 10000 6.69 310 14:20 01.04.2021
808 Clear 18 1017 39 10000 5.66 300 13:49 01.04.2021
809 Clear 18 1017 42 10000 6.17 300 13:28 01.04.2021
810 Clear 17 1017 42 10000 5.14 280 12:47 01.04.2021
811 Clear 18 1017 45 10000 3.6 280 12:29 01.04.2021
812 Clear 17 1017 48 10000 4.12 280 11:45 01.04.2021
813 Clear 16 1017 54 10000 3.6 270 11:24 01.04.2021
814 Clear 14 1018 62 10000 2.57 260 10:50 01.04.2021
815 Clear 14 1018 62 10000 2.57 260 10:31 01.04.2021
816 Clear 13 1017 62 10000 2.06 280 09:53 01.04.2021
817 Clear 13 1017 66 10000 2.06 270 09:24 01.04.2021
818 Clear 12 1017 71 10000 1.54 290 08:33 01.04.2021
819 Clear 10 1017 71 10000 2.71 265 07:52 01.04.2021
820 Clear 11 1017 62 10000 1.03 300 07:18 01.04.2021
821 Clouds 11 1017 71 10000 3.09 287 06:31 01.04.2021
822 Clouds 11 1018 58 10000 2.42 264 03:30 01.04.2021
823 Clear 11 1018 57 10000 2.2 258 00:49 01.04.2021
824 Clear 12 1018 54 10000 1.79 255 23:44 31.03.2021
825 Clear 12 1019 47 10000 1.51 241 23:18 31.03.2021
826 Clear 14 1019 41 10000 1.51 241 22:41 31.03.2021
827 Clear 15 1019 36 10000 1.33 242 22:20 31.03.2021
828 Clear 15 1019 38 10000 1.33 242 21:45 31.03.2021
829 Clear 15 1019 38 10000 0.51 0 21:23 31.03.2021
830 Clear 16 1019 34 10000 0.51 0 20:56 31.03.2021
831 Clear 16 1019 34 10000 0.51 0 20:38 31.03.2021
832 Clear 18 1019 26 10000 1.54 320 20:18 31.03.2021
833 Clear 20 1019 28 10000 3.09 300 19:38 31.03.2021
834 Clear 20 1019 26 10000 2.57 280 19:18 31.03.2021
835 Clear 21 1019 25 10000 4.12 280 18:49 31.03.2021
836 Clear 23 1019 20 10000 3.09 260 17:58 31.03.2021
837 Clear 23 1019 20 10000 3.09 260 17:36 31.03.2021
838 Clear 24 1020 20 10000 3.6 270 17:18 31.03.2021
839 Clear 23 1020 20 10000 4.12 250 16:42 31.03.2021
840 Clear 24 1020 19 10000 4.12 220 16:22 31.03.2021
841 Clear 24 1021 22 10000 4.12 250 15:50 31.03.2021
842 Clear 24 1021 21 10000 5.14 260 15:19 31.03.2021
843 Clear 24 1021 21 10000 5.14 270 14:44 31.03.2021
844 Clear 23 1022 21 10000 4.63 250 14:24 31.03.2021
845 Clear 23 1022 26 10000 3.6 260 13:42 31.03.2021
846 Clear 23 1022 26 10000 3.6 250 13:18 31.03.2021
847 Clear 21 1023 26 10000 3.09 220 12:36 31.03.2021
848 Clear 21 1023 26 10000 3.09 220 12:18 31.03.2021
849 Clear 19 1024 34 10000 2.06 170 11:22 31.03.2021
850 Clear 18 1024 39 10000 2.57 160 10:47 31.03.2021
851 Clouds 16 1024 47 10000 1.54 150 10:26 31.03.2021
852 Clear 13 1024 54 10000 1.03 110 09:45 31.03.2021
853 Clear 10 1024 66 10000 1.54 100 09:26 31.03.2021
854 Clear 5 1024 75 10000 1.54 100 08:41 31.03.2021
855 Clear 6 1024 75 10000 2.06 100 08:21 31.03.2021
856 Clear 4 1025 70 10000 2.06 90 07:19 31.03.2021
857 Clouds 6 1026 70 10000 2.06 90 04:34 31.03.2021
858 Clouds 8 1027 65 10000 1.54 90 02:32 31.03.2021
859 Clouds 9 1028 46 10000 0.51 0 00:54 31.03.2021
860 Clouds 9 1028 57 10000 1.53 156 00:22 31.03.2021
861 Clouds 9 1028 57 10000 1.03 100 23:54 30.03.2021
862 Clouds 10 1028 46 10000 1.54 100 23:22 30.03.2021
863 Clouds 11 1028 40 10000 1.54 110 22:49 30.03.2021
864 Clouds 11 1028 40 10000 1.54 110 22:49 30.03.2021
865 Clouds 12 1028 28 10000 0.96 139 22:30 30.03.2021
866 Clouds 12 1028 28 10000 0.2 136 21:56 30.03.2021
867 Clouds 14 1028 25 10000 0.84 331 21:29 30.03.2021
868 Clouds 14 1028 23 10000 1.03 0 20:58 30.03.2021
869 Clear 14 1028 24 10000 2.06 280 20:30 30.03.2021
870 Clear 17 1028 26 10000 2.57 270 19:56 30.03.2021
871 Clear 18 1028 26 10000 2.57 270 19:37 30.03.2021
872 Clear 19 1028 26 10000 3.09 260 18:55 30.03.2021
873 Clear 20 1029 26 10000 3.6 260 18:26 30.03.2021
874 Clear 20 1029 30 10000 3.6 270 17:45 30.03.2021
875 Clear 20 1029 26 10000 4.12 250 17:26 30.03.2021
876 Clear 20 1029 30 10000 4.63 250 16:47 30.03.2021
877 Clear 20 1030 35 10000 4.12 270 16:27 30.03.2021
878 Clear 20 1030 35 10000 4.12 270 15:38 30.03.2021
879 Clear 20 1030 34 10000 4.63 260 15:19 30.03.2021
880 Clear 20 1030 40 10000 4.63 290 14:45 30.03.2021
881 Clear 19 1030 42 10000 4.63 280 14:20 30.03.2021
882 Clear 19 1031 42 10000 4.63 290 13:49 30.03.2021
883 Clear 18 1031 39 10000 5.14 260 13:24 30.03.2021
884 Clear 18 1031 42 10000 4.12 270 12:41 30.03.2021
885 Clear 18 1031 42 10000 4.12 270 12:41 30.03.2021
886 Clear 18 1031 42 10000 4.12 270 12:41 30.03.2021
887 Clear 17 1031 42 10000 4.12 260 12:21 30.03.2021
888 Clear 18 1031 42 10000 4.12 260 11:47 30.03.2021
889 Clear 16 1031 41 10000 4.12 260 11:19 30.03.2021
890 Clear 15 1031 41 10000 4.63 240 10:42 30.03.2021
891 Clear 15 1031 41 10000 4.63 240 10:19 30.03.2021
892 Clear 14 1031 41 10000 4.12 250 09:41 30.03.2021
893 Clear 13 1031 44 10000 2.57 240 09:21 30.03.2021
894 Clear 11 1031 47 10000 2.57 260 08:43 30.03.2021
895 Clear 10 1030 53 10000 2.57 260 08:21 30.03.2021
896 Clear 8 1030 49 10000 1.03 0 07:42 30.03.2021
897 Clear 8 1030 46 10000 1.54 250 06:53 30.03.2021
898 Clear 8 1030 46 10000 1.03 0 05:25 30.03.2021
899 Clear 10 1029 43 10000 3.09 260 02:32 30.03.2021
900 Clouds 11 1029 44 10000 2.06 260 23:56 29.03.2021
901 Clouds 12 1029 44 10000 2.06 260 23:27 29.03.2021
902 Clouds 13 1029 44 10000 3.09 270 22:43 29.03.2021
903 Clouds 13 1028 47 10000 3.09 260 21:59 29.03.2021
904 Clouds 13 1028 47 10000 3.09 260 21:37 29.03.2021
905 Clouds 14 1028 47 10000 3.09 270 20:59 29.03.2021
906 Clouds 14 1028 47 10000 3.09 270 20:37 29.03.2021
907 Clear 17 1027 34 10000 5.14 260 19:57 29.03.2021
908 Clear 18 1027 34 10000 5.14 260 19:34 29.03.2021
909 Clear 18 1027 34 10000 6.69 260 18:58 29.03.2021
910 Clear 18 1027 34 10000 6.69 260 18:39 29.03.2021
911 Clear 19 1027 32 10000 7.2 260 18:20 29.03.2021
912 Clear 19 1027 32 10000 7.2 260 18:20 29.03.2021
913 Clear 19 1027 32 10000 8.23 260 17:39 29.03.2021
914 Clear 19 1027 34 10000 8.75 270 16:59 29.03.2021
915 Clear 19 1027 34 10000 8.75 270 16:35 29.03.2021
916 Clear 19 1027 34 10000 8.23 260 15:52 29.03.2021
917 Clear 19 1027 34 10000 8.23 260 15:34 29.03.2021
918 Clear 18 1027 34 10000 9.26 260 14:55 29.03.2021
919 Clear 18 1027 34 10000 9.26 260 14:33 29.03.2021
920 Clear 18 1027 36 10000 8.23 270 13:52 29.03.2021
921 Clear 17 1027 39 10000 8.23 260 13:26 29.03.2021
922 Clear 17 1027 44 10000 8.75 250 12:50 29.03.2021
923 Clear 16 1027 47 10000 7.72 240 12:21 29.03.2021
924 Clear 14 1026 51 10000 7.2 240 11:40 29.03.2021
925 Clear 13 1026 54 10000 5.66 240 11:22 29.03.2021
926 Clear 13 1026 54 10000 5.66 240 11:22 29.03.2021
927 Clear 12 1026 54 10000 5.66 230 10:36 29.03.2021
928 Clear 11 1026 58 10000 6.17 240 09:48 29.03.2021
929 Clear 11 1026 58 10000 5.14 230 08:59 29.03.2021
930 Clear 10 1026 54 10000 5.14 230 08:28 29.03.2021
931 Clear 10 1026 57 10000 4.12 220 07:41 29.03.2021
932 Clouds 10 1025 62 10000 4.12 230 06:42 29.03.2021
933 Clouds 11 1026 62 10000 4.12 250 04:22 29.03.2021
934 Clouds 11 1026 62 10000 4.12 240 02:21 29.03.2021
935 Clouds 11 1026 62 10000 4.12 240 00:24 29.03.2021
936 Clouds 11 1026 62 10000 5.14 240 23:51 28.03.2021
937 Clouds 11 1025 62 10000 5.14 240 23:20 28.03.2021
938 Clouds 11 1026 62 10000 4.63 240 22:42 28.03.2021
939 Clouds 11 1025 62 10000 5.14 240 22:23 28.03.2021
940 Clouds 11 1025 62 10000 5.14 250 21:45 28.03.2021
941 Clouds 11 1025 58 10000 6.17 250 21:24 28.03.2021
942 Clouds 11 1025 58 10000 6.17 240 20:51 28.03.2021
943 Clouds 11 1025 58 10000 6.17 240 20:33 28.03.2021
944 Rain 11 1025 62 10000 3.6 260 19:47 28.03.2021
945 Clouds 11 1025 58 10000 5.66 250 19:25 28.03.2021
946 Rain 11 1025 58 10000 5.14 270 18:59 28.03.2021
947 Rain 11 1025 58 10000 5.14 270 18:36 28.03.2021
948 Rain 12 1025 50 10000 9.26 250 17:56 28.03.2021
949 Rain 12 1025 50 10000 9.26 250 17:36 28.03.2021
950 Rain 12 1024 47 10000 7.2 250 16:55 28.03.2021
951 Rain 13 1024 44 10000 8.75 250 16:27 28.03.2021
952 Clouds 13 1025 44 10000 8.75 250 15:50 28.03.2021
953 Clouds 13 1025 50 10000 5.66 230 15:24 28.03.2021
954 Clouds 12 1025 54 10000 6.17 230 14:46 28.03.2021
955 Clear 12 1025 54 10000 6.17 230 14:18 28.03.2021
956 Clear 11 1025 57 10000 6.17 220 13:35 28.03.2021
957 Clear 10 1026 61 10000 6.17 230 12:56 28.03.2021
958 Clear 10 1026 61 10000 6.17 230 12:34 28.03.2021
959 Clear 9 1026 66 10000 6.69 230 11:55 28.03.2021
960 Clear 9 1026 66 10000 6.69 230 11:37 28.03.2021
961 Clear 8 1026 65 10000 5.14 230 10:49 28.03.2021
962 Clear 7 1026 61 10000 6.17 230 10:31 28.03.2021
963 Clear 7 1026 65 10000 5.14 220 09:51 28.03.2021
964 Clear 5 1026 70 10000 4.12 220 09:28 28.03.2021
965 Clouds 5 1026 65 10000 4.12 210 08:51 28.03.2021
966 Clouds 5 1026 65 10000 4.12 210 08:33 28.03.2021
967 Clouds 4 1026 65 10000 3.6 210 07:41 28.03.2021
968 Clouds 3 1026 70 10000 3.09 210 06:20 28.03.2021
969 Clouds 2 1026 81 10000 3.09 230 03:50 28.03.2021
970 Clouds 2 1026 87 10000 3.09 230 00:36 28.03.2021
971 Clear 3 1026 87 10000 3.09 230 23:53 27.03.2021
972 Clear 3 1026 87 10000 3.09 230 23:53 27.03.2021
973 Clear 3 1026 87 10000 3.09 230 23:34 27.03.2021
974 Clouds 3 1025 87 10000 5.14 260 22:40 27.03.2021
975 Clouds 3 1025 87 10000 3.6 260 22:22 27.03.2021
976 Clouds 4 1025 87 10000 5.14 250 21:42 27.03.2021
977 Rain 4 1024 93 10000 3.6 250 21:21 27.03.2021
978 Clouds 3 1024 87 10000 3.6 250 20:58 27.03.2021
979 Clouds 3 1024 87 10000 3.6 250 20:37 27.03.2021
980 Clouds 3 1023 93 10000 4.12 250 19:57 27.03.2021
981 Clouds 3 1023 93 10000 4.12 250 19:38 27.03.2021
982 Clouds 3 1023 93 10000 3.6 260 19:20 27.03.2021
983 Clouds 3 1022 87 10000 5.14 260 18:46 27.03.2021
984 Clouds 3 1021 81 10000 10.8 260 18:22 27.03.2021
985 Clouds 5 1021 81 10000 10.8 260 17:36 27.03.2021
986 Rain 6 1020 65 10000 7.72 250 17:18 27.03.2021
987 Clouds 7 1020 81 10000 5.66 260 16:43 27.03.2021
988 Clouds 6 1020 81 10000 5.66 260 16:23 27.03.2021
989 Clouds 6 1020 93 10000 6.17 260 15:45 27.03.2021
990 Clouds 5 1020 93 7000 8.23 280 15:18 27.03.2021
991 Rain 8 1018 61 10000 8.75 250 14:39 27.03.2021
992 Clouds 7 1018 75 10000 7.72 260 13:39 27.03.2021
993 Clouds 6 1018 87 10000 6.69 250 13:19 27.03.2021
994 Clouds 5 1017 93 10000 5.66 280 12:43 27.03.2021
995 Rain 6 1016 65 10000 8.75 240 11:51 27.03.2021
996 Clouds 6 1016 65 10000 8.75 240 11:32 27.03.2021
997 Rain 8 1015 66 10000 8.75 250 10:57 27.03.2021
998 Clouds 8 1015 66 10000 7.72 250 10:38 27.03.2021
999 Clouds 8 1015 75 10000 8.23 260 09:58 27.03.2021
1000 Clouds 6 1014 70 10000 9.77 260 09:21 27.03.2021
1001 Clouds 6 1014 87 10000 7.2 260 08:40 27.03.2021
1002 Clouds 6 1013 93 10000 5.14 250 07:54 27.03.2021
1003 Rain 6 1012 87 10000 7.72 280 07:22 27.03.2021
1004 Rain 6 1012 87 10000 8.23 280 06:43 27.03.2021
1005 Rain 10 1009 54 10000 3.6 170 04:42 27.03.2021
1006 Clouds 9 1011 66 10000 2.06 160 02:58 27.03.2021
1007 Clouds 9 1012 57 10000 3.09 180 00:45 27.03.2021
1008 Clouds 10 1012 54 10000 3.09 170 00:25 27.03.2021
1009 Clouds 10 1012 57 10000 3.09 170 23:38 26.03.2021
1010 Clouds 9 1013 57 10000 1.54 140 22:45 26.03.2021
1011 Clouds 10 1013 53 10000 1.54 150 22:25 26.03.2021
1012 Clouds 10 1014 50 10000 2.06 160 21:25 26.03.2021
1013 Clouds 10 1014 47 10000 2.57 160 20:58 26.03.2021
1014 Clouds 10 1014 47 10000 2.57 160 20:32 26.03.2021
1015 Clear 11 1014 44 10000 2.57 160 19:53 26.03.2021
1016 Clear 11 1014 44 10000 2.57 160 19:35 26.03.2021
1017 Clear 13 1014 38 10000 2.57 190 18:59 26.03.2021
1018 Clear 14 1014 38 10000 2.57 190 18:41 26.03.2021
1019 Clear 14 1015 38 10000 3.6 200 18:18 26.03.2021
1020 Clear 15 1015 36 10000 4.12 210 17:44 26.03.2021
1021 Clear 15 1015 41 10000 4.12 200 16:54 26.03.2021
1022 Clear 15 1016 38 10000 5.66 230 16:31 26.03.2021
1023 Clear 16 1016 39 10000 5.14 210 15:51 26.03.2021
1024 Clear 16 1016 41 10000 5.14 210 14:58 26.03.2021
1025 Clear 15 1017 41 10000 4.12 210 14:23 26.03.2021
1026 Clouds 15 1017 44 10000 4.63 200 13:34 26.03.2021
1027 Clouds 15 1018 51 10000 4.63 210 12:49 26.03.2021
1028 Clouds 14 1019 54 10000 4.63 230 11:58 26.03.2021
1029 Clouds 14 1019 54 10000 4.63 230 11:34 26.03.2021
1030 Clouds 13 1019 62 10000 2.57 220 10:52 26.03.2021
1031 Clouds 13 1019 62 10000 2.57 220 10:33 26.03.2021
1032 Clear 12 1019 71 10000 2.06 190 09:44 26.03.2021
1033 Clouds 10 1019 76 9000 2.57 180 09:22 26.03.2021
1034 Clouds 9 1019 81 8000 2.57 180 08:40 26.03.2021
1035 Clouds 9 1019 93 7000 1.54 100 08:21 26.03.2021
1036 Clouds 7 1019 100 6000 2.27 204 07:23 26.03.2021
1037 Clouds 6 1019 100 3900 2.27 204 06:58 26.03.2021
1038 Clouds 7 1019 100 3900 2.27 204 06:35 26.03.2021
1039 Clouds 6 1019 93 5000 2.39 216 05:31 26.03.2021
1040 Clouds 9 1020 76 6000 1.03 270 02:22 26.03.2021
1041 Clouds 9 1020 76 7000 2.5 240 00:32 26.03.2021
1042 Clouds 9 1020 71 8000 2.48 244 23:44 25.03.2021
1043 Clouds 9 1020 71 8000 2.33 231 23:20 25.03.2021
1044 Clouds 9 1020 71 8000 2.33 231 23:20 25.03.2021
1045 Clouds 9 1020 71 8000 2.33 231 22:37 25.03.2021
1046 Clouds 9 1019 71 9000 1.65 202 21:53 25.03.2021
1047 Clouds 10 1019 62 9000 1.05 253 21:34 25.03.2021
1048 Clouds 10 1019 62 9000 1.05 253 20:47 25.03.2021
1049 Clouds 10 1019 62 9000 1.54 350 20:27 25.03.2021
1050 Clear 11 1019 62 10000 1.9 279 19:50 25.03.2021
1051 Clear 11 1019 62 10000 1.9 279 19:31 25.03.2021
1052 Clear 12 1019 58 10000 1.03 350 18:57 25.03.2021
1053 Clear 12 1019 58 10000 1.03 350 18:39 25.03.2021
1054 Clear 12 1019 58 10000 1.54 340 18:18 25.03.2021
1055 Clouds 13 1018 54 9000 1.54 350 17:37 25.03.2021
1056 Clear 14 1018 51 10000 2.06 310 16:56 25.03.2021
1057 Clear 14 1018 51 10000 2.06 310 16:34 25.03.2021
1058 Clear 14 1019 51 10000 1.54 300 15:49 25.03.2021
1059 Clear 14 1019 51 10000 2.06 330 15:26 25.03.2021
1060 Clear 14 1019 51 10000 2.06 0 14:56 25.03.2021
1061 Clear 14 1019 51 10000 2.06 0 14:38 25.03.2021
1062 Clear 13 1019 50 10000 1.54 250 13:29 25.03.2021
1063 Clear 13 1020 58 10000 2.06 290 12:56 25.03.2021
1064 Clear 13 1020 58 10000 2.06 290 12:36 25.03.2021
1065 Clear 12 1020 54 10000 2.06 260 12:18 25.03.2021
1066 Clear 12 1020 58 10000 2.57 270 11:44 25.03.2021
1067 Clear 12 1020 62 10000 1.54 240 11:25 25.03.2021
1068 Clear 11 1020 62 10000 1.03 0 10:49 25.03.2021
1069 Clouds 10 1020 66 9000 1.54 310 10:21 25.03.2021
1070 Clouds 9 1020 76 8000 0.51 0 09:50 25.03.2021
1071 Clouds 9 1020 76 8000 0.51 0 09:32 25.03.2021
1072 Clouds 6 1020 93 7000 1.29 305 08:37 25.03.2021
1073 Clouds 4 1020 93 5000 1.01 315 07:51 25.03.2021
1074 Clouds 3 1019 100 4500 1.54 280 06:59 25.03.2021
1075 Clouds 3 1019 100 6000 0.51 0 06:24 25.03.2021
1076 Clouds 2 1019 100 4800 1.51 260 05:46 25.03.2021
1077 Clouds 5 1019 87 10000 1.79 250 02:43 25.03.2021
1078 Clear 6 1019 75 10000 2.09 230 00:21 25.03.2021
1079 Clear 6 1019 75 10000 1.54 100 23:50 24.03.2021
1080 Clear 6 1020 75 10000 1.54 90 23:25 24.03.2021
1081 Clouds 6 1020 75 10000 1.54 90 22:43 24.03.2021
1082 Clear 7 1020 66 10000 1.03 90 22:20 24.03.2021
1083 Clear 8 1020 61 10000 2.35 205 21:42 24.03.2021
1084 Clear 8 1020 61 10000 2.18 212 21:21 24.03.2021
1085 Clear 8 1020 66 10000 2.18 212 20:41 24.03.2021
1086 Clear 8 1020 57 10000 1.84 253 20:20 24.03.2021
1087 Clear 9 1020 54 10000 1.54 230 19:39 24.03.2021
1088 Clear 10 1020 54 10000 1.54 230 19:20 24.03.2021
1089 Clear 12 1020 47 10000 2.06 280 18:43 24.03.2021
1090 Clear 12 1020 47 10000 3.09 270 18:20 24.03.2021
1091 Clear 13 1020 41 10000 4.63 270 17:43 24.03.2021
1092 Clear 14 1020 41 10000 4.63 260 17:25 24.03.2021
1093 Clear 15 1020 44 10000 4.63 250 16:51 24.03.2021
1094 Clear 14 1020 47 10000 4.63 240 16:27 24.03.2021
1095 Clear 14 1021 47 10000 4.12 240 15:44 24.03.2021
1096 Clear 14 1021 47 10000 4.63 240 15:25 24.03.2021
1097 Clear 14 1021 47 10000 3.6 250 14:46 24.03.2021
1098 Clear 14 1021 50 10000 4.63 260 14:25 24.03.2021
1099 Clear 14 1021 50 10000 4.63 260 14:25 24.03.2021
1100 Clouds 14 1022 54 10000 4.12 230 13:53 24.03.2021
1101 Clouds 14 1022 54 10000 4.63 250 13:27 24.03.2021
1102 Clouds 12 1022 54 10000 4.63 250 12:42 24.03.2021
1103 Clouds 12 1023 62 10000 4.12 250 12:22 24.03.2021
1104 Clouds 11 1023 62 10000 3.6 240 11:43 24.03.2021
1105 Clouds 10 1023 66 10000 4.12 240 10:58 24.03.2021
1106 Clouds 10 1023 66 10000 4.12 240 10:40 24.03.2021
1107 Clouds 9 1023 66 10000 3.09 240 10:20 24.03.2021
1108 Clouds 9 1023 66 10000 4.12 250 09:51 24.03.2021
1109 Clouds 8 1023 70 10000 2.57 230 09:20 24.03.2021
1110 Clouds 7 1023 70 10000 2.57 220 08:50 24.03.2021
1111 Clouds 6 1023 75 9000 3.09 230 08:26 24.03.2021
1112 Clouds 6 1023 75 8000 2.57 220 07:37 24.03.2021
1113 Clouds 5 1023 81 7000 2.06 230 06:52 24.03.2021
1114 Clouds 5 1023 81 7000 2.57 230 05:30 24.03.2021
1115 Clouds 4 1023 87 8000 2.06 260 00:51 24.03.2021
1116 Clouds 4 1023 93 9000 3 218 23:59 23.03.2021
1117 Clear 3 1023 93 9000 2.99 223 23:22 23.03.2021
1118 Clouds 3 1023 87 10000 2.99 223 22:55 23.03.2021
1119 Clouds 4 1023 87 10000 2.99 223 22:36 23.03.2021
1120 Clouds 4 1023 81 10000 3.05 225 21:54 23.03.2021
1121 Clouds 5 1023 81 10000 3.05 225 21:34 23.03.2021
1122 Clouds 5 1023 75 10000 3.2 238 20:57 23.03.2021
1123 Clouds 6 1023 75 10000 3.2 238 20:39 23.03.2021
1124 Clouds 6 1023 75 10000 3.28 246 20:21 23.03.2021
1125 Clouds 6 1023 70 10000 0.51 240 19:44 23.03.2021
1126 Clouds 6 1023 70 10000 1.54 230 19:23 23.03.2021
1127 Clouds 8 1023 66 10000 2.57 250 18:41 23.03.2021
1128 Clouds 8 1023 61 10000 3.09 250 18:20 23.03.2021
1129 Clouds 9 1023 61 10000 2.57 300 17:44 23.03.2021
1130 Clouds 10 1023 61 10000 4.12 260 17:21 23.03.2021
1131 Clouds 10 1023 61 10000 4.12 260 17:21 23.03.2021
1132 Clouds 10 1023 61 10000 5.14 270 16:26 23.03.2021
1133 Clouds 9 1024 66 10000 4.12 270 15:52 23.03.2021
1134 Clouds 9 1024 66 10000 4.63 250 15:25 23.03.2021
1135 Clouds 8 1024 66 10000 4.12 260 14:49 23.03.2021
1136 Clouds 8 1024 66 10000 3.09 240 14:21 23.03.2021
1137 Clouds 8 1024 66 10000 3.6 260 13:49 23.03.2021
1138 Clouds 8 1024 70 10000 4.63 270 13:25 23.03.2021
1139 Clouds 8 1024 70 10000 4.12 250 12:46 23.03.2021
1140 Clouds 8 1024 70 10000 3.6 270 12:26 23.03.2021
1141 Clouds 7 1024 70 10000 4.12 250 11:51 23.03.2021
1142 Clouds 7 1024 70 10000 4.12 250 11:33 23.03.2021
1143 Clouds 6 1024 81 10000 4.63 270 10:44 23.03.2021
1144 Clouds 6 1024 81 10000 4.12 270 10:22 23.03.2021
1145 Clouds 5 1024 93 10000 3.09 250 09:55 23.03.2021
1146 Clouds 5 1024 93 10000 2.57 250 09:29 23.03.2021
1147 Clouds 4 1024 100 10000 2.57 260 08:57 23.03.2021
1148 Clouds 4 1024 100 10000 2.57 260 08:39 23.03.2021
1149 Clouds 4 1024 100 10000 3.09 280 08:20 23.03.2021
1150 Clouds 4 1024 100 10000 2.57 290 07:28 23.03.2021
1151 Clouds 4 1024 100 10000 3.6 290 06:57 23.03.2021
1152 Clouds 4 1024 100 10000 3.6 290 06:57 23.03.2021
1153 Clouds 4 1024 100 10000 3.09 280 06:22 23.03.2021
1154 Clouds 5 1023 87 10000 4.12 280 03:21 23.03.2021
1155 Clouds 5 1023 75 10000 3.6 310 00:56 23.03.2021
1156 Clouds 5 1023 75 10000 3.6 300 23:33 22.03.2021
1157 Clouds 6 1023 75 10000 3.09 300 22:46 22.03.2021
1158 Clouds 6 1023 75 10000 3.09 300 22:23 22.03.2021
1159 Clouds 6 1023 70 10000 4.12 290 21:57 22.03.2021
1160 Clouds 6 1023 70 10000 4.12 290 21:36 22.03.2021
1161 Clouds 6 1023 70 10000 3.6 310 21:18 22.03.2021
1162 Clouds 6 1023 70 10000 4.63 320 20:38 22.03.2021
1163 Clouds 6 1023 70 10000 3.6 300 20:19 22.03.2021
1164 Clouds 7 1022 65 10000 5.14 310 19:48 22.03.2021
1165 Clouds 7 1022 70 10000 5.66 300 19:29 22.03.2021
1166 Clouds 7 1021 70 10000 6.69 300 18:46 22.03.2021
1167 Clouds 8 1021 66 10000 6.17 300 18:27 22.03.2021
1168 Clouds 8 1021 61 10000 5.66 300 17:57 22.03.2021
1169 Clouds 8 1021 61 10000 5.66 300 17:37 22.03.2021
1170 Clouds 9 1021 57 10000 5.66 300 17:18 22.03.2021
1171 Clouds 9 1021 49 10000 4.12 310 16:43 22.03.2021
1172 Clouds 10 1021 46 10000 5.14 290 15:59 22.03.2021
1173 Clouds 10 1021 46 10000 5.14 290 15:38 22.03.2021
1174 Clouds 10 1021 43 10000 5.14 290 15:18 22.03.2021
1175 Clouds 10 1021 43 10000 3.6 330 14:50 22.03.2021
1176 Clouds 10 1021 43 10000 3.6 330 14:31 22.03.2021
1177 Clouds 9 1021 49 10000 3.09 310 13:47 22.03.2021
1178 Clouds 9 1021 49 10000 3.09 310 13:25 22.03.2021
1179 Clouds 9 1021 53 10000 2.06 0 12:53 22.03.2021
1180 Clouds 9 1021 53 10000 2.06 0 12:24 22.03.2021
1181 Clouds 7 1021 65 10000 2.57 340 11:48 22.03.2021
1182 Clouds 7 1021 65 10000 2.57 340 11:25 22.03.2021
1183 Clouds 6 1021 75 10000 3.6 320 10:44 22.03.2021
1184 Clouds 6 1021 75 10000 4.63 340 10:24 22.03.2021
1185 Clouds 5 1021 87 10000 3.6 330 09:46 22.03.2021
1186 Clouds 4 1020 87 10000 3.09 320 09:26 22.03.2021
1187 Clear 3 1020 93 10000 3.09 310 08:45 22.03.2021
1188 Clear 3 1020 93 10000 3.09 300 08:26 22.03.2021
1189 Clear 2 1020 93 10000 2.57 300 07:50 22.03.2021
1190 Clouds 2 1020 87 10000 3.09 310 07:30 22.03.2021
1191 Clouds 2 1019 87 10000 3.09 310 06:39 22.03.2021
1192 Clouds 3 1019 81 10000 2.57 290 02:47 22.03.2021
1193 Clouds 2 1019 87 10000 2.57 290 00:43 22.03.2021
1194 Clouds 3 1019 87 10000 2.57 280 23:55 21.03.2021
1195 Clouds 3 1019 80 10000 3.09 280 23:20 21.03.2021
1196 Clouds 3 1018 87 10000 2.57 280 22:59 21.03.2021
1197 Clouds 3 1018 87 10000 2.57 280 22:38 21.03.2021
1198 Clouds 4 1018 70 10000 4.63 300 21:43 21.03.2021
1199 Clouds 4 1018 75 10000 4.12 300 21:24 21.03.2021
1200 Clouds 4 1018 75 10000 4.12 300 21:24 21.03.2021
1201 Clouds 4 1018 75 10000 4.63 300 20:56 21.03.2021
1202 Clouds 4 1018 75 10000 4.63 300 20:38 21.03.2021
1203 Clouds 4 1018 70 10000 6.17 300 20:19 21.03.2021
1204 Clouds 5 1017 70 10000 5.66 300 19:39 21.03.2021
1205 Clouds 5 1017 70 10000 6.17 300 19:19 21.03.2021
1206 Clouds 6 1017 65 10000 6.17 300 18:41 21.03.2021
1207 Clouds 6 1016 65 10000 7.2 300 18:18 21.03.2021
1208 Clouds 7 1016 65 10000 6.17 300 17:42 21.03.2021
1209 Clouds 8 1016 61 10000 7.2 290 17:18 21.03.2021
1210 Clouds 8 1016 61 10000 7.72 290 16:49 21.03.2021
1211 Clouds 8 1016 61 10000 7.2 300 16:23 21.03.2021
1212 Clouds 8 1016 61 10000 6.69 300 15:46 21.03.2021
1213 Clouds 8 1016 61 10000 7.2 300 15:21 21.03.2021
1214 Clouds 8 1016 61 10000 7.2 300 14:48 21.03.2021
1215 Clouds 8 1016 61 10000 7.2 300 14:48 21.03.2021
1216 Clouds 8 1016 61 10000 7.2 300 14:27 21.03.2021
1217 Clouds 8 1016 66 10000 6.69 300 13:59 21.03.2021
1218 Clouds 8 1016 66 10000 6.69 300 13:40 21.03.2021
1219 Clouds 7 1016 70 10000 6.69 310 12:45 21.03.2021
1220 Clouds 6 1016 70 10000 6.17 310 12:25 21.03.2021
1221 Clouds 6 1016 70 10000 6.17 310 12:25 21.03.2021
1222 Clouds 6 1016 70 10000 6.17 300 11:42 21.03.2021
1223 Clouds 6 1016 81 10000 6.69 300 11:24 21.03.2021
1224 Clouds 5 1015 75 10000 7.72 300 10:48 21.03.2021
1225 Clouds 5 1015 75 10000 8.23 300 10:29 21.03.2021
1226 Clouds 5 1015 75 10000 7.72 310 09:51 21.03.2021
1227 Clouds 5 1015 75 10000 7.72 310 09:32 21.03.2021
1228 Clouds 5 1015 93 10000 8.23 300 08:59 21.03.2021
1229 Clouds 5 1015 93 10000 8.23 300 08:37 21.03.2021
1230 Clouds 5 1015 100 6000 7.2 290 08:19 21.03.2021
1231 Clouds 5 1015 100 10000 6.69 280 07:29 21.03.2021
1232 Clouds 5 1015 100 7000 7.2 270 06:21 21.03.2021
1233 Clouds 4 1016 100 4300 5.66 270 04:57 21.03.2021
1234 Clouds 4 1019 81 10000 5.66 270 00:58 21.03.2021
1235 Clouds 4 1019 81 10000 5.66 270 00:39 21.03.2021
1236 Clouds 4 1020 75 10000 7.2 260 00:20 21.03.2021
1237 Clouds 4 1020 70 10000 7.2 260 23:46 20.03.2021
1238 Clouds 4 1021 65 10000 6.17 260 23:20 20.03.2021
1239 Clouds 4 1021 56 10000 6.17 260 22:36 20.03.2021
1240 Clouds 4 1021 52 10000 5.66 250 22:18 20.03.2021
1241 Clouds 4 1021 52 10000 5.14 250 21:42 20.03.2021
1242 Clouds 4 1022 52 10000 5.14 250 21:24 20.03.2021
1243 Clouds 4 1022 52 10000 5.14 250 20:42 20.03.2021
1244 Clouds 4 1023 48 10000 5.14 260 20:22 20.03.2021
1245 Clouds 4 1023 45 10000 4.63 250 19:47 20.03.2021
1246 Clouds 4 1023 45 10000 4.12 260 19:26 20.03.2021
1247 Clouds 4 1023 41 10000 4.63 260 18:48 20.03.2021
1248 Clouds 4 1024 41 10000 4.63 260 18:25 20.03.2021
1249 Clouds 4 1024 38 10000 5.14 270 17:53 20.03.2021
1250 Clouds 4 1024 41 10000 5.14 270 17:29 20.03.2021
1251 Clouds 5 1025 41 10000 4.63 270 16:45 20.03.2021
1252 Clear 5 1025 41 10000 5.66 250 16:21 20.03.2021
1253 Clear 5 1026 38 10000 5.14 280 15:59 20.03.2021
1254 Clear 5 1026 38 10000 5.14 280 15:39 20.03.2021
1255 Clear 5 1026 38 10000 6.17 280 14:48 20.03.2021
1256 Clear 5 1027 38 10000 5.66 280 14:28 20.03.2021
1257 Clear 5 1027 35 10000 6.17 250 13:40 20.03.2021
1258 Clear 3 1028 44 10000 4.63 240 12:59 20.03.2021
1259 Clear 3 1029 44 10000 4.12 290 12:27 20.03.2021
1260 Clear 2 1029 51 10000 4.12 280 11:50 20.03.2021
1261 Clear 2 1029 51 10000 3.6 270 11:29 20.03.2021
1262 Clear 2 1029 51 10000 4.12 260 10:56 20.03.2021
1263 Clear 2 1029 51 10000 4.12 260 10:37 20.03.2021
1264 Clear 1 1029 60 10000 3.6 280 10:18 20.03.2021
1265 Clear 0 1029 69 10000 2.06 280 09:29 20.03.2021
1266 Clouds 0 1029 74 10000 1.54 270 08:59 20.03.2021
1267 Clouds -1 1029 74 10000 1.54 270 08:39 20.03.2021
1268 Clouds -2 1029 80 10000 1.03 0 07:54 20.03.2021
1269 Clouds -2 1029 80 10000 1.03 0 07:32 20.03.2021
1270 Clouds -4 1028 93 10000 1.03 270 06:56 20.03.2021
1271 Clouds -4 1029 86 10000 2.06 270 06:27 20.03.2021
1272 Clouds -3 1028 86 10000 1.54 270 04:41 20.03.2021
1273 Clouds -3 1028 80 10000 1.54 350 03:42 20.03.2021
1274 Clouds -3 1029 69 10000 1.03 0 00:42 20.03.2021
1275 Clear -2 1028 69 10000 1.54 70 23:36 19.03.2021
1276 Clear -2 1028 64 10000 3.09 70 23:18 19.03.2021
1277 Clear -1 1028 69 10000 1.54 50 22:42 19.03.2021
1278 Clear -1 1028 69 10000 1.54 40 22:22 19.03.2021
1279 Clear -1 1027 64 10000 2.06 60 21:38 19.03.2021
1280 Clear -1 1027 64 10000 2.06 60 21:38 19.03.2021
1281 Clear 0 1027 64 10000 2.06 70 21:19 19.03.2021
1282 Clouds 0 1027 64 10000 2.57 50 20:44 19.03.2021
1283 Clouds 1 1026 60 10000 3.09 60 20:26 19.03.2021
1284 Clouds 1 1026 69 10000 3.09 70 19:47 19.03.2021
1285 Clouds 2 1026 64 10000 3.09 40 19:22 19.03.2021
1286 Clouds 2 1025 69 10000 2.57 50 18:49 19.03.2021
1287 Clouds 3 1025 65 10000 4.12 10 18:27 19.03.2021
1288 Clouds 3 1024 65 10000 3.6 20 17:58 19.03.2021
1289 Clouds 3 1024 65 10000 3.6 20 17:38 19.03.2021
1290 Clouds 3 1024 65 10000 3.6 20 17:38 19.03.2021
1291 Clouds 4 1024 60 10000 3.6 60 17:18 19.03.2021
1292 Clouds 5 1024 52 10000 3.09 20 16:44 19.03.2021
1293 Clouds 5 1024 60 10000 3.09 360 16:24 19.03.2021
1294 Clouds 5 1024 65 10000 3.6 20 15:34 19.03.2021
1295 Clouds 6 1024 60 10000 4.12 40 14:53 19.03.2021
1296 Clouds 5 1024 60 10000 4.12 40 14:33 19.03.2021
1297 Clouds 6 1024 70 10000 4.12 60 13:50 19.03.2021
1298 Clouds 5 1024 65 10000 3.09 0 13:19 19.03.2021
1299 Clouds 4 1024 75 10000 2.57 30 12:42 19.03.2021
1300 Clouds 4 1023 70 10000 3.09 0 12:18 19.03.2021
1301 Clouds 4 1023 65 10000 2.57 10 11:33 19.03.2021
1302 Clouds 3 1023 81 10000 3.09 340 10:47 19.03.2021
1303 Clouds 3 1023 93 10000 1.03 0 10:23 19.03.2021
1304 Mist 2 1022 100 4100 1.54 0 09:44 19.03.2021
1305 Mist 0 1022 100 5000 2.57 10 09:26 19.03.2021
1306 Clouds 0 1022 100 7000 2.06 20 08:52 19.03.2021
1307 Clouds -1 1022 100 9000 2.06 360 08:29 19.03.2021
1308 Clouds -1 1021 100 9000 2.57 360 07:50 19.03.2021
1309 Clouds -1 1021 100 9000 2.57 360 07:50 19.03.2021
1310 Clouds -2 1021 100 8000 2.06 360 07:31 19.03.2021
1311 Clouds -2 1020 93 10000 2.06 360 05:54 19.03.2021
1312 Clear -1 1019 93 10000 1.03 0 02:36 19.03.2021
1313 Snow 1 1019 100 10000 1.03 0 23:57 18.03.2021
1314 Rain 1 1019 100 10000 1.03 0 23:29 18.03.2021
1315 Rain 1 1018 100 10000 4.89 48 22:57 18.03.2021
1316 Clouds 2 1019 100 10000 3.72 39 22:27 18.03.2021
1317 Clouds 2 1019 100 10000 1.03 340 21:55 18.03.2021
1318 Clouds 2 1019 100 10000 1.03 340 21:36 18.03.2021
1319 Rain 2 1019 100 10000 1.03 0 20:43 18.03.2021
1320 Clouds 2 1019 100 10000 1.03 0 20:23 18.03.2021
1321 Clouds 2 1019 100 9000 1.54 340 19:45 18.03.2021
1322 Clouds 3 1019 100 10000 2.06 320 19:24 18.03.2021
1323 Clouds 3 1019 93 9000 2.57 320 18:53 18.03.2021
1324 Clouds 3 1019 93 9000 2.57 320 18:53 18.03.2021
1325 Clouds 3 1019 87 10000 2.06 300 18:27 18.03.2021
1326 Rain 3 1019 87 10000 1.54 320 17:47 18.03.2021
1327 Rain 3 1020 81 10000 2.57 310 17:25 18.03.2021
1328 Clouds 4 1020 81 10000 2.57 310 16:44 18.03.2021
1329 Clouds 4 1020 81 10000 4.12 300 16:26 18.03.2021
1330 Clouds 4 1021 87 10000 3.6 300 15:45 18.03.2021
1331 Clouds 3 1021 93 10000 3.6 310 15:23 18.03.2021
1332 Clouds 3 1021 100 8000 4.63 300 14:53 18.03.2021
1333 Clouds 3 1021 100 8000 4.63 300 14:32 18.03.2021
1334 Clouds 2 1022 100 5000 4.12 290 13:53 18.03.2021
1335 Mist 3 1022 100 3900 4.12 290 13:26 18.03.2021
1336 Mist 3 1023 93 3500 4.12 290 12:44 18.03.2021
1337 Mist 3 1023 100 3500 3.6 270 12:25 18.03.2021
1338 Mist 2 1023 100 2700 4.12 260 11:52 18.03.2021
1339 Mist 2 1023 100 2700 4.12 260 11:32 18.03.2021
1340 Mist 1 1023 100 1700 4.12 290 10:46 18.03.2021
1341 Fog 2 1023 100 400 3.09 260 10:27 18.03.2021
1342 Fog 2 1023 100 300 2.57 260 09:54 18.03.2021
1343 Fog 1 1023 100 300 2.57 260 09:29 18.03.2021
1344 Clouds 1 1023 100 300 2.57 270 08:50 18.03.2021
1345 Clouds 0 1023 93 300 2.57 260 08:31 18.03.2021
1346 Clouds 0 1024 93 450 1.54 290 07:53 18.03.2021
1347 Clouds -1 1024 100 700 1.54 250 07:25 18.03.2021
1348 Clouds -1 1024 100 3900 2.06 270 06:30 18.03.2021
1349 Clouds -1 1024 100 3900 2.06 270 06:30 18.03.2021
1350 Clouds -1 1024 100 1700 1.03 260 05:55 18.03.2021
1351 Clouds -1 1024 100 3900 1.54 280 03:41 18.03.2021
1352 Clouds -1 1025 100 9000 1.54 310 00:19 18.03.2021
1353 Clouds 0 1025 93 10000 2.06 350 22:59 17.03.2021
1354 Clouds 0 1025 93 10000 2.06 350 22:36 17.03.2021
1355 Clouds 1 1026 87 10000 2.57 350 22:18 17.03.2021
1356 Clouds 1 1025 100 10000 1.54 20 21:47 17.03.2021
1357 Clouds 1 1024 93 10000 1.03 0 21:29 17.03.2021
1358 Clouds 1 1024 93 10000 1.03 0 20:45 17.03.2021
1359 Clear 2 1024 93 10000 1.5 35 20:25 17.03.2021
1360 Clear 2 1024 93 10000 1.5 35 19:54 17.03.2021
1361 Clear 2 1024 93 10000 2.01 13 19:25 17.03.2021
1362 Clear 3 1024 87 10000 2.01 13 18:59 17.03.2021
1363 Clear 3 1024 87 10000 2.14 5 18:40 17.03.2021
1364 Clouds 4 1024 81 10000 1.54 110 17:59 17.03.2021
1365 Rain 4 1024 81 10000 1.54 110 17:32 17.03.2021
1366 Clouds 5 1023 75 10000 2.57 60 16:57 17.03.2021
1367 Rain 6 1023 75 10000 2.57 60 16:38 17.03.2021
1368 Rain 7 1023 53 10000 3.09 280 16:19 17.03.2021
1369 Clouds 7 1023 61 10000 2.57 330 15:40 17.03.2021
1370 Clouds 7 1023 56 10000 1.03 0 14:57 17.03.2021
1371 Clouds 7 1023 56 10000 1.03 0 14:36 17.03.2021
1372 Rain 7 1023 56 10000 2.57 340 14:18 17.03.2021
1373 Rain 7 1023 56 10000 2.57 340 14:18 17.03.2021
1374 Clouds 6 1023 56 10000 3.09 330 13:52 17.03.2021
1375 Clear 6 1023 60 10000 3.09 340 13:22 17.03.2021
1376 Clouds 6 1023 60 10000 3.6 330 12:36 17.03.2021
1377 Clouds 6 1023 56 10000 3.6 320 12:18 17.03.2021
1378 Clouds 5 1023 60 10000 3.09 340 11:38 17.03.2021
1379 Clouds 5 1023 65 10000 2.57 350 11:20 17.03.2021
1380 Clouds 4 1022 65 10000 2.57 330 10:40 17.03.2021
1381 Clouds 4 1022 70 10000 3.09 340 10:22 17.03.2021
1382 Clear 4 1022 70 10000 3.6 330 09:43 17.03.2021
1383 Clear 3 1022 81 10000 3.09 320 09:20 17.03.2021
1384 Clear 2 1022 93 10000 2.57 300 08:46 17.03.2021
1385 Clear 2 1022 93 10000 2.57 310 08:26 17.03.2021
1386 Clouds 2 1022 93 10000 2.57 310 07:39 17.03.2021
1387 Clouds 2 1021 87 10000 3.09 310 06:57 17.03.2021
1388 Clouds 2 1021 87 10000 3.09 310 06:28 17.03.2021
1389 Clouds 1 1021 86 10000 2.06 290 03:32 17.03.2021
1390 Clouds 2 1021 80 10000 2.06 300 02:41 17.03.2021
1391 Clouds 2 1021 87 10000 3.09 300 00:39 17.03.2021
1392 Clouds 3 1021 81 10000 3.09 310 23:27 16.03.2021
1393 Clouds 3 1021 81 10000 2.57 320 22:46 16.03.2021
1394 Clouds 3 1020 75 10000 2.57 320 22:28 16.03.2021
1395 Clouds 4 1020 70 10000 3.09 320 21:45 16.03.2021
1396 Clouds 4 1020 70 10000 2.06 320 21:26 16.03.2021
1397 Clear 4 1020 65 10000 2.57 310 20:58 16.03.2021
1398 Clear 4 1020 60 10000 3.09 320 20:20 16.03.2021
1399 Clouds 4 1020 60 10000 3.6 320 19:52 16.03.2021
1400 Clouds 5 1020 60 10000 3.6 320 19:34 16.03.2021
1401 Clear 6 1020 52 10000 5.14 310 18:58 16.03.2021
1402 Clear 6 1020 52 10000 5.14 310 18:39 16.03.2021
1403 Clear 6 1019 56 10000 3.6 300 18:20 16.03.2021
1404 Clear 7 1019 57 10000 5.66 310 17:45 16.03.2021
1405 Clouds 7 1019 57 10000 4.63 300 17:24 16.03.2021
1406 Clouds 7 1019 57 10000 5.66 300 16:50 16.03.2021
1407 Clouds 7 1019 61 10000 5.14 300 16:26 16.03.2021
1408 Clouds 7 1019 65 10000 5.14 310 15:46 16.03.2021
1409 Clouds 7 1019 70 10000 6.69 290 15:21 16.03.2021
1410 Clouds 7 1019 70 10000 5.66 300 14:58 16.03.2021
1411 Clouds 7 1019 70 10000 5.66 300 14:40 16.03.2021
1412 Clouds 7 1019 70 10000 4.63 300 14:20 16.03.2021
1413 Clouds 7 1019 65 10000 4.63 300 13:47 16.03.2021
1414 Clouds 7 1019 70 10000 5.14 300 13:25 16.03.2021
1415 Clouds 7 1019 65 10000 4.63 300 12:51 16.03.2021
1416 Clouds 7 1019 70 10000 5.66 310 12:33 16.03.2021
1417 Clouds 6 1019 70 10000 5.66 300 11:53 16.03.2021
1418 Clouds 6 1019 75 10000 5.66 300 11:24 16.03.2021
1419 Clouds 5 1019 75 10000 5.14 300 10:28 16.03.2021
1420 Clouds 4 1019 81 10000 5.66 300 09:59 16.03.2021
1421 Clouds 4 1019 81 10000 5.66 300 09:38 16.03.2021
1422 Clouds 4 1018 81 10000 4.12 290 09:18 16.03.2021
1423 Clouds 3 1018 87 10000 4.12 290 08:48 16.03.2021
1424 Clouds 3 1018 87 10000 5.14 290 08:30 16.03.2021
1425 Clouds 3 1018 87 10000 4.63 300 07:36 16.03.2021
1426 Clouds 2 1017 86 10000 2.68 300 06:57 16.03.2021
1427 Clouds 2 1017 93 10000 5.66 300 06:35 16.03.2021
1428 Clouds 2 1016 93 10000 4.12 290 05:35 16.03.2021
1429 Clouds 4 1015 87 10000 5.66 300 02:46 16.03.2021
1430 Clouds 4 1014 81 10000 6.17 300 02:24 16.03.2021
1431 Clouds 4 1013 81 10000 6.69 300 00:25 16.03.2021
1432 Clouds 4 1012 81 10000 5.66 300 23:29 15.03.2021
1433 Clouds 4 1012 81 10000 6.17 300 22:57 15.03.2021
1434 Clouds 4 1012 81 10000 6.17 300 22:38 15.03.2021
1435 Clouds 4 1012 78 10000 6.71 307 22:20 15.03.2021
1436 Clouds 4 1011 78 10000 3.58 306 21:44 15.03.2021
1437 Clouds 4 1011 79 10000 3.58 305 21:26 15.03.2021
1438 Clouds 5 1011 75 10000 5.14 300 20:47 15.03.2021
1439 Clouds 5 1010 75 10000 6.17 310 20:27 15.03.2021
1440 Clouds 5 1010 75 10000 5.66 320 19:57 15.03.2021
1441 Clouds 5 1010 75 10000 5.66 320 19:39 15.03.2021
1442 Clouds 5 1009 70 10000 7.2 310 19:21 15.03.2021
1443 Clouds 6 1009 70 10000 7.2 310 18:41 15.03.2021
1444 Clouds 5 1008 75 10000 7.2 310 18:22 15.03.2021
1445 Clouds 6 1008 75 10000 8.23 310 17:49 15.03.2021
1446 Clouds 6 1007 81 10000 7.2 300 17:22 15.03.2021
1447 Clouds 7 1007 70 10000 9.26 300 16:44 15.03.2021
1448 Clouds 7 1006 76 10000 9.77 290 16:18 15.03.2021
1449 Clouds 7 1006 70 10000 7.72 290 15:39 15.03.2021
1450 Clouds 7 1006 70 10000 8.23 290 15:20 15.03.2021
1451 Clouds 8 1006 71 10000 8.23 290 14:41 15.03.2021
1452 Clouds 8 1006 81 10000 7.72 300 14:20 15.03.2021
1453 Rain 7 1006 81 10000 7.2 280 13:45 15.03.2021
1454 Clouds 7 1006 81 10000 7.2 270 13:24 15.03.2021
1455 Clouds 7 1006 93 10000 6.69 270 12:46 15.03.2021
1456 Clouds 6 1006 87 10000 7.2 260 12:18 15.03.2021
1457 Clouds 6 1006 81 10000 6.69 250 11:46 15.03.2021
1458 Clouds 6 1007 87 10000 5.14 270 11:26 15.03.2021
1459 Clouds 5 1007 87 10000 5.14 270 10:45 15.03.2021
1460 Clouds 5 1007 93 10000 4.63 270 10:26 15.03.2021
1461 Clouds 5 1007 93 10000 4.63 270 10:26 15.03.2021
1462 Clouds 5 1007 93 10000 5.14 270 09:48 15.03.2021
1463 Clouds 4 1007 100 10000 5.14 260 09:30 15.03.2021
1464 Clouds 3 1007 100 10000 4.12 260 08:47 15.03.2021
1465 Clouds 3 1006 93 10000 4.12 240 08:27 15.03.2021
1466 Drizzle 2 1006 100 8000 3.6 250 07:43 15.03.2021
1467 Clouds 3 1006 100 10000 3.6 240 07:24 15.03.2021
1468 Clouds 2 1006 100 10000 3.6 240 06:36 15.03.2021
1469 Clouds 3 1006 93 10000 4.12 240 05:24 15.03.2021
1470 Clouds 3 1008 93 10000 4.12 260 01:25 15.03.2021
1471 Clouds 4 1008 87 10000 4.63 250 23:52 14.03.2021
1472 Clouds 4 1008 93 10000 5.14 260 23:19 14.03.2021
1473 Clouds 4 1009 93 10000 4.12 260 22:42 14.03.2021
1474 Clouds 4 1009 93 10000 3.6 260 22:19 14.03.2021
1475 Clouds 4 1009 93 10000 4.63 260 21:45 14.03.2021
1476 Rain 4 1009 93 10000 4.63 260 21:18 14.03.2021
1477 Rain 4 1009 100 6000 5.14 290 20:43 14.03.2021
1478 Rain 5 1008 93 10000 3.6 250 20:24 14.03.2021
1479 Rain 5 1008 100 10000 4.12 270 19:43 14.03.2021
1480 Clouds 5 1008 100 10000 3.09 290 19:22 14.03.2021
1481 Clouds 5 1008 81 10000 5.66 310 18:47 14.03.2021
1482 Clouds 6 1007 65 10000 7.72 260 18:22 14.03.2021
1483 Clouds 7 1007 65 10000 7.72 250 17:39 14.03.2021
1484 Clouds 8 1007 61 10000 6.69 260 17:20 14.03.2021
1485 Clouds 8 1007 61 10000 6.69 260 16:46 14.03.2021
1486 Clouds 8 1007 61 10000 7.72 260 16:26 14.03.2021
1487 Clouds 9 1007 57 10000 7.72 260 15:52 14.03.2021
1488 Clouds 8 1007 57 10000 7.72 260 15:33 14.03.2021
1489 Clouds 8 1006 61 10000 7.72 270 14:41 14.03.2021
1490 Clouds 8 1006 61 10000 7.72 270 14:20 14.03.2021
1491 Clouds 8 1006 66 10000 8.23 280 13:49 14.03.2021
1492 Clouds 8 1006 70 10000 7.72 280 13:28 14.03.2021
1493 Clouds 7 1006 93 10000 4.12 280 12:46 14.03.2021
1494 Clouds 7 1006 71 10000 7.15 277 12:28 14.03.2021
1495 Clouds 7 1005 75 10000 9.26 270 11:51 14.03.2021
1496 Clouds 6 1005 75 10000 9.26 270 11:33 14.03.2021
1497 Clouds 6 1004 87 10000 8.23 270 10:56 14.03.2021
1498 Clouds 5 1004 93 10000 7.2 270 10:36 14.03.2021
1499 Clouds 5 1004 93 10000 7.2 270 10:18 14.03.2021
1500 Clouds 5 1004 87 10000 7.2 270 09:43 14.03.2021
1501 Rain 5 1003 93 10000 5.66 270 09:22 14.03.2021
1502 Rain 4 1002 93 10000 6.17 280 08:43 14.03.2021
1503 Rain 4 1002 93 10000 7.2 280 08:23 14.03.2021
1504 Rain 4 1001 87 10000 9.26 290 07:46 14.03.2021
1505 Clouds 3 999 93 10000 8.75 280 06:51 14.03.2021
1506 Rain 3 999 93 10000 7.72 280 05:32 14.03.2021
1507 Clouds 5 994 70 10000 11.32 250 00:52 14.03.2021
1508 Clouds 5 994 70 10000 10.29 250 00:19 14.03.2021
1509 Clouds 5 994 70 10000 10.29 250 23:52 13.03.2021
1510 Clouds 5 994 75 10000 10.8 250 23:30 13.03.2021
1511 Clouds 5 994 75 10000 11.32 250 22:54 13.03.2021
1512 Clouds 5 994 75 10000 11.32 250 22:32 13.03.2021
1513 Clouds 5 993 75 10000 10.8 240 21:49 13.03.2021
1514 Clouds 5 993 70 10000 10.29 250 21:27 13.03.2021
1515 Clouds 6 993 70 10000 8.23 240 20:54 13.03.2021
1516 Clouds 6 993 70 10000 8.23 240 20:32 13.03.2021
1517 Clouds 6 992 65 10000 12.86 250 19:56 13.03.2021
1518 Clouds 6 992 65 10000 12.86 250 19:32 13.03.2021
1519 Clouds 7 992 65 10000 7.72 240 18:58 13.03.2021
1520 Clouds 7 992 65 10000 7.72 240 18:40 13.03.2021
1521 Clouds 6 991 75 10000 6.69 230 18:18 13.03.2021
1522 Clear 6 991 75 10000 7.72 230 17:44 13.03.2021
1523 Clouds 6 991 75 10000 10.29 240 17:25 13.03.2021
1524 Clouds 6 992 81 10000 7.72 240 16:50 13.03.2021
1525 Rain 7 991 76 10000 5.14 220 16:29 13.03.2021
1526 Rain 7 992 81 10000 5.66 230 15:47 13.03.2021
1527 Clouds 7 992 81 10000 10.8 280 14:54 13.03.2021
1528 Rain 7 992 81 10000 10.8 280 14:36 13.03.2021
1529 Rain 9 991 61 10000 7.72 230 13:55 13.03.2021
1530 Clouds 8 992 61 10000 7.2 230 13:25 13.03.2021
1531 Clouds 7 992 65 10000 8.23 240 12:48 13.03.2021
1532 Rain 7 991 71 10000 9.26 230 12:28 13.03.2021
1533 Clouds 7 991 71 10000 9.26 230 11:51 13.03.2021
1534 Rain 8 991 71 10000 8.23 210 11:31 13.03.2021
1535 Clouds 9 992 76 10000 6.69 210 10:55 13.03.2021
1536 Clouds 8 992 81 10000 7.2 200 10:30 13.03.2021
1537 Clouds 7 993 76 10000 6.17 200 09:57 13.03.2021
1538 Rain 7 994 87 10000 5.14 200 09:31 13.03.2021
1539 Clouds 6 993 83 10000 2.68 193 08:53 13.03.2021
1540 Rain 6 994 82 10000 4.02 213 08:20 13.03.2021
1541 Rain 6 995 81 10000 3.13 211 07:57 13.03.2021
1542 Rain 6 996 82 10000 1.79 192 07:28 13.03.2021
1543 Clouds 5 998 81 10000 3.13 228 05:29 13.03.2021
1544 Clouds 4 1001 85 10000 3.13 218 01:22 13.03.2021
1545 Clouds 4 1001 86 10000 2.68 241 00:24 13.03.2021
1546 Clouds 4 1001 88 10000 3.58 260 23:38 12.03.2021
1547 Clouds 4 1001 87 10000 2.68 243 23:20 12.03.2021
1548 Clouds 5 1000 86 10000 2.68 232 22:32 12.03.2021
1549 Clouds 5 1001 81 10000 7.72 240 21:56 12.03.2021
1550 Rain 6 1001 81 10000 7.72 240 21:37 12.03.2021
1551 Rain 6 1001 81 10000 7.72 240 21:37 12.03.2021
1552 Rain 6 1001 81 10000 7.72 240 21:37 12.03.2021
1553 Clouds 6 1001 81 10000 7.72 240 21:18 12.03.2021
1554 Rain 6 1001 76 10000 8.23 220 20:48 12.03.2021
1555 Rain 6 1001 76 10000 6.69 220 20:23 12.03.2021
1556 Rain 7 1001 78 10000 4.92 230 19:45 12.03.2021
1557 Rain 8 1001 49 10000 7.2 220 19:25 12.03.2021
1558 Rain 9 1001 49 10000 6.17 220 18:50 12.03.2021
1559 Clear 9 1001 49 10000 6.17 210 18:28 12.03.2021
1560 Clouds 9 1001 60 10000 3.13 207 17:45 12.03.2021
1561 Clear 9 1002 43 10000 6.69 230 17:27 12.03.2021
1562 Clouds 9 1002 54 10000 4.02 235 16:49 12.03.2021
1563 Clear 10 1003 43 10000 7.72 230 16:28 12.03.2021
1564 Clear 10 1003 43 10000 7.72 240 15:40 12.03.2021
1565 Clear 10 1003 43 10000 9.26 250 15:21 12.03.2021
1566 Clear 10 1004 43 10000 9.26 250 14:42 12.03.2021
1567 Clouds 10 1004 46 10000 8.75 260 14:19 12.03.2021
1568 Clouds 10 1004 46 10000 11.32 250 13:40 12.03.2021
1569 Clouds 9 1004 49 10000 10.29 250 13:20 12.03.2021
1570 Clouds 10 1005 49 10000 10.8 250 12:50 12.03.2021
1571 Clouds 9 1005 57 10000 10.8 240 12:30 12.03.2021
1572 Clouds 9 1005 61 10000 9.77 250 11:57 12.03.2021
1573 Clouds 9 1005 61 10000 9.77 250 11:38 12.03.2021
1574 Clouds 8 1005 65 10000 10.29 250 10:59 12.03.2021
1575 Clouds 7 1005 65 10000 10.29 250 10:41 12.03.2021
1576 Clouds 7 1005 70 10000 8.23 250 10:20 12.03.2021
1577 Clouds 6 1005 81 10000 7.72 250 09:29 12.03.2021
1578 Clouds 5 1004 87 10000 5.14 230 08:57 12.03.2021
1579 Clouds 5 1004 87 10000 5.14 230 08:39 12.03.2021
1580 Clouds 5 1003 87 10000 7.72 260 07:41 12.03.2021
1581 Clouds 5 1003 87 10000 6.17 260 07:21 12.03.2021
1582 Clouds 5 1002 87 10000 7.72 250 06:42 12.03.2021
1583 Clouds 5 1001 87 10000 7.2 250 05:45 12.03.2021
1584 Clouds 6 998 81 10000 7.2 250 00:55 12.03.2021
1585 Clouds 7 998 76 10000 5.14 240 23:56 11.03.2021
1586 Clouds 7 997 78 10000 4.02 255 22:59 11.03.2021
1587 Clouds 7 997 81 10000 5.66 250 22:39 11.03.2021
1588 Clouds 7 997 87 10000 4.63 240 22:20 11.03.2021
1589 Clouds 6 997 87 10000 6.17 260 21:46 11.03.2021
1590 Clouds 6 997 81 10000 8.23 270 21:25 11.03.2021
1591 Rain 7 997 81 10000 9.77 260 20:49 11.03.2021
1592 Rain 7 996 81 10000 6.17 260 20:23 11.03.2021
1593 Rain 7 996 87 10000 6.17 260 19:54 11.03.2021
1594 Clouds 7 996 87 10000 6.17 260 19:36 11.03.2021
1595 Rain 8 995 81 10000 6.17 290 18:53 11.03.2021
1596 Rain 8 995 81 10000 6.17 290 18:35 11.03.2021
1597 Clouds 10 994 62 10000 11.83 260 17:54 11.03.2021
1598 Clouds 10 994 62 10000 11.83 260 17:36 11.03.2021
1599 Clouds 12 993 62 10000 8.75 260 16:38 11.03.2021
1600 Clouds 12 993 71 10000 9.77 270 16:19 11.03.2021
1601 Clear 12 992 50 10000 11.32 240 15:44 11.03.2021
1602 Clouds 13 992 51 10000 10.29 240 15:21 11.03.2021
1603 Clouds 13 993 62 10000 9.26 230 14:45 11.03.2021
1604 Clouds 11 993 82 10000 8.23 220 14:19 11.03.2021
1605 Clouds 11 994 93 10000 7.2 220 13:46 11.03.2021
1606 Clouds 10 995 93 7000 7.2 230 13:22 11.03.2021
1607 Rain 10 994 76 10000 8.23 230 12:56 11.03.2021
1608 Rain 10 994 76 10000 8.23 230 12:36 11.03.2021
1609 Rain 11 995 71 10000 8.75 210 12:18 11.03.2021
1610 Clouds 11 995 71 10000 9.26 220 11:42 11.03.2021
1611 Clouds 10 996 71 10000 8.23 220 11:19 11.03.2021
1612 Clouds 9 997 81 10000 7.2 220 10:28 11.03.2021
1613 Clouds 8 997 81 10000 5.66 210 09:53 11.03.2021
1614 Clouds 8 997 81 10000 5.66 210 09:34 11.03.2021
1615 Clouds 7 998 87 10000 6.69 220 08:59 11.03.2021
1616 Rain 7 998 81 10000 6.69 220 08:41 11.03.2021
1617 Rain 7 998 81 10000 6.69 220 08:18 11.03.2021
1618 Clouds 7 999 81 10000 6.17 210 07:22 11.03.2021
1619 Clouds 7 999 81 10000 6.17 210 06:49 11.03.2021
1620 Clouds 7 999 76 10000 5.66 200 06:24 11.03.2021
1621 Rain 6 1005 87 10000 4.63 180 02:49 11.03.2021
1622 Rain 7 1008 70 10000 3.6 160 00:49 11.03.2021
1623 Clouds 6 1010 70 10000 3.6 150 23:27 10.03.2021
1624 Clouds 6 1011 70 10000 3.09 160 22:48 10.03.2021
1625 Clouds 6 1012 70 10000 3.09 160 22:28 10.03.2021
1626 Clouds 6 1012 70 10000 3.09 160 22:27 10.03.2021
1627 Clouds 6 1012 70 10000 3.09 160 22:26 10.03.2021
1628 Clouds 6 1012 70 10000 3.09 160 21:47 10.03.2021
1629 Clouds 6 1013 65 10000 3.09 160 21:23 10.03.2021
1630 Clouds 6 1013 65 10000 2.57 140 20:46 10.03.2021
1631 Clouds 6 1014 65 10000 2.06 140 20:28 10.03.2021
1632 Clouds 6 1014 65 10000 2.57 140 19:50 10.03.2021
1633 Clear 6 1015 65 10000 2.06 140 19:30 10.03.2021
1634 Clouds 6 1015 65 10000 2.06 140 18:47 10.03.2021
1635 Clouds 7 1015 61 10000 2.57 160 18:28 10.03.2021
1636 Clouds 7 1015 61 10000 2.57 170 17:57 10.03.2021
1637 Clouds 7 1015 61 10000 2.57 170 17:39 10.03.2021
1638 Clouds 7 1015 57 10000 3.09 180 17:19 10.03.2021
1639 Clouds 7 1016 57 10000 3.6 190 16:45 10.03.2021
1640 Clouds 7 1016 57 10000 4.12 210 16:25 10.03.2021
1641 Clouds 7 1016 57 10000 3.6 200 15:48 10.03.2021
1642 Clouds 8 1016 57 10000 3.6 200 15:25 10.03.2021
1643 Clouds 8 1017 57 10000 3.6 200 14:57 10.03.2021
1644 Clouds 7 1017 57 10000 2.57 240 14:22 10.03.2021
1645 Clouds 7 1018 61 10000 2.57 170 13:53 10.03.2021
1646 Clouds 6 1018 65 10000 3.09 200 13:31 10.03.2021
1647 Clouds 6 1018 65 10000 3.09 200 13:31 10.03.2021
1648 Clouds 6 1018 65 10000 2.57 230 12:48 10.03.2021
1649 Clouds 6 1018 68 10000 1.34 0 12:24 10.03.2021
1650 Clouds 5 1018 75 10000 2.06 250 11:53 10.03.2021
1651 Clouds 5 1019 81 10000 2.57 260 11:28 10.03.2021
1652 Clouds 5 1019 81 10000 2.06 180 10:51 10.03.2021
1653 Clouds 5 1019 81 10000 2.06 180 10:33 10.03.2021
1654 Clouds 4 1019 93 9000 1.54 200 09:57 10.03.2021
1655 Clouds 4 1019 93 9000 1.54 200 09:38 10.03.2021
1656 Clouds 4 1019 93 7000 2.57 190 09:19 10.03.2021
1657 Clouds 3 1018 100 6000 2.06 170 08:45 10.03.2021
1658 Mist 4 1018 100 5000 0.51 0 08:27 10.03.2021
1659 Clouds 3 1018 100 5000 1.03 0 07:44 10.03.2021
1660 Clouds 3 1018 100 5000 1.94 131 07:24 10.03.2021
1661 Clouds 3 1018 100 6000 2.37 123 06:52 10.03.2021
1662 Clouds 3 1018 100 10000 1.03 230 02:45 10.03.2021
1663 Clouds 3 1017 93 8000 1.54 90 00:39 10.03.2021
1664 Clouds 3 1018 93 10000 1.1 72 23:45 09.03.2021
1665 Clouds 3 1018 93 10000 1.03 100 22:58 09.03.2021
1666 Clouds 3 1018 93 10000 1.03 100 22:38 09.03.2021
1667 Clouds 3 1018 93 10000 1.03 100 22:18 09.03.2021
1668 Clouds 3 1018 93 10000 1.54 100 21:42 09.03.2021
1669 Clouds 3 1017 100 10000 1.54 90 21:22 09.03.2021
1670 Clouds 3 1017 100 10000 2.06 100 20:56 09.03.2021
1671 Clouds 3 1017 100 10000 2.06 100 20:37 09.03.2021
1672 Clouds 3 1017 100 10000 2.06 90 20:19 09.03.2021
1673 Clouds 3 1017 100 10000 2.57 100 19:43 09.03.2021
1674 Clouds 3 1017 100 10000 2.06 100 19:25 09.03.2021
1675 Drizzle 3 1017 100 10000 2.06 100 18:42 09.03.2021
1676 Drizzle 3 1017 100 9000 2.57 120 18:20 09.03.2021
1677 Drizzle 3 1016 100 10000 3.6 110 17:47 09.03.2021
1678 Drizzle 3 1017 100 9000 3.09 120 17:27 09.03.2021
1679 Clouds 3 1017 100 9000 3.6 110 16:41 09.03.2021
1680 Clouds 3 1017 100 9000 3.6 130 16:21 09.03.2021
1681 Clouds 3 1017 100 9000 3.6 130 15:56 09.03.2021
1682 Clouds 3 1017 100 9000 4.12 140 15:28 09.03.2021
1683 Rain 3 1017 93 10000 4.12 140 14:52 09.03.2021
1684 Rain 3 1017 87 10000 3.6 140 14:26 09.03.2021
1685 Rain 3 1017 87 10000 4.12 140 13:43 09.03.2021
1686 Rain 3 1018 81 10000 4.12 140 13:21 09.03.2021
1687 Rain 3 1018 75 10000 4.12 130 12:55 09.03.2021
1688 Clouds 3 1018 75 10000 4.12 130 12:37 09.03.2021
1689 Snow 3 1018 70 10000 3.09 180 11:58 09.03.2021
1690 Snow 3 1018 70 10000 3.09 180 11:39 09.03.2021
1691 Rain 3 1018 70 10000 1.54 180 11:19 09.03.2021
1692 Rain 3 1018 65 10000 2.06 190 10:39 09.03.2021
1693 Snow 3 1018 65 10000 2.06 220 10:21 09.03.2021
1694 Rain 3 1018 65 10000 1.54 150 09:47 09.03.2021
1695 Rain 2 1018 69 10000 1.03 0 09:28 09.03.2021
1696 Snow 2 1018 69 10000 3.17 141 08:58 09.03.2021
1697 Snow 1 1018 69 10000 3.17 141 08:34 09.03.2021
1698 Snow 1 1018 86 10000 2.06 110 07:47 09.03.2021
1699 Snow 0 1018 74 10000 2.06 110 07:28 09.03.2021
1700 Snow 0 1018 74 10000 2.06 110 07:28 09.03.2021
1701 Snow 0 1018 74 10000 2.06 100 06:59 09.03.2021
1702 Clouds -1 1018 69 10000 2.06 110 05:54 09.03.2021
1703 Clouds 1 1020 51 10000 2.06 140 02:27 09.03.2021
1704 Clouds 0 1021 69 10000 1.54 120 23:59 08.03.2021
1705 Clouds 1 1021 69 10000 1.54 120 23:39 08.03.2021
1706 Clouds 1 1021 69 10000 1.54 120 23:21 08.03.2021
1707 Clouds 1 1021 69 10000 2.06 110 22:43 08.03.2021
1708 Clouds 1 1022 59 10000 1.54 110 22:25 08.03.2021
1709 Clouds 1 1022 59 10000 1.54 90 21:53 08.03.2021
1710 Clouds 1 1022 59 10000 1.54 90 21:34 08.03.2021
1711 Clouds 1 1022 55 10000 1.03 90 20:45 08.03.2021
1712 Clear 1 1022 48 10000 1.03 90 20:25 08.03.2021
1713 Clear 2 1022 48 10000 2.49 121 19:55 08.03.2021
1714 Clear 2 1022 51 10000 2.41 111 19:28 08.03.2021
1715 Clear 3 1022 41 10000 1.54 70 18:39 08.03.2021
1716 Clear 3 1022 41 10000 1.54 70 18:20 08.03.2021
1717 Clear 4 1022 39 10000 2.06 90 17:51 08.03.2021
1718 Clear 5 1022 36 10000 2.57 100 17:25 08.03.2021
1719 Clear 6 1022 39 10000 2.06 110 16:46 08.03.2021
1720 Clear 6 1022 36 10000 2.57 100 16:28 08.03.2021
1721 Clear 6 1022 39 10000 2.57 120 15:49 08.03.2021
1722 Clear 6 1022 36 10000 3.6 100 15:28 08.03.2021
1723 Clear 6 1022 36 10000 3.09 80 14:43 08.03.2021
1724 Clear 6 1023 33 10000 2.57 110 14:20 08.03.2021
1725 Clear 5 1023 33 10000 3.6 90 13:40 08.03.2021
1726 Clear 5 1023 33 10000 3.09 0 13:19 08.03.2021
1727 Clouds 5 1023 45 10000 2.57 120 12:45 08.03.2021
1728 Clear 4 1023 52 10000 3.6 110 12:26 08.03.2021
1729 Clear 4 1023 60 10000 2.57 110 11:40 08.03.2021
1730 Clear 4 1023 65 10000 2.06 100 11:19 08.03.2021
1731 Clear 2 1023 65 10000 1.03 0 10:43 08.03.2021
1732 Clear 2 1023 80 10000 1.03 0 10:25 08.03.2021
1733 Clear 1 1023 93 10000 1.03 0 09:42 08.03.2021
1734 Clear 0 1023 93 10000 1.03 0 09:23 08.03.2021
1735 Clear 0 1022 100 10000 1.03 340 08:29 08.03.2021
1736 Clear -1 1022 100 10000 1.03 330 07:41 08.03.2021
1737 Clear -1 1021 100 10000 2.01 34 07:20 08.03.2021
1738 Clouds 0 1020 100 10000 1.54 330 05:18 08.03.2021
1739 Clouds 2 1020 100 6000 3.6 280 01:26 08.03.2021
1740 Rain 2 1020 100 7000 4.12 290 00:33 08.03.2021
1741 Rain 3 1020 87 9000 4.12 270 23:51 07.03.2021
1742 Rain 3 1020 81 10000 4.63 270 23:20 07.03.2021
1743 Rain 3 1020 75 10000 4.12 270 22:45 07.03.2021
1744 Clouds 3 1020 75 10000 3.6 270 22:26 07.03.2021
1745 Clouds 3 1020 75 10000 4.12 270 21:49 07.03.2021
1746 Clouds 3 1020 75 10000 3.6 280 21:30 07.03.2021
1747 Clouds 3 1020 75 10000 4.12 280 20:50 07.03.2021
1748 Clouds 3 1020 75 10000 4.12 280 20:32 07.03.2021
1749 Clouds 3 1020 70 10000 4.63 290 19:59 07.03.2021
1750 Clouds 3 1020 70 10000 4.63 290 19:39 07.03.2021
1751 Clouds 3 1020 70 10000 5.14 290 19:21 07.03.2021
1752 Clouds 4 1020 65 10000 4.63 290 18:50 07.03.2021
1753 Clouds 4 1020 60 10000 5.14 290 18:20 07.03.2021
1754 Clouds 4 1020 60 10000 5.14 290 17:56 07.03.2021
1755 Clouds 4 1020 60 10000 5.14 290 17:37 07.03.2021
1756 Clouds 4 1020 60 10000 5.66 270 17:18 07.03.2021
1757 Clouds 4 1020 60 10000 5.66 270 17:18 07.03.2021
1758 Clouds 4 1020 60 10000 5.66 270 17:18 07.03.2021
1759 Clouds 4 1020 60 10000 4.63 270 16:42 07.03.2021
1760 Clouds 4 1021 60 10000 5.66 270 16:20 07.03.2021
1761 Clouds 4 1021 56 10000 5.66 270 15:47 07.03.2021
1762 Clouds 4 1021 60 10000 6.17 270 15:29 07.03.2021
1763 Clouds 4 1022 60 10000 5.66 280 14:47 07.03.2021
1764 Clouds 4 1022 65 10000 5.66 280 14:28 07.03.2021
1765 Clouds 3 1023 60 10000 6.17 290 13:45 07.03.2021
1766 Clouds 4 1023 56 10000 5.14 290 13:26 07.03.2021
1767 Clouds 4 1023 60 10000 6.17 280 12:48 07.03.2021
1768 Clouds 4 1023 60 10000 6.17 270 12:29 07.03.2021
1769 Clouds 3 1024 60 10000 6.69 280 11:53 07.03.2021
1770 Clouds 3 1024 65 10000 6.17 270 11:23 07.03.2021
1771 Clouds 3 1024 65 10000 5.66 270 10:51 07.03.2021
1772 Clouds 3 1024 65 10000 5.66 270 10:33 07.03.2021
1773 Clouds 3 1024 75 10000 5.14 270 09:52 07.03.2021
1774 Clouds 3 1024 75 10000 4.12 270 09:27 07.03.2021
1775 Clouds 2 1025 75 10000 4.12 280 08:57 07.03.2021
1776 Clouds 2 1025 75 10000 4.12 280 08:38 07.03.2021
1777 Clouds 2 1025 80 10000 3.6 280 08:20 07.03.2021
1778 Clouds 1 1025 75 10000 3.09 290 05:26 07.03.2021
1779 Clouds 2 1027 100 10000 2.06 290 02:33 07.03.2021
1780 Clouds 3 1028 81 10000 2.06 280 00:34 07.03.2021
1781 Clouds 3 1029 87 10000 2.06 270 23:40 06.03.2021
1782 Clouds 4 1029 87 10000 2.06 280 23:20 06.03.2021
1783 Clouds 4 1029 81 10000 2.06 290 22:45 06.03.2021
1784 Clouds 4 1029 81 10000 2.57 280 22:21 06.03.2021
1785 Clouds 4 1029 81 10000 2.57 280 21:46 06.03.2021
1786 Clouds 4 1029 81 10000 2.57 270 21:20 06.03.2021
1787 Clouds 4 1029 81 10000 3.09 260 20:42 06.03.2021
1788 Clouds 4 1030 81 10000 2.57 260 20:18 06.03.2021
1789 Clouds 4 1030 81 10000 2.06 260 19:38 06.03.2021
1790 Clouds 4 1030 81 10000 2.57 250 19:18 06.03.2021
1791 Clouds 4 1030 87 10000 1.54 250 18:41 06.03.2021
1792 Clouds 4 1030 81 10000 2.57 250 18:21 06.03.2021
1793 Clouds 4 1030 81 10000 3.09 280 17:54 06.03.2021
1794 Clouds 5 1030 81 10000 3.09 280 17:32 06.03.2021
1795 Clouds 5 1031 81 10000 3.6 300 16:59 06.03.2021
1796 Clouds 5 1031 81 10000 3.6 300 16:37 06.03.2021
1797 Clouds 5 1031 87 10000 4.12 300 16:18 06.03.2021
1798 Clouds 5 1031 81 10000 4.63 300 15:39 06.03.2021
1799 Clouds 5 1031 81 10000 4.63 290 15:21 06.03.2021
1800 Clouds 5 1031 81 10000 5.66 290 14:33 06.03.2021
1801 Clouds 5 1032 75 10000 5.14 280 13:56 06.03.2021
1802 Clouds 5 1032 75 10000 5.14 280 13:37 06.03.2021
1803 Clouds 5 1032 73 10000 4.02 0 13:19 06.03.2021
1804 Clouds 4 1033 75 10000 5.66 290 12:43 06.03.2021
1805 Clouds 4 1033 81 10000 6.17 280 12:19 06.03.2021
1806 Clouds 3 1033 81 10000 4.63 280 11:48 06.03.2021
1807 Clouds 3 1033 80 10000 5.14 280 11:21 06.03.2021
1808 Clouds 3 1033 80 10000 5.14 270 10:48 06.03.2021
1809 Clouds 2 1033 75 10000 5.14 270 10:18 06.03.2021
1810 Clouds 1 1033 80 10000 4.12 260 09:41 06.03.2021
1811 Clouds 1 1032 86 10000 3.6 260 09:19 06.03.2021
1812 Clouds 0 1032 80 10000 0.45 343 08:36 06.03.2021
1813 Clear -1 1032 81 10000 0.89 0 07:57 06.03.2021
1814 Clear -2 1032 82 10000 0.45 0 07:24 06.03.2021
1815 Clear -3 1031 87 10000 3.24 263 06:55 06.03.2021
1816 Clear -3 1030 25 10000 3.03 261 05:34 06.03.2021
1817 Clear -3 1030 25 10000 3.03 261 05:34 06.03.2021
1818 Clear -2 1031 23 10000 2.49 257 02:38 06.03.2021
1819 Clear -2 1032 79 10000 0.45 0 00:48 06.03.2021
1820 Clear -2 1032 75 10000 0.45 356 23:53 05.03.2021
1821 Clear -2 1031 74 10000 0.45 265 23:29 05.03.2021
1822 Clear -1 1031 73 10000 0.45 244 22:49 05.03.2021
1823 Clear -1 1031 73 10000 2.09 302 22:23 05.03.2021
1824 Clear -1 1031 71 10000 0.45 344 21:54 05.03.2021
1825 Clear -1 1031 69 10000 2.09 302 21:35 05.03.2021
1826 Clear 0 1031 66 10000 2.09 301 20:58 05.03.2021
1827 Clear 0 1030 65 10000 2.09 301 20:40 05.03.2021
1828 Clear 1 1030 44 10000 1.54 290 20:22 05.03.2021
1829 Clear 1 1030 44 10000 1.54 290 19:41 05.03.2021
1830 Clear 2 1030 44 10000 1.54 290 19:20 05.03.2021
1831 Clear 2 1029 35 10000 2.06 310 18:43 05.03.2021
1832 Clear 3 1029 36 10000 2.06 320 18:25 05.03.2021
1833 Clear 5 1028 33 10000 2.57 310 17:39 05.03.2021
1834 Clear 6 1028 33 10000 2.57 300 17:20 05.03.2021
1835 Clear 6 1028 33 10000 2.57 320 16:41 05.03.2021
1836 Clear 6 1028 31 10000 2.57 320 16:22 05.03.2021
1837 Clear 6 1028 33 10000 2.57 340 15:53 05.03.2021
1838 Clear 6 1028 36 10000 3.09 0 15:26 05.03.2021
1839 Clouds 6 1028 45 10000 2.06 320 14:40 05.03.2021
1840 Clouds 6 1028 38 10000 3.09 340 14:21 05.03.2021
1841 Clouds 5 1028 42 10000 3.09 0 13:43 05.03.2021
1842 Clouds 5 1028 48 10000 3.09 350 13:21 05.03.2021
1843 Clouds 4 1028 56 10000 3.09 340 12:42 05.03.2021
1844 Clouds 4 1027 75 10000 2.57 340 11:39 05.03.2021
1845 Clouds 3 1027 80 10000 2.06 350 11:19 05.03.2021
1846 Clouds 2 1026 80 10000 2.06 320 10:43 05.03.2021
1847 Clouds 1 1026 86 10000 2.06 320 10:24 05.03.2021
1848 Clouds 1 1026 93 10000 2.06 340 09:58 05.03.2021
1849 Clouds 0 1026 93 10000 2.06 340 09:38 05.03.2021
1850 Clouds 0 1026 100 10000 2.06 350 09:20 05.03.2021
1851 Clouds -1 1025 100 10000 2.06 350 08:38 05.03.2021
1852 Clouds -1 1025 100 10000 1.54 360 08:20 05.03.2021
1853 Clear -2 1024 100 10000 1.03 0 07:33 05.03.2021
1854 Clear -1 1023 93 10000 2.06 360 06:34 05.03.2021
1855 Clouds -1 1023 93 10000 2.06 360 05:41 05.03.2021
1856 Clouds 2 1020 100 10000 1.54 10 01:18 05.03.2021
1857 Clouds 2 1019 100 10000 1.54 20 23:54 04.03.2021
1858 Clouds 2 1019 100 8000 2.06 20 23:24 04.03.2021
1859 Clouds 3 1018 100 8000 3.09 10 22:30 04.03.2021
1860 Clouds 3 1018 100 7000 2.57 320 21:54 04.03.2021
1861 Clouds 3 1018 100 7000 2.57 320 21:33 04.03.2021
1862 Clouds 3 1018 100 9000 2.57 300 20:58 04.03.2021
1863 Clouds 3 1018 100 9000 2.57 300 20:39 04.03.2021
1864 Clouds 3 1018 100 10000 2.57 300 20:20 04.03.2021
1865 Clouds 3 1018 100 10000 3.09 290 19:50 04.03.2021
1866 Clouds 3 1017 100 10000 2.57 280 19:23 04.03.2021
1867 Clouds 3 1017 100 10000 2.57 280 18:52 04.03.2021
1868 Clouds 3 1017 100 10000 2.57 280 18:52 04.03.2021
1869 Clouds 3 1017 100 10000 2.57 280 18:30 04.03.2021
1870 Clouds 3 1017 100 10000 2.57 280 18:30 04.03.2021
1871 Clouds 3 1017 100 10000 2.06 290 17:48 04.03.2021
1872 Clouds 3 1017 100 10000 3.09 290 17:30 04.03.2021
1873 Clouds 3 1017 100 10000 2.57 300 16:50 04.03.2021
1874 Clouds 3 1017 100 10000 2.57 300 16:32 04.03.2021
1875 Clouds 4 1018 100 10000 3.6 300 15:57 04.03.2021
1876 Clouds 3 1018 100 10000 3.6 300 15:38 04.03.2021
1877 Clouds 4 1018 100 10000 4.12 300 15:20 04.03.2021
1878 Clouds 4 1018 93 5000 3.09 300 14:39 04.03.2021
1879 Mist 3 1018 100 5000 4.12 310 13:57 04.03.2021
1880 Mist 3 1018 100 5000 4.12 310 13:36 04.03.2021
1881 Mist 3 1019 100 3700 3.6 310 13:18 04.03.2021
1882 Mist 3 1019 100 3600 3.6 300 12:40 04.03.2021
1883 Mist 3 1019 100 5000 3.6 290 11:49 04.03.2021
1884 Clouds 3 1019 100 7000 4.12 290 11:28 04.03.2021
1885 Mist 3 1019 100 5000 4.12 280 10:57 04.03.2021
1886 Mist 3 1019 100 5000 4.12 280 10:36 04.03.2021
1887 Mist 3 1019 100 3600 3.6 310 09:51 04.03.2021
1888 Fog 3 1019 100 500 3.6 310 09:27 04.03.2021
1889 Fog 2 1019 100 500 3.09 310 08:49 04.03.2021
1890 Fog 2 1019 100 300 3.09 310 08:24 04.03.2021
1891 Fog 3 1019 100 500 3.09 320 07:36 04.03.2021
1892 Clouds 3 1020 100 3900 3.6 300 06:40 04.03.2021
1893 Clouds 3 1020 100 3800 4.12 310 06:21 04.03.2021
1894 Clouds 4 1021 100 3000 3.6 300 02:38 04.03.2021
1895 Clouds 6 1022 87 7000 3.09 280 23:57 03.03.2021
1896 Clouds 7 1022 87 7000 2.06 290 22:39 03.03.2021
1897 Clouds 7 1023 81 7000 2.06 290 22:20 03.03.2021
1898 Clouds 7 1023 87 8000 2.57 290 21:41 03.03.2021
1899 Clouds 8 1023 81 9000 3.09 280 21:23 03.03.2021
1900 Clear 8 1023 76 10000 3.09 280 20:55 03.03.2021
1901 Clear 9 1023 76 10000 3.09 280 20:36 03.03.2021
1902 Clear 9 1023 71 10000 2.57 280 19:51 03.03.2021
1903 Clear 9 1023 71 10000 2.57 280 19:32 03.03.2021
1904 Clear 10 1023 66 10000 2.57 250 18:58 03.03.2021
1905 Clear 10 1023 66 10000 2.57 250 18:39 03.03.2021
1906 Clear 12 1023 54 10000 3.09 240 17:58 03.03.2021
1907 Clear 13 1023 51 10000 2.57 260 17:22 03.03.2021
1908 Clear 14 1024 51 10000 4.12 270 16:58 03.03.2021
1909 Clear 14 1024 51 10000 4.12 270 16:39 03.03.2021
1910 Clear 15 1024 47 10000 4.12 250 16:21 03.03.2021
1911 Clear 15 1024 47 10000 3.6 250 15:33 03.03.2021
1912 Clear 15 1025 47 10000 4.12 240 14:52 03.03.2021
1913 Clear 15 1025 51 10000 3.6 240 14:28 03.03.2021
1914 Clear 14 1026 47 10000 3.6 250 13:52 03.03.2021
1915 Clear 14 1026 47 10000 4.12 260 13:30 03.03.2021
1916 Clear 13 1027 47 10000 4.12 240 12:44 03.03.2021
1917 Clear 13 1027 50 10000 3.09 230 12:24 03.03.2021
1918 Clear 12 1027 54 10000 2.57 220 11:46 03.03.2021
1919 Clear 11 1027 58 10000 2.57 230 11:27 03.03.2021
1920 Clear 11 1027 62 10000 2.06 210 10:47 03.03.2021
1921 Clear 8 1028 71 10000 1.54 220 10:25 03.03.2021
1922 Clear 8 1028 76 10000 2.86 234 09:46 03.03.2021
1923 Clear 6 1028 100 10000 2.6 226 09:24 03.03.2021
1924 Clear 4 1028 100 10000 1.03 110 08:39 03.03.2021
1925 Clear 1 1028 100 8000 1.03 0 08:20 03.03.2021
1926 Clear 0 1028 100 6000 1.03 100 07:39 03.03.2021
1927 Clear 1 1028 100 5000 1.54 100 06:51 03.03.2021
1928 Clear 1 1029 100 5000 0.51 0 05:46 03.03.2021
1929 Clear 0 1029 100 5000 1.54 110 04:58 03.03.2021
1930 Clear 0 1029 100 6000 1.03 90 04:26 03.03.2021
1931 Clouds 3 1030 100 4100 1.03 110 01:54 03.03.2021
1932 Clouds 3 1031 100 400 1.38 180 23:57 02.03.2021
1933 Clouds 3 1031 100 900 1.49 165 23:28 02.03.2021
1934 Clouds 4 1031 93 1300 1.49 165 22:42 02.03.2021
1935 Clear 3 1031 100 3700 1.85 159 22:19 02.03.2021
1936 Clear 5 1031 100 3800 1.85 159 21:40 02.03.2021
1937 Clear 5 1031 93 6000 2.34 147 21:22 02.03.2021
1938 Clear 5 1031 100 7000 1.03 110 20:47 02.03.2021
1939 Clear 5 1031 100 7000 1.03 110 20:47 02.03.2021
1940 Clear 5 1031 100 4600 0.51 100 20:22 02.03.2021
1941 Clear 5 1032 100 6000 2.77 133 19:57 02.03.2021
1942 Clear 5 1032 100 6000 2.77 133 19:39 02.03.2021
1943 Clear 7 1032 93 10000 3.02 113 19:20 02.03.2021
1944 Clear 7 1032 93 10000 3.41 115 18:41 02.03.2021
1945 Clear 8 1032 81 10000 1.54 160 18:21 02.03.2021
1946 Clear 9 1032 76 10000 1.03 0 17:49 02.03.2021
1947 Clear 10 1032 71 10000 2.06 80 17:30 02.03.2021
1948 Clear 10 1032 71 10000 2.06 80 17:30 02.03.2021
1949 Clear 10 1032 71 10000 2.06 80 17:30 02.03.2021
1950 Clear 10 1032 71 10000 2.06 80 17:30 02.03.2021
1951 Clear 10 1032 71 10000 2.06 80 17:30 02.03.2021
1952 Clear 11 1032 62 10000 2.06 100 16:54 02.03.2021
1953 Clear 11 1032 66 10000 2.06 90 16:23 02.03.2021
1954 Clear 11 1032 62 10000 2.06 100 15:51 02.03.2021
1955 Clear 11 1032 66 10000 2.57 100 15:25 02.03.2021
1956 Clear 9 1033 100 10000 2.06 120 14:24 02.03.2021
1957 Clear 6 1033 100 10000 2.06 120 13:54 02.03.2021
1958 Clear 6 1033 100 10000 2.06 120 13:36 02.03.2021
1959 Clouds 5 1034 100 8000 2.06 140 13:18 02.03.2021
1960 Mist 2 1034 100 4100 1.54 130 12:29 02.03.2021
1961 Mist 2 1034 93 2500 1.54 120 11:54 02.03.2021
1962 Mist 2 1034 93 2500 1.54 120 11:36 02.03.2021
1963 Fog 1 1034 100 700 1.03 0 11:18 02.03.2021
1964 Fog 0 1034 100 550 1.03 0 10:33 02.03.2021
1965 Fog 0 1034 100 350 2.06 100 09:59 02.03.2021
1966 Fog 0 1034 100 350 2.06 100 09:40 02.03.2021
1967 Fog 1 1034 100 300 2.06 90 09:19 02.03.2021
1968 Fog 1 1034 93 300 2.06 90 08:38 02.03.2021
1969 Fog 1 1034 100 450 1.54 140 07:58 02.03.2021
1970 Fog 0 1034 100 500 1.54 130 07:27 02.03.2021
1971 Clouds 0 1034 100 450 1.54 100 06:34 02.03.2021
1972 Clouds 1 1034 93 500 2.06 130 05:46 02.03.2021
1973 Clouds 1 1034 100 500 2.06 170 05:27 02.03.2021
1974 Clouds 1 1034 100 650 1.54 180 01:45 02.03.2021
1975 Clouds 1 1034 100 500 1.54 130 01:27 02.03.2021
1976 Clouds 1 1034 100 550 3.09 140 00:39 02.03.2021
1977 Clouds 2 1034 100 300 1.54 130 23:28 01.03.2021
1978 Clouds 2 1034 100 350 3.09 110 22:42 01.03.2021
1979 Clouds 2 1034 100 1000 1.54 120 22:22 01.03.2021
1980 Clear 2 1034 100 5000 1.54 110 21:46 01.03.2021
1981 Clear 2 1034 100 8000 2.66 101 21:24 01.03.2021
1982 Clear 2 1034 100 9000 2.66 101 20:48 01.03.2021
1983 Clear 2 1034 100 10000 2.76 107 20:28 01.03.2021
1984 Clear 3 1034 93 10000 2.76 107 19:55 01.03.2021
1985 Clear 4 1034 93 10000 2.67 106 19:33 01.03.2021
1986 Clear 5 1034 75 10000 2.06 180 18:59 01.03.2021
1987 Clear 6 1034 75 10000 2.06 180 18:36 01.03.2021
1988 Clear 6 1034 70 10000 1.54 120 18:18 01.03.2021
1989 Clear 7 1034 61 10000 2.06 80 17:41 01.03.2021
1990 Clear 8 1034 61 10000 2.06 100 17:19 01.03.2021
1991 Clear 8 1034 61 10000 2.06 100 16:44 01.03.2021
1992 Clear 9 1034 61 10000 1.03 0 16:26 01.03.2021
1993 Clear 9 1034 61 10000 1.54 0 15:42 01.03.2021
1994 Clear 9 1035 61 10000 2.2 98 15:21 01.03.2021
1995 Clear 9 1035 66 10000 1.03 0 14:48 01.03.2021
1996 Clear 8 1035 65 10000 1.54 0 14:29 01.03.2021
1997 Clouds 8 1035 70 10000 1.03 0 13:43 01.03.2021
1998 Clouds 8 1036 70 10000 2.57 180 13:24 01.03.2021
1999 Clouds 7 1036 75 10000 2.06 180 12:58 01.03.2021
2000 Clouds 7 1036 75 10000 2.06 180 12:38 01.03.2021
2001 Clouds 7 1036 81 10000 0.51 0 12:19 01.03.2021
2002 Clouds 6 1036 75 10000 1.03 0 11:42 01.03.2021
2003 Clouds 5 1036 81 10000 0.51 0 10:45 01.03.2021
2004 Clouds 4 1036 81 10000 0.51 0 10:23 01.03.2021
2005 Clouds 4 1036 81 10000 1.54 0 09:59 01.03.2021
2006 Clouds 4 1036 81 10000 1.54 0 09:41 01.03.2021
2007 Clouds 4 1036 93 10000 2.06 140 09:21 01.03.2021
2008 Clouds 3 1036 93 9000 1.03 0 08:52 01.03.2021
2009 Clouds 3 1036 100 10000 1.54 190 08:21 01.03.2021
2010 Clouds 3 1035 100 10000 0.53 124 06:54 01.03.2021
2011 Clouds 3 1035 100 10000 0.23 116 05:39 01.03.2021
2012 Clouds 3 1036 100 9000 0.37 241 01:48 01.03.2021
2013 Clouds 3 1036 100 9000 1.03 0 23:41 28.02.2021
2014 Clouds 3 1036 100 6000 1.54 180 22:55 28.02.2021
2015 Clouds 3 1036 100 6000 1.54 180 22:25 28.02.2021
2016 Clouds 3 1036 100 5000 1.03 210 21:54 28.02.2021
2017 Clouds 3 1036 100 5000 1.03 210 21:32 28.02.2021
2018 Clouds 3 1036 100 2000 1.54 230 20:58 28.02.2021
2019 Clouds 3 1036 100 2000 1.54 230 20:38 28.02.2021
2020 Clouds 3 1036 100 1200 1.03 0 20:18 28.02.2021
2021 Clouds 3 1036 100 1500 1.61 275 19:45 28.02.2021
2022 Clouds 3 1036 100 2100 1.55 306 19:24 28.02.2021
2023 Clouds 3 1036 93 1700 1.03 0 18:43 28.02.2021
2024 Clouds 4 1036 100 3200 2.57 300 18:25 28.02.2021
2025 Mist 4 1036 100 4600 2.57 330 17:50 28.02.2021
2026 Clouds 3 1036 100 6000 1.03 0 17:28 28.02.2021
2027 Clouds 7 1036 100 6000 2.57 280 16:56 28.02.2021
2028 Clouds 7 1036 100 6000 2.57 280 16:38 28.02.2021
2029 Clouds 6 1036 100 6000 2.06 330 16:18 28.02.2021
2030 Clouds 3 1037 100 6000 2.06 280 15:47 28.02.2021
2031 Mist 3 1037 100 5000 2.06 290 15:24 28.02.2021
2032 Mist 3 1037 100 5000 2.06 0 14:52 28.02.2021
2033 Clouds 2 1037 100 4400 2.06 330 14:29 28.02.2021
2034 Mist 3 1038 93 1000 2.06 360 13:52 28.02.2021
2035 Fog 3 1038 100 900 1.03 0 13:21 28.02.2021
2036 Mist 3 1038 100 2000 2.57 320 12:57 28.02.2021
2037 Mist 3 1038 100 2000 2.57 320 12:39 28.02.2021
2038 Fog 5 1038 100 600 2.57 310 12:20 28.02.2021
2039 Fog 5 1038 100 550 2.57 320 11:46 28.02.2021
2040 Fog 5 1037 100 450 3.09 310 11:26 28.02.2021
2041 Fog 4 1037 100 500 3.6 310 10:57 28.02.2021
2042 Fog 4 1037 100 400 3.6 290 10:29 28.02.2021
2043 Fog 3 1038 100 350 3.09 280 09:57 28.02.2021
2044 Fog 4 1038 100 350 3.09 280 09:35 28.02.2021
2045 Fog 3 1038 100 250 3.6 280 08:59 28.02.2021
2046 Fog 3 1038 100 250 3.6 280 08:37 28.02.2021
2047 Clouds 3 1037 100 300 3.09 260 08:19 28.02.2021
2048 Clouds 2 1037 100 300 2.06 270 07:43 28.02.2021
2049 Clouds 2 1037 100 350 2.06 250 07:24 28.02.2021
2050 Clouds 1 1037 100 350 1.54 300 06:23 28.02.2021
2051 Clouds 2 1038 93 300 1.03 270 03:48 28.02.2021
2052 Clouds 3 1038 100 1300 1.54 260 02:26 28.02.2021
2053 Clouds 3 1038 100 550 1.01 257 01:23 28.02.2021
2054 Clouds 3 1038 100 4300 1.03 230 00:39 28.02.2021
2055 Clouds 4 1039 100 7000 1.03 250 23:50 27.02.2021
2056 Clouds 4 1039 100 9000 0.18 356 23:21 27.02.2021
2057 Clouds 5 1039 100 8000 0.18 356 22:50 27.02.2021
2058 Clouds 5 1039 100 8000 0.18 356 22:50 27.02.2021
2059 Clouds 5 1039 100 6000 1.03 280 22:23 27.02.2021
2060 Clouds 5 1039 93 7000 1.54 260 21:58 27.02.2021
2061 Clouds 5 1039 93 7000 1.54 260 21:37 27.02.2021
2062 Clouds 5 1039 93 8000 2.06 270 20:56 27.02.2021
2063 Clouds 5 1039 93 8000 2.06 270 20:38 27.02.2021
2064 Clouds 5 1039 93 10000 2.06 270 20:18 27.02.2021
2065 Clouds 6 1039 93 10000 2.06 270 19:41 27.02.2021
2066 Clouds 6 1039 87 10000 2.06 250 19:23 27.02.2021
2067 Clouds 6 1039 87 10000 2.57 270 18:40 27.02.2021
2068 Clouds 6 1038 87 10000 2.06 270 18:20 27.02.2021
2069 Clouds 6 1038 87 10000 2.06 280 17:43 27.02.2021
2070 Clouds 6 1038 87 10000 2.06 280 17:20 27.02.2021
2071 Clouds 6 1038 87 10000 2.57 270 16:53 27.02.2021
2072 Clouds 6 1038 87 10000 2.57 270 16:32 27.02.2021
2073 Clouds 6 1038 87 10000 2.57 290 15:57 27.02.2021
2074 Clouds 6 1038 87 10000 2.57 290 15:38 27.02.2021
2075 Clouds 6 1038 87 10000 3.09 290 14:49 27.02.2021
2076 Clouds 6 1039 93 10000 3.6 280 14:30 27.02.2021
2077 Clouds 6 1039 93 6000 4.12 280 13:53 27.02.2021
2078 Clouds 6 1039 87 5000 5.14 290 13:27 27.02.2021
2079 Mist 6 1039 87 4600 4.12 290 12:57 27.02.2021
2080 Mist 6 1039 87 4600 4.12 290 12:36 27.02.2021
2081 Clouds 6 1039 87 10000 5.14 290 12:18 27.02.2021
2082 Clouds 6 1039 87 10000 4.63 290 11:42 27.02.2021
2083 Clouds 5 1038 87 10000 4.63 290 11:23 27.02.2021
2084 Clouds 5 1038 87 10000 5.14 290 10:46 27.02.2021
2085 Clouds 5 1038 87 10000 5.66 290 10:28 27.02.2021
2086 Clouds 5 1038 87 10000 4.63 310 09:50 27.02.2021
2087 Clouds 5 1037 87 10000 5.66 300 09:26 27.02.2021
2088 Clouds 4 1037 87 10000 4.63 310 08:42 27.02.2021
2089 Clouds 4 1037 87 10000 4.63 310 08:21 27.02.2021
2090 Clouds 4 1037 87 10000 3.6 300 07:42 27.02.2021
2091 Clouds 4 1035 87 10000 5.14 300 05:18 27.02.2021
2092 Clouds 3 1035 87 10000 3.09 290 01:18 27.02.2021
2093 Clear 4 1034 87 10000 3.6 310 23:58 26.02.2021
2094 Clear 4 1034 87 10000 3.6 310 23:40 26.02.2021
2095 Clear 4 1034 81 10000 3.6 310 23:18 26.02.2021
2096 Clouds 5 1033 75 10000 3.6 310 22:31 26.02.2021
2097 Clouds 6 1033 70 10000 3.6 310 21:49 26.02.2021
2098 Clear 7 1033 70 10000 3.09 300 21:31 26.02.2021
2099 Clear 7 1033 70 10000 3.6 300 20:45 26.02.2021
2100 Clear 7 1032 70 10000 3.6 300 20:24 26.02.2021
2101 Clear 7 1032 65 10000 3.6 290 19:53 26.02.2021
2102 Clouds 7 1032 65 10000 3.09 300 19:26 26.02.2021
2103 Clear 7 1032 65 10000 3.09 290 18:49 26.02.2021
2104 Clear 7 1031 57 10000 3.6 300 18:24 26.02.2021
2105 Clouds 8 1031 61 10000 3.6 300 17:48 26.02.2021
2106 Clouds 9 1031 50 10000 3.6 320 17:30 26.02.2021
2107 Clouds 10 1031 53 10000 4.63 310 16:58 26.02.2021
2108 Clouds 10 1031 53 10000 4.63 310 16:40 26.02.2021
2109 Clouds 10 1031 53 10000 5.66 290 16:22 26.02.2021
2110 Clouds 10 1030 53 10000 4.63 310 15:43 26.02.2021
2111 Clouds 10 1031 53 10000 4.63 310 15:23 26.02.2021
2112 Clouds 10 1031 62 10000 6.17 300 14:52 26.02.2021
2113 Clouds 10 1031 62 10000 6.17 300 14:34 26.02.2021
2114 Clouds 9 1031 66 10000 5.14 300 13:49 26.02.2021
2115 Clouds 10 1031 71 10000 4.63 300 13:30 26.02.2021
2116 Clouds 9 1031 76 10000 4.12 290 12:50 26.02.2021
2117 Clouds 8 1031 76 10000 4.12 300 12:26 26.02.2021
2118 Clouds 8 1031 81 10000 4.12 280 11:42 26.02.2021
2119 Rain 8 1031 81 10000 4.12 280 10:58 26.02.2021
2120 Rain 7 1031 81 10000 3.09 300 10:25 26.02.2021
2121 Rain 7 1031 81 10000 3.6 280 09:47 26.02.2021
2122 Rain 7 1031 81 10000 3.6 300 09:27 26.02.2021
2123 Rain 7 1030 87 10000 3.6 290 08:36 26.02.2021
2124 Clouds 7 1029 93 10000 3.09 300 07:57 26.02.2021
2125 Clouds 7 1029 100 10000 3.09 290 07:22 26.02.2021
2126 Clouds 7 1029 100 7000 3.09 300 06:32 26.02.2021
2127 Rain 8 1028 93 10000 2.06 290 05:18 26.02.2021
2128 Clouds 9 1028 93 10000 2.06 320 02:38 26.02.2021
2129 Clouds 10 1027 76 10000 3.09 350 00:33 26.02.2021
2130 Clouds 10 1026 71 10000 2.19 334 23:40 25.02.2021
2131 Clear 10 1026 76 10000 2.66 333 23:19 25.02.2021
2132 Clear 10 1026 76 10000 1.54 120 22:38 25.02.2021
2133 Clear 10 1026 81 10000 1.54 100 21:54 25.02.2021
2134 Clear 10 1026 81 10000 1.54 100 21:54 25.02.2021
2135 Clear 10 1026 81 10000 1.54 100 21:33 25.02.2021
2136 Clear 11 1026 76 10000 1.03 110 20:57 25.02.2021
2137 Clear 11 1026 76 10000 1.03 110 20:37 25.02.2021
2138 Clear 11 1026 71 10000 1.72 283 20:19 25.02.2021
2139 Clear 11 1026 62 10000 1.72 283 19:49 25.02.2021
2140 Clear 11 1026 62 10000 2.3 279 19:21 25.02.2021
2141 Clear 12 1026 58 10000 1.54 290 18:48 25.02.2021
2142 Clear 13 1026 62 10000 2.06 290 18:18 25.02.2021
2143 Clear 15 1026 55 10000 3.09 270 17:42 25.02.2021
2144 Clouds 16 1026 55 10000 2.57 270 17:23 25.02.2021
2145 Clear 17 1025 55 10000 4.63 270 16:38 25.02.2021
2146 Clouds 17 1025 55 10000 4.12 290 16:20 25.02.2021
2147 Clear 18 1025 48 10000 5.66 280 15:29 25.02.2021
2148 Clear 18 1025 48 10000 6.69 260 14:41 25.02.2021
2149 Clear 18 1025 48 10000 5.66 260 14:21 25.02.2021
2150 Clear 18 1025 48 10000 4.63 250 13:49 25.02.2021
2151 Clear 18 1025 48 10000 5.66 240 13:24 25.02.2021
2152 Clear 17 1026 51 10000 5.14 250 12:47 25.02.2021
2153 Clear 17 1026 51 10000 5.14 240 12:21 25.02.2021
2154 Clear 17 1026 48 10000 5.14 250 11:45 25.02.2021
2155 Clear 16 1026 51 10000 3.6 240 11:19 25.02.2021
2156 Clear 15 1026 55 10000 4.12 230 10:38 25.02.2021
2157 Clear 14 1026 71 10000 1.03 290 09:59 25.02.2021
2158 Clear 13 1026 71 10000 1.03 290 09:40 25.02.2021
2159 Clear 10 1026 71 10000 4.8 223 08:54 25.02.2021
2160 Clear 9 1026 76 10000 3.85 221 08:23 25.02.2021
2161 Clear 9 1026 81 10000 1.03 0 07:52 25.02.2021
2162 Clear 9 1025 76 10000 1.03 0 07:29 25.02.2021
2163 Clear 8 1026 87 10000 3.89 215 06:47 25.02.2021
2164 Clear 10 1027 76 10000 1.54 250 01:57 25.02.2021
2165 Clear 10 1027 76 10000 1.54 250 01:37 25.02.2021
2166 Clear 10 1027 81 10000 1.54 120 00:39 25.02.2021
2167 Clear 9 1028 81 10000 1.54 150 23:51 24.02.2021
2168 Clear 11 1028 76 10000 1.54 140 23:24 24.02.2021
2169 Clear 11 1028 71 10000 2.57 160 22:44 24.02.2021
2170 Clear 11 1028 67 10000 2.57 170 22:25 24.02.2021
2171 Clear 11 1028 67 10000 2.57 160 21:45 24.02.2021
2172 Clear 11 1028 67 10000 2.57 170 20:56 24.02.2021
2173 Clear 11 1028 67 10000 2.57 170 20:37 24.02.2021
2174 Clear 12 1029 62 10000 2.06 180 20:18 24.02.2021
2175 Clear 12 1029 62 10000 1.54 170 19:28 24.02.2021
2176 Clear 14 1029 55 10000 1.54 190 18:56 24.02.2021
2177 Clear 14 1029 55 10000 1.54 190 18:34 24.02.2021
2178 Clear 15 1029 51 10000 3.09 220 17:56 24.02.2021
2179 Clear 16 1029 48 10000 3.6 210 17:30 24.02.2021
2180 Clear 16 1029 48 10000 3.6 210 17:30 24.02.2021
2181 Clear 16 1029 48 10000 3.6 210 17:30 24.02.2021
2182 Clear 17 1029 52 10000 3.6 220 16:57 24.02.2021
2183 Clear 17 1029 52 10000 3.6 220 16:39 24.02.2021
2184 Clear 18 1029 48 10000 4.12 230 16:19 24.02.2021
2185 Clear 18 1029 48 10000 5.14 230 15:38 24.02.2021
2186 Clear 18 1029 52 10000 5.14 230 14:55 24.02.2021
2187 Clear 18 1029 52 10000 5.14 230 14:35 24.02.2021
2188 Clear 18 1030 55 10000 5.14 240 13:59 24.02.2021
2189 Clear 18 1030 55 10000 5.14 240 13:40 24.02.2021
2190 Clear 18 1030 55 10000 4.63 230 13:21 24.02.2021
2191 Clear 17 1031 55 10000 4.12 230 12:44 24.02.2021
2192 Clear 17 1031 55 10000 5.14 250 12:24 24.02.2021
2193 Clear 17 1031 55 10000 4.12 230 11:47 24.02.2021
2194 Clear 16 1031 59 10000 4.63 220 11:21 24.02.2021
2195 Clear 15 1031 63 10000 4.12 210 10:32 24.02.2021
2196 Clear 14 1031 62 10000 3.09 190 09:56 24.02.2021
2197 Clear 13 1031 67 10000 2.57 190 09:22 24.02.2021
2198 Clear 11 1031 71 10000 2.57 200 08:41 24.02.2021
2199 Clear 10 1031 71 10000 2.57 200 08:22 24.02.2021
2200 Clouds 10 1031 71 10000 2.06 190 07:21 24.02.2021
2201 Clouds 10 1031 66 10000 2.57 220 06:56 24.02.2021
2202 Clouds 11 1031 67 10000 3.6 230 04:40 24.02.2021
2203 Clouds 11 1030 62 10000 2.06 190 00:44 24.02.2021
2204 Clouds 12 1031 67 10000 2.57 190 23:38 23.02.2021
2205 Clouds 12 1031 62 10000 3.6 200 22:43 23.02.2021
2206 Clouds 12 1031 62 10000 3.09 200 22:22 23.02.2021
2207 Clouds 11 1031 62 10000 3.09 210 21:47 23.02.2021
2208 Clouds 12 1031 62 10000 3.09 210 21:24 23.02.2021
2209 Clouds 12 1031 62 10000 2.57 190 20:56 23.02.2021
2210 Clouds 12 1031 62 10000 2.57 190 20:37 23.02.2021
2211 Clear 12 1031 62 10000 2.06 170 20:18 23.02.2021
2212 Clear 12 1031 62 10000 2.06 170 19:41 23.02.2021
2213 Clear 13 1031 58 10000 1.54 170 19:22 23.02.2021
2214 Clear 13 1031 58 10000 2.06 190 18:44 23.02.2021
2215 Clear 14 1030 55 10000 2.57 200 18:24 23.02.2021
2216 Clear 15 1030 51 10000 3.09 190 17:49 23.02.2021
2217 Clear 16 1030 51 10000 4.63 210 17:27 23.02.2021
2218 Clear 16 1030 55 10000 3.6 210 16:45 23.02.2021
2219 Clear 17 1031 51 10000 5.66 220 16:23 23.02.2021
2220 Clear 17 1031 52 10000 5.66 240 15:46 23.02.2021
2221 Clear 18 1031 48 10000 6.17 240 15:28 23.02.2021
2222 Clear 17 1031 52 10000 5.14 250 14:50 23.02.2021
2223 Clear 17 1031 51 10000 5.66 250 14:28 23.02.2021
2224 Clear 17 1031 51 10000 5.66 240 13:59 23.02.2021
2225 Clear 17 1031 51 10000 5.66 240 13:35 23.02.2021
2226 Clear 16 1031 51 10000 5.14 240 12:57 23.02.2021
2227 Clear 16 1031 51 10000 5.14 240 12:57 23.02.2021
2228 Clear 16 1031 51 10000 5.66 220 12:28 23.02.2021
2229 Clear 16 1031 51 10000 3.6 220 11:58 23.02.2021
2230 Clear 15 1030 54 10000 3.09 200 11:28 23.02.2021
2231 Clear 13 1030 58 10000 2.06 200 10:56 23.02.2021
2232 Clear 13 1030 58 10000 2.06 200 10:38 23.02.2021
2233 Clear 11 1030 71 10000 4.56 211 09:59 23.02.2021
2234 Clear 11 1030 71 10000 4.56 211 09:41 23.02.2021
2235 Clear 9 1030 61 10000 3.81 212 09:20 23.02.2021
2236 Clear 9 1030 71 10000 3.81 212 08:45 23.02.2021
2237 Clear 9 1029 61 10000 2.72 203 08:20 23.02.2021
2238 Clear 8 1028 57 10000 1.03 220 06:56 23.02.2021
2239 Clouds 9 1027 54 10000 2.57 170 05:27 23.02.2021
2240 Clouds 9 1027 57 10000 1.03 230 02:43 23.02.2021
2241 Clouds 9 1027 57 10000 2.57 210 02:24 23.02.2021
2242 Clouds 9 1026 57 10000 2.06 220 00:19 23.02.2021
2243 Clouds 10 1025 54 10000 2.57 220 23:32 22.02.2021
2244 Clear 10 1025 58 10000 1.54 210 22:57 22.02.2021
2245 Clear 10 1025 58 10000 1.54 210 22:38 22.02.2021
2246 Clear 10 1024 71 10000 1.54 200 22:19 22.02.2021
2247 Clear 11 1024 71 10000 3.85 222 21:38 22.02.2021
2248 Clear 11 1024 71 10000 1.03 0 21:20 22.02.2021
2249 Clouds 11 1023 71 10000 2.06 170 20:48 22.02.2021
2250 Clouds 11 1023 71 10000 2.57 170 20:27 22.02.2021
2251 Clear 11 1023 71 10000 3.09 180 19:50 22.02.2021
2252 Clear 11 1023 66 10000 1.03 0 19:30 22.02.2021
2253 Clear 11 1022 62 10000 1.03 100 18:49 22.02.2021
2254 Clear 12 1022 58 10000 2.06 170 18:29 22.02.2021
2255 Clear 13 1022 54 10000 1.54 140 17:51 22.02.2021
2256 Clear 14 1022 48 10000 1.54 240 17:22 22.02.2021
2257 Clear 16 1021 42 10000 2.57 170 16:51 22.02.2021
2258 Clear 16 1021 39 10000 3.09 180 16:30 22.02.2021
2259 Clear 17 1020 30 10000 2.57 200 15:39 22.02.2021
2260 Clear 17 1020 32 10000 3.09 150 15:21 22.02.2021
2261 Clear 17 1020 34 10000 2.57 130 14:42 22.02.2021
2262 Clear 17 1020 39 10000 3.6 120 14:21 22.02.2021
2263 Clear 16 1020 41 10000 3.09 240 13:41 22.02.2021
2264 Clear 17 1021 41 10000 3.09 230 12:55 22.02.2021
2265 Clear 15 1020 44 10000 3.09 230 12:23 22.02.2021
2266 Clear 14 1020 41 10000 2.57 210 11:57 22.02.2021
2267 Clear 14 1020 41 10000 2.57 210 11:33 22.02.2021
2268 Clear 12 1020 50 10000 2.06 210 10:59 22.02.2021
2269 Clear 12 1020 50 10000 2.06 210 10:41 22.02.2021
2270 Clear 10 1019 57 10000 1.54 170 10:21 22.02.2021
2271 Clear 8 1019 75 10000 1.98 197 09:40 22.02.2021
2272 Clear 5 1019 87 10000 1.54 100 09:22 22.02.2021
2273 Clear 4 1019 87 10000 2.06 100 08:49 22.02.2021
2274 Clear 4 1019 93 10000 1.64 173 08:21 22.02.2021
2275 Clear 4 1018 80 10000 1.54 100 07:50 22.02.2021
2276 Clear 3 1018 87 10000 2.06 90 07:23 22.02.2021
2277 Clear 4 1018 87 10000 2.06 100 06:28 22.02.2021
2278 Clear 5 1018 87 10000 2.06 100 05:21 22.02.2021
2279 Clear 6 1018 87 10000 0.51 0 03:24 22.02.2021
2280 Clear 5 1018 87 10000 1.54 90 02:33 22.02.2021
2281 Clear 6 1018 75 10000 1.03 0 00:45 22.02.2021
2282 Clear 6 1017 75 10000 1.54 100 00:19 22.02.2021
2283 Clear 7 1017 70 10000 2.06 110 23:27 21.02.2021
2284 Clear 7 1017 65 10000 1.03 0 22:43 21.02.2021
2285 Clear 8 1017 65 10000 1.54 110 22:22 21.02.2021
2286 Clear 8 1017 61 10000 1.54 140 21:37 21.02.2021
2287 Clear 10 1017 47 10000 1.54 110 20:59 21.02.2021
2288 Clear 10 1017 47 10000 1.54 110 20:40 21.02.2021
2289 Clear 10 1016 47 10000 2.06 130 20:19 21.02.2021
2290 Clear 11 1016 44 10000 2.57 160 19:51 21.02.2021
2291 Clear 10 1016 44 10000 2.57 160 19:32 21.02.2021
2292 Clear 10 1016 44 10000 2.57 160 19:32 21.02.2021
2293 Clear 11 1016 43 10000 1.03 0 18:49 21.02.2021
2294 Clear 12 1016 36 10000 1.76 183 18:25 21.02.2021
2295 Clear 15 1016 32 10000 2.06 250 17:30 21.02.2021
2296 Clear 17 1016 30 10000 1.54 200 16:58 21.02.2021
2297 Clear 17 1016 30 10000 1.54 200 16:35 21.02.2021
2298 Clear 17 1016 27 10000 5.66 220 15:57 21.02.2021
2299 Clear 17 1016 26 10000 6.17 210 15:23 21.02.2021
2300 Clear 17 1016 34 10000 3.6 190 14:56 21.02.2021
2301 Clear 18 1016 34 10000 3.6 190 14:37 21.02.2021
2302 Clear 18 1016 32 10000 4.12 220 13:49 21.02.2021
2303 Clear 17 1016 32 10000 4.12 220 13:28 21.02.2021
2304 Clear 17 1016 29 10000 6.69 230 12:32 21.02.2021
2305 Clear 16 1016 39 10000 4.63 210 11:59 21.02.2021
2306 Clear 16 1016 39 10000 4.63 210 11:41 21.02.2021
2307 Clear 14 1017 51 10000 2.57 230 10:46 21.02.2021
2308 Clear 12 1016 54 10000 1.54 230 10:21 21.02.2021
2309 Clear 11 1016 58 10000 2.53 190 09:43 21.02.2021
2310 Clear 8 1016 76 10000 2.58 188 09:24 21.02.2021
2311 Clear 8 1014 38 10000 2.58 188 08:36 21.02.2021
2312 Clear 7 1009 64 10000 2.58 203 07:58 21.02.2021
2313 Clouds 5 1009 70 10000 2.61 206 07:23 21.02.2021
2314 Clouds 6 1008 70 10000 2.66 207 06:24 21.02.2021
2315 Clouds 7 1014 83 10000 2.15 201 02:43 21.02.2021
2316 Clouds 8 1014 81 10000 0.89 360 01:22 21.02.2021
2317 Clouds 8 1012 38 10000 1.34 123 00:22 21.02.2021
2318 Clouds 7 1012 38 10000 1.34 123 23:59 20.02.2021
2319 Clouds 6 1014 82 10000 2.76 173 22:58 20.02.2021
2320 Clouds 8 1014 79 10000 2.76 173 22:34 20.02.2021
2321 Clouds 7 1013 30 10000 1.34 145 21:59 20.02.2021
2322 Clouds 7 1013 30 10000 1.34 145 21:41 20.02.2021
2323 Clear 8 1013 30 10000 1.34 145 21:18 20.02.2021
2324 Clear 9 1013 30 10000 1.79 127 20:42 20.02.2021
2325 Clear 9 1014 84 10000 3.32 143 20:20 20.02.2021
2326 Clear 9 1013 24 10000 1.34 131 19:48 20.02.2021
2327 Clear 11 1016 62 10000 1.54 140 18:58 20.02.2021
2328 Clear 10 1016 62 10000 1.54 140 18:37 20.02.2021
2329 Clear 11 1016 62 10000 1.54 140 18:19 20.02.2021
2330 Clear 12 1016 62 10000 1.54 140 17:36 20.02.2021
2331 Clear 14 1016 51 10000 2.57 160 16:54 20.02.2021
2332 Clear 15 1016 51 10000 3.6 160 16:27 20.02.2021
2333 Clear 15 1016 48 10000 3.6 180 15:46 20.02.2021
2334 Clear 16 1016 51 10000 4.12 210 15:21 20.02.2021
2335 Clear 16 1016 51 10000 4.63 220 14:44 20.02.2021
2336 Clear 15 1016 55 10000 3.09 170 14:23 20.02.2021
2337 Clear 15 1017 62 10000 3.09 180 13:41 20.02.2021
2338 Clouds 14 1017 62 10000 3.09 180 13:23 20.02.2021
2339 Clear 14 1017 62 10000 3.09 170 12:50 20.02.2021
2340 Clear 13 1017 62 10000 4.12 180 12:23 20.02.2021
2341 Clear 12 1017 66 10000 2.57 160 11:44 20.02.2021
2342 Clear 11 1017 66 10000 3.09 170 11:24 20.02.2021
2343 Clear 10 1018 71 10000 1.54 180 10:49 20.02.2021
2344 Clear 7 1017 75 10000 2.15 167 09:55 20.02.2021
2345 Clear 5 1017 87 10000 2.06 100 09:28 20.02.2021
2346 Clouds 5 1017 87 10000 2.57 120 08:36 20.02.2021
2347 Clouds 4 1017 87 10000 2.57 110 07:57 20.02.2021
2348 Clouds 5 1017 75 10000 1.54 100 03:32 20.02.2021
2349 Clouds 5 1017 70 10000 2.06 130 02:25 20.02.2021
2350 Clouds 5 1017 70 10000 3.09 130 01:49 20.02.2021
2351 Clouds 5 1017 65 10000 3.6 140 00:45 20.02.2021
2352 Clouds 5 1018 65 10000 2.57 150 00:20 20.02.2021
2353 Clouds 5 1018 65 10000 2.06 140 23:18 19.02.2021
2354 Clouds 5 1018 70 10000 2.57 140 22:28 19.02.2021
2355 Clouds 5 1018 70 10000 2.06 130 21:58 19.02.2021
2356 Clouds 5 1018 70 10000 2.06 130 21:32 19.02.2021
2357 Clouds 5 1018 70 10000 2.06 120 20:57 19.02.2021
2358 Clouds 5 1018 70 10000 2.06 120 20:37 19.02.2021
2359 Clouds 5 1018 70 10000 2.06 150 20:18 19.02.2021
2360 Clear 6 1018 61 10000 2.06 160 19:30 19.02.2021
2361 Clear 6 1018 61 10000 1.54 150 18:57 19.02.2021
2362 Clear 6 1018 61 10000 1.54 150 18:35 19.02.2021
2363 Clear 8 1018 53 10000 2.06 190 17:56 19.02.2021
2364 Clouds 8 1018 53 10000 3.6 210 17:24 19.02.2021
2365 Clouds 9 1018 53 10000 2.57 210 16:39 19.02.2021
2366 Clouds 9 1018 57 10000 3.09 230 16:20 19.02.2021
2367 Clouds 10 1018 57 10000 3.09 240 15:47 19.02.2021
2368 Clouds 10 1018 62 10000 3.6 210 15:27 19.02.2021
2369 Clouds 10 1018 57 10000 4.63 250 14:44 19.02.2021
2370 Clear 10 1018 57 10000 5.66 240 14:26 19.02.2021
2371 Clouds 10 1018 61 10000 5.14 260 13:53 19.02.2021
2372 Clouds 10 1018 61 10000 5.14 260 13:25 19.02.2021
2373 Clouds 9 1018 61 10000 7.2 250 12:52 19.02.2021
2374 Clouds 9 1018 66 10000 7.2 260 12:24 19.02.2021
2375 Clouds 8 1018 71 10000 7.2 250 11:54 19.02.2021
2376 Clouds 8 1017 76 10000 6.17 240 11:26 19.02.2021
2377 Clear 7 1017 76 10000 5.66 240 10:54 19.02.2021
2378 Clear 7 1017 70 10000 5.66 250 10:31 19.02.2021
2379 Clear 6 1017 75 10000 5.14 250 09:51 19.02.2021
2380 Clear 6 1016 81 10000 5.14 250 09:27 19.02.2021
2381 Clear 5 1016 75 10000 4.63 250 08:54 19.02.2021
2382 Clear 4 1016 81 10000 4.63 250 08:26 19.02.2021
2383 Clear 4 1015 81 10000 4.63 250 07:54 19.02.2021
2384 Clear 4 1015 81 10000 4.63 250 07:35 19.02.2021
2385 Clouds 4 1014 81 10000 5.14 250 06:55 19.02.2021
2386 Clouds 4 1014 87 10000 4.12 260 06:27 19.02.2021
2387 Clouds 6 1013 81 10000 4.63 260 04:41 19.02.2021
2388 Rain 8 1009 76 10000 7.2 240 01:49 19.02.2021
2389 Clouds 7 1008 81 10000 1.03 0 00:59 19.02.2021
2390 Rain 7 1008 76 10000 2.06 190 00:26 19.02.2021
2391 Rain 8 1008 71 10000 2.06 150 23:43 18.02.2021
2392 Rain 8 1008 71 10000 2.57 150 23:25 18.02.2021
2393 Rain 8 1008 57 10000 3.6 150 22:36 18.02.2021
2394 Rain 8 1008 57 10000 4.12 150 22:18 18.02.2021
2395 Clouds 8 1008 61 10000 5.14 150 21:37 18.02.2021
2396 Clouds 8 1008 61 10000 5.14 150 21:19 18.02.2021
2397 Clouds 8 1009 57 10000 4.12 140 20:39 18.02.2021
2398 Clouds 8 1009 61 10000 5.14 140 20:20 18.02.2021
2399 Rain 8 1010 61 10000 5.14 140 19:43 18.02.2021
2400 Rain 8 1010 61 10000 5.14 140 19:20 18.02.2021
2401 Clear 7 1010 57 10000 5.66 140 18:50 18.02.2021
2402 Clear 8 1010 61 10000 4.12 130 18:26 18.02.2021
2403 Clear 8 1011 61 10000 5.14 150 17:49 18.02.2021
2404 Clear 8 1011 61 10000 5.14 140 17:24 18.02.2021
2405 Clear 9 1012 61 10000 5.14 140 16:47 18.02.2021
2406 Clear 9 1012 57 10000 3.6 140 16:29 18.02.2021
2407 Clear 10 1012 62 10000 5.14 130 15:43 18.02.2021
2408 Clear 10 1013 58 10000 5.14 140 15:24 18.02.2021
2409 Clear 11 1013 54 10000 4.12 140 14:55 18.02.2021
2410 Clear 11 1013 54 10000 4.12 140 14:34 18.02.2021
2411 Clear 11 1015 58 10000 4.63 150 13:50 18.02.2021
2412 Clear 11 1015 58 10000 4.63 150 13:22 18.02.2021
2413 Clear 11 1015 62 10000 3.09 120 12:56 18.02.2021
2414 Clear 11 1015 62 10000 3.09 120 12:36 18.02.2021
2415 Clear 9 1016 71 10000 2.57 150 11:48 18.02.2021
2416 Clouds 8 1016 76 10000 3.09 170 11:28 18.02.2021
2417 Clouds 8 1016 76 10000 2.57 170 10:59 18.02.2021
2418 Clouds 7 1016 76 10000 2.57 170 10:41 18.02.2021
2419 Clouds 6 1016 76 10000 2.06 180 10:23 18.02.2021
2420 Clear 6 1017 75 10000 2.06 150 09:39 18.02.2021
2421 Clouds 5 1017 81 10000 2.57 140 09:20 18.02.2021
2422 Clouds 5 1016 81 10000 3.09 150 08:37 18.02.2021
2423 Clouds 4 1016 81 10000 3.09 150 08:19 18.02.2021
2424 Clouds 5 1016 81 10000 3.09 150 07:31 18.02.2021
2425 Clouds 5 1017 75 10000 3.6 170 06:40 18.02.2021
2426 Clouds 6 1018 81 10000 0.51 0 02:21 18.02.2021
2427 Clouds 6 1018 76 10000 2.06 190 23:51 17.02.2021
2428 Clouds 6 1018 76 10000 2.06 200 23:21 17.02.2021
2429 Clouds 6 1017 76 10000 1.54 190 22:51 17.02.2021
2430 Clouds 6 1018 81 10000 1.03 0 22:26 17.02.2021
2431 Clouds 6 1018 81 10000 0.51 0 21:50 17.02.2021
2432 Clouds 6 1018 81 10000 3.27 222 21:22 17.02.2021
2433 Clear 6 1017 81 10000 0.51 0 20:47 17.02.2021
2434 Clouds 6 1018 81 10000 1.54 160 20:29 17.02.2021
2435 Clouds 6 1018 87 10000 2.98 230 19:49 17.02.2021
2436 Clouds 6 1017 87 10000 0.51 120 19:31 17.02.2021
2437 Clouds 6 1017 81 10000 3.19 239 18:45 17.02.2021
2438 Clouds 6 1017 81 10000 2.06 230 18:25 17.02.2021
2439 Clouds 7 1017 81 10000 2.57 250 17:42 17.02.2021
2440 Clouds 8 1017 76 10000 4.12 270 17:20 17.02.2021
2441 Clouds 8 1016 76 10000 4.63 270 16:46 17.02.2021
2442 Clouds 8 1016 76 10000 4.63 270 16:27 17.02.2021
2443 Clouds 8 1016 76 10000 6.17 270 15:44 17.02.2021
2444 Clouds 9 1016 71 10000 6.17 260 15:26 17.02.2021
2445 Clouds 8 1016 76 10000 6.69 270 14:49 17.02.2021
2446 Clouds 9 1016 76 10000 4.63 250 14:29 17.02.2021
2447 Clouds 8 1016 81 10000 5.66 250 13:48 17.02.2021
2448 Clouds 8 1016 81 10000 4.63 270 13:30 17.02.2021
2449 Clouds 8 1015 81 10000 5.14 260 12:49 17.02.2021
2450 Clouds 7 1015 87 10000 5.14 270 12:24 17.02.2021
2451 Clouds 6 1015 93 10000 6.17 260 11:45 17.02.2021
2452 Clouds 6 1015 87 10000 5.66 260 11:25 17.02.2021
2453 Rain 6 1014 87 10000 6.17 260 10:49 17.02.2021
2454 Clouds 7 1014 81 10000 6.17 260 10:31 17.02.2021
2455 Clouds 6 1014 87 10000 5.14 260 09:56 17.02.2021
2456 Clouds 6 1014 87 10000 5.14 260 09:36 17.02.2021
2457 Clouds 5 1013 87 10000 6.17 250 08:49 17.02.2021
2458 Clouds 5 1013 87 10000 5.66 250 08:23 17.02.2021
2459 Clouds 5 1012 87 10000 5.14 250 07:55 17.02.2021
2460 Clouds 5 1012 93 8000 5.66 250 06:37 17.02.2021
2461 Clouds 5 1012 93 8000 5.66 250 06:37 17.02.2021
2462 Clouds 4 1010 87 10000 5.14 240 03:52 17.02.2021
2463 Rain 5 1010 81 10000 4.63 240 02:31 17.02.2021
2464 Clouds 5 1010 75 10000 4.12 230 01:35 17.02.2021
2465 Clouds 5 1010 70 10000 3.6 220 00:28 17.02.2021
2466 Clouds 5 1010 75 10000 3.6 220 23:39 16.02.2021
2467 Clouds 4 1010 81 10000 2.06 190 22:58 16.02.2021
2468 Clouds 4 1010 81 10000 2.06 190 22:39 16.02.2021
2469 Clouds 3 1010 87 10000 2.57 190 22:21 16.02.2021
2470 Clouds 3 1010 87 10000 1.54 180 21:39 16.02.2021
2471 Clouds 3 1011 87 10000 3.09 180 21:21 16.02.2021
2472 Clouds 3 1011 87 10000 3.6 160 20:56 16.02.2021
2473 Clouds 3 1011 87 10000 3.6 160 20:38 16.02.2021
2474 Clouds 3 1011 87 10000 3.09 180 20:19 16.02.2021
2475 Clouds 3 1011 87 10000 4.12 170 19:39 16.02.2021
2476 Clear 3 1012 87 10000 3.09 180 19:20 16.02.2021
2477 Clear 4 1012 81 10000 2.06 150 18:38 16.02.2021
2478 Clear 4 1013 87 10000 2.57 130 18:19 16.02.2021
2479 Clear 4 1013 87 10000 1.54 150 17:48 16.02.2021
2480 Clear 4 1014 81 10000 2.06 160 17:23 16.02.2021
2481 Clear 5 1014 81 10000 2.57 160 16:45 16.02.2021
2482 Clear 5 1015 81 10000 2.57 170 16:24 16.02.2021
2483 Clouds 5 1015 75 10000 3.09 170 15:44 16.02.2021
2484 Clouds 6 1016 81 10000 2.57 170 15:26 16.02.2021
2485 Clouds 6 1016 81 10000 2.06 180 14:47 16.02.2021
2486 Clouds 5 1017 87 10000 3.09 240 14:28 16.02.2021
2487 Clouds 5 1017 87 10000 2.06 180 13:56 16.02.2021
2488 Clouds 5 1017 87 10000 2.06 180 13:33 16.02.2021
2489 Clouds 5 1017 87 10000 3.09 160 12:44 16.02.2021
2490 Clouds 4 1018 87 10000 2.57 230 12:24 16.02.2021
2491 Rain 4 1018 81 10000 1.54 220 11:49 16.02.2021
2492 Rain 4 1018 87 10000 2.57 220 11:23 16.02.2021
2493 Clouds 4 1018 81 10000 2.57 220 10:56 16.02.2021
2494 Clouds 4 1019 81 10000 3.09 230 10:38 16.02.2021
2495 Clouds 3 1019 81 10000 3.09 230 10:20 16.02.2021
2496 Clouds 3 1019 93 8000 1.54 230 09:47 16.02.2021
2497 Clouds 3 1019 93 8000 1.54 230 09:47 16.02.2021
2498 Clouds 3 1018 93 8000 2.93 206 09:26 16.02.2021
2499 Clouds 2 1019 87 8000 1.54 210 08:42 16.02.2021
2500 Clouds 2 1019 93 7000 1.54 210 08:21 16.02.2021
2501 Clouds 2 1019 93 8000 3.09 240 07:25 16.02.2021
2502 Clouds 2 1020 93 4500 3.09 250 05:31 16.02.2021
2503 Rain 1 1021 93 4100 4.12 240 00:51 16.02.2021
2504 Clouds 1 1021 93 7000 4.12 240 23:41 15.02.2021
2505 Clouds 1 1021 93 9000 5.14 240 23:20 15.02.2021
2506 Clouds 1 1021 93 7000 5.14 240 22:44 15.02.2021
2507 Clouds 1 1021 93 6000 5.14 240 22:23 15.02.2021
2508 Clouds 1 1021 93 8000 4.63 230 21:42 15.02.2021
2509 Rain 1 1021 93 9000 3.6 240 21:22 15.02.2021
2510 Rain 1 1021 93 4200 4.63 230 20:47 15.02.2021
2511 Clouds 1 1021 86 10000 4.12 230 20:27 15.02.2021
2512 Clouds 1 1022 93 10000 2.06 190 19:48 15.02.2021
2513 Rain 0 1021 93 9000 1.54 160 19:24 15.02.2021
2514 Rain 0 1022 93 5000 2.57 180 18:47 15.02.2021
2515 Rain 0 1021 93 6000 4.12 150 18:26 15.02.2021
2516 Rain 0 1022 100 9000 4.12 150 17:44 15.02.2021
2517 Rain 1 1023 93 10000 4.63 150 17:26 15.02.2021
2518 Snow 1 1023 93 10000 5.14 140 16:57 15.02.2021
2519 Snow 1 1024 86 4500 4.63 150 16:29 15.02.2021
2520 Snow 1 1025 60 4500 3.09 130 15:58 15.02.2021
2521 Snow 1 1025 60 4500 3.09 130 15:40 15.02.2021
2522 Snow 1 1026 55 10000 4.12 130 15:18 15.02.2021
2523 Snow 1 1026 47 10000 2.57 150 14:43 15.02.2021
2524 Clear 1 1026 40 10000 3.6 150 14:20 15.02.2021
2525 Clouds 1 1027 35 10000 3.09 150 13:48 15.02.2021
2526 Snow 1 1027 40 10000 3.09 140 13:20 15.02.2021
2527 Snow 1 1027 40 10000 3.09 140 13:20 15.02.2021
2528 Snow 0 1027 51 10000 3.6 110 12:45 15.02.2021
2529 Clear 0 1028 51 10000 3.6 120 12:22 15.02.2021
2530 Snow -1 1029 47 10000 2.57 120 11:50 15.02.2021
2531 Clear -1 1029 51 10000 1.54 100 11:23 15.02.2021
2532 Clear -2 1030 54 10000 2.57 120 10:50 15.02.2021
2533 Clear -3 1030 58 10000 3.09 110 10:28 15.02.2021
2534 Clear -5 1030 63 10000 2.57 110 09:57 15.02.2021
2535 Clear -4 1030 63 10000 2.57 110 09:39 15.02.2021
2536 Clear -6 1030 73 10000 2.57 120 09:21 15.02.2021
2537 Clear -7 1031 73 10000 2.57 120 08:21 15.02.2021
2538 Clear -8 1032 73 10000 2.57 100 07:18 15.02.2021
2539 Clouds -8 1032 79 10000 2.06 100 06:41 15.02.2021
2540 Clouds -9 1035 72 10000 2.06 110 02:52 15.02.2021
2541 Clouds -9 1035 72 10000 2.06 100 02:20 15.02.2021
2542 Clouds -10 1037 78 8000 2.06 90 23:59 14.02.2021
2543 Clouds -11 1037 78 7000 2.57 110 23:25 14.02.2021
2544 Clouds -10 1037 78 7000 2.06 100 22:46 14.02.2021
2545 Clouds -10 1037 78 7000 2.57 100 22:23 14.02.2021
2546 Clouds -10 1038 78 8000 1.54 110 21:51 14.02.2021
2547 Clouds -10 1038 78 8000 1.03 110 21:30 14.02.2021
2548 Clouds -9 1038 78 9000 2.06 110 20:53 14.02.2021
2549 Clouds -10 1038 72 9000 2.06 110 20:30 14.02.2021
2550 Clouds -9 1039 72 10000 2.06 110 19:50 14.02.2021
2551 Clouds -9 1039 67 10000 1.54 110 19:31 14.02.2021
2552 Clouds -9 1039 73 10000 1.54 170 18:42 14.02.2021
2553 Clouds -8 1039 67 10000 2.51 138 18:22 14.02.2021
2554 Clear -7 1039 68 10000 2.06 190 17:42 14.02.2021
2555 Clear -5 1039 63 10000 1.03 130 17:19 14.02.2021
2556 Clear -5 1039 59 10000 2.01 138 16:40 14.02.2021
2557 Clear -4 1039 59 10000 1.03 110 16:20 14.02.2021
2558 Clear -4 1040 59 10000 2.57 190 15:44 14.02.2021
2559 Clear -3 1040 63 10000 2.57 160 14:59 14.02.2021
2560 Clear -3 1040 63 10000 2.57 160 14:32 14.02.2021
2561 Clear -3 1041 63 10000 2.06 160 13:57 14.02.2021
2562 Clear -3 1041 63 10000 2.06 160 13:32 14.02.2021
2563 Clear -4 1041 86 10000 1.54 140 12:54 14.02.2021
2564 Clear -5 1041 86 10000 1.03 0 12:22 14.02.2021
2565 Clear -6 1041 85 10000 2.06 100 11:51 14.02.2021
2566 Clear -7 1041 79 10000 1.03 120 11:26 14.02.2021
2567 Clear -8 1042 79 10000 1.03 100 10:57 14.02.2021
2568 Clouds -12 1041 78 10000 1.03 110 09:59 14.02.2021
2569 Clouds -12 1041 78 10000 1.03 110 09:40 14.02.2021
2570 Clouds -14 1041 78 8000 1.54 100 09:21 14.02.2021
2571 Clouds -16 1041 78 9000 1.54 90 08:43 14.02.2021
2572 Clouds -18 1041 78 10000 1.03 90 07:58 14.02.2021
2573 Clouds -18 1041 78 10000 1.03 90 06:54 14.02.2021
2574 Clouds -18 1041 78 10000 1.03 90 05:43 14.02.2021
2575 Clouds -17 1042 78 10000 1.03 100 03:33 14.02.2021
2576 Clear -16 1041 78 10000 1.54 90 02:29 14.02.2021
2577 Clouds -14 1042 72 10000 1.58 170 00:54 14.02.2021
2578 Clouds -14 1042 72 10000 1.58 170 00:34 14.02.2021
2579 Clear -12 1042 78 10000 1.54 100 23:42 13.02.2021
2580 Clouds -13 1042 78 10000 2.06 90 23:23 13.02.2021
2581 Clear -13 1042 85 10000 1.54 100 22:49 13.02.2021
2582 Clear -12 1042 78 10000 1.54 100 22:21 13.02.2021
2583 Clouds -12 1042 79 10000 1.54 100 21:49 13.02.2021
2584 Clouds -11 1042 85 10000 1.54 110 21:22 13.02.2021
2585 Clear -11 1042 85 10000 0.51 110 20:43 13.02.2021
2586 Clear -11 1042 85 8000 1.54 110 20:22 13.02.2021
2587 Clear -10 1042 79 8000 0.98 175 19:47 13.02.2021
2588 Clear -10 1042 86 8000 1.02 183 19:23 13.02.2021
2589 Clear -9 1042 86 10000 0.51 0 18:49 13.02.2021
2590 Clear -9 1041 79 10000 0.86 191 18:24 13.02.2021
2591 Clouds -6 1041 74 10000 0.86 190 17:43 13.02.2021
2592 Clouds -6 1041 74 10000 0.51 0 17:23 13.02.2021
2593 Clouds -5 1041 74 10000 0.62 243 16:48 13.02.2021
2594 Clouds -5 1041 80 10000 1.03 290 16:30 13.02.2021
2595 Clouds -4 1041 74 10000 1.54 290 15:43 13.02.2021
2596 Clouds -4 1041 74 10000 1.54 300 15:24 13.02.2021
2597 Clouds -4 1042 68 10000 1.54 290 14:34 13.02.2021
2598 Clouds -5 1042 79 10000 2.06 290 13:49 13.02.2021
2599 Clouds -5 1042 79 10000 1.03 310 13:26 13.02.2021
2600 Clouds -6 1042 86 10000 0.51 0 12:52 13.02.2021
2601 Clouds -7 1041 79 10000 2.06 280 12:21 13.02.2021
2602 Clouds -8 1041 85 10000 1.54 280 11:47 13.02.2021
2603 Clouds -9 1041 85 10000 1.03 0 11:21 13.02.2021
2604 Clouds -9 1041 85 10000 0.51 0 10:58 13.02.2021
2605 Clouds -9 1041 85 10000 0.51 0 10:40 13.02.2021
2606 Clouds -11 1041 78 10000 0.92 227 10:21 13.02.2021
2607 Clouds -12 1041 85 10000 1.03 110 09:45 13.02.2021
2608 Clouds -13 1041 78 10000 0.51 0 09:22 13.02.2021
2609 Clouds -14 1041 78 7000 0.43 241 08:42 13.02.2021
2610 Clouds -16 1041 78 7000 0.3 280 07:56 13.02.2021
2611 Clouds -17 1040 78 10000 0.47 262 06:44 13.02.2021
2612 Clouds -17 1040 78 10000 0.31 251 06:22 13.02.2021
2613 Clear -18 1040 78 10000 0.29 66 04:27 13.02.2021
2614 Clear -14 1039 78 10000 0.84 78 02:25 13.02.2021
2615 Clouds -13 1039 78 10000 1.26 75 00:54 13.02.2021
2616 Clouds -13 1039 78 10000 1.26 75 00:54 13.02.2021
2617 Clouds -13 1039 85 10000 1.3 78 23:57 12.02.2021
2618 Clouds -12 1039 85 10000 1.3 78 23:39 12.02.2021
2619 Clouds -12 1039 79 10000 1.44 87 23:18 12.02.2021
2620 Clouds -11 1038 79 10000 1.44 87 22:31 12.02.2021
2621 Clouds -10 1038 79 10000 1.74 82 21:57 12.02.2021
2622 Clouds -10 1038 79 10000 1.74 82 21:38 12.02.2021
2623 Clouds -9 1038 73 10000 1.03 0 21:20 12.02.2021
2624 Clouds -9 1038 73 10000 0.51 350 20:40 12.02.2021
2625 Clouds -9 1038 79 10000 1.03 0 20:20 12.02.2021
2626 Clouds -8 1037 68 10000 1.03 0 19:49 12.02.2021
2627 Clear -7 1037 63 10000 1.54 60 19:27 12.02.2021
2628 Clear -7 1037 58 10000 1.54 60 18:32 12.02.2021
2629 Clear -5 1036 54 10000 1.54 60 17:53 12.02.2021
2630 Clear -4 1036 54 10000 1.54 60 17:35 12.02.2021
2631 Clear -3 1036 50 10000 2.06 50 16:44 12.02.2021
2632 Clouds -3 1036 54 10000 2.57 70 15:49 12.02.2021
2633 Clouds -3 1036 59 10000 4.63 100 15:24 12.02.2021
2634 Clouds -3 1036 63 10000 3.6 90 14:59 12.02.2021
2635 Clouds -3 1036 63 10000 3.6 90 14:34 12.02.2021
2636 Clouds -3 1036 63 10000 4.12 100 13:48 12.02.2021
2637 Clouds -3 1036 68 10000 3.09 110 13:29 12.02.2021
2638 Clouds -3 1036 68 10000 3.09 130 12:53 12.02.2021
2639 Clouds -4 1036 68 10000 3.09 130 12:35 12.02.2021
2640 Clear -5 1035 74 10000 3.09 110 11:47 12.02.2021
2641 Clouds -5 1035 80 10000 2.57 100 11:21 12.02.2021
2642 Clouds -5 1035 86 10000 1.03 0 10:48 12.02.2021
2643 Clouds -6 1035 86 10000 1.54 70 10:19 12.02.2021
2644 Snow -7 1035 86 8000 1.54 50 09:42 12.02.2021
2645 Clouds -7 1035 86 10000 1.54 20 09:23 12.02.2021
2646 Clouds -8 1034 86 10000 0.51 0 08:45 12.02.2021
2647 Clouds -9 1034 85 9000 1.03 290 08:22 12.02.2021
2648 Clouds -9 1034 85 10000 1.87 58 07:51 12.02.2021
2649 Clouds -9 1033 86 10000 1.03 0 07:24 12.02.2021
2650 Clouds -9 1033 86 10000 1.88 46 06:49 12.02.2021
2651 Snow -9 1033 86 2100 0.51 0 05:37 12.02.2021
2652 Clouds -10 1033 86 10000 1.05 10 03:35 12.02.2021
2653 Clouds -10 1032 86 7000 1.38 30 00:32 12.02.2021
2654 Clouds -9 1032 86 6000 1.23 25 23:38 11.02.2021
2655 Clouds -9 1032 85 5000 1.1 30 23:18 11.02.2021
2656 Clouds -9 1032 86 6000 1.1 30 22:42 11.02.2021
2657 Clear -8 1032 86 10000 0.85 21 22:23 11.02.2021
2658 Clouds -9 1031 86 10000 0.85 21 21:43 11.02.2021
2659 Clouds -8 1031 86 10000 0.88 349 21:25 11.02.2021
2660 Clouds -8 1031 73 10000 0.88 349 20:57 11.02.2021
2661 Clouds -7 1031 73 10000 0.88 349 20:39 11.02.2021
2662 Clouds -7 1031 73 10000 1.03 0 20:19 11.02.2021
2663 Clouds -7 1031 79 10000 1.03 0 19:46 11.02.2021
2664 Clouds -7 1031 79 10000 1.54 250 19:26 11.02.2021
2665 Clouds -7 1031 79 10000 1.54 250 19:26 11.02.2021
2666 Clouds -6 1031 73 10000 1.45 313 18:42 11.02.2021
2667 Clouds -5 1030 68 10000 1.54 260 18:20 11.02.2021
2668 Clouds -4 1030 63 10000 1.03 0 17:48 11.02.2021
2669 Snow -4 1030 63 10000 3.09 280 17:21 11.02.2021
2670 Snow -3 1029 63 10000 3.09 270 16:46 11.02.2021
2671 Clouds -3 1029 59 10000 2.57 270 16:27 11.02.2021
2672 Clouds -3 1029 63 10000 2.57 260 15:47 11.02.2021
2673 Snow -3 1029 63 10000 2.06 280 15:26 11.02.2021
2674 Snow -3 1029 63 10000 2.06 270 14:58 11.02.2021
2675 Snow -3 1029 63 10000 2.06 270 14:32 11.02.2021
2676 Clouds -4 1029 68 10000 3.09 270 13:44 11.02.2021
2677 Clouds -4 1028 74 10000 3.09 290 13:21 11.02.2021
2678 Clouds -4 1028 74 10000 2.57 290 12:56 11.02.2021
2679 Clouds -4 1028 74 10000 2.57 290 12:35 11.02.2021
2680 Clouds -4 1028 73 10000 2.06 270 11:57 11.02.2021
2681 Clouds -5 1028 73 10000 2.06 270 11:39 11.02.2021
2682 Clouds -5 1028 79 10000 2.06 280 11:18 11.02.2021
2683 Clouds -6 1027 79 10000 2.57 280 10:39 11.02.2021
2684 Clouds -7 1027 86 10000 2.57 280 10:21 11.02.2021
2685 Clouds -7 1027 86 10000 1.54 280 09:41 11.02.2021
2686 Clouds -7 1027 86 10000 2.06 280 09:19 11.02.2021
2687 Clouds -8 1026 86 10000 2.06 280 08:49 11.02.2021
2688 Snow -9 1026 86 10000 2.06 260 07:54 11.02.2021
2689 Clouds -9 1025 86 10000 2.06 290 06:48 11.02.2021
2690 Clouds -10 1024 85 10000 2.06 290 06:25 11.02.2021
2691 Clouds -8 1022 86 10000 2.06 340 03:48 11.02.2021
2692 Clouds -6 1021 86 10000 2.06 340 02:28 11.02.2021
2693 Clouds -5 1020 86 10000 2.06 340 00:36 11.02.2021
2694 Clouds -5 1020 86 10000 2.06 330 00:18 11.02.2021
2695 Clouds -6 1019 86 10000 2.06 330 23:35 10.02.2021
2696 Clouds -6 1019 86 10000 2.06 340 22:49 10.02.2021
2697 Clouds -6 1018 86 10000 2.06 340 22:26 10.02.2021
2698 Snow -5 1018 80 10000 2.06 360 21:41 10.02.2021
2699 Snow -5 1017 86 10000 2.06 0 21:22 10.02.2021
2700 Snow -5 1016 86 10000 2.57 360 20:59 10.02.2021
2701 Snow -4 1016 86 10000 2.57 360 20:39 10.02.2021
2702 Snow -4 1016 80 10000 3.09 350 20:20 10.02.2021
2703 Snow -4 1015 80 10000 3.09 350 19:43 10.02.2021
2704 Snow -4 1015 80 10000 3.09 350 19:22 10.02.2021
2705 Snow -3 1015 80 10000 2.06 10 18:40 10.02.2021
2706 Snow -3 1014 80 10000 1.54 0 18:21 10.02.2021
2707 Snow -4 1014 86 4800 1.54 260 17:50 10.02.2021
2708 Snow -3 1013 80 6000 1.54 250 17:22 10.02.2021
2709 Snow -3 1013 80 9000 1.54 270 16:50 10.02.2021
2710 Snow -3 1013 80 9000 1.03 0 16:29 10.02.2021
2711 Snow -3 1012 74 10000 1.54 260 15:45 10.02.2021
2712 Clouds -4 1012 74 10000 1.54 260 15:22 10.02.2021
2713 Snow -4 1012 80 10000 2.06 260 14:42 10.02.2021
2714 Snow -4 1012 74 10000 2.57 260 14:21 10.02.2021
2715 Clouds -4 1011 80 10000 2.06 250 13:50 10.02.2021
2716 Clouds -5 1011 80 10000 1.54 260 13:27 10.02.2021
2717 Clouds -5 1011 86 10000 1.03 250 12:48 10.02.2021
2718 Clouds -5 1011 79 8000 1.03 0 12:29 10.02.2021
2719 Clouds -6 1011 79 10000 1.54 250 11:47 10.02.2021
2720 Clouds -7 1010 79 10000 0.51 0 11:29 10.02.2021
2721 Clouds -7 1010 79 10000 0.51 0 11:29 10.02.2021
2722 Clouds -7 1010 79 10000 1.54 270 10:52 10.02.2021
2723 Clouds -8 1010 79 10000 2.06 280 10:21 10.02.2021
2724 Clouds -9 1010 79 10000 2.06 260 09:44 10.02.2021
2725 Clouds -10 1009 85 10000 2.06 240 09:22 10.02.2021
2726 Clouds -10 1009 79 10000 1.54 260 08:50 10.02.2021
2727 Clouds -11 1009 79 10000 1.54 260 08:30 10.02.2021
2728 Clouds -12 1008 79 10000 1.54 250 07:25 10.02.2021
2729 Snow -13 1008 85 10000 1.03 0 05:40 10.02.2021
2730 Snow -11 1009 85 10000 1.03 0 01:21 10.02.2021
2731 Snow -10 1009 79 10000 1.54 250 23:45 09.02.2021
2732 Snow -10 1009 85 10000 1.54 260 23:27 09.02.2021
2733 Snow -10 1008 85 10000 1.54 260 22:42 09.02.2021
2734 Snow -10 1008 85 10000 1.54 260 22:23 09.02.2021
2735 Snow -10 1008 85 10000 1.54 270 21:47 09.02.2021
2736 Snow -10 1008 85 10000 0.93 241 21:21 09.02.2021
2737 Snow -10 1008 85 10000 0.93 241 20:44 09.02.2021
2738 Snow -10 1008 85 10000 0.51 100 20:25 09.02.2021
2739 Snow -9 1008 85 10000 1.17 253 19:44 09.02.2021
2740 Snow -9 1008 85 10000 0.89 276 19:23 09.02.2021
2741 Snow -9 1008 79 10000 1.54 280 18:49 09.02.2021
2742 Snow -9 1008 79 10000 1.54 270 18:30 09.02.2021
2743 Snow -8 1008 79 10000 1.54 280 17:50 09.02.2021
2744 Snow -8 1008 79 10000 1.54 280 17:50 09.02.2021
2745 Snow -8 1008 73 9000 0.51 320 17:27 09.02.2021
2746 Snow -8 1007 73 7000 1.54 330 16:54 09.02.2021
2747 Clouds -7 1007 67 10000 2.06 330 16:20 09.02.2021
2748 Clouds -6 1007 63 10000 0.51 0 15:58 09.02.2021
2749 Clouds -7 1007 63 10000 0.51 0 15:40 09.02.2021
2750 Clouds -7 1007 63 10000 1.54 0 15:21 09.02.2021
2751 Clouds -6 1007 63 10000 2.06 10 14:43 09.02.2021
2752 Clouds -7 1007 63 10000 2.06 0 14:23 09.02.2021
2753 Clouds -7 1007 67 10000 2.06 30 13:43 09.02.2021
2754 Clouds -7 1006 67 10000 2.57 50 13:20 09.02.2021
2755 Clouds -7 1006 67 10000 2.57 50 13:20 09.02.2021
2756 Snow -7 1007 73 10000 2.57 360 12:44 09.02.2021
2757 Clouds -8 1007 73 10000 2.06 350 12:24 09.02.2021
2758 Snow -8 1007 73 10000 2.06 340 11:44 09.02.2021
2759 Snow -8 1006 73 6000 2.06 320 11:21 09.02.2021
2760 Snow -9 1006 79 6000 1.54 340 10:57 09.02.2021
2761 Snow -9 1006 79 5000 1.54 330 10:23 09.02.2021
2762 Snow -10 1006 85 6000 1.54 330 09:54 09.02.2021
2763 Snow -10 1005 85 8000 1.54 340 09:27 09.02.2021
2764 Snow -10 1005 79 5000 1.03 0 08:57 09.02.2021
2765 Snow -12 1005 85 10000 1.03 350 08:29 09.02.2021
2766 Snow -11 1005 88 3295 1.08 27 07:54 09.02.2021
2767 Clouds -11 1004 88 4075 2.05 39 05:35 09.02.2021
2768 Clouds -10 1004 88 4581 0.45 40 03:49 09.02.2021
2769 Snow -9 1004 88 269 2.74 44 01:57 09.02.2021
2770 Clouds -9 1004 88 260 0.89 36 00:31 09.02.2021
2771 Snow -9 1004 88 449 0.45 27 23:44 08.02.2021
2772 Snow -9 1003 88 1125 0.45 53 23:19 08.02.2021
2773 Snow -9 1003 88 1125 1.34 87 22:43 08.02.2021
2774 Clouds -9 1003 88 296 0.89 94 22:22 08.02.2021
2775 Snow -8 1003 88 296 0.89 57 21:49 08.02.2021
2776 Snow -8 1003 88 296 0.45 52 21:30 08.02.2021
2777 Snow -8 1003 88 191 0.89 74 20:57 08.02.2021
2778 Snow -9 1003 88 191 0.89 46 20:36 08.02.2021
2779 Snow -9 1003 79 8000 2.06 60 20:18 08.02.2021
2780 Snow -9 1003 79 8000 2.06 60 19:41 08.02.2021
2781 Snow -8 1003 79 8000 2.06 60 19:22 08.02.2021
2782 Snow -8 1003 79 7000 2.57 80 18:46 08.02.2021
2783 Snow -9 1003 79 6000 2.57 90 18:19 08.02.2021
2784 Snow -8 1003 86 3600 3.09 90 17:43 08.02.2021
2785 Snow -8 1002 86 4500 2.06 80 17:24 08.02.2021
2786 Snow -8 1002 79 3800 3.09 80 16:43 08.02.2021
2787 Snow -8 1002 86 3000 2.57 80 16:21 08.02.2021
2788 Snow -8 1002 79 2600 3.09 90 15:43 08.02.2021
2789 Snow -8 1002 79 6000 4.12 90 15:20 08.02.2021
2790 Snow -8 1003 79 2100 3.6 80 14:52 08.02.2021
2791 Snow -8 1003 79 2100 3.6 80 14:31 08.02.2021
2792 Snow -8 1003 79 1800 4.63 80 13:57 08.02.2021
2793 Snow -8 1003 79 1800 4.63 80 13:33 08.02.2021
2794 Snow -8 1003 79 1600 3.6 80 12:55 08.02.2021
2795 Snow -8 1003 79 1600 3.6 80 12:37 08.02.2021
2796 Snow -8 1004 79 2300 4.63 90 11:51 08.02.2021
2797 Snow -8 1004 79 1800 5.66 90 11:22 08.02.2021
2798 Snow -8 1003 79 1000 4.12 80 10:45 08.02.2021
2799 Snow -8 1003 73 1800 3.6 80 10:24 08.02.2021
2800 Snow -8 1003 73 2500 3.6 80 09:55 08.02.2021
2801 Snow -8 1003 73 2500 3.6 80 09:36 08.02.2021
2802 Snow -8 1003 79 2500 4.12 80 08:51 08.02.2021
2803 Snow -8 1003 79 2800 3.6 70 08:23 08.02.2021
2804 Snow -8 1003 79 3600 4.63 80 07:38 08.02.2021
2805 Snow -8 1004 86 4300 3.09 80 06:31 08.02.2021
2806 Snow -7 1004 73 5000 3.6 80 04:53 08.02.2021
2807 Snow -7 1004 63 10000 3.6 70 02:26 08.02.2021
2808 Snow -7 1005 79 10000 6.69 80 00:24 08.02.2021
2809 Snow -7 1005 79 4500 5.66 80 23:53 07.02.2021
2810 Snow -7 1006 79 4500 5.66 80 23:28 07.02.2021
2811 Snow -7 1006 79 6000 5.66 90 22:56 07.02.2021
2812 Snow -7 1006 79 6000 5.66 90 22:38 07.02.2021
2813 Snow -7 1006 79 9000 5.14 80 22:19 07.02.2021
2814 Snow -7 1006 79 7000 5.66 80 21:49 07.02.2021
2815 Snow -7 1006 79 6000 5.66 80 21:24 07.02.2021
2816 Snow -7 1006 79 5000 5.66 80 20:49 07.02.2021
2817 Snow -7 1006 79 6000 6.69 80 20:27 07.02.2021
2818 Snow -6 1006 79 5000 6.69 80 19:47 07.02.2021
2819 Snow -6 1006 86 2300 5.66 80 19:28 07.02.2021
2820 Snow -6 1006 79 2600 5.66 80 18:45 07.02.2021
2821 Snow -6 1006 79 2500 6.69 80 18:27 07.02.2021
2822 Snow -6 1006 79 2300 6.69 80 17:58 07.02.2021
2823 Snow -6 1006 79 2300 6.69 80 17:39 07.02.2021
2824 Snow -6 1005 79 1200 6.69 80 17:18 07.02.2021
2825 Snow -6 1005 79 1200 7.72 80 16:41 07.02.2021
2826 Snow -6 1005 79 1100 7.2 80 16:21 07.02.2021
2827 Snow -6 1005 79 800 6.69 80 15:44 07.02.2021
2828 Snow -6 1005 86 900 7.2 80 15:21 07.02.2021
2829 Snow -6 1006 86 900 6.69 80 14:46 07.02.2021
2830 Snow -7 1006 86 1200 7.2 80 14:27 07.02.2021
2831 Snow -6 1006 86 1000 7.72 80 13:52 07.02.2021
2832 Snow -6 1006 86 800 7.2 90 13:30 07.02.2021
2833 Snow -6 1007 86 1700 6.69 80 12:43 07.02.2021
2834 Snow -6 1007 86 900 6.17 80 12:22 07.02.2021
2835 Snow -6 1007 86 1000 7.2 80 11:49 07.02.2021
2836 Snow -6 1007 86 650 7.2 80 11:27 07.02.2021
2837 Snow -7 1007 86 650 6.69 80 10:49 07.02.2021
2838 Snow -7 1007 86 650 6.69 80 10:49 07.02.2021
2839 Snow -6 1007 86 1300 7.2 80 10:25 07.02.2021
2840 Snow -6 1007 86 2500 7.2 80 09:48 07.02.2021
2841 Snow -6 1007 86 1000 7.2 80 09:21 07.02.2021
2842 Snow -6 1007 79 2800 7.2 90 08:26 07.02.2021
2843 Snow -6 1007 79 4000 7.72 80 07:38 07.02.2021
2844 Snow -6 1009 86 2200 8.23 80 05:57 07.02.2021
2845 Snow -5 1010 86 1000 6.69 80 03:52 07.02.2021
2846 Snow -4 1012 80 4200 7.2 90 01:37 07.02.2021
2847 Snow -3 1012 80 7000 6.69 90 00:36 07.02.2021
2848 Snow -3 1012 74 10000 7.2 90 23:46 06.02.2021
2849 Snow -3 1013 80 10000 8.23 90 22:48 06.02.2021
2850 Snow -2 1013 74 10000 8.23 80 21:43 06.02.2021
2851 Snow -2 1013 74 10000 6.69 80 21:23 06.02.2021
2852 Clouds -2 1014 74 10000 6.17 90 20:53 06.02.2021
2853 Clouds -2 1014 74 10000 6.17 90 20:26 06.02.2021
2854 Clouds -2 1014 74 10000 5.66 80 19:58 06.02.2021
2855 Clouds -2 1014 74 10000 5.66 80 19:34 06.02.2021
2856 Clouds -2 1014 74 10000 6.17 80 18:56 06.02.2021
2857 Snow -2 1014 74 10000 6.17 80 18:35 06.02.2021
2858 Snow -1 1015 74 10000 4.12 80 17:56 06.02.2021
2859 Snow -1 1015 74 10000 4.12 80 17:38 06.02.2021
2860 Snow -1 1015 74 10000 4.12 80 17:20 06.02.2021
2861 Snow -1 1015 74 10000 5.14 90 16:42 06.02.2021
2862 Snow -1 1015 74 10000 5.66 90 16:24 06.02.2021
2863 Snow -1 1015 74 10000 6.17 90 15:48 06.02.2021
2864 Snow -1 1015 74 10000 5.66 90 15:26 06.02.2021
2865 Snow -1 1016 74 10000 5.66 90 14:47 06.02.2021
2866 Clouds -1 1016 80 8000 6.17 90 14:28 06.02.2021
2867 Clouds -1 1016 80 10000 6.17 90 13:55 06.02.2021
2868 Clouds -1 1016 86 10000 5.66 90 13:36 06.02.2021
2869 Clouds -1 1017 86 10000 6.17 90 12:23 06.02.2021
2870 Clouds -1 1017 86 10000 5.66 90 11:58 06.02.2021
2871 Clouds -2 1017 86 10000 5.66 90 11:40 06.02.2021
2872 Clouds -2 1017 86 10000 5.14 90 11:19 06.02.2021
2873 Clouds -2 1017 86 8000 5.66 90 10:49 06.02.2021
2874 Clouds -1 1017 86 6000 5.66 80 10:25 06.02.2021
2875 Clouds -1 1017 93 7000 5.14 90 09:38 06.02.2021
2876 Clouds -1 1017 93 7000 5.14 90 09:38 06.02.2021
2877 Drizzle -1 1016 86 2400 5.66 90 09:19 06.02.2021
2878 Drizzle -1 1016 86 2400 5.66 90 08:58 06.02.2021
2879 Drizzle -1 1016 93 1800 4.63 90 08:29 06.02.2021
2880 Drizzle -1 1016 93 5000 4.63 90 06:58 06.02.2021
2881 Drizzle -1 1016 93 5000 5.66 90 05:41 06.02.2021
2882 Drizzle 0 1016 93 6000 5.14 90 02:50 06.02.2021
2883 Mist 0 1016 93 9000 5.14 90 00:59 06.02.2021
2884 Drizzle 0 1016 93 9000 5.14 90 00:41 06.02.2021
2885 Drizzle 0 1015 93 8000 5.66 90 00:18 06.02.2021
2886 Drizzle 0 1015 93 6000 5.14 90 23:35 05.02.2021
2887 Drizzle 0 1015 93 6000 5.14 90 23:35 05.02.2021
2888 Snow 0 1016 100 3700 4.12 90 22:56 05.02.2021
2889 Snow 1 1015 100 4700 4.63 90 22:25 05.02.2021
2890 Drizzle 1 1016 100 6000 4.12 90 21:59 05.02.2021
2891 Drizzle 1 1016 100 6000 4.12 90 21:59 05.02.2021
2892 Rain 1 1016 100 6000 4.12 90 21:39 05.02.2021
2893 Drizzle 1 1015 100 5000 4.12 90 20:58 05.02.2021
2894 Drizzle 1 1015 100 5000 4.12 90 20:37 05.02.2021
2895 Clouds 1 1015 100 6000 4.12 90 19:48 05.02.2021
2896 Mist 1 1015 100 5000 3.6 90 19:19 05.02.2021
2897 Snow 1 1015 100 5000 4.63 90 18:45 05.02.2021
2898 Rain 1 1015 100 4300 5.14 90 18:19 05.02.2021
2899 Snow 1 1015 100 3000 4.12 90 17:43 05.02.2021
2900 Mist 1 1015 93 4500 5.14 100 17:21 05.02.2021
2901 Snow 1 1014 100 4700 5.14 90 16:46 05.02.2021
2902 Snow 2 1015 100 4400 5.14 90 16:23 05.02.2021
2903 Rain 2 1015 100 5000 4.63 90 15:53 05.02.2021
2904 Rain 2 1015 93 4000 5.14 100 15:26 05.02.2021
2905 Mist 2 1014 93 4100 5.14 90 14:40 05.02.2021
2906 Rain 2 1014 93 4600 6.17 100 14:22 05.02.2021
2907 Drizzle 2 1015 93 4600 5.66 100 13:58 05.02.2021
2908 Drizzle 2 1015 93 4600 5.66 100 13:35 05.02.2021
2909 Rain 2 1015 93 5000 5.66 100 12:47 05.02.2021
2910 Rain 2 1016 93 6000 5.14 100 12:27 05.02.2021
2911 Rain 2 1016 93 4500 4.63 90 11:40 05.02.2021
2912 Mist 2 1016 93 3700 4.63 90 11:21 05.02.2021
2913 Rain 2 1016 93 3700 4.12 100 10:57 05.02.2021
2914 Rain 2 1016 93 4500 5.14 100 10:27 05.02.2021
2915 Mist 2 1016 93 1500 4.12 100 09:47 05.02.2021
2916 Mist 2 1016 93 1600 4.12 100 09:28 05.02.2021
2917 Rain 2 1015 93 1300 4.12 90 08:53 05.02.2021
2918 Mist 2 1015 93 1100 5.14 90 08:23 05.02.2021
2919 Mist 2 1015 100 3400 5.66 100 07:37 05.02.2021
2920 Mist 2 1015 93 2200 4.12 100 06:54 05.02.2021
2921 Mist 2 1015 100 1600 4.63 110 05:38 05.02.2021
2922 Mist 2 1015 93 800 4.63 100 03:22 05.02.2021
2923 Mist 2 1015 93 800 4.12 80 02:24 05.02.2021
2924 Mist 2 1016 93 1000 3.6 90 00:41 05.02.2021
2925 Mist 2 1016 93 1000 3.6 90 00:41 05.02.2021
2926 Mist 2 1016 93 1400 1.54 80 00:20 05.02.2021
2927 Mist 2 1016 93 1900 2.57 90 23:58 04.02.2021
2928 Mist 2 1016 93 1900 2.57 90 23:39 04.02.2021
2929 Mist 2 1016 93 2300 2.57 90 23:20 04.02.2021
2930 Mist 2 1016 93 3200 2.57 100 22:51 04.02.2021
2931 Mist 2 1016 93 4000 2.57 90 22:27 04.02.2021
2932 Mist 2 1016 93 4200 3.09 90 21:42 04.02.2021
2933 Mist 2 1016 93 4300 2.57 80 21:21 04.02.2021
2934 Mist 2 1015 93 4700 3.6 100 20:53 04.02.2021
2935 Mist 3 1015 93 4700 3.6 100 20:34 04.02.2021
2936 Mist 3 1015 93 5000 1.54 70 19:47 04.02.2021
2937 Mist 3 1015 93 5000 2.06 90 18:59 04.02.2021
2938 Mist 3 1015 93 5000 2.06 90 18:37 04.02.2021
2939 Mist 3 1015 93 4300 1.54 70 18:18 04.02.2021
2940 Mist 3 1015 93 5000 2.57 90 17:42 04.02.2021
2941 Drizzle 3 1015 93 5000 2.57 90 17:20 04.02.2021
2942 Clouds 3 1014 93 6000 3.09 100 16:46 04.02.2021
2943 Clouds 3 1014 93 9000 2.57 90 16:19 04.02.2021
2944 Clouds 3 1014 93 10000 1.54 70 15:40 04.02.2021
2945 Clouds 3 1014 93 10000 2.06 100 15:21 04.02.2021
2946 Clouds 3 1014 93 10000 2.57 90 14:55 04.02.2021
2947 Clouds 3 1014 93 10000 2.57 90 14:37 04.02.2021
2948 Clouds 3 1014 93 10000 3.09 110 14:18 04.02.2021
2949 Clouds 2 1014 93 10000 3.09 90 13:41 04.02.2021
2950 Rain 2 1013 87 8000 1.54 90 12:57 04.02.2021
2951 Rain 1 1013 100 5000 1.03 0 12:21 04.02.2021
2952 Rain 1 1012 93 8000 2.06 80 11:50 04.02.2021
2953 Rain 1 1012 93 8000 2.06 80 11:32 04.02.2021
2954 Rain 1 1012 93 5000 1.54 70 10:44 04.02.2021
2955 Rain 1 1011 93 6000 2.06 80 10:18 04.02.2021
2956 Rain 1 1010 93 7000 1.54 50 09:43 04.02.2021
2957 Rain 1 1010 93 6000 1.54 60 09:19 04.02.2021
2958 Rain 1 1009 93 6000 1.03 0 08:46 04.02.2021
2959 Rain 1 1009 93 10000 2.73 299 08:23 04.02.2021
2960 Rain 1 1008 93 10000 1.03 0 07:42 04.02.2021
2961 Rain 1 1008 93 4100 0.51 0 07:20 04.02.2021
2962 Rain 2 1007 93 6000 0.51 0 06:41 04.02.2021
2963 Rain 6 1003 93 3800 4.12 280 03:54 04.02.2021
2964 Rain 6 1003 93 3800 4.12 280 03:54 04.02.2021
2965 Rain 6 1001 93 7000 3.6 270 02:27 04.02.2021
2966 Rain 5 999 93 7000 2.06 280 00:57 04.02.2021
2967 Clouds 5 998 93 10000 2.06 270 23:44 03.02.2021
2968 Clouds 5 997 93 8000 3.09 310 23:24 03.02.2021
2969 Clouds 5 996 93 10000 4.12 300 22:24 03.02.2021
2970 Rain 5 996 93 10000 4.63 290 21:59 03.02.2021
2971 Rain 5 996 93 10000 4.63 290 21:41 03.02.2021
2972 Rain 6 995 93 10000 4.63 300 21:21 03.02.2021
2973 Rain 6 994 87 10000 5.66 300 20:48 03.02.2021
2974 Rain 7 993 93 10000 8.75 260 20:28 03.02.2021
2975 Rain 8 992 81 10000 9.26 250 19:52 03.02.2021
2976 Clouds 8 992 93 10000 3.09 200 19:23 03.02.2021
2977 Clouds 8 992 93 10000 2.06 150 18:51 03.02.2021
2978 Mist 7 993 100 6000 3.09 150 18:22 03.02.2021
2979 Mist 7 992 100 5000 4.12 100 17:57 03.02.2021
2980 Rain 7 992 100 5000 4.12 100 17:37 03.02.2021
2981 Rain 6 993 100 3800 4.12 90 17:18 03.02.2021
2982 Rain 7 994 93 9000 4.12 120 16:36 03.02.2021
2983 Rain 7 995 93 10000 3.09 150 15:58 03.02.2021
2984 Rain 7 995 93 10000 3.09 150 15:38 03.02.2021
2985 Rain 7 995 87 10000 3.09 160 15:20 03.02.2021
2986 Rain 8 995 87 10000 3.09 160 14:43 03.02.2021
2987 Rain 8 996 81 10000 2.57 160 14:21 03.02.2021
2988 Rain 8 996 81 10000 2.57 150 13:44 03.02.2021
2989 Rain 8 997 81 10000 2.57 170 13:19 03.02.2021
2990 Rain 8 997 81 10000 2.06 190 12:40 03.02.2021
2991 Rain 7 998 87 10000 2.06 150 12:20 03.02.2021
2992 Rain 7 998 87 10000 2.06 150 12:20 03.02.2021
2993 Clouds 8 998 81 10000 2.57 200 11:42 03.02.2021
2994 Clouds 8 998 81 10000 3.09 200 11:23 03.02.2021
2995 Clouds 7 998 87 10000 4.63 230 10:41 03.02.2021
2996 Clouds 7 998 87 10000 3.6 230 10:19 03.02.2021
2997 Clouds 6 998 93 10000 3.09 210 09:40 03.02.2021
2998 Clouds 6 999 93 10000 4.12 220 09:20 03.02.2021
2999 Rain 6 998 93 10000 4.12 210 08:46 03.02.2021
3000 Clouds 6 998 94 10000 1.34 0 07:58 03.02.2021
3001 Clouds 5 998 93 10000 0.89 0 07:19 03.02.2021
3002 Clouds 5 998 93 10000 1.79 0 06:38 03.02.2021
3003 Rain 3 998 93 5252 0.89 0 04:49 03.02.2021
3004 Clouds 2 999 93 10000 3.92 211 03:53 03.02.2021
3005 Clouds 2 999 93 10000 0.89 0 02:42 03.02.2021
3006 Clouds 2 999 92 7217 0.45 0 01:58 03.02.2021
3007 Snow 2 999 92 1034 1.52 229 00:25 03.02.2021
3008 Clouds 2 999 92 1034 1.52 229 23:44 02.02.2021
3009 Drizzle 2 999 100 2300 2.06 90 23:26 02.02.2021
3010 Drizzle 2 999 100 3600 2.57 90 22:51 02.02.2021
3011 Drizzle 2 999 100 3100 2.06 100 22:22 02.02.2021
3012 Drizzle 2 999 100 2400 2.06 90 21:48 02.02.2021
3013 Drizzle 2 999 100 2700 2.06 90 21:29 02.02.2021
3014 Rain 2 999 100 3900 3.09 90 20:52 02.02.2021
3015 Mist 2 998 93 5000 3.6 90 20:25 02.02.2021
3016 Snow 2 998 100 3600 3.6 90 19:59 02.02.2021
3017 Snow 2 998 100 3600 3.6 90 19:40 02.02.2021
3018 Mist 2 999 93 5000 3.6 90 19:22 02.02.2021
3019 Mist 2 999 93 5000 3.6 90 18:43 02.02.2021
3020 Rain 2 999 100 4500 3.6 90 18:24 02.02.2021
3021 Rain 2 999 93 3700 3.6 90 17:48 02.02.2021
3022 Rain 2 999 100 5000 3.09 90 17:21 02.02.2021
3023 Rain 2 999 93 2800 3.09 100 16:55 02.02.2021
3024 Mist 2 999 93 2800 3.09 100 16:36 02.02.2021
3025 Rain 2 1000 93 3400 2.06 100 15:58 02.02.2021
3026 Rain 2 1000 93 3400 2.06 100 15:40 02.02.2021
3027 Drizzle 2 1000 93 3400 2.06 90 15:20 02.02.2021
3028 Rain 2 1000 100 4600 2.57 100 14:39 02.02.2021
3029 Rain 2 1000 93 5000 2.57 100 14:18 02.02.2021
3030 Snow 2 1001 93 5000 3.09 110 13:44 02.02.2021
3031 Rain 2 1002 93 5000 3.09 120 13:25 02.02.2021
3032 Snow 1 1002 93 4700 2.57 110 12:55 02.02.2021
3033 Snow 1 1002 93 4600 2.57 110 12:26 02.02.2021
3034 Snow 1 1002 93 3800 2.06 100 11:41 02.02.2021
3035 Clouds 1 1003 93 3300 0.51 330 11:20 02.02.2021
3036 Snow 1 1003 93 4500 1.03 0 10:49 02.02.2021
3037 Snow 1 1003 100 2600 1.03 300 10:26 02.02.2021
3038 Snow 0 1003 100 2400 2.06 290 09:46 02.02.2021
3039 Snow 0 1003 100 3500 2.57 280 09:25 02.02.2021
3040 Clouds 0 1003 100 3200 2.06 290 08:45 02.02.2021
3041 Clouds 0 1002 100 4500 2.06 280 07:58 02.02.2021
3042 Clouds 0 1002 100 3500 2.06 270 07:28 02.02.2021
3043 Clouds 0 1002 93 3200 2.57 270 06:41 02.02.2021
3044 Clouds 0 1002 93 3800 3.09 280 05:51 02.02.2021
3045 Clouds 0 1001 93 3200 3.6 300 04:37 02.02.2021
3046 Clouds 0 1000 93 3100 3.09 290 02:25 02.02.2021
3047 Clouds 1 1000 93 2100 4.12 280 01:28 02.02.2021
3048 Clouds 0 999 93 1300 2.06 270 00:31 02.02.2021
3049 Clouds 0 998 93 4000 3.14 248 23:19 01.02.2021
3050 Clouds 0 998 86 7000 3.14 248 22:43 01.02.2021
3051 Clouds 0 998 86 7000 3.35 239 22:24 01.02.2021
3052 Clouds 0 998 93 7000 1.03 120 21:49 01.02.2021
3053 Clouds 0 998 93 6000 1.03 120 21:27 01.02.2021
3054 Clouds 0 998 86 6000 0.51 110 20:47 01.02.2021
3055 Clouds 0 997 86 9000 1.03 100 20:25 01.02.2021
3056 Clouds 0 997 86 10000 1.03 120 19:59 01.02.2021
3057 Clouds 0 997 86 10000 1.03 120 19:38 01.02.2021
3058 Clouds 0 997 86 10000 0.91 167 19:18 01.02.2021
3059 Clouds 0 996 86 10000 1.03 0 18:46 01.02.2021
3060 Clouds 0 996 86 10000 1.5 121 18:26 01.02.2021
3061 Clouds 0 996 86 10000 1.03 90 17:47 01.02.2021
3062 Clouds 0 996 80 10000 1.54 110 17:23 01.02.2021
3063 Clouds 0 996 80 10000 2.06 120 16:47 01.02.2021
3064 Clouds 0 995 74 10000 2.57 120 16:28 01.02.2021
3065 Clouds 0 995 74 10000 3.09 110 15:43 01.02.2021
3066 Clouds 0 995 74 10000 3.09 110 15:43 01.02.2021
3067 Clouds 0 995 74 10000 2.06 90 15:19 01.02.2021
3068 Clouds 0 995 80 10000 3.09 90 14:52 01.02.2021
3069 Clouds 0 995 80 10000 3.09 90 14:33 01.02.2021
3070 Clouds -1 995 80 10000 4.12 100 13:49 01.02.2021
3071 Clouds 0 995 74 10000 3.6 100 13:27 01.02.2021
3072 Clouds -1 995 80 10000 4.63 100 12:55 01.02.2021
3073 Clouds -1 995 80 10000 4.63 100 12:37 01.02.2021
3074 Clouds -1 995 74 10000 3.6 100 12:19 01.02.2021
3075 Clouds -2 995 74 10000 4.12 100 11:39 01.02.2021
3076 Clouds -2 995 80 10000 5.66 100 11:18 01.02.2021
3077 Clouds -3 995 80 10000 6.17 110 10:42 01.02.2021
3078 Clouds -3 995 80 10000 6.17 110 10:19 01.02.2021
3079 Snow -4 996 80 10000 5.66 90 09:43 01.02.2021
3080 Clouds -4 996 80 9000 5.14 90 08:58 01.02.2021
3081 Snow -4 995 80 10000 5.14 90 08:27 01.02.2021
3082 Snow -4 995 80 10000 5.14 90 08:27 01.02.2021
3083 Clouds -4 996 80 10000 4.63 100 07:36 01.02.2021
3084 Clouds -5 996 86 10000 4.63 80 05:46 01.02.2021
3085 Clouds -6 998 86 8000 3.6 90 02:41 01.02.2021
3086 Clouds -6 999 86 8000 2.57 110 00:31 01.02.2021
3087 Clouds -6 999 86 8000 3.09 100 23:40 31.01.2021
3088 Clouds -7 1000 86 8000 2.06 100 22:42 31.01.2021
3089 Clouds -7 1001 86 6000 2.57 90 22:23 31.01.2021
3090 Clouds -7 1001 86 6000 2.06 90 21:49 31.01.2021
3091 Clouds -7 1001 86 9000 2.57 110 21:23 31.01.2021
3092 Clouds -7 1001 86 10000 3.09 90 20:46 31.01.2021
3093 Clouds -7 1002 86 10000 2.06 90 20:21 31.01.2021
3094 Clouds -7 1002 93 7000 2.06 80 19:55 31.01.2021
3095 Clouds -7 1002 93 7000 2.06 80 19:37 31.01.2021
3096 Clouds -6 1002 93 10000 1.54 130 19:18 31.01.2021
3097 Clouds -6 1002 86 7000 1.03 80 18:40 31.01.2021
3098 Clouds -6 1003 93 10000 1.54 90 18:20 31.01.2021
3099 Clear -5 1003 86 10000 0.51 0 17:46 31.01.2021
3100 Clear -5 1003 86 10000 1.54 140 17:23 31.01.2021
3101 Clear -4 1003 80 10000 1.54 140 16:50 31.01.2021
3102 Clear -4 1003 80 10000 1.54 140 16:50 31.01.2021
3103 Clear -4 1003 80 10000 1.54 140 16:31 31.01.2021
3104 Clouds -3 1004 80 10000 2.06 140 15:52 31.01.2021
3105 Clouds -3 1004 80 10000 2.06 140 15:34 31.01.2021
3106 Clouds -2 1005 74 10000 1.54 120 14:44 31.01.2021
3107 Clouds -2 1005 74 10000 1.54 120 14:24 31.01.2021
3108 Clear -1 1005 74 10000 1.54 120 13:53 31.01.2021
3109 Clear -1 1005 74 10000 1.54 120 13:35 31.01.2021
3110 Clear -1 1006 69 10000 0.71 226 12:49 31.01.2021
3111 Clear -3 1006 86 10000 1.07 226 12:23 31.01.2021
3112 Clear -3 1006 93 10000 1.03 90 11:47 31.01.2021
3113 Clear -4 1006 93 10000 1.03 100 11:29 31.01.2021
3114 Clear -4 1006 86 10000 1.24 205 10:59 31.01.2021
3115 Clear -4 1006 86 10000 1.24 205 10:35 31.01.2021
3116 Clear -7 1006 85 10000 1.03 90 09:55 31.01.2021
3117 Clear -10 1006 85 10000 1.54 100 09:27 31.01.2021
3118 Clear -9 1006 85 10000 1.03 90 08:34 31.01.2021
3119 Clouds -9 1006 85 10000 1.03 100 07:20 31.01.2021
3120 Clear -8 1005 92 10000 1.35 129 05:42 31.01.2021
3121 Clouds -4 1005 93 8000 1.03 0 00:52 31.01.2021
3122 Clouds -5 1005 93 8000 1.03 90 00:26 31.01.2021
3123 Clouds -5 1005 93 8000 1.03 90 00:26 31.01.2021
3124 Clouds -5 1005 93 9000 1.03 90 23:34 30.01.2021
3125 Clouds -3 1005 93 10000 2.22 105 22:59 30.01.2021
3126 Clouds -3 1005 93 10000 2.22 105 22:31 30.01.2021
3127 Clouds -2 1005 86 8000 2.1 99 21:43 30.01.2021
3128 Clouds -2 1005 86 10000 2.22 95 21:23 30.01.2021
3129 Clouds -2 1005 86 10000 2.22 95 21:23 30.01.2021
3130 Clouds -2 1005 86 10000 1.03 0 20:50 30.01.2021
3131 Clouds -2 1005 86 10000 1.03 0 20:32 30.01.2021
3132 Clouds -1 1004 86 10000 1.03 0 19:58 30.01.2021
3133 Clouds -1 1004 86 10000 1.03 0 19:39 30.01.2021
3134 Clouds -1 1004 86 10000 1.03 100 19:19 30.01.2021
3135 Clouds -1 1004 86 10000 1.03 90 18:40 30.01.2021
3136 Clouds -1 1004 86 10000 1.03 90 18:40 30.01.2021
3137 Clouds -1 1004 93 10000 2.53 83 18:19 30.01.2021
3138 Clouds -1 1004 86 10000 2.53 83 17:45 30.01.2021
3139 Clouds 0 1004 86 10000 2.28 76 17:18 30.01.2021
3140 Clouds 0 1004 86 10000 2.28 76 16:40 30.01.2021
3141 Clouds 0 1003 86 10000 2.27 66 16:21 30.01.2021
3142 Clouds 0 1003 86 10000 2.27 66 15:47 30.01.2021
3143 Clouds 0 1003 86 10000 1.03 0 15:24 30.01.2021
3144 Clouds 1 1003 80 10000 0.51 0 14:52 30.01.2021
3145 Clouds 1 1003 86 10000 1.13 77 14:28 30.01.2021
3146 Clouds 1 1003 86 10000 1.13 77 13:57 30.01.2021
3147 Clouds 1 1003 86 10000 1.03 0 13:21 30.01.2021
3148 Clouds 1 1004 93 10000 0.51 0 12:44 30.01.2021
3149 Clouds 1 1004 86 10000 1.03 0 12:26 30.01.2021
3150 Clouds 1 1004 86 10000 1.54 30 11:46 30.01.2021
3151 Clouds 0 1003 93 9000 1.03 0 10:56 30.01.2021
3152 Clouds 0 1003 93 9000 1.03 0 10:28 30.01.2021
3153 Clouds -1 1003 93 10000 1.03 320 09:42 30.01.2021
3154 Clouds -1 1003 93 10000 1.03 270 09:24 30.01.2021
3155 Clouds -1 1003 93 10000 1.03 0 08:44 30.01.2021
3156 Clouds -2 1003 92 795 2.24 318 07:42 30.01.2021
3157 Clouds -2 1001 93 10000 2.06 320 06:32 30.01.2021
3158 Snow -2 999 93 4000 2.06 350 03:53 30.01.2021
3159 Snow -2 998 93 7000 1.54 360 03:31 30.01.2021
3160 Snow -2 997 93 4000 1.03 0 02:22 30.01.2021
3161 Snow -1 995 86 1900 2.06 60 00:56 30.01.2021
3162 Snow -1 995 86 1900 2.06 60 00:34 30.01.2021
3163 Snow -1 994 86 4000 2.57 70 23:55 29.01.2021
3164 Snow -1 994 93 4500 2.57 70 23:28 29.01.2021
3165 Snow 0 994 93 4500 2.57 80 22:52 29.01.2021
3166 Snow 0 994 93 4500 2.57 80 22:32 29.01.2021
3167 Snow 0 994 93 6000 3.09 80 21:59 29.01.2021
3168 Rain 0 994 93 9000 3.09 90 21:27 29.01.2021
3169 Snow 0 993 93 10000 3.09 100 20:43 29.01.2021
3170 Clouds 0 993 93 10000 4.12 100 20:24 29.01.2021
3171 Rain 0 993 93 10000 4.12 110 19:40 29.01.2021
3172 Snow -1 993 93 6000 4.63 100 19:22 29.01.2021
3173 Rain 0 993 93 3600 5.14 90 18:57 29.01.2021
3174 Snow 0 993 93 5000 5.66 100 17:59 29.01.2021
3175 Snow 0 993 93 5000 5.66 100 17:37 29.01.2021
3176 Snow 0 993 93 3400 6.17 100 17:18 29.01.2021
3177 Snow 0 993 93 6000 5.14 100 16:39 29.01.2021
3178 Snow 0 993 93 2800 5.66 110 16:21 29.01.2021
3179 Snow 0 993 93 2800 5.66 110 16:21 29.01.2021
3180 Snow 0 992 93 2400 6.69 110 15:42 29.01.2021
3181 Snow 0 993 93 1100 6.69 110 15:23 29.01.2021
3182 Snow 0 993 93 2700 7.72 110 14:30 29.01.2021
3183 Snow 0 994 93 1200 7.2 120 13:58 29.01.2021
3184 Snow 0 994 93 1200 7.2 120 13:34 29.01.2021
3185 Snow 0 994 93 1300 7.2 110 12:49 29.01.2021
3186 Snow 0 994 80 3200 7.72 110 12:22 29.01.2021
3187 Snow 0 994 80 4600 8.23 110 11:46 29.01.2021
3188 Snow 0 994 86 4200 7.2 110 11:18 29.01.2021
3189 Snow 0 994 80 5000 6.69 110 10:47 29.01.2021
3190 Snow 0 995 80 10000 7.2 110 10:27 29.01.2021
3191 Snow 0 995 80 10000 7.2 110 09:45 29.01.2021
3192 Snow 0 995 93 9000 6.69 100 08:57 29.01.2021
3193 Snow 0 995 93 9000 6.69 100 08:33 29.01.2021
3194 Snow 0 996 86 10000 6.17 110 07:58 29.01.2021
3195 Snow 0 996 86 10000 6.17 110 07:39 29.01.2021
3196 Snow 0 996 86 10000 6.17 110 07:39 29.01.2021
3197 Clouds 0 997 86 4300 5.66 100 07:19 29.01.2021
3198 Clouds 0 999 80 10000 5.66 110 05:20 29.01.2021
3199 Clouds 0 1001 74 10000 4.63 100 03:33 29.01.2021
3200 Clouds 0 1004 74 10000 2.57 120 00:43 29.01.2021
3201 Clouds 0 1004 74 10000 2.57 90 00:22 29.01.2021
3202 Clouds 0 1004 80 10000 2.06 90 23:44 28.01.2021
3203 Clouds 0 1004 80 10000 2.06 90 23:25 28.01.2021
3204 Clouds 0 1004 80 10000 2.57 100 22:47 28.01.2021
3205 Clouds 0 1004 80 10000 2.06 100 22:27 28.01.2021
3206 Clouds 0 1004 74 10000 2.06 80 21:57 28.01.2021
3207 Clouds 0 1004 74 10000 2.06 80 21:34 28.01.2021
3208 Clouds 0 1004 80 10000 1.54 60 20:59 28.01.2021
3209 Clouds 0 1004 80 10000 1.54 60 20:39 28.01.2021
3210 Clouds 1 1004 75 10000 2.06 40 20:18 28.01.2021
3211 Clouds 1 1004 80 10000 1.54 40 19:46 28.01.2021
3212 Snow 1 1003 80 10000 1.54 40 19:23 28.01.2021
3213 Snow 2 1003 80 10000 2.06 50 18:45 28.01.2021
3214 Snow 2 1002 80 10000 2.06 40 18:27 28.01.2021
3215 Clouds 2 1002 80 10000 2.06 30 17:47 28.01.2021
3216 Clouds 2 1001 80 10000 2.06 60 17:28 28.01.2021
3217 Clouds 3 1001 81 10000 1.54 70 16:45 28.01.2021
3218 Clouds 3 1001 81 10000 2.06 60 16:25 28.01.2021
3219 Clouds 3 1001 81 10000 2.06 80 15:51 28.01.2021
3220 Clouds 3 1001 81 10000 1.54 60 15:23 28.01.2021
3221 Rain 3 1001 81 10000 2.57 70 14:43 28.01.2021
3222 Rain 3 1001 81 10000 2.57 70 14:23 28.01.2021
3223 Rain 3 1002 87 10000 2.06 80 13:49 28.01.2021
3224 Clouds 3 1002 87 10000 2.57 70 13:23 28.01.2021
3225 Rain 4 1003 87 10000 1.54 60 12:48 28.01.2021
3226 Rain 4 1003 87 10000 1.54 50 12:23 28.01.2021
3227 Clouds 3 1003 93 10000 2.06 50 11:44 28.01.2021
3228 Clouds 3 1004 93 10000 3.03 52 11:22 28.01.2021
3229 Clouds 3 1004 93 10000 1.54 310 10:57 28.01.2021
3230 Rain 3 1004 93 10000 1.54 310 10:39 28.01.2021
3231 Clouds 3 1004 93 10000 1.54 300 10:20 28.01.2021
3232 Clouds 3 1004 93 10000 2.06 280 09:38 28.01.2021
3233 Clouds 3 1004 92 10000 0.89 327 09:19 28.01.2021
3234 Clouds 3 1005 92 10000 0.89 0 08:44 28.01.2021
3235 Clouds 3 1005 93 10000 2.57 280 07:50 28.01.2021
3236 Clouds 4 1005 87 10000 3.09 280 07:21 28.01.2021
3237 Clouds 4 1005 87 10000 3.09 300 06:48 28.01.2021
3238 Clouds 4 1006 87 5000 3.09 250 04:31 28.01.2021
3239 Clouds 3 1007 93 7000 4.12 250 02:46 28.01.2021
3240 Clouds 3 1008 93 9000 5.14 240 00:45 28.01.2021
3241 Clouds 3 1008 93 10000 4.63 250 23:41 27.01.2021
3242 Clouds 3 1008 87 10000 5.14 250 23:22 27.01.2021
3243 Clouds 3 1008 93 10000 4.63 240 22:40 27.01.2021
3244 Clouds 2 1008 93 4000 4.12 230 22:19 27.01.2021
3245 Clouds 2 1008 93 4000 4.12 230 22:19 27.01.2021
3246 Clouds 2 1008 93 10000 4.63 230 21:42 27.01.2021
3247 Clouds 2 1008 93 3600 4.63 230 21:22 27.01.2021
3248 Clouds 2 1008 87 10000 4.12 230 20:47 27.01.2021
3249 Clouds 2 1009 87 5000 3.09 230 20:20 27.01.2021
3250 Clouds 2 1009 87 10000 3.09 220 19:43 27.01.2021
3251 Clouds 2 1009 80 10000 3.09 230 19:21 27.01.2021
3252 Clouds 2 1009 80 10000 5.14 230 18:45 27.01.2021
3253 Clouds 2 1009 80 10000 4.12 220 18:24 27.01.2021
3254 Clouds 2 1009 80 10000 4.12 220 17:52 27.01.2021
3255 Clouds 2 1009 80 10000 4.12 220 17:32 27.01.2021
3256 Clouds 2 1009 80 10000 4.63 210 16:56 27.01.2021
3257 Clouds 2 1009 80 10000 4.63 210 16:38 27.01.2021
3258 Clouds 2 1009 80 10000 3.6 210 16:20 27.01.2021
3259 Clouds 3 1010 80 10000 3.6 200 15:48 27.01.2021
3260 Clouds 2 1010 80 10000 4.12 210 15:27 27.01.2021
3261 Clouds 2 1011 75 10000 6.69 240 14:24 27.01.2021
3262 Clouds 3 1011 65 10000 6.69 230 13:50 27.01.2021
3263 Clouds 3 1011 65 10000 6.69 230 13:32 27.01.2021
3264 Clouds 3 1011 70 10000 6.17 220 12:42 27.01.2021
3265 Clear 3 1012 65 10000 5.66 210 12:23 27.01.2021
3266 Clear 3 1012 69 10000 2.57 180 11:47 27.01.2021
3267 Clear 2 1012 69 10000 3.09 190 11:23 27.01.2021
3268 Clear 2 1012 75 10000 3.09 190 10:45 27.01.2021
3269 Clear 2 1012 75 10000 2.06 190 10:22 27.01.2021
3270 Clear 1 1013 80 10000 3.09 210 09:53 27.01.2021
3271 Clear 1 1013 80 10000 2.06 190 09:27 27.01.2021
3272 Clear 1 1013 80 10000 2.57 210 08:42 27.01.2021
3273 Clouds 1 1013 80 10000 3.6 220 07:46 27.01.2021
3274 Snow 1 1013 86 10000 3.09 230 07:26 27.01.2021
3275 Snow 1 1013 86 8000 2.06 210 06:25 27.01.2021
3276 Snow 1 1014 86 8000 2.57 220 05:53 27.01.2021
3277 Snow 1 1014 86 8000 2.57 220 05:33 27.01.2021
3278 Snow 1 1015 86 10000 3.09 240 02:46 27.01.2021
3279 Snow 1 1015 86 10000 3.09 240 02:20 27.01.2021
3280 Snow 0 1016 86 10000 2.06 240 00:56 27.01.2021
3281 Snow 0 1016 93 10000 2.57 250 00:18 27.01.2021
3282 Snow 1 1016 86 10000 2.06 260 23:38 26.01.2021
3283 Snow 1 1016 93 10000 2.57 260 23:19 26.01.2021
3284 Snow 1 1016 86 6000 1.54 280 22:38 26.01.2021
3285 Snow 1 1016 86 7000 2.57 300 22:19 26.01.2021
3286 Snow 1 1016 86 9000 3.09 270 21:51 26.01.2021
3287 Snow 1 1016 86 10000 3.09 270 21:23 26.01.2021
3288 Clouds 1 1016 93 10000 3.6 270 20:43 26.01.2021
3289 Clouds 1 1016 86 9000 4.12 270 20:23 26.01.2021
3290 Snow 1 1015 86 10000 3.6 270 19:51 26.01.2021
3291 Clouds 0 1015 86 10000 4.12 260 19:30 26.01.2021
3292 Clouds 0 1015 86 10000 4.12 260 19:30 26.01.2021
3293 Clouds 1 1015 86 10000 3.6 260 18:59 26.01.2021
3294 Clouds 1 1015 86 10000 3.6 260 18:41 26.01.2021
3295 Clouds 1 1015 80 10000 3.6 270 18:22 26.01.2021
3296 Clouds 1 1015 86 10000 4.12 270 17:47 26.01.2021
3297 Clouds 2 1015 86 10000 3.09 280 17:22 26.01.2021
3298 Clouds 2 1014 75 10000 3.6 280 16:51 26.01.2021
3299 Clouds 2 1014 80 10000 3.09 290 16:21 26.01.2021
3300 Clouds 2 1014 80 10000 3.09 290 15:51 26.01.2021
3301 Clouds 2 1014 80 10000 3.09 290 15:51 26.01.2021
3302 Clouds 2 1014 80 10000 3.09 290 15:33 26.01.2021
3303 Clouds 2 1013 86 9000 4.12 310 14:49 26.01.2021
3304 Mist 2 1013 86 5000 5.14 300 14:30 26.01.2021
3305 Mist 2 1013 86 6000 5.14 300 13:51 26.01.2021
3306 Mist 2 1013 86 4000 3.6 310 13:28 26.01.2021
3307 Mist 2 1013 93 3500 3.6 300 12:46 26.01.2021
3308 Mist 2 1013 93 3500 3.6 300 12:46 26.01.2021
3309 Mist 1 1012 86 3600 3.6 300 12:26 26.01.2021
3310 Mist 1 1012 86 3600 3.6 300 11:59 26.01.2021
3311 Mist 1 1012 86 3600 3.6 300 11:40 26.01.2021
3312 Mist 1 1011 93 3500 1.54 320 10:59 26.01.2021
3313 Mist 1 1011 93 3500 1.54 320 10:34 26.01.2021
3314 Snow 1 1010 93 3400 1.03 0 09:51 26.01.2021
3315 Snow 1 1010 93 3400 1.03 0 09:32 26.01.2021
3316 Snow 1 1009 93 2200 1.03 80 08:56 26.01.2021
3317 Snow 1 1009 93 2200 1.03 80 08:38 26.01.2021
3318 Snow 0 1008 93 2300 1.03 0 07:54 26.01.2021
3319 Snow 0 1008 93 3400 1.03 110 06:58 26.01.2021
3320 Snow 1 1007 86 2300 2.57 200 05:46 26.01.2021
3321 Snow 1 1008 80 10000 2.57 200 05:25 26.01.2021
3322 Snow 0 1008 80 10000 3.6 200 03:31 26.01.2021
3323 Clouds 0 1008 80 10000 1.54 190 00:59 26.01.2021
3324 Clouds 0 1008 80 10000 2.06 200 00:24 26.01.2021
3325 Clouds 0 1008 80 10000 2.57 240 23:28 25.01.2021
3326 Clouds 0 1008 80 10000 3.6 250 22:47 25.01.2021
3327 Clouds 0 1008 80 10000 3.09 260 22:29 25.01.2021
3328 Clouds 0 1008 80 10000 3.09 250 21:45 25.01.2021
3329 Clouds 0 1007 80 10000 3.09 260 21:18 25.01.2021
3330 Clouds 1 1007 75 10000 3.09 260 20:41 25.01.2021
3331 Clear 1 1007 80 10000 3.09 260 20:23 25.01.2021
3332 Clouds 1 1007 75 10000 3.09 260 19:47 25.01.2021
3333 Clouds 1 1007 75 10000 3.09 260 19:47 25.01.2021
3334 Clear 1 1006 75 10000 3.09 260 19:23 25.01.2021
3335 Clear 1 1006 75 10000 3.09 270 18:46 25.01.2021
3336 Clouds 1 1006 69 10000 3.09 270 18:24 25.01.2021
3337 Clouds 2 1005 69 10000 3.6 270 17:49 25.01.2021
3338 Clouds 2 1005 69 10000 3.09 280 17:25 25.01.2021
3339 Clear 2 1005 69 10000 3.6 270 16:50 25.01.2021
3340 Clear 2 1005 69 10000 3.6 270 16:50 25.01.2021
3341 Clouds 3 1004 70 10000 3.6 290 16:26 25.01.2021
3342 Clouds 3 1004 70 10000 3.6 290 15:57 25.01.2021
3343 Clouds 3 1004 70 10000 3.6 300 15:39 25.01.2021
3344 Clouds 3 1004 70 10000 4.12 290 15:21 25.01.2021
3345 Clouds 4 1003 70 10000 3.6 310 14:39 25.01.2021
3346 Clouds 4 1003 75 10000 2.57 320 14:18 25.01.2021
3347 Clear 3 1003 75 10000 3.6 300 13:44 25.01.2021
3348 Clouds 3 1003 80 10000 2.57 290 13:22 25.01.2021
3349 Clouds 3 1003 80 10000 3.09 280 12:44 25.01.2021
3350 Clouds 2 1003 75 10000 2.06 270 12:19 25.01.2021
3351 Clouds 2 1002 80 10000 1.54 270 11:31 25.01.2021
3352 Clouds 1 1002 86 10000 1.54 250 10:53 25.01.2021
3353 Clouds 0 1002 86 10000 1.03 0 10:22 25.01.2021
3354 Clouds -1 1001 86 10000 1.03 340 09:54 25.01.2021
3355 Clouds -1 1001 86 10000 1.03 340 09:34 25.01.2021
3356 Clouds -1 1000 86 10000 2.06 260 08:53 25.01.2021
3357 Clouds -1 1000 86 10000 2.49 238 08:23 25.01.2021
3358 Clouds -1 1000 86 10000 1.54 250 07:30 25.01.2021
3359 Clouds 0 1000 86 10000 1.54 250 06:47 25.01.2021
3360 Clouds 0 999 87 10000 0.89 0 03:23 25.01.2021
3361 Clouds 1 999 86 10000 1.34 0 00:52 25.01.2021
3362 Clouds 1 999 87 10000 2.24 0 23:40 24.01.2021
3363 Clouds 1 999 87 10000 3.13 0 23:19 24.01.2021
3364 Clouds 2 999 88 10000 2.24 0 22:42 24.01.2021
3365 Clouds 2 999 88 87 2.68 0 22:20 24.01.2021
3366 Clouds 2 999 89 87 2.24 0 21:46 24.01.2021
3367 Clouds 2 999 89 82 2.24 0 21:24 24.01.2021
3368 Clouds 2 998 88 82 1.34 0 20:44 24.01.2021
3369 Snow 2 999 88 198 3.74 283 20:21 24.01.2021
3370 Snow 2 998 88 198 0.45 0 19:52 24.01.2021
3371 Clouds 2 998 88 27 0.45 0 19:27 24.01.2021
3372 Clouds 2 998 88 27 1.34 0 18:58 24.01.2021
3373 Clouds 2 998 87 31 0.89 0 18:39 24.01.2021
3374 Clouds 2 997 87 10000 0.51 260 18:20 24.01.2021
3375 Clouds 2 997 87 10000 0.51 260 17:50 24.01.2021
3376 Clouds 2 997 87 10000 0.51 260 17:28 24.01.2021
3377 Clouds 2 997 87 10000 2.06 280 16:58 24.01.2021
3378 Clouds 2 997 87 10000 2.06 280 16:39 24.01.2021
3379 Clouds 2 997 87 10000 3.09 280 16:19 24.01.2021
3380 Clouds 2 997 87 10000 3.09 300 15:43 24.01.2021
3381 Clouds 2 996 87 10000 2.06 320 15:19 24.01.2021
3382 Clouds 2 996 87 10000 2.57 330 14:43 24.01.2021
3383 Clouds 2 996 93 6000 2.06 350 13:48 24.01.2021
3384 Clouds 2 996 93 4700 2.06 340 13:30 24.01.2021
3385 Snow 2 996 86 6000 1.03 0 12:50 24.01.2021
3386 Snow 2 995 86 8000 1.03 0 12:21 24.01.2021
3387 Snow 1 995 86 10000 2.06 80 11:54 24.01.2021
3388 Snow 1 995 80 10000 1.03 0 11:25 24.01.2021
3389 Snow 1 995 80 8000 1.54 60 10:54 24.01.2021
3390 Clouds 1 995 86 10000 2.57 80 10:30 24.01.2021
3391 Clouds 1 995 86 10000 2.57 80 10:30 24.01.2021
3392 Clouds 1 995 86 10000 2.57 80 10:30 24.01.2021
3393 Snow 1 994 85 10000 0.45 0 09:46 24.01.2021
3394 Snow 0 994 86 10000 3.6 90 09:19 24.01.2021
3395 Snow 0 993 86 10000 4.12 90 08:37 24.01.2021
3396 Clouds 1 993 86 10000 3.09 80 03:50 24.01.2021
3397 Clouds 1 994 93 10000 1.54 100 02:19 24.01.2021
3398 Clouds 0 994 86 10000 1.54 100 00:56 24.01.2021
3399 Clouds 0 994 93 10000 2.68 136 00:21 24.01.2021
3400 Clouds -1 994 93 10000 1.03 90 23:41 23.01.2021
3401 Clouds 0 994 86 10000 2.06 110 23:19 23.01.2021
3402 Clouds 0 994 86 10000 2.06 110 22:41 23.01.2021
3403 Clouds 0 994 93 10000 2.06 100 22:20 23.01.2021
3404 Clouds 0 995 86 10000 1.54 100 21:24 23.01.2021
3405 Clouds 1 995 93 10000 2.06 120 20:59 23.01.2021
3406 Clouds 1 995 93 10000 2.06 120 20:39 23.01.2021
3407 Clouds 1 995 86 10000 1.54 120 20:21 23.01.2021
3408 Clouds 1 995 80 10000 2.06 100 19:45 23.01.2021
3409 Clouds 2 995 80 10000 2.06 180 19:20 23.01.2021
3410 Clouds 2 995 80 10000 2.06 220 18:43 23.01.2021
3411 Clouds 2 995 75 10000 2.06 210 18:24 23.01.2021
3412 Clear 3 995 75 10000 2.06 210 17:44 23.01.2021
3413 Clouds 4 995 75 10000 2.57 210 17:25 23.01.2021
3414 Clouds 5 995 70 10000 2.57 210 16:46 23.01.2021
3415 Clouds 5 995 70 10000 2.57 210 16:46 23.01.2021
3416 Clouds 5 995 70 10000 3.6 230 16:24 23.01.2021
3417 Clouds 5 995 70 10000 4.12 240 15:31 23.01.2021
3418 Clouds 5 995 65 10000 4.12 250 14:58 23.01.2021
3419 Clear 6 995 61 10000 4.12 240 14:30 23.01.2021
3420 Clear 6 996 61 10000 5.14 220 13:52 23.01.2021
3421 Clear 6 996 61 10000 5.14 220 13:34 23.01.2021
3422 Clear 4 996 75 10000 2.57 200 12:49 23.01.2021
3423 Clear 4 996 75 10000 2.06 220 12:27 23.01.2021
3424 Clear 4 997 75 10000 2.06 210 11:45 23.01.2021
3425 Clear 3 996 81 10000 2.57 150 11:24 23.01.2021
3426 Clear 2 997 87 10000 2.57 110 10:48 23.01.2021
3427 Clear 2 997 80 10000 2.06 140 10:19 23.01.2021
3428 Clear 2 997 86 10000 2.06 150 09:46 23.01.2021
3429 Clouds 1 997 86 10000 2.28 200 08:54 23.01.2021
3430 Clouds 1 997 86 10000 1.03 0 08:30 23.01.2021
3431 Clouds 1 997 86 10000 1.03 0 08:30 23.01.2021
3432 Clouds 1 997 86 10000 1.03 0 07:25 23.01.2021
3433 Clouds 0 997 93 9000 1.54 100 03:36 23.01.2021
3434 Clouds 1 997 86 10000 1.81 229 00:41 23.01.2021
3435 Clear 0 997 86 10000 1.03 90 23:39 22.01.2021
3436 Clouds 0 997 80 10000 2.65 223 22:57 22.01.2021
3437 Clouds 0 997 80 10000 2.65 223 22:38 22.01.2021
3438 Clouds 1 996 80 10000 1.54 240 21:46 22.01.2021
3439 Clouds 1 996 80 10000 1.54 240 21:46 22.01.2021
3440 Clouds 1 996 80 10000 1.54 240 21:46 22.01.2021
3441 Clouds 1 996 80 10000 3.29 231 21:27 22.01.2021
3442 Clouds 1 996 75 10000 2.06 220 20:57 22.01.2021
3443 Clouds 1 996 75 10000 2.06 220 20:38 22.01.2021
3444 Clouds 1 995 80 10000 2.57 250 19:55 22.01.2021
3445 Clouds 2 995 75 10000 2.57 240 19:22 22.01.2021
3446 Clear 2 995 75 10000 2.57 240 18:57 22.01.2021
3447 Clear 2 995 75 10000 2.57 240 18:39 22.01.2021
3448 Clear 3 994 75 10000 3.09 240 18:20 22.01.2021
3449 Clear 4 994 70 10000 3.09 250 17:42 22.01.2021
3450 Clear 6 994 65 10000 4.12 240 16:59 22.01.2021
3451 Clear 6 994 65 10000 4.12 240 16:38 22.01.2021
3452 Clouds 6 994 65 10000 4.63 250 16:18 22.01.2021
3453 Clouds 7 993 70 10000 5.66 250 15:28 22.01.2021
3454 Clouds 7 992 65 10000 6.17 260 14:54 22.01.2021
3455 Clouds 7 992 70 10000 6.17 250 14:29 22.01.2021
3456 Clouds 6 992 70 10000 5.14 240 13:47 22.01.2021
3457 Clouds 6 992 75 10000 5.66 240 13:27 22.01.2021
3458 Rain 6 992 70 10000 5.66 240 12:45 22.01.2021
3459 Rain 6 991 75 10000 5.14 230 12:22 22.01.2021
3460 Rain 6 991 75 10000 5.14 230 11:46 22.01.2021
3461 Rain 5 991 75 10000 3.6 230 10:55 22.01.2021
3462 Rain 5 991 75 10000 3.6 230 10:35 22.01.2021
3463 Rain 5 990 81 10000 3.09 230 09:58 22.01.2021
3464 Rain 5 990 87 10000 3.6 250 09:29 22.01.2021
3465 Rain 5 989 81 10000 5.14 270 08:50 22.01.2021
3466 Rain 5 989 87 10000 7.2 280 08:25 22.01.2021
3467 Rain 7 987 84 10000 4.02 291 07:31 22.01.2021
3468 Rain 10 984 80 10000 7.15 221 03:21 22.01.2021
3469 Clouds 9 986 81 10000 4.02 173 00:39 22.01.2021
3470 Rain 8 987 82 10000 4.92 173 23:52 21.01.2021
3471 Clouds 7 988 86 10000 2.68 111 23:31 21.01.2021
3472 Rain 7 989 84 10000 1.79 111 22:51 21.01.2021
3473 Rain 7 990 79 10000 2.24 103 22:30 21.01.2021
3474 Rain 7 991 75 10000 2.24 185 21:43 21.01.2021
3475 Clouds 6 992 75 10000 3.58 163 21:22 21.01.2021
3476 Clouds 6 992 75 10000 0.89 171 20:51 21.01.2021
3477 Clouds 6 992 75 10000 0.89 162 20:31 21.01.2021
3478 Clouds 6 992 75 10000 0.89 162 20:31 21.01.2021
3479 Clear 6 994 61 10000 6.69 220 19:56 21.01.2021
3480 Clear 6 994 61 10000 6.69 220 19:38 21.01.2021
3481 Clear 7 994 61 10000 6.69 220 19:19 21.01.2021
3482 Clear 7 994 61 10000 6.69 220 18:40 21.01.2021
3483 Clear 7 994 65 10000 6.17 210 18:20 21.01.2021
3484 Clear 7 994 65 10000 5.14 210 17:53 21.01.2021
3485 Clear 7 994 65 10000 5.66 210 17:21 21.01.2021
3486 Clear 7 994 65 10000 5.14 210 16:54 21.01.2021
3487 Clear 7 994 65 10000 5.14 210 16:36 21.01.2021
3488 Clear 7 994 57 10000 5.14 220 16:18 21.01.2021
3489 Clear 8 994 57 10000 6.17 210 15:39 21.01.2021
3490 Clear 8 994 57 10000 5.14 220 15:21 21.01.2021
3491 Clear 8 994 57 10000 5.14 220 14:39 21.01.2021
3492 Clear 8 994 57 10000 6.69 210 14:21 21.01.2021
3493 Clear 8 994 57 10000 5.66 220 13:42 21.01.2021
3494 Clear 8 994 57 10000 5.66 220 13:22 21.01.2021
3495 Clear 8 994 53 10000 6.69 210 12:42 21.01.2021
3496 Rain 8 994 53 10000 6.17 220 12:23 21.01.2021
3497 Rain 8 994 57 10000 7.2 230 11:51 21.01.2021
3498 Rain 8 994 65 10000 8.23 250 11:28 21.01.2021
3499 Clouds 8 994 65 10000 10.8 260 10:52 21.01.2021
3500 Clouds 8 994 65 10000 10.8 260 10:33 21.01.2021
3501 Clear 11 991 47 10000 7.72 210 09:45 21.01.2021
3502 Clear 10 990 50 10000 7.72 200 09:25 21.01.2021
3503 Clear 10 990 50 10000 7.72 200 09:25 21.01.2021
3504 Clear 10 990 50 10000 6.17 180 08:48 21.01.2021
3505 Clear 10 991 43 10000 8.23 190 08:25 21.01.2021
3506 Clouds 10 990 43 10000 10.29 200 07:43 21.01.2021
3507 Clouds 9 990 43 10000 10.29 200 07:20 21.01.2021
3508 Clouds 9 992 50 10000 6.17 200 05:24 21.01.2021
3509 Clouds 9 994 53 10000 5.14 150 02:59 21.01.2021
3510 Clouds 9 996 57 10000 4.12 180 01:21 21.01.2021
3511 Clouds 8 996 57 10000 3.09 180 00:40 21.01.2021
3512 Clouds 9 997 53 10000 4.63 210 23:39 20.01.2021
3513 Clouds 8 997 57 10000 3.6 200 23:21 20.01.2021
3514 Clouds 8 997 57 10000 3.6 180 22:48 20.01.2021
3515 Clouds 9 997 57 10000 3.6 180 22:28 20.01.2021
3516 Clouds 9 998 57 10000 3.6 190 21:48 20.01.2021
3517 Clouds 8 998 57 10000 4.12 190 21:22 20.01.2021
3518 Clouds 8 998 57 10000 3.6 180 20:50 20.01.2021
3519 Clouds 8 998 57 10000 4.12 200 20:21 20.01.2021
3520 Clouds 8 998 57 10000 4.63 190 19:47 20.01.2021
3521 Clear 8 999 57 10000 5.14 210 19:28 20.01.2021
3522 Clear 8 999 53 10000 5.14 200 18:43 20.01.2021
3523 Clear 8 999 53 10000 4.12 200 18:20 20.01.2021
3524 Clear 8 999 53 10000 5.66 210 17:48 20.01.2021
3525 Clear 8 999 53 10000 5.66 210 17:27 20.01.2021
3526 Clear 8 999 53 10000 5.14 220 16:49 20.01.2021
3527 Clear 9 999 50 10000 5.14 210 16:22 20.01.2021
3528 Clear 9 999 50 10000 5.66 220 15:38 20.01.2021
3529 Clear 9 999 50 10000 6.69 210 15:19 20.01.2021
3530 Clear 9 999 53 10000 5.14 210 14:40 20.01.2021
3531 Clear 9 999 53 10000 5.14 220 14:20 20.01.2021
3532 Clouds 9 1000 57 10000 7.2 210 13:37 20.01.2021
3533 Clouds 8 1000 57 10000 5.66 220 12:56 20.01.2021
3534 Clouds 8 1001 57 10000 6.17 220 12:22 20.01.2021
3535 Clouds 8 1001 61 10000 6.17 220 11:41 20.01.2021
3536 Clouds 7 1001 57 10000 6.69 220 11:21 20.01.2021
3537 Clouds 7 1001 61 10000 6.17 220 10:50 20.01.2021
3538 Clouds 7 1001 61 10000 6.17 220 10:50 20.01.2021
3539 Clear 7 1001 57 10000 4.63 210 10:27 20.01.2021
3540 Clear 7 1001 57 10000 4.63 210 10:27 20.01.2021
3541 Clear 6 1001 65 10000 3.6 210 09:41 20.01.2021
3542 Clouds 6 1001 65 10000 4.12 210 09:23 20.01.2021
3543 Clouds 5 1002 70 10000 5.66 220 08:45 20.01.2021
3544 Clouds 5 1002 70 10000 5.66 210 08:23 20.01.2021
3545 Clouds 5 1002 70 10000 4.12 220 07:54 20.01.2021
3546 Clouds 5 1002 70 10000 6.17 210 07:25 20.01.2021
3547 Clouds 5 1003 75 10000 6.17 220 04:50 20.01.2021
3548 Clouds 5 1004 87 10000 5.66 220 02:59 20.01.2021
3549 Drizzle 6 1004 81 10000 5.14 220 00:59 20.01.2021
3550 Drizzle 7 1004 87 10000 6.17 230 00:25 20.01.2021
3551 Clouds 7 1003 95 10000 1.79 193 23:42 19.01.2021
3552 Clouds 7 1004 94 10000 4.02 191 23:18 19.01.2021
3553 Clouds 7 1003 96 10000 4.92 195 22:41 19.01.2021
3554 Rain 7 1004 87 10000 5.66 230 22:22 19.01.2021
3555 Drizzle 7 1004 87 10000 6.17 230 21:58 19.01.2021
3556 Rain 7 1004 87 10000 6.17 230 21:40 19.01.2021
3557 Rain 6 1004 87 10000 6.69 230 21:19 19.01.2021
3558 Rain 7 1003 87 10000 6.69 230 20:42 19.01.2021
3559 Rain 6 1003 93 6000 6.69 230 20:22 19.01.2021
3560 Drizzle 6 1003 93 9000 4.12 230 19:41 19.01.2021
3561 Drizzle 6 1003 93 3500 4.12 220 19:20 19.01.2021
3562 Rain 5 1003 93 8000 3.6 210 18:43 19.01.2021
3563 Rain 5 1003 93 4400 6.17 230 18:25 19.01.2021
3564 Rain 5 1003 93 10000 6.69 230 17:45 19.01.2021
3565 Rain 4 1002 87 10000 5.14 230 17:25 19.01.2021
3566 Rain 4 1002 87 10000 5.66 230 16:48 19.01.2021
3567 Clouds 4 1002 87 10000 6.17 230 16:26 19.01.2021
3568 Clouds 4 1002 87 10000 6.69 230 15:57 19.01.2021
3569 Clouds 4 1002 87 10000 6.69 230 15:37 19.01.2021
3570 Clouds 4 1002 87 10000 7.72 240 14:57 19.01.2021
3571 Clouds 4 1002 87 10000 7.72 240 14:38 19.01.2021
3572 Clouds 4 1003 87 10000 6.69 230 14:18 19.01.2021
3573 Rain 4 1003 87 10000 7.72 230 13:40 19.01.2021
3574 Rain 4 1004 87 10000 7.2 230 13:20 19.01.2021
3575 Rain 3 1004 87 10000 6.69 220 12:47 19.01.2021
3576 Rain 3 1005 87 10000 6.69 220 12:28 19.01.2021
3577 Rain 3 1005 87 10000 7.2 220 11:43 19.01.2021
3578 Rain 3 1006 87 10000 6.17 210 11:23 19.01.2021
3579 Rain 4 1006 81 10000 7.2 210 10:50 19.01.2021
3580 Rain 4 1007 81 10000 7.2 210 10:31 19.01.2021
3581 Rain 4 1007 75 10000 5.66 210 09:52 19.01.2021
3582 Rain 4 1008 75 10000 5.14 200 09:27 19.01.2021
3583 Rain 4 1009 81 10000 5.14 200 08:56 19.01.2021
3584 Rain 4 1009 81 10000 4.63 210 08:21 19.01.2021
3585 Clouds 4 1010 81 10000 5.14 210 07:38 19.01.2021
3586 Clouds 4 1011 81 10000 5.14 210 06:50 19.01.2021
3587 Clouds 3 1015 81 10000 4.63 240 02:31 19.01.2021
3588 Clouds 3 1016 81 10000 4.12 250 00:55 19.01.2021
3589 Clouds 3 1016 81 10000 5.66 250 23:58 18.01.2021
3590 Clouds 4 1016 81 10000 5.66 250 23:32 18.01.2021
3591 Clouds 4 1016 81 10000 5.66 250 22:51 18.01.2021
3592 Clouds 4 1016 81 10000 5.14 260 22:26 18.01.2021
3593 Clouds 4 1016 81 10000 5.14 250 21:58 18.01.2021
3594 Clouds 4 1016 81 10000 5.14 250 21:39 18.01.2021
3595 Clouds 4 1016 81 10000 4.63 250 21:20 18.01.2021
3596 Clouds 4 1016 87 10000 4.63 250 20:43 18.01.2021
3597 Clouds 3 1016 87 10000 5.14 240 20:24 18.01.2021
3598 Drizzle 4 1016 87 7000 5.14 250 19:51 18.01.2021
3599 Drizzle 4 1016 87 7000 5.14 250 19:32 18.01.2021
3600 Rain 4 1016 81 10000 6.69 250 18:47 18.01.2021
3601 Rain 4 1016 81 10000 7.2 250 18:23 18.01.2021
3602 Rain 4 1017 81 8000 5.66 240 17:45 18.01.2021
3603 Rain 4 1017 81 10000 4.12 230 17:24 18.01.2021
3604 Rain 4 1017 87 10000 5.14 240 16:48 18.01.2021
3605 Drizzle 4 1017 87 9000 5.14 240 16:23 18.01.2021
3606 Drizzle 4 1017 87 9000 4.63 240 15:49 18.01.2021
3607 Drizzle 4 1017 87 9000 5.14 230 15:27 18.01.2021
3608 Rain 4 1018 87 10000 5.14 240 14:46 18.01.2021
3609 Rain 4 1018 87 10000 5.14 240 14:28 18.01.2021
3610 Drizzle 4 1018 87 10000 5.66 250 13:56 18.01.2021
3611 Drizzle 4 1018 87 10000 5.66 250 13:38 18.01.2021
3612 Drizzle 4 1018 81 10000 5.66 240 13:20 18.01.2021
3613 Clouds 4 1019 81 10000 5.14 240 12:42 18.01.2021
3614 Clouds 4 1019 81 10000 5.66 240 12:18 18.01.2021
3615 Clouds 3 1019 87 10000 5.14 250 11:41 18.01.2021
3616 Clouds 3 1020 87 10000 4.63 240 11:23 18.01.2021
3617 Drizzle 3 1020 87 10000 4.12 250 10:46 18.01.2021
3618 Clouds 3 1020 93 10000 4.12 260 10:20 18.01.2021
3619 Clouds 2 1020 93 10000 4.12 250 09:39 18.01.2021
3620 Clouds 2 1020 100 10000 4.63 260 09:18 18.01.2021
3621 Drizzle 2 1019 93 9000 3.6 270 08:26 18.01.2021
3622 Drizzle 2 1019 93 8000 3.09 270 07:48 18.01.2021
3623 Clouds 2 1019 93 3700 2.57 250 06:35 18.01.2021
3624 Clouds 2 1019 93 3700 2.57 250 06:35 18.01.2021
3625 Clouds 1 1019 93 1000 3.09 270 04:43 18.01.2021
3626 Clouds 0 1019 93 2400 2.57 250 04:24 18.01.2021
3627 Clouds 0 1019 93 3400 0.51 0 03:47 18.01.2021
3628 Snow -1 1019 93 2800 1.54 210 03:26 18.01.2021
3629 Snow -1 1019 86 3100 0.51 0 02:54 18.01.2021
3630 Clouds -1 1019 86 3900 1.54 170 02:19 18.01.2021
3631 Clouds -2 1020 86 8000 1.54 200 00:41 18.01.2021
3632 Snow -2 1020 86 9000 2.06 150 23:52 17.01.2021
3633 Snow -2 1020 80 5000 1.54 160 23:27 17.01.2021
3634 Snow -2 1020 80 10000 1.54 170 22:55 17.01.2021
3635 Clouds -2 1020 80 10000 1.54 170 22:24 17.01.2021
3636 Clouds -2 1020 80 10000 1.54 170 21:44 17.01.2021
3637 Clouds -2 1020 74 10000 2.57 140 21:26 17.01.2021
3638 Snow -1 1020 69 10000 2.06 140 20:55 17.01.2021
3639 Snow -1 1020 69 10000 2.06 140 20:37 17.01.2021
3640 Clouds -1 1020 74 10000 1.54 110 20:18 17.01.2021
3641 Clouds -1 1020 74 10000 1.54 130 19:40 17.01.2021
3642 Clouds -1 1020 74 10000 1.65 168 18:57 17.01.2021
3643 Clouds -2 1020 80 10000 2.06 120 18:30 17.01.2021
3644 Clouds -1 1019 74 10000 1.54 140 17:52 17.01.2021
3645 Clouds -1 1019 74 10000 1.54 140 17:34 17.01.2021
3646 Clouds -1 1019 69 10000 1.54 150 16:57 17.01.2021
3647 Clouds -1 1019 69 10000 1.54 150 16:39 17.01.2021
3648 Clear -1 1019 69 10000 2.06 150 16:19 17.01.2021
3649 Clear -1 1019 69 10000 2.06 150 15:38 17.01.2021
3650 Clear -1 1018 69 10000 2.06 170 15:19 17.01.2021
3651 Clear -1 1018 69 10000 2.06 170 14:44 17.01.2021
3652 Clear 0 1018 64 10000 3.09 170 14:25 17.01.2021
3653 Clouds 0 1018 64 10000 2.06 140 13:44 17.01.2021
3654 Clear 0 1018 69 10000 1.54 130 13:26 17.01.2021
3655 Clear -1 1018 69 10000 2.06 140 12:47 17.01.2021
3656 Clear -1 1018 74 10000 1.03 0 12:28 17.01.2021
3657 Clear -2 1018 80 10000 2.72 144 11:26 17.01.2021
3658 Clear -2 1018 86 10000 1.03 120 10:57 17.01.2021
3659 Clear -2 1018 86 10000 1.03 120 10:39 17.01.2021
3660 Clear -3 1018 86 10000 0.51 160 10:18 17.01.2021
3661 Clear -4 1017 86 10000 1.54 100 09:19 17.01.2021
3662 Clouds -4 1017 86 10000 2.06 90 08:42 17.01.2021
3663 Clouds -4 1016 86 10000 1.54 100 05:20 17.01.2021
3664 Clouds -4 1017 86 10000 1.54 100 04:27 17.01.2021
3665 Clouds -4 1017 86 9000 1.54 100 02:38 17.01.2021
3666 Clouds -3 1018 86 10000 0.51 0 00:47 17.01.2021
3667 Clouds -3 1018 86 10000 2.28 200 00:18 17.01.2021
3668 Clouds -3 1018 86 10000 1.03 0 23:48 16.01.2021
3669 Clouds -3 1019 80 10000 2.06 170 23:19 16.01.2021
3670 Clouds -2 1019 80 10000 1.54 150 22:34 16.01.2021
3671 Clouds -2 1019 80 10000 2.06 200 21:58 16.01.2021
3672 Clouds -2 1019 80 10000 1.54 200 21:24 16.01.2021
3673 Clouds -2 1020 80 10000 1.03 0 20:59 16.01.2021
3674 Clouds -2 1020 80 10000 1.03 0 20:39 16.01.2021
3675 Clouds -2 1020 86 10000 1.54 110 20:18 16.01.2021
3676 Clouds -3 1020 86 10000 1.03 0 19:41 16.01.2021
3677 Clouds -3 1020 80 10000 1.54 90 19:23 16.01.2021
3678 Clouds -3 1020 80 10000 1.03 100 18:42 16.01.2021
3679 Clouds -3 1021 80 10000 2.11 250 18:21 16.01.2021
3680 Clouds -2 1021 80 10000 0.51 0 17:41 16.01.2021
3681 Clouds -1 1021 74 10000 2.06 260 17:23 16.01.2021
3682 Clouds -1 1022 74 10000 2.06 270 16:45 16.01.2021
3683 Clouds -1 1022 74 10000 2.06 280 16:26 16.01.2021
3684 Clouds -1 1022 74 10000 2.57 270 15:48 16.01.2021
3685 Clouds -1 1022 69 10000 4.12 270 15:18 16.01.2021
3686 Clouds -1 1023 69 10000 3.09 260 14:21 16.01.2021
3687 Clouds -1 1023 69 10000 3.09 260 13:48 16.01.2021
3688 Clouds -1 1024 69 10000 4.12 250 13:21 16.01.2021
3689 Clouds -1 1024 69 10000 3.6 260 12:39 16.01.2021
3690 Clouds -1 1024 64 10000 3.6 260 12:20 16.01.2021
3691 Clouds -1 1025 69 10000 3.09 270 11:48 16.01.2021
3692 Clouds -1 1025 69 10000 2.57 260 11:24 16.01.2021
3693 Clouds -2 1025 69 10000 2.57 280 10:46 16.01.2021
3694 Clouds -2 1025 69 10000 3.09 270 10:21 16.01.2021
3695 Clouds -3 1025 74 10000 3.6 260 09:36 16.01.2021
3696 Clouds -3 1026 68 10000 2.57 300 08:47 16.01.2021
3697 Clouds -3 1026 74 10000 1.54 320 07:48 16.01.2021
3698 Clouds -3 1026 74 10000 1.03 330 06:44 16.01.2021
3699 Clouds -2 1027 69 10000 1.03 330 04:40 16.01.2021
3700 Clouds -2 1027 64 10000 3.09 300 02:56 16.01.2021
3701 Clouds -2 1027 64 10000 2.57 310 01:44 16.01.2021
3702 Clouds -2 1028 64 10000 3.09 300 00:38 16.01.2021
3703 Clouds -2 1028 59 10000 2.57 310 00:19 16.01.2021
3704 Clouds -3 1028 68 10000 1.54 330 23:25 15.01.2021
3705 Clouds -3 1028 68 10000 2.06 350 22:27 15.01.2021
3706 Snow -2 1027 64 10000 2.57 10 21:48 15.01.2021
3707 Snow -2 1027 64 10000 3.6 350 21:25 15.01.2021
3708 Snow -2 1027 74 10000 3.6 350 20:42 15.01.2021
3709 Snow -1 1027 80 10000 2.06 330 20:23 15.01.2021
3710 Snow -1 1027 74 10000 2.57 330 19:43 15.01.2021
3711 Snow -1 1027 80 10000 3.09 340 19:24 15.01.2021
3712 Snow -1 1026 80 10000 2.57 350 18:45 15.01.2021
3713 Snow -1 1026 80 8000 3.09 330 18:20 15.01.2021
3714 Snow -1 1026 80 10000 3.09 330 17:56 15.01.2021
3715 Snow -1 1026 80 10000 3.09 330 17:37 15.01.2021
3716 Clouds -1 1026 80 10000 3.09 320 17:19 15.01.2021
3717 Clouds -1 1026 80 10000 3.09 320 16:40 15.01.2021
3718 Clouds -1 1026 86 10000 3.09 320 16:21 15.01.2021
3719 Snow -1 1025 86 7000 2.57 340 15:40 15.01.2021
3720 Snow 0 1025 80 6000 2.57 350 15:19 15.01.2021
3721 Clouds 0 1025 80 10000 2.57 340 14:41 15.01.2021
3722 Snow 0 1025 80 10000 3.09 340 14:22 15.01.2021
3723 Clouds 0 1025 80 10000 3.09 330 13:40 15.01.2021
3724 Clouds 0 1025 80 10000 3.09 330 13:40 15.01.2021
3725 Snow 0 1025 80 10000 3.6 330 13:20 15.01.2021
3726 Clouds 0 1025 80 10000 3.6 330 12:47 15.01.2021
3727 Clouds 0 1025 80 10000 3.6 330 12:26 15.01.2021
3728 Clouds 0 1025 86 10000 3.09 320 11:42 15.01.2021
3729 Snow 0 1025 86 6000 2.57 330 11:23 15.01.2021
3730 Clouds 0 1025 86 10000 2.57 320 10:52 15.01.2021
3731 Clouds 0 1025 86 10000 2.57 320 10:33 15.01.2021
3732 Clouds 0 1024 80 10000 2.06 310 09:50 15.01.2021
3733 Clouds 0 1024 80 10000 2.57 320 09:30 15.01.2021
3734 Clouds 0 1023 86 10000 2.57 310 08:37 15.01.2021
3735 Clouds 0 1023 80 10000 2.57 310 08:18 15.01.2021
3736 Clouds 0 1023 86 10000 1.54 330 07:39 15.01.2021
3737 Clouds 0 1023 86 10000 2.06 320 07:18 15.01.2021
3738 Clouds 0 1022 93 10000 1.54 10 03:46 15.01.2021
3739 Clouds 0 1022 93 7000 2.06 340 00:57 15.01.2021
3740 Snow 0 1021 93 10000 1.54 320 23:50 14.01.2021
3741 Clouds 0 1021 93 10000 2.06 330 23:21 14.01.2021
3742 Snow 0 1021 86 10000 1.54 330 22:42 14.01.2021
3743 Clouds 0 1021 86 10000 2.06 320 22:24 14.01.2021
3744 Clouds 0 1021 86 10000 1.54 320 21:44 14.01.2021
3745 Clouds 0 1021 86 10000 1.54 330 21:21 14.01.2021
3746 Clouds 0 1021 86 10000 1.54 330 20:49 14.01.2021
3747 Clouds 1 1021 80 10000 2.06 330 20:25 14.01.2021
3748 Clouds 1 1021 80 10000 2.06 320 19:46 14.01.2021
3749 Clouds 1 1021 80 10000 1.54 350 19:27 14.01.2021
3750 Clouds 1 1021 75 10000 2.01 359 18:55 14.01.2021
3751 Clouds 1 1020 75 10000 2.52 355 18:30 14.01.2021
3752 Clouds 1 1020 69 10000 2.41 344 17:50 14.01.2021
3753 Clouds 1 1020 69 10000 2.25 345 17:27 14.01.2021
3754 Clouds 1 1020 64 10000 1.03 0 16:46 14.01.2021
3755 Clouds 1 1020 64 10000 1.54 350 16:26 14.01.2021
3756 Clouds 1 1020 75 10000 2.06 330 15:46 14.01.2021
3757 Clouds 2 1019 75 10000 2.06 350 15:25 14.01.2021
3758 Clouds 2 1019 69 10000 2.06 340 14:39 14.01.2021
3759 Clouds 2 1019 75 10000 2.06 330 14:20 14.01.2021
3760 Clouds 1 1019 80 10000 3.09 330 13:54 14.01.2021
3761 Clouds 1 1019 80 10000 2.06 330 13:23 14.01.2021
3762 Clouds 1 1019 86 10000 2.57 310 12:56 14.01.2021
3763 Clouds 1 1019 86 10000 3.09 310 12:21 14.01.2021
3764 Clouds 1 1019 86 10000 2.57 310 11:54 14.01.2021
3765 Clouds 1 1018 86 10000 2.57 310 11:27 14.01.2021
3766 Clouds 1 1018 86 10000 3.6 320 10:58 14.01.2021
3767 Clouds 1 1018 86 10000 3.6 320 10:39 14.01.2021
3768 Clouds 1 1018 86 10000 2.57 320 10:18 14.01.2021
3769 Clouds 1 1017 86 10000 3.09 320 09:42 14.01.2021
3770 Clouds 1 1017 86 10000 3.09 310 09:20 14.01.2021
3771 Clouds 1 1015 86 10000 3.09 320 08:30 14.01.2021
3772 Snow 1 1015 86 10000 3.6 330 07:57 14.01.2021
3773 Clouds 1 1014 86 10000 4.12 320 07:30 14.01.2021
3774 Snow 1 1014 80 10000 4.63 320 06:34 14.01.2021
3775 Snow 1 1011 75 10000 7.2 310 04:57 14.01.2021
3776 Clouds 1 1008 75 10000 7.2 320 00:27 14.01.2021
3777 Clouds 1 1007 86 10000 7.72 300 23:31 13.01.2021
3778 Clouds 1 1007 80 10000 6.69 300 22:49 13.01.2021
3779 Clouds 1 1007 75 10000 7.2 300 22:23 13.01.2021
3780 Clouds 0 1006 80 10000 7.2 300 21:48 13.01.2021
3781 Clouds 1 1006 80 10000 7.72 300 21:22 13.01.2021
3782 Clouds 1 1006 93 10000 6.17 300 20:51 13.01.2021
3783 Clouds 1 1005 93 10000 6.17 300 20:27 13.01.2021
3784 Clouds 1 1005 93 10000 5.66 300 19:56 13.01.2021
3785 Snow 1 1005 93 10000 6.69 290 19:31 13.01.2021
3786 Snow 1 1005 93 1900 6.17 320 18:53 13.01.2021
3787 Snow 1 1005 93 1900 6.17 320 18:53 13.01.2021
3788 Snow 1 1005 93 1900 6.17 320 18:34 13.01.2021
3789 Rain 3 1004 81 10000 10.29 260 17:51 13.01.2021
3790 Clouds 4 1004 75 10000 11.32 260 17:19 13.01.2021
3791 Clouds 3 1005 81 10000 9.77 260 16:50 13.01.2021
3792 Clouds 3 1005 81 10000 10.8 250 16:21 13.01.2021
3793 Clouds 3 1006 81 10000 10.29 250 15:51 13.01.2021
3794 Clouds 3 1006 81 10000 10.29 250 15:32 13.01.2021
3795 Clouds 3 1007 87 10000 8.23 260 14:43 13.01.2021
3796 Rain 3 1008 81 10000 7.2 270 13:51 13.01.2021
3797 Rain 3 1008 75 10000 8.23 260 13:27 13.01.2021
3798 Clouds 3 1009 87 10000 8.23 260 12:47 13.01.2021
3799 Clouds 3 1009 81 10000 7.2 260 12:28 13.01.2021
3800 Clouds 3 1009 81 10000 7.2 270 11:55 13.01.2021
3801 Clouds 3 1009 81 10000 7.2 270 11:35 13.01.2021
3802 Clouds 2 1010 87 10000 7.2 270 10:55 13.01.2021
3803 Clouds 2 1010 87 10000 7.2 270 10:37 13.01.2021
3804 Clouds 2 1010 87 10000 6.69 270 10:18 13.01.2021
3805 Clouds 2 1010 87 10000 6.17 270 09:31 13.01.2021
3806 Clouds 2 1010 93 10000 5.66 260 08:52 13.01.2021
3807 Clouds 1 1010 93 10000 6.69 270 08:31 13.01.2021
3808 Clouds 1 1010 86 7000 6.17 270 07:35 13.01.2021
3809 Rain 2 1010 80 10000 6.69 270 06:58 13.01.2021
3810 Clouds 1 1010 80 10000 6.17 270 04:21 13.01.2021
3811 Clouds 1 1010 86 10000 6.17 270 03:48 13.01.2021
3812 Clouds 1 1010 80 10000 5.66 270 03:29 13.01.2021
3813 Clouds 1 1010 86 10000 5.66 270 01:44 13.01.2021
3814 Clouds 1 1009 86 10000 4.12 270 00:29 13.01.2021
3815 Clouds 1 1009 86 10000 4.12 290 23:29 12.01.2021
3816 Clouds 1 1008 86 10000 4.63 280 22:47 12.01.2021
3817 Clouds 1 1008 86 10000 5.14 280 22:25 12.01.2021
3818 Clouds 2 1008 80 10000 6.17 280 21:53 12.01.2021
3819 Clouds 2 1008 80 10000 6.17 280 21:34 12.01.2021
3820 Clouds 2 1007 80 10000 5.66 290 20:56 12.01.2021
3821 Clouds 2 1007 80 10000 5.66 290 20:37 12.01.2021
3822 Clouds 2 1007 87 10000 5.66 280 20:19 12.01.2021
3823 Clear 2 1006 80 10000 5.14 290 19:37 12.01.2021
3824 Clouds 3 1005 81 10000 7.2 290 18:52 12.01.2021
3825 Clouds 3 1005 93 10000 4.63 280 18:25 12.01.2021
3826 Clouds 3 1004 87 9000 5.66 270 17:56 12.01.2021
3827 Clouds 3 1004 87 9000 5.66 270 17:32 12.01.2021
3828 Clouds 3 1004 87 9000 5.66 270 17:32 12.01.2021
3829 Clouds 3 1004 87 10000 3.09 260 16:44 12.01.2021
3830 Clouds 3 1004 87 10000 3.6 270 16:26 12.01.2021
3831 Clouds 3 1003 87 10000 4.63 270 15:48 12.01.2021
3832 Clouds 3 1003 87 10000 4.12 270 15:27 12.01.2021
3833 Clouds 3 1003 87 10000 3.6 280 14:50 12.01.2021
3834 Clouds 3 1002 93 10000 2.57 280 14:30 12.01.2021
3835 Rain 3 1002 87 10000 3.09 320 13:56 12.01.2021
3836 Rain 3 1002 87 10000 3.09 320 13:37 12.01.2021
3837 Rain 3 1002 87 10000 5.66 340 12:38 12.01.2021
3838 Rain 4 1001 87 10000 7.2 240 11:53 12.01.2021
3839 Rain 4 1001 87 10000 7.2 240 11:34 12.01.2021
3840 Rain 3 1001 87 9000 6.17 240 10:44 12.01.2021
3841 Rain 3 1001 87 10000 5.14 230 10:20 12.01.2021
3842 Clouds 3 1001 87 10000 5.66 230 09:53 12.01.2021
3843 Rain 3 1001 87 10000 6.17 230 09:23 12.01.2021
3844 Rain 3 1001 87 10000 6.17 230 08:39 12.01.2021
3845 Rain 3 1001 93 10000 5.66 230 08:20 12.01.2021
3846 Rain 2 1001 87 10000 5.14 230 07:34 12.01.2021
3847 Rain 2 1003 93 10000 6.17 230 05:56 12.01.2021
3848 Rain 2 1005 87 10000 7.72 240 03:48 12.01.2021
3849 Rain 2 1005 87 10000 7.72 230 03:23 12.01.2021
3850 Clouds 2 1006 87 9000 7.2 230 02:18 12.01.2021
3851 Rain 2 1007 87 10000 7.72 230 01:24 12.01.2021
3852 Clouds 3 1008 75 10000 6.17 220 23:45 11.01.2021
3853 Clouds 2 1009 80 10000 6.17 220 23:20 11.01.2021
3854 Clouds 2 1009 75 10000 6.69 220 22:50 11.01.2021
3855 Clouds 2 1009 75 10000 6.69 220 22:32 11.01.2021
3856 Clouds 2 1010 75 10000 6.17 230 21:56 11.01.2021
3857 Clouds 2 1010 75 10000 6.17 230 21:37 11.01.2021
3858 Clouds 2 1010 80 10000 6.69 230 21:18 11.01.2021
3859 Clouds 2 1011 80 10000 6.69 230 20:40 11.01.2021
3860 Clouds 2 1011 80 10000 7.2 230 20:22 11.01.2021
3861 Clouds 2 1011 75 10000 7.72 220 19:53 11.01.2021
3862 Clouds 2 1012 75 10000 7.2 220 19:24 11.01.2021
3863 Clouds 2 1012 75 10000 7.2 220 19:24 11.01.2021
3864 Clouds 2 1012 75 10000 6.17 230 18:45 11.01.2021
3865 Clouds 2 1013 75 10000 7.72 230 18:25 11.01.2021
3866 Clouds 2 1013 75 10000 6.69 220 17:44 11.01.2021
3867 Clouds 2 1014 75 10000 7.2 240 17:26 11.01.2021
3868 Clouds 2 1014 75 10000 6.17 230 16:57 11.01.2021
3869 Clouds 2 1014 75 10000 6.17 230 16:38 11.01.2021
3870 Clouds 2 1014 75 10000 6.17 230 16:19 11.01.2021
3871 Clouds 2 1014 75 10000 6.17 220 15:47 11.01.2021
3872 Clouds 2 1015 75 10000 5.14 220 15:26 11.01.2021
3873 Clouds 2 1015 75 10000 5.14 220 14:39 11.01.2021
3874 Clouds 2 1016 75 10000 5.14 240 13:50 11.01.2021
3875 Clouds 2 1016 75 10000 6.17 240 13:26 11.01.2021
3876 Clouds 2 1017 80 10000 5.66 230 12:51 11.01.2021
3877 Clouds 2 1017 80 10000 5.66 230 12:32 11.01.2021
3878 Clouds 2 1017 80 10000 6.17 230 11:56 11.01.2021
3879 Clouds 1 1017 80 10000 6.17 230 11:34 11.01.2021
3880 Snow 1 1018 93 6000 5.14 230 10:51 11.01.2021
3881 Snow 1 1018 86 6000 5.14 230 10:25 11.01.2021
3882 Snow 1 1018 80 10000 5.66 230 09:44 11.01.2021
3883 Snow 2 1018 75 10000 6.69 230 09:22 11.01.2021
3884 Snow 2 1018 75 10000 5.14 230 08:46 11.01.2021
3885 Clouds 1 1018 80 10000 5.14 230 08:19 11.01.2021
3886 Clouds 1 1018 80 10000 5.66 230 07:30 11.01.2021
3887 Clouds 2 1018 75 10000 6.17 230 06:59 11.01.2021
3888 Clouds 1 1019 80 10000 6.17 240 06:26 11.01.2021
3889 Clouds 1 1020 80 10000 5.14 240 01:46 11.01.2021
3890 Clouds 1 1020 80 10000 4.63 240 00:38 11.01.2021
3891 Clouds 1 1021 80 10000 4.63 240 23:45 10.01.2021
3892 Clouds 1 1021 80 10000 5.14 230 22:49 10.01.2021
3893 Clouds 1 1021 80 10000 4.63 230 22:28 10.01.2021
3894 Clouds 0 1021 80 10000 4.63 220 21:57 10.01.2021
3895 Clouds 0 1021 80 10000 4.63 220 21:37 10.01.2021
3896 Clouds 0 1021 80 10000 4.12 220 21:18 10.01.2021
3897 Clouds 0 1021 80 10000 4.12 220 21:18 10.01.2021
3898 Clouds 0 1021 80 10000 3.6 210 20:39 10.01.2021
3899 Clouds 0 1022 80 10000 3.6 220 20:21 10.01.2021
3900 Clouds 0 1022 80 10000 3.09 210 19:38 10.01.2021
3901 Clouds 0 1022 80 10000 3.09 220 19:20 10.01.2021
3902 Clouds 0 1022 80 10000 2.57 220 18:44 10.01.2021
3903 Clouds 0 1022 80 10000 3.09 220 18:20 10.01.2021
3904 Clear 0 1022 80 10000 2.06 200 17:26 10.01.2021
3905 Clouds 1 1022 80 10000 3.09 220 16:49 10.01.2021
3906 Clouds 1 1022 80 10000 3.09 220 16:28 10.01.2021
3907 Clouds 2 1022 80 10000 2.57 220 15:40 10.01.2021
3908 Clouds 2 1022 80 10000 2.57 220 15:22 10.01.2021
3909 Clouds 2 1022 75 10000 3.6 240 14:41 10.01.2021
3910 Clouds 2 1022 75 10000 4.12 240 14:22 10.01.2021
3911 Clouds 2 1023 75 10000 3.6 230 13:43 10.01.2021
3912 Clouds 2 1023 80 10000 2.57 220 13:24 10.01.2021
3913 Clouds 1 1023 86 10000 2.06 190 12:58 10.01.2021
3914 Clouds 1 1023 86 10000 2.06 190 12:40 10.01.2021
3915 Clouds 1 1024 86 10000 2.06 190 11:56 10.01.2021
3916 Clouds 0 1024 93 10000 2.57 220 11:21 10.01.2021
3917 Clouds 0 1024 86 10000 1.54 200 10:52 10.01.2021
3918 Clouds -1 1024 93 10000 2.64 200 10:24 10.01.2021
3919 Clouds -1 1023 93 10000 1.03 0 09:46 10.01.2021
3920 Clouds -1 1023 93 10000 1.54 160 08:50 10.01.2021
3921 Clouds -1 1023 93 10000 1.54 140 08:19 10.01.2021
3922 Clouds -1 1023 93 9000 2.2 213 07:27 10.01.2021
3923 Clouds -1 1023 100 10000 2.29 209 06:18 10.01.2021
3924 Clouds -1 1023 93 8000 2.29 209 05:34 10.01.2021
3925 Clouds -1 1024 93 10000 1.03 280 02:42 10.01.2021
3926 Clouds 0 1023 100 7000 1.79 218 00:38 10.01.2021
3927 Clouds 0 1024 93 10000 0.51 0 23:43 09.01.2021
3928 Clouds 0 1024 93 10000 1.63 220 23:25 09.01.2021
3929 Clouds 0 1024 93 10000 1.54 250 22:44 09.01.2021
3930 Clouds 0 1024 93 10000 1.54 280 22:18 09.01.2021
3931 Clouds 0 1023 93 10000 1.54 270 21:55 09.01.2021
3932 Clouds 0 1023 93 10000 1.54 270 21:37 09.01.2021
3933 Clouds 0 1024 93 10000 1.54 290 21:18 09.01.2021
3934 Clouds 0 1024 100 9000 2.57 280 20:39 09.01.2021
3935 Clouds 1 1023 100 10000 1.03 0 19:44 09.01.2021
3936 Clouds 1 1023 100 10000 1.03 0 19:22 09.01.2021
3937 Clouds 1 1023 100 10000 1.54 310 18:44 09.01.2021
3938 Clouds 1 1023 100 10000 2.06 290 18:26 09.01.2021
3939 Clouds 1 1022 100 9000 2.06 310 17:47 09.01.2021
3940 Clouds 1 1022 100 8000 1.54 290 17:27 09.01.2021
3941 Clouds 1 1022 100 8000 2.06 320 16:36 09.01.2021
3942 Mist 1 1022 100 4400 2.57 300 15:52 09.01.2021
3943 Mist 1 1022 100 4400 2.57 300 15:33 09.01.2021
3944 Clouds 1 1022 100 8000 3.6 320 14:41 09.01.2021
3945 Clouds 1 1021 93 10000 3.6 320 14:20 09.01.2021
3946 Clouds 1 1021 93 10000 3.09 310 13:49 09.01.2021
3947 Clouds 1 1021 93 10000 3.09 300 13:31 09.01.2021
3948 Clouds 1 1021 93 10000 3.09 300 12:55 09.01.2021
3949 Clouds 1 1021 93 10000 3.09 310 12:26 09.01.2021
3950 Clouds 1 1021 100 8000 3.09 300 11:56 09.01.2021
3951 Clouds 1 1021 100 8000 3.09 300 11:35 09.01.2021
3952 Clouds 1 1021 93 8000 3.09 300 10:55 09.01.2021
3953 Clouds 1 1021 93 8000 3.09 300 10:37 09.01.2021
3954 Clouds 0 1020 93 7000 2.57 290 09:59 09.01.2021
3955 Clouds 0 1020 93 7000 2.57 290 09:40 09.01.2021
3956 Snow 0 1020 93 7000 2.57 290 09:18 09.01.2021
3957 Clouds 0 1019 93 4300 4.12 300 07:43 09.01.2021
3958 Snow 0 1019 93 2700 3.6 300 06:41 09.01.2021
3959 Snow 0 1018 93 2400 4.12 300 06:22 09.01.2021
3960 Snow 0 1018 93 2800 4.12 290 03:49 09.01.2021
3961 Snow 0 1017 93 4100 3.6 280 02:40 09.01.2021
3962 Snow 0 1017 93 4400 3.6 280 02:22 09.01.2021
3963 Snow 0 1017 93 7000 4.12 290 01:24 09.01.2021
3964 Snow 0 1017 93 3000 3.6 280 00:28 09.01.2021
3965 Snow 0 1017 86 7000 3.6 280 23:41 08.01.2021
3966 Snow 0 1016 86 10000 3.6 290 22:43 08.01.2021
3967 Clouds 0 1016 86 10000 3.6 300 21:52 08.01.2021
3968 Clouds 0 1016 93 10000 3.6 300 21:19 08.01.2021
3969 Clouds 0 1015 93 10000 3.09 290 20:37 08.01.2021
3970 Clouds 1 1015 93 10000 3.09 290 19:58 08.01.2021
3971 Clouds 1 1015 93 10000 3.09 290 19:25 08.01.2021
3972 Snow 1 1014 86 10000 3.09 290 18:54 08.01.2021
3973 Snow 1 1014 86 10000 3.09 290 18:33 08.01.2021
3974 Snow 1 1014 86 10000 3.6 300 17:55 08.01.2021
3975 Snow 1 1014 86 10000 3.6 290 17:25 08.01.2021
3976 Snow 1 1014 86 10000 3.6 290 16:49 08.01.2021
3977 Snow 1 1013 86 10000 3.09 320 15:52 08.01.2021
3978 Snow 1 1013 86 10000 3.09 320 15:32 08.01.2021
3979 Snow 1 1012 86 10000 2.57 300 14:40 08.01.2021
3980 Snow 1 1012 86 10000 2.57 310 14:18 08.01.2021
3981 Snow 1 1012 86 10000 2.06 340 13:22 08.01.2021
3982 Snow 1 1012 86 10000 3.09 330 12:52 08.01.2021
3983 Snow 1 1012 86 10000 3.09 330 12:23 08.01.2021
3984 Snow 1 1012 93 10000 2.57 320 11:59 08.01.2021
3985 Snow 1 1012 93 10000 2.57 320 11:39 08.01.2021
3986 Snow 1 1012 93 10000 2.57 320 11:39 08.01.2021
3987 Snow 1 1012 93 10000 2.57 310 11:19 08.01.2021
3988 Snow 1 1011 93 6000 2.06 310 10:42 08.01.2021
3989 Snow 1 1011 93 5000 2.06 300 09:57 08.01.2021
3990 Snow 1 1011 93 5000 2.06 300 09:38 08.01.2021
3991 Clouds 1 1011 93 4800 2.06 300 09:19 08.01.2021
3992 Clouds 1 1010 86 6000 1.54 280 07:43 08.01.2021
3993 Clouds 1 1009 86 8000 2.06 270 07:24 08.01.2021
3994 Clouds 1 1009 86 8000 2.06 270 07:24 08.01.2021
3995 Clouds 1 1009 86 10000 2.06 260 04:18 08.01.2021
3996 Clouds 1 1009 86 10000 2.57 230 23:43 07.01.2021
3997 Clouds 1 1009 86 10000 2.57 230 22:55 07.01.2021
3998 Clouds 1 1009 86 10000 2.57 230 22:36 07.01.2021
3999 Clouds 1 1010 86 10000 3.6 240 21:52 07.01.2021
4000 Clouds 1 1010 86 10000 3.6 240 21:33 07.01.2021
4001 Snow 1 1010 86 10000 3.09 250 20:56 07.01.2021
4002 Snow 1 1010 86 10000 3.09 250 20:38 07.01.2021
4003 Snow 1 1010 86 10000 3.09 240 20:18 07.01.2021
4004 Snow 1 1010 86 10000 2.57 230 19:38 07.01.2021
4005 Snow 1 1010 86 10000 3.09 240 18:50 07.01.2021
4006 Clouds 1 1010 86 10000 3.09 250 18:22 07.01.2021
4007 Clouds 1 1010 86 10000 3.6 260 17:42 07.01.2021
4008 Clouds 1 1010 86 10000 3.6 250 17:18 07.01.2021
4009 Clouds 1 1010 86 10000 4.12 250 16:51 07.01.2021
4010 Clouds 1 1010 86 10000 3.6 250 16:20 07.01.2021
4011 Clouds 1 1009 86 10000 4.12 250 15:34 07.01.2021
4012 Clouds 2 1009 86 10000 4.63 260 14:42 07.01.2021
4013 Clouds 2 1009 86 10000 5.66 250 14:23 07.01.2021
4014 Clouds 1 1010 86 10000 4.63 250 13:36 07.01.2021
4015 Snow 1 1010 86 10000 4.63 250 13:18 07.01.2021
4016 Clouds 1 1010 86 10000 4.6 250 12:33 07.01.2021
4017 Clouds 1 1010 86 10000 4.6 250 11:52 07.01.2021
4018 Clouds 1 1010 86 10000 4.6 250 11:34 07.01.2021
4019 Snow 1 1010 86 10000 4.1 260 10:48 07.01.2021
4020 Clouds 1 1010 96 10000 4.6 260 10:20 07.01.2021
4021 Clouds 1 1010 96 6000 4.6 250 09:46 07.01.2021
4022 Clouds 0 1010 98 6000 4.6 250 09:19 07.01.2021
4023 Snow 1 1009 97 214 2.68 245 08:29 07.01.2021
4024 Snow 1 1009 97 214 1.79 252 07:48 07.01.2021
4025 Snow 1 1008 97 110 3.13 225 07:22 07.01.2021
4026 Clouds 1 1009 97 208 1.79 267 04:31 07.01.2021
4027 Snow 1 1010 97 87 0.89 275 00:30 07.01.2021
4028 Clouds 1 1010 97 317 1.34 273 23:48 06.01.2021
4029 Clouds 1 1009 96 227 2.24 295 22:39 06.01.2021
4030 Clouds 1 1011 89 124 2.24 274 21:44 06.01.2021
4031 Snow 1 1011 89 124 2.68 288 21:23 06.01.2021
4032 Snow 1 1011 89 124 2.68 267 20:58 06.01.2021
4033 Snow 1 1011 89 124 2.24 286 20:39 06.01.2021
4034 Clouds 1 1011 86 10000 5.7 290 20:18 06.01.2021
4035 Clouds 1 1011 86 10000 5.7 290 19:38 06.01.2021
4036 Clouds 1 1011 86 10000 5.7 290 19:19 06.01.2021
4037 Clouds 1 1011 86 10000 4.6 290 18:42 06.01.2021
4038 Clouds 1 1011 86 10000 4.6 280 18:24 06.01.2021
4039 Clouds 1 1011 86 10000 4.1 280 17:43 06.01.2021
4040 Clouds 1 1011 86 10000 4.1 280 17:24 06.01.2021
4041 Clouds 1 1011 86 10000 4.6 300 16:45 06.01.2021
4042 Clouds 1 1011 86 10000 4.6 300 16:20 06.01.2021
4043 Clouds 2 1011 80 10000 4.1 300 15:54 06.01.2021
4044 Clouds 2 1011 80 10000 4.1 300 15:32 06.01.2021
4045 Clouds 2 1011 80 10000 4.1 310 14:56 06.01.2021
4046 Clouds 2 1011 95 10000 3.6 310 14:27 06.01.2021
4047 Snow 2 1012 95 10000 3.6 310 13:47 06.01.2021
4048 Snow 2 1012 95 10000 3.6 310 13:24 06.01.2021
4049 Snow 1 1013 95 9000 3.1 310 12:53 06.01.2021
4050 Snow 2 1013 95 9000 3.1 310 12:29 06.01.2021
4051 Snow 1 1013 95 7000 2.6 320 11:40 06.01.2021
4052 Snow 1 1013 95 7000 2.6 320 11:21 06.01.2021
4053 Snow 1 1013 95 8000 3.1 340 10:31 06.01.2021
4054 Clouds 1 1013 96 9000 3.1 340 09:52 06.01.2021
4055 Drizzle 2 1013 95 9000 2.6 350 09:22 06.01.2021
4056 Drizzle 2 1013 95 9000 3.1 350 08:42 06.01.2021
4057 Clouds 2 1013 95 10000 2.6 350 08:18 06.01.2021
4058 Clouds 2 1013 95 10000 2.6 350 07:49 06.01.2021
4059 Clouds 2 1014 93 10000 2.1 360 05:59 06.01.2021
4060 Clouds 2 1014 93 10000 2.1 10 04:43 06.01.2021
4061 Clouds 2 1015 93 10000 2.6 360 02:59 06.01.2021
4062 Clouds 2 1015 93 10000 2.6 360 02:40 06.01.2021
4063 Clouds 3 1015 93 10000 2.1 10 02:19 06.01.2021
4064 Clouds 3 1016 86 10000 2.1 40 23:48 05.01.2021
4065 Clouds 3 1016 86 10000 2.1 50 22:57 05.01.2021
4066 Clouds 3 1016 86 10000 3.1 60 22:38 05.01.2021
4067 Clouds 3 1016 93 10000 2.6 60 22:19 05.01.2021
4068 Clouds 3 1016 93 7000 2.6 60 21:26 05.01.2021
4069 Clouds 3 1016 93 7000 2.6 60 20:31 05.01.2021
4070 Clouds 3 1016 93 10000 2.1 70 19:57 05.01.2021
4071 Clouds 3 1016 93 10000 2.6 70 19:38 05.01.2021
4072 Clouds 3 1016 86 10000 2.1 50 19:20 05.01.2021
4073 Clouds 2 1016 93 10000 1 0 18:42 05.01.2021
4074 Rain 2 1016 93 10000 1.5 50 18:19 05.01.2021
4075 Clouds 2 1016 93 10000 2.1 0 17:42 05.01.2021
4076 Clouds 2 1016 93 10000 1.5 50 17:21 05.01.2021
4077 Clouds 2 1016 93 10000 1.5 60 16:45 05.01.2021
4078 Clouds 2 1016 93 10000 1.5 60 16:21 05.01.2021
4079 Clouds 2 1016 96 10000 2.1 60 15:49 05.01.2021
4080 Clouds 2 1016 96 10000 2.1 60 14:50 05.01.2021
4081 Clouds 2 1016 95 10000 2.1 60 14:25 05.01.2021
4082 Clouds 2 1017 95 8000 2.6 70 13:46 05.01.2021
4083 Clouds 1 1017 95 8000 2.6 60 13:23 05.01.2021
4084 Snow 1 1017 95 6000 2.1 60 12:48 05.01.2021
4085 Snow 1 1017 95 6000 2.1 60 12:24 05.01.2021
4086 Snow 1 1017 95 8000 3.1 70 11:39 05.01.2021
4087 Snow 1 1017 95 8000 3.1 70 11:39 05.01.2021
4088 -273 0 0 0 0 0 11:39 05.01.2021
4089 Snow 1 1017 95 8000 3.1 70 11:39 05.01.2021
4090 -273 0 0 0 0 0 11:38 05.01.2021
4091 -273 0 0 0 0 0 11:38 05.01.2021
4092 -273 0 0 0 0 0 11:38 05.01.2021
4093 Snow 1 1017 95 8000 3.1 70 10:46 05.01.2021
4094 Clouds 1 1017 96 8000 3.1 70 10:26 05.01.2021
4095 Clouds 1 1017 96 8000 3.1 70 09:49 05.01.2021
4096 Rain 1 1017 96 8000 3.1 70 09:28 05.01.2021
4097 Rain 1 1017 96 4700 2.6 60 08:27 05.01.2021
4098 Rain 1 1017 97 4000 2.1 80 06:47 05.01.2021
4099 Clouds 1 1017 86 7000 2.6 70 04:50 05.01.2021
4100 Clouds 1 1017 96 10000 2.1 60 00:51 05.01.2021
4101 Clouds 1 1017 96 5000 3.1 80 23:46 04.01.2021
4102 Clouds 1 1017 96 4300 3.1 80 23:26 04.01.2021
4103 Clouds 1 1017 96 4300 3.1 80 22:54 04.01.2021
4104 Clouds 1 1017 96 5000 2.6 90 22:34 04.01.2021
4105 Clouds 1 1017 96 3700 2.6 80 21:52 04.01.2021
4106 Clouds 1 1017 96 4700 2.6 80 21:34 04.01.2021
4107 Clouds 1 1017 86 6000 2.6 80 20:48 04.01.2021
4108 Clouds 1 1017 86 6000 2.6 80 20:29 04.01.2021
4109 Snow 1 1017 86 10000 2.1 70 19:52 04.01.2021
4110 Snow 1 1017 86 10000 2.1 70 19:28 04.01.2021
4111 Snow 1 1016 86 10000 2.1 70 18:55 04.01.2021
4112 Snow 1 1016 86 10000 1.5 60 18:25 04.01.2021
4113 Snow 1 1016 86 10000 1.5 60 17:44 04.01.2021
4114 Rain 1 1016 86 10000 1.5 60 17:25 04.01.2021
4115 Snow 1 1016 86 9000 2.1 70 16:48 04.01.2021
4116 Snow 1 1016 86 9000 2.1 70 16:27 04.01.2021
4117 Snow 1 1016 86 9000 2.1 70 15:50 04.01.2021
4118 Rain 1 1016 96 9000 2.1 70 15:31 04.01.2021
4119 Snow 1 1016 96 9000 1.5 60 14:48 04.01.2021
4120 Snow 1 1017 96 10000 1.5 60 13:51 04.01.2021
4121 Snow 1 1017 86 10000 2.1 60 13:26 04.01.2021
4122 Snow 1 1017 86 10000 2.6 60 12:49 04.01.2021
4123 Snow 1 1017 96 10000 2.6 70 11:59 04.01.2021
4124 Snow 1 1017 96 10000 2.6 70 11:31 04.01.2021
4125 Snow 1 1017 86 10000 2.1 60 10:55 04.01.2021
4126 Rain 1 1017 86 9000 2.1 60 10:37 04.01.2021
4127 Snow 1 1017 86 9000 2.1 60 10:18 04.01.2021
4128 Snow 1 1017 86 10000 2.1 70 09:23 04.01.2021
4129 Snow 1 1016 86 10000 2.6 70 08:48 04.01.2021
4130 Snow 1 1016 86 10000 2.6 70 08:21 04.01.2021
4131 Rain 1 1016 96 10000 2.6 60 07:45 04.01.2021
4132 Clouds 1 1016 96 7000 2.6 70 05:35 04.01.2021
4133 Clouds 1 1016 86 7000 2.1 60 04:50 04.01.2021
4134 Clouds 1 1016 86 10000 3.1 70 01:30 04.01.2021
4135 Snow 1 1016 86 10000 2.6 70 23:55 03.01.2021
4136 Snow 1 1016 86 10000 3.1 70 23:34 03.01.2021
4137 Snow 1 1016 86 4400 2.6 70 22:57 03.01.2021
4138 Snow 1 1016 86 9000 3.6 70 22:39 03.01.2021
4139 Snow 1 1016 86 9000 3.6 70 22:20 03.01.2021
4140 Clouds 1 1015 86 8000 3.1 70 21:37 03.01.2021
4141 Clouds 1 1015 86 10000 3.1 70 20:56 03.01.2021
4142 Clouds 1 1015 86 10000 3.1 60 20:38 03.01.2021
4143 Rain 1 1015 86 10000 2.6 60 20:18 03.01.2021
4144 Clouds 1 1014 86 10000 2.6 50 19:44 03.01.2021
4145 Rain 1 1014 86 10000 2.6 50 19:24 03.01.2021
4146 Clouds 1 1014 96 3200 2.6 60 18:45 03.01.2021
4147 Rain 1 1014 96 3200 2.6 60 18:23 03.01.2021
4148 Snow 1 1014 86 6000 3.1 60 17:51 03.01.2021
4149 Snow 1 1014 86 6000 3.1 60 17:27 03.01.2021
4150 Snow 1 1014 86 3900 2.6 50 16:55 03.01.2021
4151 Snow 1 1014 86 3800 2.6 50 16:36 03.01.2021
4152 Snow 1 1014 86 4100 2.1 60 16:18 03.01.2021
4153 Snow 1 1014 96 5000 2.6 50 15:40 03.01.2021
4154 Snow 2 1014 95 6000 2.6 40 14:59 03.01.2021
4155 Snow 1 1014 86 5000 2.6 0 14:40 03.01.2021
4156 Snow 2 1014 95 7000 3.1 40 13:54 03.01.2021
4157 Snow 2 1014 95 7000 2.6 50 13:26 03.01.2021
4158 Snow 2 1014 95 10000 3.1 0 12:58 03.01.2021
4159 Rain 2 1015 94 7000 3.1 50 11:46 03.01.2021
4160 Rain 2 1015 94 7000 3.1 50 11:27 03.01.2021
4161 Rain 2 1015 94 7000 3.1 60 10:57 03.01.2021
4162 Rain 2 1015 94 8000 3.6 60 10:32 03.01.2021
4163 Rain 2 1014 80 10000 3.1 50 09:49 03.01.2021
4164 Rain 2 1015 80 10000 2.6 50 09:25 03.01.2021
4165 Clouds 2 1014 80 10000 2.6 40 08:31 03.01.2021
4166 Clouds 3 1015 80 10000 3.1 70 06:57 03.01.2021
4167 Clouds 3 1015 69 10000 2.6 80 03:30 03.01.2021
4168 Clouds 3 1015 64 10000 2.1 70 02:26 03.01.2021
4169 Clouds 3 1015 64 10000 1.5 30 00:33 03.01.2021
4170 Clouds 3 1015 64 10000 1.5 50 23:53 02.01.2021
4171 Clouds 3 1016 64 10000 1.5 60 23:20 02.01.2021
4172 Clouds 3 1015 64 10000 1.5 70 22:48 02.01.2021
4173 Clouds 3 1015 69 10000 2.6 110 22:29 02.01.2021
4174 Clouds 3 1015 80 10000 2.1 90 21:49 02.01.2021
4175 Clouds 3 1015 80 10000 2.1 90 21:29 02.01.2021
4176 Clouds 3 1014 74 10000 1.5 60 20:46 02.01.2021
4177 Clouds 3 1014 74 10000 1.5 60 20:26 02.01.2021
4178 Clouds 3 1014 86 10000 0.5 0 19:48 02.01.2021
4179 Clouds 3 1014 84 10000 0.5 0 19:20 02.01.2021
4180 Clouds 3 1014 84 10000 1.31 38 18:52 02.01.2021
4181 Clouds 3 1014 83 10000 1 20 18:33 02.01.2021
4182 Clouds 4 1014 83 10000 1.4 103 17:49 02.01.2021
4183 Clouds 4 1014 81 10000 1.03 100 17:30 02.01.2021
4184 Clouds 4 1014 81 10000 1 120 16:48 02.01.2021
4185 Clouds 4 1014 81 10000 1 120 16:22 02.01.2021
4186 Clouds 4 1014 81 10000 0.76 105 15:50 02.01.2021
4187 Clouds 5 1013 77 10000 0.12 148 15:28 02.01.2021
4188 Clouds 5 1013 77 10000 1.5 250 14:53 02.01.2021
4189 Clouds 5 1013 77 10000 1.5 270 14:33 02.01.2021
4190 Clouds 5 1013 72 10000 2.1 240 13:44 02.01.2021
4191 Clouds 4 1014 79 10000 0.89 0 12:59 02.01.2021
4192 Clear 4 1014 74 10000 1.5 200 12:41 02.01.2021
4193 Clear 4 1014 76 10000 1.5 200 12:22 02.01.2021
4194 Clouds 3 1014 76 10000 0.5 0 11:42 02.01.2021
4195 Clouds 3 1013 79 10000 1.5 150 11:20 02.01.2021
4196 Clouds 3 1013 86 10000 1.5 140 10:42 02.01.2021
4197 Clouds 2 1013 86 10000 1.5 140 10:24 02.01.2021
4198 Clouds 2 1013 86 10000 1.5 190 09:43 02.01.2021
4199 Clouds 2 1013 86 10000 1.5 190 09:21 02.01.2021
4200 Clouds 1 1013 86 10000 0.5 0 08:49 02.01.2021
4201 Clouds 2 1012 80 10000 2.1 220 08:19 02.01.2021
4202 Clouds 2 1012 88 10000 2.6 230 07:25 02.01.2021
4203 Clouds 2 1012 88 10000 2.6 230 06:58 02.01.2021
4204 Clouds 2 1012 98 10000 2.6 230 06:24 02.01.2021
4205 Clouds 2 1011 80 10000 2.1 230 04:27 02.01.2021
4206 Clouds 3 1011 89 10000 3.1 230 00:54 02.01.2021
4207 Clouds 3 1010 92 10000 3.1 230 00:35 02.01.2021
4208 Clouds 3 1010 91 10000 3.1 220 23:49 01.01.2021
4209 Clouds 3 1010 92 10000 2.6 240 23:20 01.01.2021
4210 Clouds 3 1010 74 10000 3.1 250 22:47 01.01.2021
4211 Clouds 3 1010 74 10000 3.1 250 22:22 01.01.2021
4212 Clouds 3 1009 74 10000 3.6 240 21:44 01.01.2021
4213 Clouds 3 1009 74 10000 3.6 240 21:22 01.01.2021
4214 Clouds 3 1009 74 10000 3.1 240 20:52 01.01.2021
4215 Clouds 3 1009 74 10000 3.6 220 20:22 01.01.2021
4216 Clouds 3 1008 74 10000 3.1 230 19:43 01.01.2021
4217 Clouds 3 1008 74 10000 3.1 230 19:24 01.01.2021
4218 Clouds 3 1008 74 10000 3.1 220 18:57 01.01.2021
4219 Clouds 3 1008 74 10000 3.1 210 18:39 01.01.2021
4220 Clouds 3 1008 69 10000 2.6 230 18:19 01.01.2021
4221 Clouds 4 1008 69 10000 3.1 240 17:42 01.01.2021
4222 Clouds 4 1008 88 10000 3.6 250 17:18 01.01.2021
4223 Clouds 4 1008 88 10000 3.6 250 16:40 01.01.2021
4224 Clouds 4 1007 83 10000 3.1 260 15:57 01.01.2021
4225 Clouds 4 1007 83 10000 3.6 270 15:39 01.01.2021
4226 Clouds 5 1007 65 10000 4.1 250 14:42 01.01.2021
4227 Clouds 5 1007 65 10000 4.1 250 14:19 01.01.2021
4228 Clouds 5 1007 76 10000 2.6 250 13:37 01.01.2021
4229 Clouds 4 1007 75 10000 2.1 280 12:51 01.01.2021
4230 Clouds 3 1007 77 10000 2.6 210 12:26 01.01.2021
4231 Clouds 3 1007 77 10000 1.5 240 11:40 01.01.2021
4232 Clouds 2 1007 88 10000 0.45 0 11:18 01.01.2021
4233 Clouds 2 1007 81 10000 1 210 10:56 01.01.2021
4234 Clouds 1 1006 86 10000 2.34 233 10:26 01.01.2021
4235 Clouds 1 1006 87 8000 2.17 231 09:30 01.01.2021
4236 Clouds 0 1006 87 7000 1.5 260 08:30 01.01.2021
4237 Clouds 1 1005 89 10000 1.83 250 07:22 01.01.2021
4238 Clouds 0 1005 88 5000 2.49 232 04:51 01.01.2021
4239 Clouds 1 1004 95 10000 2.46 235 01:58 01.01.2021
4240 Clouds 1 1004 96 10000 1.5 210 00:35 01.01.2021
4241 Clouds 1 1004 86 10000 2.1 190 23:43 31.12.2020
4242 Clouds 1 1004 80 10000 1.5 170 23:21 31.12.2020
4243 Clouds 1 1004 80 10000 1.5 170 22:55 31.12.2020
4244 Clouds 2 1004 80 10000 2.1 160 22:37 31.12.2020
4245 Clouds 2 1004 80 10000 2.1 160 22:19 31.12.2020
4246 Clouds 2 1003 80 10000 1.5 150 21:44 31.12.2020
4247 Clouds 2 1003 80 10000 1.5 150 21:21 31.12.2020
4248 Clouds 2 1003 80 10000 1.5 140 20:31 31.12.2020
4249 Clouds 2 1003 80 10000 2.1 140 19:59 31.12.2020
4250 Clouds 2 1003 80 10000 2.1 150 19:38 31.12.2020
4251 Clouds 2 1003 80 10000 2.1 150 19:20 31.12.2020
4252 Clouds 2 1003 74 10000 2.6 150 18:42 31.12.2020
4253 Clouds 2 1003 74 10000 2.6 150 18:23 31.12.2020
4254 Clouds 3 1003 74 10000 2.1 140 17:42 31.12.2020
4255 Clouds 3 1003 74 10000 2.1 140 17:21 31.12.2020
4256 Rain 3 1003 74 10000 2.1 140 16:40 31.12.2020
4257 Clouds 3 1003 69 10000 2.1 140 16:21 31.12.2020
4258 Clouds 4 1003 64 10000 2.6 160 15:45 31.12.2020
4259 Clouds 4 1003 64 10000 2.6 160 15:22 31.12.2020
4260 Rain 4 1003 69 10000 3.1 190 14:56 31.12.2020
4261 Rain 4 1003 69 10000 3.1 200 14:38 31.12.2020
4262 Rain 4 1003 69 10000 3.1 200 14:20 31.12.2020
4263 Rain 4 1003 69 10000 4.1 210 13:39 31.12.2020
4264 Rain 4 1003 69 10000 4.1 210 13:39 31.12.2020
4265 Rain 4 1003 69 10000 4.1 210 13:21 31.12.2020
4266 Rain 4 1003 69 10000 3.6 210 12:54 31.12.2020
4267 Rain 4 1004 69 10000 2.6 180 12:35 31.12.2020
4268 Rain 3 1004 74 10000 2.6 170 11:52 31.12.2020
4269 Clouds 3 1004 78 10000 0.89 0 11:32 31.12.2020
4270 Clouds 3 1004 74 10000 2.6 170 10:50 31.12.2020
4271 Clouds 3 1004 80 10000 2.6 150 10:30 31.12.2020
4272 Clouds 2 1004 74 10000 2.6 170 09:58 31.12.2020
4273 Clouds 2 1004 74 10000 3.1 190 09:39 31.12.2020
4274 Clouds 2 1004 80 10000 3.6 200 09:21 31.12.2020
4275 Clouds 1 1004 80 10000 3.1 210 08:46 31.12.2020
4276 Clouds 1 1004 80 10000 3.1 210 08:27 31.12.2020
4277 Clouds 2 1004 80 10000 4.1 210 07:52 31.12.2020
4278 Clouds 2 1003 74 10000 3.1 190 06:50 31.12.2020
4279 Clouds 1 1003 80 10000 2.1 190 05:30 31.12.2020
4280 Clouds 1 1003 80 10000 2.1 190 05:30 31.12.2020
4281 Clouds 2 1004 90 10000 2.6 220 03:24 31.12.2020
4282 Clouds 3 1003 86 10000 3.1 230 02:26 31.12.2020
4283 Clouds 3 1003 86 10000 4.1 230 01:53 31.12.2020
4284 Clouds 3 1003 86 10000 3.6 220 01:33 31.12.2020
4285 Clouds 3 1003 86 10000 4.1 230 00:56 31.12.2020
4286 Clouds 3 1003 86 8000 4.1 230 00:26 31.12.2020
4287 Clouds 3 1003 80 10000 3.1 220 23:36 30.12.2020
4288 Clouds 3 1003 80 10000 4.1 230 23:18 30.12.2020
4289 Clouds 4 1003 80 10000 3.6 230 22:35 30.12.2020
4290 Clouds 4 1003 93 10000 3.6 240 21:54 30.12.2020
4291 Clouds 4 1003 93 10000 3.1 220 21:27 30.12.2020
4292 Clouds 4 1002 93 10000 3.6 230 20:53 30.12.2020
4293 Clouds 4 1002 88 10000 4.6 230 20:29 30.12.2020
4294 Clouds 4 1002 88 10000 4.1 220 19:58 30.12.2020
4295 Clouds 4 1002 88 10000 4.1 230 19:37 30.12.2020
4296 Clouds 4 1001 65 10000 4.6 220 19:18 30.12.2020
4297 Clouds 4 1001 65 10000 3.6 210 18:40 30.12.2020
4298 Clouds 4 1001 65 10000 3.6 210 18:21 30.12.2020
4299 Clouds 4 1001 88 10000 3.6 220 17:48 30.12.2020
4300 Clouds 4 1001 87 10000 3.6 220 17:29 30.12.2020
4301 Clouds 4 1000 87 10000 3.6 230 16:45 30.12.2020
4302 Clouds 4 1000 83 10000 5.1 240 16:20 30.12.2020
4303 Clouds 4 1000 83 10000 4.6 230 15:42 30.12.2020
4304 Clouds 5 1000 76 10000 4.6 230 15:24 30.12.2020
4305 Clouds 4 1000 69 10000 4.6 220 14:43 30.12.2020
4306 Clouds 5 1000 71 10000 3.6 210 14:22 30.12.2020
4307 Clouds 4 1000 70 10000 4.6 240 13:20 30.12.2020
4308 Clear 4 1000 75 10000 4.1 250 12:27 30.12.2020
4309 Clear 4 1000 75 10000 2.6 210 11:49 30.12.2020
4310 Clear 3 1000 82 10000 2.6 210 11:24 30.12.2020
4311 Clear 3 1000 82 10000 2.6 200 10:59 30.12.2020
4312 Clear 3 999 80 10000 2.6 210 10:39 30.12.2020
4313 Clear 2 999 80 10000 2.6 210 10:20 30.12.2020
4314 Clouds 2 999 80 10000 3.1 210 09:48 30.12.2020
4315 Clear 1 999 93 10000 1.5 190 09:23 30.12.2020
4316 Clear 1 998 80 10000 2.1 200 08:27 30.12.2020
4317 Clouds 1 997 74 10000 4.6 210 07:29 30.12.2020
4318 Clouds 1 997 74 10000 4.6 220 06:51 30.12.2020
4319 Clouds 1 997 74 10000 4.6 220 06:29 30.12.2020
4320 Clouds 2 997 80 10000 5.1 220 05:42 30.12.2020
4321 Clouds 2 997 80 10000 5.1 220 05:24 30.12.2020
4322 Clouds 3 996 74 10000 4.6 230 03:28 30.12.2020
4323 Clouds 2 996 74 10000 3.6 220 02:40 30.12.2020
4324 Clouds 2 995 74 10000 4.1 230 01:56 30.12.2020
4325 Clouds 2 996 74 10000 3.6 210 01:32 30.12.2020
4326 Clouds 3 995 74 10000 4.6 210 00:50 30.12.2020
4327 Clouds 3 995 74 10000 4.6 210 00:30 30.12.2020
4328 Clouds 3 995 74 10000 5.1 220 23:54 29.12.2020
4329 Clouds 3 995 69 10000 5.1 210 23:36 29.12.2020
4330 Clouds 3 994 69 10000 5.1 220 22:58 29.12.2020
4331 Clouds 3 994 69 10000 3.1 210 22:40 29.12.2020
4332 Clouds 3 994 69 10000 4.6 230 22:20 29.12.2020
4333 Clouds 3 993 69 10000 5.1 220 21:46 29.12.2020
4334 Clouds 4 993 69 10000 5.1 220 21:25 29.12.2020
4335 Clouds 4 993 87 10000 3.6 210 20:46 29.12.2020
4336 Clouds 4 993 85 10000 3.6 210 20:26 29.12.2020
4337 Clouds 4 993 85 10000 3.6 210 20:26 29.12.2020
4338 Clouds 4 992 85 10000 3.1 220 19:56 29.12.2020
4339 Clouds 4 992 80 10000 4.1 240 19:36 29.12.2020
4340 Clouds 4 992 80 10000 4.1 240 19:18 29.12.2020
4341 Clouds 4 991 81 10000 5.7 230 18:39 29.12.2020
4342 Clouds 4 990 91 10000 5.7 220 18:18 29.12.2020
4343 Clouds 4 990 91 10000 4.1 210 17:38 29.12.2020
4344 Clouds 4 989 94 10000 3.1 200 17:19 29.12.2020
4345 Clear 4 989 94 10000 3.6 220 16:36 29.12.2020
4346 Clear 4 989 95 10000 3.1 220 15:56 29.12.2020
4347 Clear 4 988 95 10000 5.1 230 15:36 29.12.2020
4348 Clear 4 988 80 10000 4.1 230 14:58 29.12.2020
4349 Clear 4 987 80 10000 5.1 230 14:36 29.12.2020
4350 Clear 4 987 80 10000 4.1 220 14:18 29.12.2020
4351 Clouds 3 988 86 10000 4.02 0 13:39 29.12.2020
4352 Clear 3 986 86 10000 2.6 230 13:18 29.12.2020
4353 Clear 3 986 77 10000 1.5 190 12:37 29.12.2020
4354 Clear 2 986 79 10000 1.5 190 12:19 29.12.2020
4355 Clear 2 985 79 10000 1.5 200 11:52 29.12.2020
4356 Clouds 1 985 86 10000 1.5 220 11:31 29.12.2020
4357 Clouds 1 984 86 10000 2.6 180 10:27 29.12.2020
4358 Clouds 1 984 86 10000 2.1 170 09:48 29.12.2020
4359 Clear 0 983 94 10000 1.5 170 09:20 29.12.2020
4360 Clear 0 983 94 10000 1.5 170 09:20 29.12.2020
4361 Clouds 0 983 94 10000 0.5 0 08:53 29.12.2020
4362 Clear 0 983 95 10000 1 0 08:23 29.12.2020
4363 Clouds 0 982 95 10000 2.51 212 07:26 29.12.2020
4364 Clouds 0 982 94 10000 1.5 100 06:27 29.12.2020
4365 Clouds 1 981 90 10000 2.1 170 04:49 29.12.2020
4366 Clouds 2 981 93 10000 2.1 130 00:49 29.12.2020
4367 Rain 2 980 93 7000 2.6 120 00:21 29.12.2020
4368 Rain 2 980 93 8000 3.6 100 23:36 28.12.2020
4369 Clouds 2 980 93 10000 3.6 120 22:28 28.12.2020
4370 Clouds 2 980 93 10000 3.6 120 22:28 28.12.2020
4371 Rain 3 981 93 8000 2.6 100 21:46 28.12.2020
4372 Rain 3 981 93 8000 2.6 100 21:27 28.12.2020
4373 Rain 3 981 86 10000 4.6 100 20:43 28.12.2020
4374 Rain 3 981 86 10000 4.6 100 20:24 28.12.2020
4375 Rain 3 981 86 10000 4.6 100 19:50 28.12.2020
4376 Rain 4 981 80 10000 4.1 100 19:26 28.12.2020
4377 Rain 4 981 80 10000 3.6 90 18:59 28.12.2020
4378 Rain 4 981 80 10000 4.1 100 18:30 28.12.2020
4379 Clear 4 981 86 10000 3.6 90 17:51 28.12.2020
4380 Clear 4 981 82 10000 2.6 100 17:33 28.12.2020
4381 Clouds 4 981 80 10000 2.1 90 16:59 28.12.2020
4382 Clouds 4 981 80 10000 2.1 90 16:31 28.12.2020
4383 Clouds 5 981 81 10000 2.1 120 15:54 28.12.2020
4384 Clouds 5 981 81 10000 2.1 120 15:36 28.12.2020
4385 Clouds 6 981 75 10000 2.1 130 14:34 28.12.2020
4386 Clouds 6 981 72 10000 3.6 170 13:49 28.12.2020
4387 Clouds 6 981 71 10000 3.6 170 13:22 28.12.2020
4388 Clouds 5 981 78 10000 3.6 130 12:29 28.12.2020
4389 Clouds 4 981 78 10000 3.1 160 11:58 28.12.2020
4390 Clouds 4 981 78 10000 2.6 120 11:39 28.12.2020
4391 Clear 3 980 81 10000 3.6 150 11:18 28.12.2020
4392 Clear 3 980 81 10000 2.1 150 10:38 28.12.2020
4393 Clouds 3 980 84 10000 2.6 140 10:19 28.12.2020
4394 Clouds 3 980 74 10000 2.6 80 09:38 28.12.2020
4395 Clouds 3 980 80 10000 2.1 60 09:18 28.12.2020
4396 Clouds 4 979 87 10000 3.6 130 06:55 28.12.2020
4397 Clouds 5 980 75 10000 4.6 130 05:34 28.12.2020
4398 Clouds 5 980 75 10000 4.1 160 03:53 28.12.2020
4399 Rain 4 981 80 10000 4.6 180 01:56 28.12.2020
4400 Clouds 4 981 69 10000 7.2 160 00:28 28.12.2020
4401 Clouds 4 981 69 10000 5.7 170 23:37 27.12.2020
4402 Clouds 4 981 69 10000 5.7 170 23:18 27.12.2020
4403 Clouds 4 981 74 10000 6.7 150 21:56 27.12.2020
4404 Rain 4 982 75 10000 6.7 150 21:25 27.12.2020
4405 Rain 4 982 74 10000 7.7 150 20:40 27.12.2020
4406 Rain 4 983 64 10000 7.7 150 19:25 27.12.2020
4407 Clouds 4 983 64 10000 7.7 150 18:55 27.12.2020
4408 Clear 4 984 64 10000 7.7 160 18:37 27.12.2020
4409 Clouds 4 985 64 10000 6.7 160 18:18 27.12.2020
4410 Clouds 4 985 64 10000 6.2 150 17:43 27.12.2020
4411 Clouds 4 985 64 10000 6.2 150 17:21 27.12.2020
4412 Clear 4 986 64 10000 5.7 160 16:32 27.12.2020
4413 Clear 4 987 69 10000 6.7 160 15:50 27.12.2020
4414 Clear 5 988 65 10000 7.2 180 14:58 27.12.2020
4415 Rain 5 989 65 10000 7.7 190 14:38 27.12.2020
4416 Clear 5 990 60 10000 8.2 180 14:18 27.12.2020
4417 Clouds 5 990 60 10000 7.7 180 13:22 27.12.2020
4418 Clouds 5 992 60 10000 6.7 190 12:43 27.12.2020
4419 Clouds 4 993 64 10000 5.7 180 11:56 27.12.2020
4420 Clouds 5 994 64 10000 6.7 190 11:36 27.12.2020
4421 Clear 4 994 64 10000 7.2 190 10:52 27.12.2020
4422 Clear 4 994 64 10000 7.2 190 10:24 27.12.2020
4423 Clouds 4 996 64 10000 6.2 190 09:47 27.12.2020
4424 Clouds 4 997 60 10000 6.2 190 08:50 27.12.2020
4425 Clouds 3 997 64 10000 6.7 190 08:25 27.12.2020
4426 Clouds 3 999 64 10000 4.6 200 07:26 27.12.2020
4427 Clouds 3 1002 64 10000 4.1 180 05:45 27.12.2020
4428 Clouds 3 1004 69 10000 4.6 190 04:25 27.12.2020
4429 Clouds 3 1005 69 10000 4.6 190 03:20 27.12.2020
4430 Clouds 3 1008 69 10000 6.7 210 01:34 27.12.2020
4431 Clouds 3 1009 69 10000 7.2 200 00:24 27.12.2020
4432 Clouds 3 1010 69 10000 6.7 210 23:40 26.12.2020
4433 Clouds 4 1011 64 10000 8.2 210 23:19 26.12.2020
4434 Clouds 4 1011 64 10000 7.2 220 22:36 26.12.2020
4435 Clouds 4 1011 64 10000 7.2 220 22:18 26.12.2020
4436 Clouds 3 1012 64 10000 7.7 220 21:48 26.12.2020
4437 Clouds 4 1013 64 10000 7.7 220 21:24 26.12.2020
4438 Clouds 3 1014 64 10000 7.2 220 20:43 26.12.2020
4439 Clouds 4 1014 64 10000 7.2 220 20:19 26.12.2020
4440 Clouds 3 1014 69 10000 5.1 210 19:29 26.12.2020
4441 Clouds 4 1015 69 10000 5.7 210 18:54 26.12.2020
4442 Clouds 3 1016 74 10000 4.6 220 18:32 26.12.2020
4443 Clouds 4 1017 69 10000 5.1 220 17:46 26.12.2020
4444 Clouds 4 1017 69 10000 5.1 220 17:27 26.12.2020
4445 Clouds 3 1017 74 10000 4.6 230 16:38 26.12.2020
4446 Clouds 3 1018 74 10000 6.2 230 15:57 26.12.2020
4447 Clear 3 1018 74 10000 5.1 220 15:20 26.12.2020
4448 Clouds 4 1018 79 10000 5.7 230 14:30 26.12.2020
4449 Clouds 4 1019 78 10000 5.7 230 13:57 26.12.2020
4450 Clouds 3 1019 82 10000 3.58 0 13:36 26.12.2020
4451 Clouds 3 1020 83 10000 2.68 0 12:57 26.12.2020
4452 Clouds 3 1020 83 10000 2.68 0 12:39 26.12.2020
4453 Clouds 3 1021 94 10000 5.7 240 12:18 26.12.2020
4454 Clouds 3 1021 94 10000 4.6 230 11:42 26.12.2020
4455 Clouds 2 1021 83 10000 4.6 230 11:20 26.12.2020
4456 Clouds 2 1021 80 10000 3.6 240 10:46 26.12.2020
4457 Clouds 2 1021 80 10000 3.6 240 10:25 26.12.2020
4458 Clouds 1 1021 86 10000 3.6 240 09:47 26.12.2020
4459 Clouds 1 1021 86 10000 3.6 230 08:55 26.12.2020
4460 Clouds 1 1021 86 10000 3.6 230 08:20 26.12.2020
4461 Clouds 1 1021 86 10000 3.6 240 07:21 26.12.2020
4462 Clouds -1 1021 86 10000 2.6 230 05:38 26.12.2020
4463 Clouds -2 1022 92 10000 2.6 250 02:48 26.12.2020
4464 Clear -2 1022 86 6000 2.6 270 00:40 26.12.2020
4465 Clear -2 1022 86 10000 2.6 260 23:56 25.12.2020
4466 Clear -2 1022 92 10000 2.6 260 23:37 25.12.2020
4467 Clear -2 1022 86 10000 2.1 250 23:19 25.12.2020
4468 Clear -2 1022 86 10000 2.6 260 22:28 25.12.2020
4469 Clear -1 1022 86 10000 2.6 270 21:46 25.12.2020
4470 Clear -1 1022 86 10000 2.6 270 21:28 25.12.2020
4471 Clear -1 1022 86 10000 2.1 290 20:47 25.12.2020
4472 Clear -1 1022 86 10000 2.1 290 20:28 25.12.2020
4473 Clear 0 1022 86 10000 2.1 280 19:44 25.12.2020
4474 Clouds 0 1022 86 10000 2.6 280 18:58 25.12.2020
4475 Clear 0 1022 86 10000 2.6 270 18:38 25.12.2020
4476 Clouds 1 1021 80 10000 2.1 300 17:40 25.12.2020
4477 Clouds 1 1021 80 10000 2.1 300 17:21 25.12.2020
4478 Clouds 1 1021 80 10000 2.1 280 16:33 25.12.2020
4479 Clouds 2 1021 80 10000 2.6 290 15:57 25.12.2020
4480 Clouds 2 1020 74 10000 3.6 290 15:35 25.12.2020
4481 Clouds 2 1020 80 10000 4.1 300 14:50 25.12.2020
4482 Clouds 3 1020 80 10000 4.1 300 14:29 25.12.2020
4483 Clouds 3 1021 80 10000 3.6 310 13:44 25.12.2020
4484 Clouds 3 1021 80 10000 3.6 310 13:26 25.12.2020
4485 Clouds 2 1021 74 10000 5.1 310 12:45 25.12.2020
4486 Clouds 2 1020 80 10000 5.7 290 11:58 25.12.2020
4487 Clouds 2 1020 80 10000 4.6 300 11:40 25.12.2020
4488 Clouds 2 1020 80 10000 4.6 300 11:19 25.12.2020
4489 Clouds 2 1020 80 10000 4.6 300 10:27 25.12.2020
4490 Clouds 2 1020 81 10000 3.13 298 09:43 25.12.2020
4491 Clouds 2 1018 80 10000 3.6 320 08:48 25.12.2020
4492 Clouds 2 1018 80 10000 3.6 320 08:27 25.12.2020
4493 Clouds 2 1017 82 10000 4.1 310 06:48 25.12.2020
4494 Clouds 3 1016 92 10000 3.1 320 04:44 25.12.2020
4495 Clouds 4 1014 80 10000 4.1 330 01:50 25.12.2020
4496 Clouds 4 1013 86 10000 2.6 330 00:19 25.12.2020
4497 Clouds 4 1013 86 10000 3.1 340 23:28 24.12.2020
4498 Clouds 4 1012 86 9000 3.1 320 22:53 24.12.2020
4499 Clouds 4 1012 93 10000 3.1 320 22:23 24.12.2020
4500 Clouds 4 1011 93 10000 3.1 310 21:42 24.12.2020
4501 Clouds 4 1011 93 10000 2.6 280 20:48 24.12.2020
4502 Clouds 4 1010 86 10000 3.6 280 19:20 24.12.2020
4503 Clouds 4 1010 86 10000 3.6 280 18:21 24.12.2020
4504 Clouds 4 1009 86 10000 4.1 280 17:38 24.12.2020
4505 Clouds 4 1009 93 10000 4.1 290 17:20 24.12.2020
4506 Clouds 4 1009 93 10000 3.6 290 16:25 24.12.2020
4507 Clouds 4 1008 86 10000 4.6 290 15:43 24.12.2020
4508 Clouds 4 1007 86 10000 4.1 300 15:21 24.12.2020
4509 Clouds 4 1007 86 10000 4.1 300 14:56 24.12.2020
4510 Clouds 4 1007 86 10000 4.1 310 14:24 24.12.2020
4511 Clouds 4 1007 93 10000 4.6 310 13:49 24.12.2020
4512 Clouds 4 1007 93 10000 4.6 310 13:30 24.12.2020
4513 Clouds 3 1007 86 10000 4.6 300 12:58 24.12.2020
4514 Rain 3 1006 86 10000 4.6 310 12:38 24.12.2020
4515 Clouds 3 1006 86 10000 5.7 310 12:18 24.12.2020
4516 Rain 3 1006 86 10000 5.7 300 11:38 24.12.2020
4517 Rain 3 1005 86 10000 6.7 300 11:19 24.12.2020
4518 Rain 3 1004 86 10000 7.2 290 10:43 24.12.2020
4519 Rain 4 1003 86 10000 7.7 290 09:58 24.12.2020
4520 Rain 5 1003 87 10000 7.7 280 09:40 24.12.2020
4521 Rain 7 1002 87 10000 7.2 250 08:50 24.12.2020
4522 Rain 8 1002 81 10000 6.7 240 07:54 24.12.2020
4523 Rain 8 1002 75 10000 7.2 240 07:35 24.12.2020
4524 Clouds 9 1002 70 10000 7.7 250 06:27 24.12.2020
4525 Clouds 9 1003 81 10000 6.2 240 03:50 24.12.2020
4526 Rain 10 1003 87 10000 3.6 230 01:51 24.12.2020
4527 Clouds 10 1004 93 10000 4.6 230 01:20 24.12.2020
4528 Clouds 10 1004 93 10000 3.6 240 00:43 24.12.2020
4529 Clouds 10 1004 93 10000 3.1 250 00:19 24.12.2020
4530 Clouds 10 1004 93 9000 5.7 240 23:40 23.12.2020
4531 Rain 11 1004 93 9000 5.7 240 23:21 23.12.2020
4532 Clouds 11 1004 93 10000 3.6 230 22:48 23.12.2020
4533 Clouds 11 1004 93 10000 3.6 230 22:26 23.12.2020
4534 Rain 11 1004 93 10000 2.1 200 21:46 23.12.2020
4535 Rain 10 1004 93 10000 2.1 200 21:22 23.12.2020
4536 Clouds 10 1005 93 6000 2.1 180 20:46 23.12.2020
4537 Clouds 10 1005 93 6000 2.1 180 20:28 23.12.2020
4538 Clouds 10 1005 93 10000 2.1 180 19:58 23.12.2020
4539 Clouds 10 1005 93 8000 2.1 170 19:37 23.12.2020
4540 Clouds 10 1006 93 9000 2.1 140 19:19 23.12.2020
4541 Rain 10 1006 100 8000 2.1 130 18:40 23.12.2020
4542 Rain 10 1007 100 7000 2.1 140 18:20 23.12.2020
4543 Rain 10 1007 100 6000 2.1 160 17:36 23.12.2020
4544 Rain 10 1008 100 7000 2.6 170 17:18 23.12.2020
4545 Rain 10 1008 93 10000 3.1 160 16:40 23.12.2020
4546 Rain 10 1008 93 10000 2.1 140 16:22 23.12.2020
4547 Rain 10 1008 93 10000 2.1 140 15:50 23.12.2020
4548 Rain 10 1008 93 10000 2.6 140 15:27 23.12.2020
4549 Drizzle 9 1009 100 7000 2.6 140 14:58 23.12.2020
4550 Drizzle 10 1009 100 3300 2.6 120 14:38 23.12.2020
4551 Drizzle 9 1009 100 3300 2.6 120 14:20 23.12.2020
4552 Mist 9 1011 93 5000 2.6 120 13:43 23.12.2020
4553 Clouds 9 1011 93 6000 2.1 130 13:19 23.12.2020
4554 Rain 9 1011 93 6000 2.1 130 12:49 23.12.2020
4555 Mist 9 1011 100 4900 2.6 110 12:24 23.12.2020
4556 Mist 9 1013 93 5000 2.1 120 11:46 23.12.2020
4557 Drizzle 8 1013 93 5000 1.5 130 11:19 23.12.2020
4558 Rain 8 1013 93 4000 1 110 10:48 23.12.2020
4559 Rain 8 1013 93 4000 1 110 10:30 23.12.2020
4560 Clouds 8 1013 100 6000 1.5 110 09:35 23.12.2020
4561 Clouds 8 1013 100 6000 2.1 80 08:49 23.12.2020
4562 Clouds 8 1013 100 6000 2.1 100 08:21 23.12.2020
4563 Clouds 8 1013 93 10000 1.5 150 07:27 23.12.2020
4564 Clouds 8 1013 100 10000 1 110 06:41 23.12.2020
4565 Clouds 8 1014 100 9000 1.81 139 05:41 23.12.2020
4566 Clouds 8 1014 100 9000 0.98 142 04:59 23.12.2020
4567 Clouds 8 1014 93 10000 0.65 263 01:31 23.12.2020
4568 Clouds 8 1015 93 9000 1.99 201 00:25 23.12.2020
4569 Clouds 8 1015 87 7000 1.5 320 23:38 22.12.2020
4570 Clouds 8 1015 87 7000 1.5 320 23:20 22.12.2020
4571 Clouds 8 1015 87 10000 2.1 300 22:42 22.12.2020
4572 Clouds 8 1015 87 10000 2.1 300 22:21 22.12.2020
4573 Clouds 9 1014 87 10000 3.1 290 21:45 22.12.2020
4574 Clouds 9 1014 87 10000 1 0 21:20 22.12.2020
4575 Clouds 9 1014 87 10000 1 0 20:50 22.12.2020
4576 Clouds 9 1014 87 10000 2.6 280 20:25 22.12.2020
4577 Clouds 9 1014 87 10000 2.6 270 19:50 22.12.2020
4578 Clouds 9 1014 87 10000 3.6 280 19:26 22.12.2020
4579 Clouds 10 1013 87 10000 3.1 290 18:57 22.12.2020
4580 Clouds 10 1013 87 10000 4.1 310 18:38 22.12.2020
4581 Clouds 10 1013 87 10000 6.2 310 18:19 22.12.2020
4582 Clouds 10 1012 87 10000 6.2 290 17:38 22.12.2020
4583 Clouds 11 1012 87 6000 5.1 300 17:18 22.12.2020
4584 Clouds 11 1011 87 8000 7.2 270 16:47 22.12.2020
4585 Clouds 11 1011 87 10000 8.7 280 16:21 22.12.2020
4586 Rain 12 1010 82 10000 6.7 290 15:46 22.12.2020
4587 Clouds 12 1010 82 10000 6.7 290 15:28 22.12.2020
4588 Clouds 12 1009 93 2700 9.8 280 14:57 22.12.2020
4589 Clouds 12 1009 93 2700 9.8 280 14:39 22.12.2020
4590 Clouds 13 1008 76 10000 9.3 260 14:19 22.12.2020
4591 Clouds 13 1008 76 10000 9.3 260 13:43 22.12.2020
4592 Clouds 13 1008 82 10000 8.2 250 13:18 22.12.2020
4593 Clouds 13 1008 87 10000 6.7 260 12:46 22.12.2020
4594 Clouds 13 1008 87 10000 6.7 260 12:28 22.12.2020
4595 Clouds 13 1008 87 10000 7.2 260 11:57 22.12.2020
4596 Clouds 13 1008 87 10000 6.7 270 11:39 22.12.2020
4597 Clouds 13 1007 93 10000 6.7 260 11:20 22.12.2020
4598 Clouds 13 1007 93 10000 6.7 260 10:51 22.12.2020
4599 Rain 12 1006 100 10000 4.1 240 10:24 22.12.2020
4600 Rain 12 1006 100 10000 4.1 240 09:56 22.12.2020
4601 Rain 12 1006 93 5000 6.7 250 09:23 22.12.2020
4602 Rain 11 1006 93 10000 5.7 240 08:53 22.12.2020
4603 Rain 11 1005 87 10000 6.7 230 08:32 22.12.2020
4604 Clouds 11 1005 87 10000 6.2 220 07:55 22.12.2020
4605 Clouds 11 1005 87 10000 6.2 220 07:55 22.12.2020
4606 Clouds 11 1005 93 10000 6.2 220 06:58 22.12.2020
4607 Clouds 11 1005 87 10000 6.2 220 05:48 22.12.2020
4608 Clouds 9 1008 87 10000 4.1 200 03:46 22.12.2020
4609 Rain 8 1009 81 10000 3.6 160 01:35 22.12.2020
4610 Clouds 8 1010 81 10000 4.1 160 23:56 21.12.2020
4611 Clouds 8 1011 75 10000 3.6 160 23:38 21.12.2020
4612 Clouds 8 1011 81 10000 3.1 150 23:18 21.12.2020
4613 Clouds 8 1012 81 10000 4.1 140 22:36 21.12.2020
4614 Clouds 7 1012 81 10000 4.1 140 22:18 21.12.2020
4615 Clouds 7 1013 81 10000 4.6 140 21:44 21.12.2020
4616 Clouds 7 1013 81 10000 4.6 140 21:26 21.12.2020
4617 Clouds 7 1014 81 10000 4.6 150 20:43 21.12.2020
4618 Rain 7 1014 81 10000 4.6 150 20:21 21.12.2020
4619 Rain 7 1015 81 10000 4.1 140 19:47 21.12.2020
4620 Rain 7 1015 81 10000 4.1 140 19:22 21.12.2020
4621 Rain 7 1016 81 10000 3.6 150 18:58 21.12.2020
4622 Rain 7 1016 81 10000 4.1 150 18:40 21.12.2020
4623 Rain 7 1016 75 10000 3.1 150 18:21 21.12.2020
4624 Rain 7 1017 75 10000 3.6 130 17:42 21.12.2020
4625 Clouds 7 1017 70 10000 3.1 160 17:23 21.12.2020
4626 Clouds 8 1017 70 10000 3.1 160 16:42 21.12.2020
4627 Clear 7 1018 75 10000 3.1 150 16:20 21.12.2020
4628 Clear 7 1018 75 10000 2.6 140 15:42 21.12.2020
4629 Clear 8 1018 70 10000 3.1 170 14:58 21.12.2020
4630 Clear 8 1019 70 10000 3.6 190 14:36 21.12.2020
4631 Clear 8 1019 66 10000 4.1 200 14:18 21.12.2020
4632 Clear 8 1019 70 10000 3.6 190 13:40 21.12.2020
4633 Clear 9 1019 70 10000 3.6 190 13:21 21.12.2020
4634 Clear 8 1020 70 10000 3.1 180 12:42 21.12.2020
4635 Clear 8 1020 70 10000 3.1 180 12:22 21.12.2020
4636 Clouds 8 1020 76 10000 2.24 0 11:43 21.12.2020
4637 Clear 8 1021 81 10000 3.1 200 11:22 21.12.2020
4638 Clear 8 1021 81 10000 3.1 200 11:22 21.12.2020
4639 Clear 6 1021 81 10000 2.6 200 10:58 21.12.2020
4640 Clear 6 1021 86 10000 2.1 170 10:39 21.12.2020
4641 Clear 5 1021 86 10000 2.1 170 09:56 21.12.2020
4642 Clear 5 1021 86 10000 3.6 200 09:38 21.12.2020
4643 Clear 4 1021 86 10000 3.6 200 09:20 21.12.2020
4644 Clear 4 1021 86 10000 2.6 190 08:29 21.12.2020
4645 Clouds 5 1021 86 10000 3.1 190 07:27 21.12.2020
4646 Clouds 5 1021 87 10000 4.1 220 05:40 21.12.2020
4647 Clouds 6 1021 87 10000 3.6 220 04:31 21.12.2020
4648 Clouds 6 1020 87 10000 2.1 200 00:37 21.12.2020
4649 Clouds 7 1020 87 10000 3.6 210 23:52 20.12.2020
4650 Clouds 7 1020 87 10000 3.6 220 23:21 20.12.2020
4651 Clouds 7 1020 87 10000 2.1 190 22:56 20.12.2020
4652 Clouds 7 1020 87 10000 2.6 200 22:37 20.12.2020
4653 Clouds 7 1020 87 10000 2.6 180 22:19 20.12.2020
4654 Rain 7 1020 87 10000 2.1 190 21:39 20.12.2020
4655 Clouds 7 1020 87 10000 3.1 210 21:20 20.12.2020
4656 Rain 7 1020 87 10000 1.5 210 20:47 20.12.2020
4657 Rain 7 1020 87 10000 1.5 210 20:22 20.12.2020
4658 Rain 7 1019 81 10000 0.5 0 19:45 20.12.2020
4659 Rain 7 1019 81 10000 0.5 0 19:24 20.12.2020
4660 Rain 7 1019 81 10000 0.5 0 18:56 20.12.2020
4661 Rain 7 1019 87 10000 2.1 200 18:38 20.12.2020
4662 Clouds 7 1019 87 10000 2.1 200 18:19 20.12.2020
4663 Rain 7 1019 87 10000 2.6 230 17:42 20.12.2020
4664 Rain 7 1019 87 10000 2.1 240 17:18 20.12.2020
4665 Rain 7 1018 81 10000 3.1 240 16:44 20.12.2020
4666 Clouds 8 1018 81 10000 1.5 210 16:24 20.12.2020
4667 Clouds 8 1018 81 10000 1.5 230 15:41 20.12.2020
4668 Clouds 8 1018 81 10000 1.5 230 15:23 20.12.2020
4669 Clouds 8 1018 87 10000 1.5 210 14:49 20.12.2020
4670 Clouds 8 1018 87 10000 1.5 210 14:30 20.12.2020
4671 Clouds 7 1018 93 10000 2.1 220 13:46 20.12.2020
4672 Clouds 7 1018 93 10000 2.1 220 13:24 20.12.2020
4673 Rain 7 1018 87 10000 0.5 250 12:57 20.12.2020
4674 Rain 7 1018 87 10000 2.1 190 12:38 20.12.2020
4675 Rain 7 1019 81 10000 2.1 200 12:18 20.12.2020
4676 Rain 7 1019 81 10000 2.1 200 11:42 20.12.2020
4677 Rain 7 1019 81 10000 1.5 170 10:59 20.12.2020
4678 Rain 7 1018 81 10000 1.5 150 10:41 20.12.2020
4679 Rain 7 1018 81 10000 1.5 150 10:20 20.12.2020
4680 Clouds 7 1018 81 10000 1.5 160 09:45 20.12.2020
4681 Clouds 7 1018 81 10000 1.5 160 09:27 20.12.2020
4682 Clouds 7 1018 81 10000 1.5 120 08:56 20.12.2020
4683 Clouds 7 1018 81 10000 3.1 190 08:37 20.12.2020
4684 Clouds 7 1018 75 10000 2.1 170 07:24 20.12.2020
4685 Clouds 7 1018 75 10000 2.6 180 05:44 20.12.2020
4686 Clouds 9 1018 61 10000 3.1 230 01:46 20.12.2020
4687 Clouds 9 1017 61 10000 4.6 210 00:38 20.12.2020
4688 Clouds 9 1017 61 10000 4.6 210 00:38 20.12.2020
4689 Clouds 8 1017 66 10000 2.1 260 23:21 19.12.2020
4690 Clouds 8 1017 66 10000 3.6 180 22:57 19.12.2020
4691 Clouds 7 1017 75 10000 1.5 0 22:38 19.12.2020
4692 Clouds 7 1017 75 10000 1.5 0 22:19 19.12.2020
4693 Clouds 7 1017 70 10000 0.5 0 21:42 19.12.2020
4694 Clouds 8 1017 70 10000 0.5 0 21:24 19.12.2020
4695 Clouds 8 1016 70 10000 3.1 130 20:45 19.12.2020
4696 Clear 8 1016 70 10000 3.1 130 20:22 19.12.2020
4697 Clear 8 1016 75 10000 3.6 120 19:55 19.12.2020
4698 Clear 8 1016 70 10000 3.1 120 19:36 19.12.2020
4699 Clear 8 1016 70 10000 3.1 120 19:18 19.12.2020
4700 Clear 8 1016 70 10000 3.1 130 18:31 19.12.2020
4701 Clear 9 1016 66 10000 3.1 150 17:50 19.12.2020
4702 Clear 10 1016 62 10000 4.1 170 17:30 19.12.2020
4703 Clear 10 1016 58 10000 5.7 200 16:57 19.12.2020
4704 Clear 11 1016 62 10000 5.7 200 16:38 19.12.2020
4705 Clear 11 1016 62 10000 5.7 200 16:19 19.12.2020
4706 Clear 10 1016 62 10000 5.1 200 15:47 19.12.2020
4707 Clear 11 1016 58 10000 5.7 220 15:20 19.12.2020
4708 Clear 11 1016 62 10000 3.1 170 14:37 19.12.2020
4709 Clear 12 1016 62 10000 3.1 170 13:55 19.12.2020
4710 Clear 12 1016 66 10000 3.6 180 13:36 19.12.2020
4711 Clear 11 1016 71 10000 2.6 170 13:18 19.12.2020
4712 Clear 10 1016 70 10000 2.6 160 12:42 19.12.2020
4713 Clear 10 1016 70 10000 2.6 160 12:24 19.12.2020
4714 Clear 9 1017 75 10000 2.1 190 11:53 19.12.2020
4715 Clear 7 1017 87 10000 1 0 11:32 19.12.2020
4716 Clear 4 1017 100 10000 2.1 140 10:42 19.12.2020
4717 Clear 3 1017 78 10000 1 0 10:20 19.12.2020
4718 Clear 2 1017 78 8000 2.1 150 09:42 19.12.2020
4719 Clear 1 1017 92 7000 3.1 110 08:59 19.12.2020
4720 Clear 2 1017 82 6000 1.5 100 08:24 19.12.2020
4721 Clear 2 1017 100 5000 2.1 110 07:23 19.12.2020
4722 Clear 2 1017 83 7000 1.5 100 06:51 19.12.2020
4723 Clear 1 1018 84 6000 2.62 154 06:18 19.12.2020
4724 Clear 1 1018 92 8000 2.6 100 05:18 19.12.2020
4725 Clear 2 1019 86 3400 1.5 90 02:55 19.12.2020
4726 Clear 1 1020 82 9000 1.5 110 00:36 19.12.2020
4727 Clear 2 1020 80 10000 2.1 110 00:18 19.12.2020
4728 Clear 2 1020 80 10000 2.1 110 23:45 18.12.2020
4729 Clear 2 1020 80 10000 2.1 110 23:23 18.12.2020
4730 Clear 2 1021 80 9000 1.5 110 22:45 18.12.2020
4731 Clear 3 1021 82 9000 1.5 110 22:21 18.12.2020
4732 Clear 3 1021 93 10000 1.5 100 21:50 18.12.2020
4733 Clear 3 1021 86 10000 1 110 21:31 18.12.2020
4734 Clear 4 1021 86 10000 1 100 20:41 18.12.2020
4735 Clear 4 1021 86 10000 1 100 20:21 18.12.2020
4736 Clear 5 1021 80 10000 3.1 130 19:44 18.12.2020
4737 Clear 5 1021 75 10000 2.6 170 19:20 18.12.2020
4738 Clear 5 1021 75 10000 3.1 170 18:42 18.12.2020
4739 Clear 6 1021 75 10000 3.1 170 18:24 18.12.2020
4740 Clear 6 1021 75 10000 2.6 170 17:24 18.12.2020
4741 Clear 7 1021 70 10000 3.1 180 16:55 18.12.2020
4742 Clear 8 1022 66 10000 2.6 200 16:37 18.12.2020
4743 Clear 8 1022 66 10000 4.1 220 16:18 18.12.2020
4744 Clear 8 1022 66 10000 4.6 210 15:41 18.12.2020
4745 Clouds 9 1022 70 10000 3.6 230 15:23 18.12.2020
4746 Clouds 9 1023 70 10000 4.1 230 14:55 18.12.2020
4747 Clear 9 1023 70 10000 6.2 230 14:22 18.12.2020
4748 Clear 9 1023 70 10000 6.2 230 13:51 18.12.2020
4749 Clear 9 1023 70 10000 6.2 230 13:31 18.12.2020
4750 Clear 9 1023 75 10000 5.7 230 12:56 18.12.2020
4751 Clear 9 1022 75 10000 4.1 210 12:30 18.12.2020
4752 Clear 7 1023 75 10000 3.1 180 11:27 18.12.2020
4753 Clear 6 1023 81 10000 3.1 170 10:40 18.12.2020
4754 Clear 6 1023 81 10000 3.1 170 10:21 18.12.2020
4755 Clear 5 1023 80 10000 3.1 180 09:57 18.12.2020
4756 Clear 5 1023 86 10000 2.6 180 09:37 18.12.2020
4757 Clouds 4 1023 80 10000 2.6 180 09:18 18.12.2020
4758 Clouds 5 1023 86 10000 3.1 180 08:43 18.12.2020
4759 Clouds 5 1023 86 10000 3.1 180 07:58 18.12.2020
4760 Clouds 5 1023 80 10000 3.1 190 07:20 18.12.2020
4761 Clouds 4 1023 86 10000 2.1 160 06:59 18.12.2020
4762 Clouds 4 1023 86 10000 2.6 200 05:44 18.12.2020
4763 Clouds 4 1023 86 10000 2.6 200 05:23 18.12.2020
4764 Clouds 5 1023 81 10000 3.6 210 04:42 18.12.2020
4765 Clouds 7 1022 75 10000 4.6 240 01:47 18.12.2020
4766 Clouds 7 1022 81 10000 4.6 240 00:38 18.12.2020
4767 Clouds 8 1022 75 10000 4.6 230 23:54 17.12.2020
4768 Clouds 8 1022 75 10000 4.1 230 23:25 17.12.2020
4769 Clear 9 1022 76 10000 4.6 230 22:49 17.12.2020
4770 Clear 8 1022 76 10000 4.6 230 22:28 17.12.2020
4771 Clear 8 1021 76 10000 3.6 230 21:47 17.12.2020
4772 Clear 8 1021 76 10000 3.6 230 21:25 17.12.2020
4773 Clear 8 1021 76 10000 4.6 220 20:56 17.12.2020
4774 Clear 8 1021 76 10000 4.6 220 20:37 17.12.2020
4775 Clear 9 1021 76 10000 3.1 220 20:18 17.12.2020
4776 Clouds 8 1020 81 10000 3.1 220 19:44 17.12.2020
4777 Clouds 9 1020 76 10000 4.1 220 19:22 17.12.2020
4778 Clouds 8 1020 81 10000 4.6 220 18:41 17.12.2020
4779 Clouds 8 1020 81 10000 4.6 220 18:23 17.12.2020
4780 Clear 8 1020 81 10000 3.6 210 17:53 17.12.2020
4781 Clouds 8 1020 76 10000 2.6 200 17:32 17.12.2020
4782 Clouds 8 1020 76 10000 2.6 200 17:32 17.12.2020
4783 Clouds 9 1019 76 10000 4.1 230 16:44 17.12.2020
4784 Clouds 9 1019 76 10000 4.1 230 16:24 17.12.2020
4785 Clouds 9 1018 76 10000 5.7 240 15:52 17.12.2020
4786 Clouds 9 1018 71 10000 5.1 230 15:32 17.12.2020
4787 Clouds 10 1018 71 10000 4.6 230 14:55 17.12.2020
4788 Clouds 10 1018 71 10000 4.6 230 14:34 17.12.2020
4789 Clouds 9 1018 76 10000 5.1 220 13:58 17.12.2020
4790 Clouds 9 1018 76 10000 4.6 220 13:35 17.12.2020
4791 Rain 9 1018 76 10000 4.6 220 12:49 17.12.2020
4792 Clouds 9 1017 76 10000 7.2 220 12:27 17.12.2020
4793 Clear 10 1017 71 10000 4.6 220 11:46 17.12.2020
4794 Clear 10 1017 71 10000 4.6 220 11:26 17.12.2020
4795 Clouds 9 1017 79 10000 1.79 0 10:56 17.12.2020
4796 Clear 10 1017 71 10000 3.6 200 10:30 17.12.2020
4797 Clear 9 1016 76 10000 3.1 190 09:35 17.12.2020
4798 Clear 8 1016 81 10000 3.1 170 08:39 17.12.2020
4799 Clouds 8 1016 76 10000 3.6 170 07:40 17.12.2020
4800 Clouds 7 1016 75 10000 2.6 150 07:18 17.12.2020
4801 Clouds 7 1016 81 10000 1 0 06:44 17.12.2020
4802 Clouds 7 1016 81 10000 1 0 06:26 17.12.2020
4803 Clear 5 1017 93 10000 2.1 220 01:41 17.12.2020
4804 Clouds 6 1017 93 10000 2.6 130 23:58 16.12.2020
4805 Clouds 7 1018 93 10000 2.6 140 23:38 16.12.2020
4806 Clouds 7 1018 93 10000 2.1 150 23:18 16.12.2020
4807 Clouds 6 1018 93 6000 2.1 140 22:47 16.12.2020
4808 Clouds 6 1018 93 6000 2.1 140 22:27 16.12.2020
4809 Clouds 7 1018 93 4200 1.5 130 21:41 16.12.2020
4810 Clouds 7 1018 93 4200 1.5 130 21:21 16.12.2020
4811 Clouds 7 1018 93 8000 2.1 130 20:46 16.12.2020
4812 Clouds 7 1018 93 8000 2.1 130 20:20 16.12.2020
4813 Clouds 8 1018 87 8000 3.1 120 19:38 16.12.2020
4814 Clear 8 1018 93 6000 3.6 110 19:18 16.12.2020
4815 Clear 8 1018 87 10000 3.6 110 18:44 16.12.2020
4816 Clear 8 1019 87 10000 3.1 100 18:22 16.12.2020
4817 Clear 8 1018 93 10000 3.6 110 17:36 16.12.2020
4818 Clear 9 1018 87 10000 3.1 100 16:46 16.12.2020
4819 Clouds 9 1018 76 10000 3.1 130 16:28 16.12.2020
4820 Clouds 10 1018 76 10000 3.1 130 15:58 16.12.2020
4821 Clouds 10 1018 71 10000 2.6 130 15:39 16.12.2020
4822 Clouds 11 1018 76 10000 3.6 140 15:18 16.12.2020
4823 Clear 11 1018 71 10000 3.1 160 14:44 16.12.2020
4824 Clear 11 1018 71 10000 3.1 160 14:25 16.12.2020
4825 Clear 12 1019 66 10000 1.5 150 13:41 16.12.2020
4826 Clear 11 1019 66 10000 1.5 150 13:20 16.12.2020
4827 Clouds 11 1019 76 10000 2.6 130 12:43 16.12.2020
4828 Clouds 11 1019 87 10000 1.5 100 11:51 16.12.2020
4829 Clouds 9 1019 100 7000 2.1 100 11:31 16.12.2020
4830 Clouds 9 1019 93 6000 1.5 110 10:56 16.12.2020
4831 Clouds 8 1019 100 6000 1.5 100 10:32 16.12.2020
4832 Mist 8 1019 100 3900 1.5 100 09:56 16.12.2020
4833 Mist 7 1018 93 3000 2.1 90 09:29 16.12.2020
4834 Clouds 7 1018 93 6000 2.1 110 08:23 16.12.2020
4835 Clouds 6 1018 93 2800 1 90 07:45 16.12.2020
4836 Clouds 7 1018 93 2800 1 90 07:20 16.12.2020
4837 Clouds 8 1017 93 10000 0.5 0 05:31 16.12.2020
4838 Clouds 8 1016 93 10000 2.1 280 01:59 16.12.2020
4839 Clouds 9 1015 87 10000 3.6 270 23:57 15.12.2020
4840 Clouds 9 1014 87 10000 3.1 260 23:37 15.12.2020
4841 Clouds 9 1014 87 10000 3.6 240 22:44 15.12.2020
4842 Clouds 9 1014 87 10000 3.6 240 22:22 15.12.2020
4843 Clouds 9 1013 81 10000 3.6 240 21:49 15.12.2020
4844 Clouds 9 1013 81 10000 4.1 240 21:24 15.12.2020
4845 Drizzle 9 1012 81 10000 4.1 240 20:46 15.12.2020
4846 Clouds 9 1012 81 10000 5.1 240 20:27 15.12.2020
4847 Clouds 9 1012 81 10000 5.1 240 19:55 15.12.2020
4848 Rain 9 1012 81 10000 3.6 240 19:34 15.12.2020
4849 Clouds 9 1011 81 10000 2.6 240 18:57 15.12.2020
4850 Drizzle 9 1011 81 10000 2.1 240 18:38 15.12.2020
4851 Drizzle 9 1011 81 10000 2.1 240 18:20 15.12.2020
4852 Clouds 9 1011 81 10000 3.6 230 17:41 15.12.2020
4853 Clouds 9 1011 81 10000 3.6 230 17:21 15.12.2020
4854 Rain 9 1011 81 10000 3.6 230 16:34 15.12.2020
4855 Clouds 9 1010 81 10000 2.1 280 15:59 15.12.2020
4856 Clouds 10 1010 76 10000 2.1 220 15:34 15.12.2020
4857 Clouds 10 1010 76 10000 3.1 230 14:56 15.12.2020
4858 Clouds 10 1010 76 10000 2.6 220 14:37 15.12.2020
4859 Clouds 10 1010 76 10000 4.1 220 14:19 15.12.2020
4860 Clouds 10 1010 76 10000 3.6 220 13:47 15.12.2020
4861 Clouds 10 1010 76 10000 3.6 220 13:22 15.12.2020
4862 Clouds 10 1010 81 10000 1 0 12:44 15.12.2020
4863 Clear 9 1010 76 10000 1 0 12:18 15.12.2020
4864 Clear 9 1010 76 10000 1 0 11:49 15.12.2020
4865 Clouds 9 1010 81 10000 1.5 220 11:20 15.12.2020
4866 Clouds 8 1010 87 10000 1.5 150 10:44 15.12.2020
4867 Clouds 8 1009 87 10000 1 0 10:19 15.12.2020
4868 Clouds 7 1009 87 10000 2.1 200 09:41 15.12.2020
4869 Clouds 7 1009 87 10000 2.1 200 09:22 15.12.2020
4870 Rain 6 1009 87 10000 2.1 170 08:39 15.12.2020
4871 Clear 6 1009 87 10000 2.1 170 08:20 15.12.2020
4872 Rain 6 1009 87 10000 2.5 216 07:41 15.12.2020
4873 Rain 6 1009 93 10000 1.5 110 06:53 15.12.2020
4874 Clouds 5 1009 93 10000 1.5 130 05:34 15.12.2020
4875 Clouds 4 1010 93 10000 1.5 100 00:39 15.12.2020
4876 Clouds 4 1011 93 10000 1 0 23:48 14.12.2020
4877 Clouds 4 1010 93 10000 2.1 100 23:19 14.12.2020
4878 Clouds 4 1011 86 10000 2.1 100 22:40 14.12.2020
4879 Clear 5 1010 86 10000 0.5 0 22:19 14.12.2020
4880 Clear 5 1010 81 10000 1.5 180 21:40 14.12.2020
4881 Clear 6 1010 75 10000 2.6 170 21:18 14.12.2020
4882 Clear 6 1010 75 10000 2.6 170 21:18 14.12.2020
4883 Clear 6 1010 81 10000 2.1 160 20:46 14.12.2020
4884 Clear 6 1010 81 10000 2.1 160 20:27 14.12.2020
4885 Clear 7 1010 75 10000 1.5 120 19:44 14.12.2020
4886 Clear 7 1010 75 10000 1.5 120 19:25 14.12.2020
4887 Clouds 7 1010 75 10000 2.6 150 18:44 14.12.2020
4888 Clouds 8 1010 75 10000 2.6 150 18:24 14.12.2020
4889 Clouds 8 1009 76 10000 2.6 160 17:45 14.12.2020
4890 Clouds 9 1009 76 10000 2.6 150 17:21 14.12.2020
4891 Clouds 9 1009 76 10000 2.6 150 16:49 14.12.2020
4892 Clouds 9 1009 76 10000 2.6 150 16:27 14.12.2020
4893 Clouds 9 1009 75 10000 4.1 190 15:33 14.12.2020
4894 Clouds 8 1009 70 10000 4.1 200 14:54 14.12.2020
4895 Clouds 9 1010 70 10000 5.1 210 14:36 14.12.2020
4896 Rain 9 1010 70 10000 2.6 190 14:18 14.12.2020
4897 Rain 9 1010 66 10000 3.6 210 13:39 14.12.2020
4898 Rain 9 1010 57 10000 4.6 210 13:18 14.12.2020
4899 Clouds 10 1010 57 10000 4.6 210 12:50 14.12.2020
4900 Clouds 9 1010 61 10000 2.6 180 12:24 14.12.2020
4901 Clear 9 1010 65 10000 3.6 180 11:31 14.12.2020
4902 Clear 7 1010 70 10000 3.1 110 10:37 14.12.2020
4903 Clear 7 1010 70 10000 3.1 110 10:37 14.12.2020
4904 Clouds 7 1010 70 10000 4.1 140 10:19 14.12.2020
4905 Clouds 5 1010 80 10000 3.1 140 09:29 14.12.2020
4906 Clouds 6 1010 75 10000 3.1 150 08:46 14.12.2020
4907 Clouds 5 1010 75 10000 3.1 150 08:28 14.12.2020
4908 Clouds 4 1010 75 10000 3.6 150 07:28 14.12.2020
4909 Clouds 4 1010 75 10000 3.6 150 06:46 14.12.2020
4910 Clouds 3 1010 75 10000 4.1 150 05:20 14.12.2020
4911 Clouds 3 1012 100 10000 2.1 160 02:26 14.12.2020
4912 Clouds 3 1012 93 6000 2.1 100 00:55 14.12.2020
4913 Clouds 3 1012 93 3400 2.1 120 00:33 14.12.2020
4914 Clouds 3 1012 93 5000 2.6 130 23:50 13.12.2020
4915 Clouds 4 1012 93 7000 3.1 160 23:29 13.12.2020
4916 Clouds 4 1012 93 6000 2.1 170 22:47 13.12.2020
4917 Clouds 4 1012 93 6000 2.1 170 22:20 13.12.2020
4918 Clouds 4 1012 100 7000 2.1 170 21:45 13.12.2020
4919 Clouds 4 1012 100 7000 2.1 170 21:26 13.12.2020
4920 Rain 5 1012 100 6000 2.1 170 20:38 13.12.2020
4921 Rain 5 1012 100 6000 2.1 170 20:20 13.12.2020
4922 Clouds 5 1012 93 6000 1.5 100 19:42 13.12.2020
4923 Clouds 5 1012 93 6000 1.5 100 19:20 13.12.2020
4924 Clouds 5 1012 93 5000 1.5 150 18:43 13.12.2020
4925 Clouds 5 1012 93 5000 1.5 150 18:21 13.12.2020
4926 Mist 5 1011 93 3700 1 0 17:47 13.12.2020
4927 Mist 5 1011 93 3700 1 0 17:47 13.12.2020
4928 Mist 5 1011 93 3700 1 0 17:21 13.12.2020
4929 Fog 5 1011 100 400 1 100 16:58 13.12.2020
4930 Mist 5 1011 93 4000 1.77 226 16:38 13.12.2020
4931 Mist 5 1011 93 4000 2.06 235 16:19 13.12.2020
4932 Clouds 6 1010 100 6000 1.5 210 15:40 13.12.2020
4933 Clouds 6 1010 100 6000 1.5 210 15:22 13.12.2020
4934 Clouds 6 1010 100 4100 0.5 0 14:44 13.12.2020
4935 Clouds 6 1010 100 4100 0.5 0 14:21 13.12.2020
4936 Drizzle 5 1010 93 3100 1.5 150 13:44 13.12.2020
4937 Mist 5 1010 93 3100 1.5 150 13:25 13.12.2020
4938 Drizzle 5 1010 100 1700 1.5 170 12:49 13.12.2020
4939 Drizzle 5 1010 100 2100 1.5 150 12:23 13.12.2020
4940 Drizzle 4 1010 100 2200 2.1 120 11:43 13.12.2020
4941 Mist 4 1009 93 1500 2.1 110 10:56 13.12.2020
4942 Drizzle 4 1009 93 2800 1.5 110 10:38 13.12.2020
4943 Drizzle 4 1009 93 2500 2.1 110 09:58 13.12.2020
4944 Drizzle 4 1008 93 2600 2.1 100 09:28 13.12.2020
4945 Clouds 4 1008 100 4600 2.1 110 08:35 13.12.2020
4946 Clouds 4 1008 100 4100 2.1 100 07:52 13.12.2020
4947 Clouds 4 1006 100 3900 2.6 90 05:36 13.12.2020
4948 Clouds 4 1006 100 4600 1 0 02:42 13.12.2020
4949 Clouds 4 1005 93 3800 2.1 100 01:58 13.12.2020
4950 Clouds 4 1005 100 4000 2.6 100 01:19 13.12.2020
4951 Clouds 4 1005 93 4500 2.1 90 00:33 13.12.2020
4952 Clouds 4 1004 86 5000 2.6 100 23:33 12.12.2020
4953 Clouds 4 1004 86 5000 3.1 100 22:58 12.12.2020
4954 Clouds 4 1003 86 5000 3.1 100 22:27 12.12.2020
4955 Clouds 4 1003 86 5000 2.6 90 21:46 12.12.2020
4956 Clouds 4 1003 86 5000 2.6 90 21:19 12.12.2020
4957 Clouds 4 1002 86 6000 2.1 90 20:43 12.12.2020
4958 Clouds 4 1002 86 6000 2.1 90 20:21 12.12.2020
4959 Clouds 4 1002 86 6000 2.1 100 19:51 12.12.2020
4960 Clouds 4 1002 86 7000 2.1 100 19:33 12.12.2020
4961 Clouds 4 1002 86 7000 2.1 100 19:33 12.12.2020
4962 Clouds 4 1002 86 7000 2.1 100 18:55 12.12.2020
4963 Clouds 4 1001 86 8000 2.1 100 18:36 12.12.2020
4964 Clouds 4 1001 86 8000 2.6 100 18:18 12.12.2020
4965 Clouds 4 1001 86 8000 2.6 110 17:40 12.12.2020
4966 Clouds 4 1000 86 10000 2.1 110 16:42 12.12.2020
4967 Clouds 4 1000 86 10000 3.1 100 15:57 12.12.2020
4968 Clouds 4 999 86 10000 3.6 100 15:39 12.12.2020
4969 Clouds 5 999 86 10000 3.6 100 14:54 12.12.2020
4970 Clouds 5 999 86 10000 3.1 110 14:22 12.12.2020
4971 Clouds 5 999 86 10000 3.1 110 13:41 12.12.2020
4972 Clouds 5 999 86 10000 3.1 110 13:23 12.12.2020
4973 Clouds 4 998 86 10000 3.1 110 12:36 12.12.2020
4974 Clouds 4 998 86 10000 2.6 100 11:28 12.12.2020
4975 Clouds 3 997 86 10000 2.1 110 10:46 12.12.2020
4976 Clouds 3 997 93 10000 2.6 100 09:24 12.12.2020
4977 Clouds 2 996 93 8000 3.1 90 08:41 12.12.2020
4978 Clouds 2 996 86 7000 3.6 100 01:56 12.12.2020
4979 Clouds 2 996 90 10000 3.1 110 23:31 11.12.2020
4980 Clouds 2 996 80 10000 3.6 100 20:58 11.12.2020
4981 Clouds 3 997 74 10000 4.6 130 19:46 11.12.2020
4982 Clouds 3 997 77 10000 3.6 120 17:30 11.12.2020
4983 Clouds 3 998 86 10000 3.6 110 14:38 11.12.2020
4984 Clouds 3 999 86 10000 3.6 110 13:46 11.12.2020
4985 Clouds 3 999 86 10000 4.1 110 12:29 11.12.2020
4986 Clouds 3 1000 86 10000 4.1 110 11:56 11.12.2020
4987 Clouds 3 1000 93 10000 4.1 110 11:37 11.12.2020
4988 Mist 2 1000 78 4700 3.6 110 10:41 11.12.2020
4989 Clouds 1 1002 90 6000 2.1 110 08:23 11.12.2020
4990 Clouds 2 1003 96 10000 0.89 83 05:38 11.12.2020
4991 Clouds 1 1000 97 10000 3.06 121 04:47 11.12.2020
4992 Clouds 1 1003 97 10000 0.45 68 01:20 11.12.2020
4993 Clouds 1 1007 96 10000 1.34 105 23:38 10.12.2020
4994 Clouds 1 1006 91 10000 1.34 0 22:24 10.12.2020
4995 Clouds 1 1006 91 10000 1.79 0 21:35 10.12.2020
4996 Clouds 2 1007 91 10000 1.34 0 20:39 10.12.2020
4997 Mist 1 1007 94 5000 3.6 110 19:37 10.12.2020
4998 Mist 1 1007 95 5000 3.6 110 18:53 10.12.2020
4999 Drizzle 2 1007 92 5000 2.6 100 17:50 10.12.2020
5000 Clouds 2 1007 93 6000 1.5 80 16:25 10.12.2020
5001 Mist 2 1007 93 5000 2.1 90 15:26 10.12.2020
5002 Clouds 2 1007 93 5000 2.6 80 14:50 10.12.2020
5003 Clouds 2 1007 93 6000 2.6 90 14:26 10.12.2020
5004 Mist 2 1008 93 4400 3.1 110 12:40 10.12.2020
5005 Mist 2 1008 93 1700 3.1 90 11:35 10.12.2020
5006 Mist 2 1008 100 3500 3.1 100 08:51 10.12.2020
5007 Clouds 3 1006 96 381 2.06 94 07:45 10.12.2020
5008 Clouds 3 1008 96 10000 2.24 95 06:41 10.12.2020
5009 Clouds 2 1006 96 1640 1.08 4 02:56 10.12.2020
5010 Clouds 2 1009 91 289 1.37 345 01:59 10.12.2020
5011 Snow 2 1010 93 4800 1.5 300 23:52 09.12.2020
5012 Rain 2 1010 93 4500 2.6 290 21:58 09.12.2020
5013 Clouds 3 1010 86 3600 2.1 260 20:28 09.12.2020
5014 Clouds 3 1010 86 4700 1.5 270 19:21 09.12.2020
5015 Clouds 3 1010 93 4400 1.5 280 17:43 09.12.2020
5016 Clouds 3 1010 93 4300 1.5 230 16:44 09.12.2020
5017 Clouds 3 1010 93 4300 1.5 230 16:22 09.12.2020
5018 Clouds 3 1009 86 5000 1.5 120 15:30 09.12.2020
5019 Clouds 3 1009 93 5000 1.41 259 14:27 09.12.2020
5020 Clouds 3 1009 93 5000 1 0 13:58 09.12.2020
5021 Clouds 3 1009 86 5000 0.5 0 13:19 09.12.2020
5022 Clouds 3 1009 86 4600 1 0 12:44 09.12.2020
5023 Clouds 3 1009 86 4600 1.5 80 11:53 09.12.2020
5024 Clouds 3 1009 93 4500 2.1 90 10:59 09.12.2020
5025 Clouds 2 1009 93 3100 2.1 70 09:38 09.12.2020
5026 Clouds 2 1009 93 4500 1.63 68 07:57 09.12.2020
5027 Rain 2 1008 93 5000 1 0 05:55 09.12.2020
5028 Clouds 2 1008 93 4400 2.1 80 03:54 09.12.2020
5029 Clouds 2 1007 93 3800 4.1 90 01:59 09.12.2020
5030 Clouds 1 1007 94 3900 4.1 90 23:44 08.12.2020
5031 Clouds 1 1007 94 5000 3.1 70 23:18 08.12.2020
5032 Mist 1 1007 93 4100 2.6 80 21:30 08.12.2020
5033 Clear 1 1006 93 6000 2.1 100 19:40 08.12.2020
5034 Clear 2 1006 92 6000 2.6 100 18:59 08.12.2020
5035 Clear 2 1006 92 9000 3.1 110 18:27 08.12.2020
5036 Clear 5 1005 75 10000 3.1 80 15:54 08.12.2020
5037 Clear 6 1005 75 10000 3.6 90 14:34 08.12.2020
5038 Clear 6 1005 75 10000 3.1 100 13:36 08.12.2020
5039 Clear 5 1005 75 10000 3.1 90 12:32 08.12.2020
5040 Clear 5 1005 80 10000 3.1 100 11:52 08.12.2020
5041 Clouds 3 1005 86 10000 1.5 100 10:50 08.12.2020
5042 Clear 3 1005 80 10000 1.5 70 10:31 08.12.2020
5043 Clouds 2 1004 90 10000 2.21 89 08:57 08.12.2020
5044 Clouds 3 1004 86 10000 1.5 80 07:34 08.12.2020
5045 Clouds 3 1005 92 10000 0.89 113 03:43 08.12.2020
5046 Clouds 3 1001 92 10000 1.7 95 01:36 08.12.2020
5047 Clouds 3 1005 92 10000 0.45 8 00:43 08.12.2020
5048 Clouds 3 1004 84 10000 1.34 0 22:50 07.12.2020
5049 Clouds 3 1004 83 10000 1.79 0 22:18 07.12.2020
5050 Clouds 3 1003 82 10000 2.1 90 20:45 07.12.2020
5051 Clouds 5 1002 83 10000 3.1 190 18:58 07.12.2020
5052 Clouds 6 1001 70 10000 4.1 200 17:31 07.12.2020
5053 Clouds 6 1001 70 10000 4.1 190 16:59 07.12.2020
5054 Clouds 6 1001 70 10000 4.1 190 16:23 07.12.2020
5055 Clouds 6 999 70 10000 3.6 200 15:24 07.12.2020
5056 Clouds 6 999 70 10000 3.6 180 14:28 07.12.2020
5057 Clouds 6 999 75 10000 4.1 210 13:35 07.12.2020
5058 Clouds 6 998 75 10000 4.1 180 11:58 07.12.2020
5059 Clouds 6 998 75 10000 3.6 200 11:38 07.12.2020
5060 Clouds 5 997 86 10000 3.1 210 10:23 07.12.2020
5061 Clouds 6 995 81 10000 5.1 150 08:37 07.12.2020
5062 Clouds 7 994 75 10000 3.1 150 07:30 07.12.2020
5063 Clouds 5 995 93 5000 1.5 110 05:26 07.12.2020
5064 Clouds 3 996 93 3600 2.1 80 03:43 07.12.2020
5065 Clouds 3 997 93 3600 1 0 00:39 07.12.2020
5066 Clouds 3 998 100 4700 1 220 22:48 06.12.2020
5067 Clouds 3 998 93 5000 1 0 21:44 06.12.2020
5068 Clouds 3 998 93 5000 1 230 20:41 06.12.2020
5069 Clouds 3 998 93 5000 1 230 20:19 06.12.2020
5070 Clouds 3 998 86 4700 1.5 310 19:26 06.12.2020
5071 Mist 3 998 93 5000 3.1 110 17:31 06.12.2020
5072 Mist 3 998 86 5000 3.1 100 16:33 06.12.2020
5073 Clouds 4 998 86 8000 3.1 100 14:49 06.12.2020
5074 Clouds 3 999 86 9000 1.5 90 13:21 06.12.2020
5075 Clouds 3 1000 88 10000 0.89 0 12:30 06.12.2020
5076 Clouds 3 1000 86 9000 2.1 100 11:53 06.12.2020
5077 Clouds 3 1000 86 9000 2.6 100 11:25 06.12.2020
5078 Clouds 3 1000 86 8000 1 0 10:35 06.12.2020
5079 Drizzle 2 1001 93 8000 2.03 58 09:31 06.12.2020
5080 Clouds 2 1001 93 10000 1 0 07:41 06.12.2020
5081 Clouds 2 1002 93 10000 1.5 20 04:51 06.12.2020
5082 Clouds 2 1003 88 10000 2.09 64 00:46 06.12.2020
5083 Clouds 2 1003 88 10000 2.95 70 00:26 06.12.2020
5084 Clouds 2 1003 88 10000 2.95 70 23:57 05.12.2020
5085 Rain 2 1004 88 10000 2.1 80 22:25 05.12.2020
5086 Rain 2 1004 88 10000 2.6 100 21:55 05.12.2020
5087 Rain 2 1004 86 10000 2.6 100 21:30 05.12.2020
5088 Clouds 2 1003 87 10000 2.1 90 19:54 05.12.2020
5089 Clouds 2 1002 87 10000 1.5 110 18:46 05.12.2020
5090 Clear 2 1002 86 10000 1.5 90 17:55 05.12.2020
5091 Clear 3 1002 87 10000 1 0 16:49 05.12.2020
5092 Clear 4 1002 87 10000 1 0 16:28 05.12.2020
5093 Clear 5 1001 75 10000 2.1 210 15:21 05.12.2020
5094 Clear 5 999 80 10000 2.6 210 13:33 05.12.2020
5095 Clouds 4 998 74 10000 3.1 200 11:50 05.12.2020
5096 Clear 1 997 86 10000 2.1 200 10:39 05.12.2020
5097 Clear 0 996 86 10000 2.1 190 09:38 05.12.2020
5098 Clouds 0 994 91 9000 2.64 244 07:48 05.12.2020
5099 Clouds 0 993 96 9000 2.1 100 05:58 05.12.2020
5100 Clouds 0 993 95 9000 3.1 90 02:18 05.12.2020
5101 Clouds 1 993 80 10000 2.6 80 23:39 04.12.2020
5102 Clear 1 993 80 10000 3.1 110 21:37 04.12.2020
5103 Clear 2 992 74 10000 3.6 110 19:42 04.12.2020
5104 Clear 2 992 74 10000 3.6 100 18:40 04.12.2020
5105 Clear 2 992 74 10000 4.1 100 17:48 04.12.2020
5106 Clear 3 991 74 10000 5.1 110 16:52 04.12.2020
5107 Clear 3 991 64 10000 3.1 100 15:34 04.12.2020
5108 Clear 4 991 69 10000 2.1 100 13:38 04.12.2020
5109 Clear 4 991 69 10000 2.1 100 13:20 04.12.2020
5110 Clear 4 991 64 10000 2.1 110 12:47 04.12.2020
5111 Clear 4 991 64 10000 2.1 110 12:47 04.12.2020
5112 Clear 2 990 69 10000 3.1 90 10:38 04.12.2020
5113 Clear 1 990 74 10000 4.1 100 09:37 04.12.2020
5114 Clouds 1 990 74 10000 4.6 100 06:41 04.12.2020
5115 Snow 1 990 69 10000 3.6 110 05:40 04.12.2020
5116 Clouds 0 993 89 10000 4.1 110 01:54 04.12.2020
5117 Clouds 1 995 69 10000 3.6 120 22:52 03.12.2020
5118 Clouds 1 996 74 10000 4.1 140 22:18 03.12.2020
5119 Clouds 1 997 80 10000 4.6 130 20:48 03.12.2020
5120 Clear 2 997 69 10000 3.6 150 19:27 03.12.2020
5121 Clear 3 998 69 10000 3.6 160 18:49 03.12.2020
5122 Clear 3 999 74 10000 3.1 150 17:41 03.12.2020
5123 Clouds 3 999 74 10000 3.1 150 17:18 03.12.2020
5124 Clouds 3 1000 74 10000 3.1 150 15:52 03.12.2020
5125 Clouds 3 1000 74 10000 3.1 140 15:30 03.12.2020
5126 Clouds 3 1001 74 10000 2.6 150 14:35 03.12.2020
5127 Clouds 3 1002 74 10000 3.1 160 13:36 03.12.2020
5128 Clouds 3 1003 74 10000 3.6 160 12:26 03.12.2020
5129 Clouds 3 1003 74 10000 3.6 140 11:24 03.12.2020
5130 Clouds 1 1005 80 10000 2.6 150 09:33 03.12.2020
5131 Clouds 0 1007 92 10000 2.6 120 06:27 03.12.2020
5132 Clouds -1 1010 86 6000 2.1 120 02:45 03.12.2020
5133 Clear -1 1011 92 6000 2.1 130 00:57 03.12.2020
5134 Clear 0 1012 97 6000 2.1 160 22:47 02.12.2020
5135 Clear 0 1012 97 6000 2.6 160 22:26 02.12.2020
5136 Clear -1 1013 86 6000 2.1 120 21:25 02.12.2020
5137 Clear -1 1013 86 5000 1.5 90 20:46 02.12.2020
5138 Clear -1 1014 86 6000 1.5 110 20:28 02.12.2020
5139 Clouds 0 1015 80 8000 2.1 110 18:39 02.12.2020
5140 Clouds 1 1015 80 7000 2.6 110 17:47 02.12.2020
5141 Clouds 1 1015 80 7000 2.6 110 17:28 02.12.2020
5142 Clouds 3 1016 74 10000 1.5 90 15:37 02.12.2020
5143 Clouds 3 1018 76 10000 2.6 130 12:50 02.12.2020
5144 Clouds 3 1020 83 8000 2.6 90 10:47 02.12.2020
5145 Clouds 2 1020 90 8000 2.6 90 10:21 02.12.2020
5146 Clouds 2 1020 93 9000 2.6 110 06:53 02.12.2020
5147 Clouds 3 1021 86 8000 1.5 70 23:20 01.12.2020
5148 Clouds 3 1020 86 8000 2.1 90 22:20 01.12.2020
5149 Drizzle 3 1018 86 6000 3.6 100 19:36 01.12.2020
5150 Drizzle 4 1018 86 6000 3.6 100 18:55 01.12.2020
5151 Mist 4 1016 93 5000 1.5 90 16:47 01.12.2020
5152 Drizzle 4 1015 93 2500 2.1 130 14:34 01.12.2020
5153 Drizzle 4 1014 86 3800 2.6 200 12:45 01.12.2020
5154 Drizzle 4 1013 86 8000 2.1 200 11:29 01.12.2020
5155 Clouds 4 1013 80 10000 2.1 200 10:52 01.12.2020
5156 Clouds 4 1013 80 10000 2.6 200 10:26 01.12.2020
5157 Clouds 3 1011 86 10000 2.1 200 07:40 01.12.2020
5158 Clouds 3 1011 86 10000 3.1 210 05:58 01.12.2020
5159 Rain 2 1013 93 7000 3.1 200 00:57 01.12.2020
5160 Rain 2 1013 87 6000 4.1 200 00:38 01.12.2020
5161 Rain 2 1015 84 10000 3.6 220 23:20 30.11.2020
5162 Rain 3 1015 74 10000 3.6 220 22:42 30.11.2020
5163 Rain 3 1015 74 10000 3.6 220 22:22 30.11.2020
5164 Clouds 4 1017 60 10000 4.6 230 20:34 30.11.2020
5165 Clear 3 1017 64 10000 3.6 220 19:41 30.11.2020
5166 Clear 3 1019 64 10000 4.1 220 18:21 30.11.2020
5167 Clear 3 1019 64 10000 3.6 220 17:46 30.11.2020
5168 Clear 3 1020 64 10000 3.6 210 16:53 30.11.2020
5169 Clear 3 1021 64 10000 3.6 220 15:45 30.11.2020
5170 Clear 3 1023 64 10000 4.1 230 13:56 30.11.2020
5171 Clear 3 1023 64 10000 4.6 240 13:22 30.11.2020
5172 Clouds 3 1024 64 10000 3.6 210 12:26 30.11.2020
5173 Clouds 3 1024 64 10000 4.1 220 11:56 30.11.2020
5174 Clouds 3 1025 64 10000 2.1 230 10:25 30.11.2020
5175 Clouds 2 1025 69 10000 2.1 260 09:35 30.11.2020
5176 Clouds 2 1025 69 10000 2.1 260 09:35 30.11.2020
5177 Clouds 2 1026 74 10000 2.6 260 06:48 30.11.2020
5178 Clear 3 1027 86 10000 1 340 23:29 29.11.2020
5179 Clear 3 1027 86 10000 0.93 293 21:47 29.11.2020
5180 Clear 3 1027 86 10000 0.93 293 21:47 29.11.2020
5181 Clear 3 1027 86 10000 1.03 304 21:28 29.11.2020
5182 Clear 3 1027 86 10000 0.91 307 19:46 29.11.2020
5183 Clouds 3 1027 86 10000 1.31 333 17:46 29.11.2020
5184 Clouds 4 1026 80 10000 0.5 0 14:54 29.11.2020
5185 Clouds 3 1027 93 10000 1.05 20 12:58 29.11.2020
5186 Clouds 3 1027 93 10000 2.6 110 11:41 29.11.2020
5187 Clouds 1 1027 89 10000 1 0 09:42 29.11.2020
5188 Clear 1 1027 97 10000 0.95 51 08:37 29.11.2020
5189 Clear 1 1026 86 10000 1.98 67 04:40 29.11.2020
5190 Clouds 0 1027 92 10000 0.5 0 23:48 28.11.2020
5191 Clouds 1 1026 79 10000 3.79 100 22:56 28.11.2020
5192 Clouds 2 1026 74 10000 4.1 110 20:47 28.11.2020
5193 Clouds 2 1026 81 10000 1.79 0 19:48 28.11.2020
5194 Clouds 2 1026 74 10000 4.1 100 19:22 28.11.2020
5195 Clouds 2 1025 80 10000 4.1 90 18:27 28.11.2020
5196 Clouds 2 1025 80 10000 4.6 90 17:47 28.11.2020
5197 Clouds 3 1024 90 10000 4.1 110 16:44 28.11.2020
5198 Clouds 4 1024 78 10000 4.1 120 14:54 28.11.2020
5199 Clouds 5 1024 75 10000 4.6 110 13:18 28.11.2020
5200 Clouds 4 1023 86 10000 4.1 110 10:46 28.11.2020
5201 Clear 5 1022 86 8000 4.1 110 06:42 28.11.2020
5202 Clear 5 1022 86 8000 2.6 120 03:33 28.11.2020
5203 Clear 5 1022 86 8000 4.6 110 01:50 28.11.2020
5204 Clouds 6 1021 87 6000 4.1 100 23:18 27.11.2020
5205 Clouds 6 1022 93 7000 2.6 120 21:51 27.11.2020
5206 Clouds 6 1022 93 10000 3.1 110 20:37 27.11.2020
5207 Clouds 6 1021 93 8000 2.6 80 19:30 27.11.2020
5208 Clouds 6 1021 93 10000 3.6 110 18:51 27.11.2020
5209 Clouds 8 1021 87 10000 3.1 100 15:19 27.11.2020
5210 Clouds 8 1021 87 9000 2.1 110 13:57 27.11.2020
5211 Clouds 8 1021 87 8000 3.1 120 12:48 27.11.2020
5212 Clouds 7 1021 93 6000 2.6 100 11:55 27.11.2020
5213 Mist 7 1021 93 3500 1 0 10:51 27.11.2020
5214 Mist 6 1021 93 3500 0.5 0 10:27 27.11.2020
5215 Clouds 6 1020 90 10000 0.56 147 07:30 27.11.2020
5216 Clouds 7 1021 87 10000 0.45 0 22:43 26.11.2020
5217 Clouds 7 1021 87 10000 1.61 258 22:22 26.11.2020
5218 Clouds 7 1021 93 9000 3.1 260 21:39 26.11.2020
5219 Clouds 7 1020 87 9000 3.1 240 19:48 26.11.2020
5220 Clouds 7 1020 87 10000 2.1 270 18:34 26.11.2020
5221 Clouds 7 1020 87 10000 2.6 250 16:38 26.11.2020
5222 Clouds 8 1020 81 10000 4.1 250 13:44 26.11.2020
5223 Clouds 8 1020 75 10000 4.1 250 12:52 26.11.2020
5224 Clouds 8 1020 75 10000 4.6 240 12:29 26.11.2020
5225 Clouds 8 1020 81 10000 3.6 230 10:39 26.11.2020
5226 Clouds 8 1020 81 10000 3.1 230 10:18 26.11.2020
5227 Clouds 7 1020 81 10000 3.6 220 09:34 26.11.2020
5228 Clouds 6 1020 81 10000 2.6 230 08:47 26.11.2020
5229 Clouds 6 1020 81 10000 2.6 230 08:28 26.11.2020
5230 Clouds 5 1019 86 10000 4.6 230 02:18 26.11.2020
5231 Clear 2 1019 83 10000 3.64 222 21:54 25.11.2020
5232 Clear 2 1018 86 10000 1.5 240 20:32 25.11.2020
5233 Clear 2 1018 86 10000 1.5 230 18:59 25.11.2020
5234 Clear 2 1018 86 10000 1.5 230 18:59 25.11.2020
5235 Clear 4 1018 86 10000 2.7 215 17:29 25.11.2020
5236 Clear 6 1018 70 10000 1 0 15:44 25.11.2020
5237 Clear 7 1018 70 10000 2.1 190 14:58 25.11.2020
5238 Clear 6 1018 75 10000 2.6 160 13:46 25.11.2020
5239 Clear 6 1018 80 10000 2.1 140 12:57 25.11.2020
5240 Clear 2 1018 76 10000 1.5 120 11:24 25.11.2020
5241 Clouds -1 1018 92 6000 2.1 100 09:21 25.11.2020
5242 Clouds -1 1018 92 6000 2.1 100 08:50 25.11.2020
5243 Clouds -1 1018 92 7000 1.5 90 07:41 25.11.2020
5244 Clouds 0 1019 92 5000 1 120 03:49 25.11.2020
5245 Clouds 1 1019 85 7000 1.63 199 01:49 25.11.2020
5246 Clouds 1 1020 86 9000 1 0 00:20 25.11.2020
5247 Clouds 2 1020 86 10000 1.5 180 23:35 24.11.2020
5248 Clouds 1 1021 92 7000 1 0 22:40 24.11.2020
5249 Clouds 2 1021 87 8000 2 192 21:44 24.11.2020
5250 Clouds 3 1021 87 8000 2.33 190 21:26 24.11.2020
5251 Clear 3 1022 87 10000 1 100 20:19 24.11.2020
5252 Clouds 5 1022 81 10000 3.1 230 17:47 24.11.2020
5253 Clouds 5 1022 81 10000 3.1 230 17:27 24.11.2020
5254 Clouds 6 1023 75 10000 4.6 250 16:38 24.11.2020
5255 Clouds 7 1023 75 10000 4.1 240 15:56 24.11.2020
5256 Clouds 8 1023 70 10000 4.1 220 15:20 24.11.2020
5257 Clear 9 1023 70 10000 4.1 220 14:45 24.11.2020
5258 Clear 9 1023 70 10000 4.1 220 14:22 24.11.2020
5259 Clouds 8 1024 75 10000 4.6 220 12:42 24.11.2020
5260 Clouds 8 1024 75 10000 4.6 220 12:21 24.11.2020
5261 Clouds 8 1025 81 10000 4.6 220 11:37 24.11.2020
5262 Clouds 7 1025 83 10000 3.13 0 10:30 24.11.2020
5263 Clouds 6 1025 81 10000 3.6 210 09:53 24.11.2020
5264 Clouds 6 1025 81 10000 2.6 210 09:35 24.11.2020
5265 Clouds 4 1025 86 10000 2.1 220 07:37 24.11.2020
5266 Clouds 2 1026 86 10000 3.1 200 04:19 24.11.2020
5267 Clouds 3 1028 75 10000 2.6 220 22:29 23.11.2020
5268 Clouds 3 1028 86 10000 2.6 260 21:36 23.11.2020
5269 Clouds 4 1028 80 10000 2.6 250 20:50 23.11.2020
5270 Clouds 4 1028 80 10000 3.1 250 20:26 23.11.2020
5271 Clear 4 1028 80 10000 2.6 240 19:20 23.11.2020
5272 Clear 6 1027 81 10000 3.1 240 17:25 23.11.2020
5273 Clouds 8 1027 70 10000 4.6 260 16:28 23.11.2020
5274 Clouds 8 1027 70 10000 4.6 260 16:28 23.11.2020
5275 Clouds 9 1027 66 10000 5.7 270 14:48 23.11.2020
5276 Clouds 10 1026 66 10000 6.7 290 13:33 23.11.2020
5277 Clear 9 1026 75 10000 5.7 270 12:38 23.11.2020
5278 Clear 8 1026 75 10000 5.7 270 11:49 23.11.2020
5279 Clouds 8 1026 75 10000 5.7 260 11:25 23.11.2020
5280 Clouds 6 1025 86 10000 3.6 260 09:42 23.11.2020
5281 Clouds 5 1024 86 10000 3.6 260 08:49 23.11.2020
5282 Clear 5 1023 80 10000 4.1 260 07:34 23.11.2020
5283 Clouds 6 1023 86 10000 2.6 270 01:45 23.11.2020
5284 Clouds 7 1023 87 10000 2.6 270 23:41 22.11.2020
5285 Clouds 8 1023 87 10000 2.1 250 22:19 22.11.2020
5286 Clouds 8 1023 93 10000 2.1 260 21:24 22.11.2020
5287 Clouds 8 1023 87 10000 3.1 260 19:59 22.11.2020
5288 Clouds 8 1023 93 10000 2.1 250 18:59 22.11.2020
5289 Clear 8 1023 87 10000 3.1 260 17:59 22.11.2020
5290 Clear 9 1022 87 10000 4.1 240 16:25 22.11.2020
5291 Clouds 9 1022 87 10000 4.1 240 14:58 22.11.2020
5292 Clouds 9 1023 93 10000 4.6 240 13:27 22.11.2020
5293 Clouds 8 1023 87 10000 5.1 240 12:43 22.11.2020
5294 Clouds 8 1023 93 10000 5.1 240 11:39 22.11.2020
5295 Drizzle 8 1022 87 8000 5.7 240 10:51 22.11.2020
5296 Drizzle 8 1022 87 9000 5.7 230 10:33 22.11.2020
5297 Clouds 7 1023 85 10000 2.24 215 04:39 22.11.2020
5298 Clouds 7 1022 80 10000 2.24 199 00:49 22.11.2020
5299 Clouds 7 1025 79 10000 2.68 183 22:42 21.11.2020
5300 Clouds 7 1023 80 10000 4.47 209 21:32 21.11.2020
5301 Clouds 7 1025 74 10000 4.47 0 20:49 21.11.2020
5302 Clouds 7 1025 73 10000 5.81 0 20:21 21.11.2020
5303 Clouds 7 1026 73 10000 5.81 0 19:49 21.11.2020
5304 Clouds 7 1026 72 10000 5.36 0 19:18 21.11.2020
5305 Clear 7 1026 70 10000 5.1 220 17:32 21.11.2020
5306 Clouds 7 1027 65 10000 6.7 230 16:45 21.11.2020
5307 Clouds 7 1027 65 10000 7.2 230 15:43 21.11.2020
5308 Clouds 7 1027 65 10000 7.2 230 15:20 21.11.2020
5309 Clouds 7 1027 65 10000 6.7 230 14:42 21.11.2020
5310 Clouds 7 1028 65 10000 6.7 230 12:59 21.11.2020
5311 Clouds 6 1028 60 10000 6.2 220 12:23 21.11.2020
5312 Clouds 6 1029 65 10000 5.1 220 11:50 21.11.2020
5313 Clouds 5 1029 65 10000 5.7 220 10:28 21.11.2020
5314 Clear 4 1030 69 10000 6.7 220 09:22 21.11.2020
5315 Clouds 4 1031 78 10000 2.68 195 08:50 21.11.2020
5316 Clouds 1 1032 95 10000 0.89 183 05:43 21.11.2020
5317 Clouds 1 1030 94 10000 3.64 199 03:36 21.11.2020
5318 Clear 1 1034 90 10000 2.1 210 00:23 21.11.2020
5319 Clear 1 1034 91 10000 3.5 217 23:21 20.11.2020
5320 Clear 2 1034 93 10000 0.5 0 21:46 20.11.2020
5321 Clear 2 1034 86 10000 1.5 260 21:26 20.11.2020
5322 Clear 2 1034 86 10000 1.5 260 21:26 20.11.2020
5323 Clouds 2 1033 86 10000 2.1 220 20:42 20.11.2020
5324 Clouds 3 1033 86 10000 2.1 250 19:37 20.11.2020
5325 Clouds 4 1033 93 10000 2.1 270 18:28 20.11.2020
5326 Clouds 4 1033 80 10000 1.5 280 17:32 20.11.2020
5327 Clouds 5 1033 80 10000 2.6 270 16:57 20.11.2020
5328 Clouds 5 1032 80 10000 2.6 270 16:37 20.11.2020
5329 Clouds 5 1032 75 10000 3.6 270 15:48 20.11.2020
5330 Clouds 6 1032 81 10000 4.1 290 14:23 20.11.2020
5331 Clouds 6 1032 86 10000 5.1 280 13:43 20.11.2020
5332 Rain 6 1032 86 10000 3.6 280 12:59 20.11.2020
5333 Clouds 5 1032 86 10000 3.6 280 12:28 20.11.2020
5334 Clouds 5 1031 86 9000 4.1 300 11:39 20.11.2020
5335 Rain 4 1031 86 10000 3.1 290 10:37 20.11.2020
5336 Clouds 3 1030 86 10000 4.1 280 08:36 20.11.2020
5337 Clouds 3 1029 86 10000 3.1 280 07:58 20.11.2020
5338 Clouds 3 1028 80 10000 2.6 280 05:20 20.11.2020
5339 Clouds 3 1028 80 10000 4.1 270 03:43 20.11.2020
5340 Clouds 4 1025 75 10000 4.1 290 22:33 19.11.2020
5341 Clouds 5 1024 75 10000 3.6 280 21:55 19.11.2020
5342 Clear 5 1023 70 10000 4.1 290 20:59 19.11.2020
5343 Clear 5 1023 70 10000 4.1 290 20:30 19.11.2020
5344 Clear 6 1022 75 10000 4.6 290 19:44 19.11.2020
5345 Clear 6 1022 75 10000 4.6 290 19:22 19.11.2020
5346 Clouds 8 1019 75 10000 6.2 320 17:39 19.11.2020
5347 Clouds 8 1018 81 10000 6.2 290 16:48 19.11.2020
5348 Rain 9 1015 82 10000 3.58 251 15:31 19.11.2020
5349 Clouds 10 1016 66 10000 8.7 260 14:31 19.11.2020
5350 Clouds 10 1015 66 10000 10.3 250 13:44 19.11.2020
5351 Clouds 10 1015 66 10000 9.8 260 12:58 19.11.2020
5352 Clouds 11 1015 61 10000 9.3 250 12:34 19.11.2020
5353 Clouds 11 1015 61 10000 6.7 250 11:44 19.11.2020
5354 Clouds 11 1015 61 10000 6.7 250 11:23 19.11.2020
5355 Clouds 10 1015 66 10000 6.7 260 10:52 19.11.2020
5356 Clouds 10 1015 70 10000 5.36 0 09:58 19.11.2020
5357 Clouds 10 1015 72 10000 4.47 0 09:37 19.11.2020
5358 Clouds 10 1014 71 10000 6.7 250 09:18 19.11.2020
5359 Clouds 10 1014 76 10000 8.2 260 08:19 19.11.2020
5360 Clouds 12 1014 62 10000 5.1 240 02:20 19.11.2020
5361 Clouds 12 1014 62 10000 5.7 230 01:30 19.11.2020
5362 Clouds 12 1015 62 10000 5.7 230 23:47 18.11.2020
5363 Clouds 12 1015 62 10000 6.2 220 23:24 18.11.2020
5364 Clouds 12 1016 62 10000 4.6 220 22:30 18.11.2020
5365 Clouds 12 1016 62 10000 5.1 210 21:47 18.11.2020
5366 Clouds 12 1017 66 10000 4.6 210 21:27 18.11.2020
5367 Clouds 11 1017 76 10000 3.1 190 20:41 18.11.2020
5368 Clouds 10 1019 76 10000 3.1 180 19:46 18.11.2020
5369 Clouds 10 1019 76 10000 3.1 180 19:25 18.11.2020
5370 Clouds 10 1019 76 10000 3.1 180 18:49 18.11.2020
5371 Clear 10 1020 76 10000 3.1 190 17:59 18.11.2020
5372 Clear 10 1020 76 10000 2.6 180 17:35 18.11.2020
5373 Clouds 12 1021 66 10000 3.6 210 16:23 18.11.2020
5374 Clouds 13 1022 66 10000 5.1 220 15:22 18.11.2020
5375 Clouds 13 1022 71 10000 4.6 230 14:40 18.11.2020
5376 Clouds 12 1023 71 10000 4.1 230 13:43 18.11.2020
5377 Clouds 12 1023 71 10000 4.1 220 12:54 18.11.2020
5378 Clouds 12 1024 66 10000 4.1 220 12:27 18.11.2020
5379 Clouds 12 1024 66 10000 5.7 230 11:28 18.11.2020
5380 Clouds 12 1025 66 10000 4.6 220 10:31 18.11.2020
5381 Clouds 12 1025 71 10000 4.1 220 09:52 18.11.2020
5382 Clouds 11 1025 76 10000 3.1 220 07:44 18.11.2020
5383 Clouds 11 1025 76 10000 3.1 220 06:33 18.11.2020
5384 Clouds 11 1025 81 10000 4.6 240 00:25 18.11.2020
5385 Clouds 11 1025 87 10000 4.1 240 23:34 17.11.2020
5386 Clouds 11 1025 87 10000 4.1 240 22:49 17.11.2020
5387 Clouds 11 1024 87 10000 4.1 240 22:28 17.11.2020
5388 Clouds 11 1024 87 10000 4.6 230 21:50 17.11.2020
5389 Clouds 11 1024 87 10000 4.6 230 21:50 17.11.2020
5390 Clouds 11 1024 87 10000 4.6 230 21:30 17.11.2020
5391 Clouds 11 1024 87 10000 5.7 230 20:50 17.11.2020
5392 Clouds 11 1024 87 10000 4.1 230 20:25 17.11.2020
5393 Clouds 11 1024 87 10000 5.1 240 19:54 17.11.2020
5394 Clouds 11 1023 87 10000 4.1 240 18:25 17.11.2020
5395 Clouds 11 1023 87 10000 5.1 240 17:40 17.11.2020
5396 Clouds 11 1023 87 10000 5.7 240 16:54 17.11.2020
5397 Clouds 11 1023 87 10000 5.7 240 16:18 17.11.2020
5398 Clouds 11 1023 87 10000 6.2 240 15:40 17.11.2020
5399 Clouds 11 1023 87 10000 6.2 240 15:22 17.11.2020
5400 Clouds 11 1022 87 10000 5.7 240 14:54 17.11.2020
5401 Clouds 11 1022 87 10000 7.2 240 14:22 17.11.2020
5402 Drizzle 11 1022 93 4500 6.2 230 13:35 17.11.2020
5403 Drizzle 11 1022 93 3400 6.7 230 12:48 17.11.2020
5404 Clouds 11 1022 93 7000 6.2 230 12:23 17.11.2020
5405 Clouds 11 1022 87 10000 6.2 230 11:41 17.11.2020
5406 Clouds 11 1021 87 7000 5.1 230 10:46 17.11.2020
5407 Clouds 10 1021 87 7000 5.1 230 10:23 17.11.2020
5408 Clouds 10 1021 81 10000 5.7 230 09:49 17.11.2020
5409 Clouds 11 1021 81 10000 4.1 230 09:24 17.11.2020
5410 Clouds 10 1021 76 10000 3.6 210 08:22 17.11.2020
5411 Clouds 10 1021 76 10000 4.1 220 07:44 17.11.2020
5412 Clouds 9 1020 76 10000 3.1 220 05:21 17.11.2020
5413 Clouds 9 1020 76 10000 5.7 250 03:31 17.11.2020
5414 Clouds 9 1020 76 10000 5.7 260 02:31 17.11.2020
5415 Clouds 10 1020 81 10000 5.1 250 01:23 17.11.2020
5416 Clouds 10 1019 87 10000 3.6 240 00:42 17.11.2020
5417 Clouds 11 1019 81 10000 4.6 230 23:41 16.11.2020
5418 Clouds 11 1019 81 10000 4.6 230 23:22 16.11.2020
5419 Rain 11 1018 81 10000 4.1 250 22:42 16.11.2020
5420 Clouds 11 1018 81 10000 4.1 250 22:20 16.11.2020
5421 Clouds 11 1017 81 10000 5.1 240 21:44 16.11.2020
5422 Clouds 11 1017 81 10000 5.1 240 21:24 16.11.2020
5423 Clouds 11 1017 81 10000 3.6 230 20:37 16.11.2020
5424 Clouds 11 1017 76 10000 4.6 240 20:19 16.11.2020
5425 Clear 11 1016 81 10000 4.1 240 19:38 16.11.2020
5426 Clear 11 1016 81 10000 4.1 240 19:19 16.11.2020
5427 Clouds 11 1016 76 10000 4.6 240 18:29 16.11.2020
5428 Clouds 11 1016 76 10000 4.1 250 17:47 16.11.2020
5429 Clouds 11 1014 71 10000 6.2 250 17:21 16.11.2020
5430 Clouds 11 1014 71 10000 6.2 250 16:53 16.11.2020
5431 Clouds 11 1014 71 10000 5.7 250 16:28 16.11.2020
5432 Clouds 12 1013 66 10000 5.7 250 15:51 16.11.2020
5433 Rain 12 1013 62 10000 6.2 250 15:29 16.11.2020
5434 Rain 12 1013 62 10000 7.2 240 14:57 16.11.2020
5435 Clear 12 1012 62 10000 7.7 240 14:28 16.11.2020
5436 Clouds 12 1012 62 10000 7.2 240 13:31 16.11.2020
5437 Clouds 12 1012 66 10000 6.2 240 12:33 16.11.2020
5438 Clouds 12 1011 70 10000 3.58 0 11:44 16.11.2020
5439 Clouds 12 1011 71 10000 6.2 230 11:25 16.11.2020
5440 Clouds 11 1010 71 10000 6.2 230 10:48 16.11.2020
5441 Clouds 11 1010 71 10000 6.2 230 10:26 16.11.2020
5442 Clouds 11 1010 66 10000 6.2 220 09:59 16.11.2020
5443 Clouds 10 1010 71 10000 4.6 220 09:40 16.11.2020
5444 Clouds 10 1009 71 10000 5.7 220 08:49 16.11.2020
5445 Clouds 10 1009 71 10000 5.7 220 08:27 16.11.2020
5446 Clouds 10 1008 62 10000 4.6 220 07:43 16.11.2020
5447 Clouds 10 1008 62 10000 4.6 220 07:43 16.11.2020
5448 Clouds 10 1008 66 10000 4.1 210 06:47 16.11.2020
5449 Clouds 10 1007 66 10000 3.6 210 05:53 16.11.2020
5450 Clouds 10 1007 71 10000 2.6 180 04:36 16.11.2020
5451 Clouds 10 1006 81 10000 3.1 210 01:47 16.11.2020
5452 Clouds 10 1006 81 10000 3.1 210 01:21 16.11.2020
5453 Rain 13 1004 62 10000 3.6 160 23:48 15.11.2020
5454 Rain 14 1004 67 10000 3.6 140 23:21 15.11.2020
5455 Rain 13 1004 67 10000 4.6 150 22:40 15.11.2020
5456 Rain 13 1004 67 10000 4.6 150 22:18 15.11.2020
5457 Clouds 14 1004 62 10000 4.6 140 21:43 15.11.2020
5458 Rain 14 1004 62 10000 4.6 140 21:22 15.11.2020
5459 Clouds 14 1005 71 10000 3.1 140 20:41 15.11.2020
5460 Clouds 14 1005 71 10000 3.1 140 20:18 15.11.2020
5461 Clouds 14 1005 62 10000 5.1 160 19:48 15.11.2020
5462 Clear 13 1005 62 10000 4.6 150 19:22 15.11.2020
5463 Clear 13 1006 62 10000 4.1 140 18:56 15.11.2020
5464 Clear 13 1006 67 10000 4.6 140 18:38 15.11.2020
5465 Clear 13 1006 67 10000 4.6 140 18:19 15.11.2020
5466 Clear 13 1007 67 10000 4.1 130 17:44 15.11.2020
5467 Clear 13 1007 67 10000 4.1 130 17:44 15.11.2020
5468 Clear 13 1007 67 10000 4.1 130 17:23 15.11.2020
5469 Clear 13 1007 67 10000 4.1 120 16:46 15.11.2020
5470 Clear 14 1007 71 10000 3.1 120 16:20 15.11.2020
5471 Clear 14 1008 67 10000 3.1 130 15:50 15.11.2020
5472 Clear 15 1008 67 10000 3.6 140 15:28 15.11.2020
5473 Clear 16 1009 67 10000 3.1 130 14:58 15.11.2020
5474 Clear 16 1009 63 10000 3.6 170 14:31 15.11.2020
5475 Clear 16 1009 67 10000 5.1 160 13:57 15.11.2020
5476 Clear 16 1010 63 10000 4.6 170 13:36 15.11.2020
5477 Clear 15 1009 67 10000 5.7 180 12:52 15.11.2020
5478 Clear 15 1010 67 10000 5.1 170 12:25 15.11.2020
5479 Clear 15 1010 62 10000 4.1 170 11:47 15.11.2020
5480 Clear 15 1011 62 10000 3.1 160 11:21 15.11.2020
5481 Clear 15 1011 62 10000 2.6 170 10:59 15.11.2020
5482 Clear 14 1012 67 10000 1.5 0 10:41 15.11.2020
5483 Clear 14 1012 67 10000 1.5 0 10:23 15.11.2020
5484 Clear 14 1012 67 10000 5.7 200 09:41 15.11.2020
5485 Clear 14 1012 67 10000 5.7 200 09:19 15.11.2020
5486 Clouds 14 1012 67 10000 2.6 170 08:51 15.11.2020
5487 Clouds 13 1012 67 10000 3.6 190 08:22 15.11.2020
5488 Clouds 13 1012 67 10000 5.7 220 07:38 15.11.2020
5489 Clouds 13 1012 71 10000 3.6 220 04:58 15.11.2020
5490 Clouds 13 1013 67 10000 3.6 200 03:40 15.11.2020
5491 Clouds 11 1014 81 10000 1 0 00:49 15.11.2020
5492 Clouds 10 1014 76 10000 2.1 120 00:27 15.11.2020
5493 Clouds 10 1014 76 10000 2.1 160 23:37 14.11.2020
5494 Clouds 11 1015 71 10000 2.1 130 22:50 14.11.2020
5495 Clouds 11 1015 71 10000 2.6 190 22:30 14.11.2020
5496 Clouds 10 1015 76 10000 2.1 130 21:43 14.11.2020
5497 Clouds 11 1015 76 10000 2.1 130 21:22 14.11.2020
5498 Clouds 11 1015 87 10000 2.1 130 20:57 14.11.2020
5499 Clouds 11 1015 87 10000 2.1 130 20:28 14.11.2020
5500 Clouds 11 1015 76 10000 2.6 140 19:52 14.11.2020
5501 Clouds 11 1015 76 10000 3.1 150 19:32 14.11.2020
5502 Clouds 11 1015 81 10000 2.1 100 18:44 14.11.2020
5503 Clouds 11 1015 81 10000 2.1 100 18:25 14.11.2020
5504 Clear 11 1015 87 10000 2.1 100 17:58 14.11.2020
5505 Clear 12 1016 82 10000 2.1 100 17:40 14.11.2020
5506 Clear 12 1016 82 10000 2.1 100 17:19 14.11.2020
5507 Clear 13 1016 76 10000 2.1 170 16:43 14.11.2020
5508 Clear 13 1016 76 10000 2.1 170 16:20 14.11.2020
5509 Clear 14 1016 72 10000 3.6 180 15:52 14.11.2020
5510 Clear 15 1016 72 10000 2.1 150 15:27 14.11.2020
5511 Clear 15 1016 72 10000 2.6 190 14:49 14.11.2020
5512 Clouds 15 1017 76 10000 3.1 220 14:26 14.11.2020
5513 Clear 15 1017 72 10000 3.6 220 13:49 14.11.2020
5514 Clouds 14 1017 76 10000 3.6 230 13:26 14.11.2020
5515 Clear 15 1017 72 10000 3.6 230 12:48 14.11.2020
5516 Clear 15 1017 72 10000 3.6 220 12:30 14.11.2020
5517 Clouds 14 1018 76 10000 3.6 210 11:48 14.11.2020
5518 Clouds 14 1018 82 10000 2.6 210 11:30 14.11.2020
5519 Clouds 13 1017 82 10000 4.1 220 10:50 14.11.2020
5520 Clear 12 1018 87 10000 3.1 210 10:27 14.11.2020
5521 Clear 12 1018 87 10000 3.1 210 10:27 14.11.2020
5522 Clear 12 1018 87 10000 2.1 190 09:58 14.11.2020
5523 Clouds 11 1018 81 10000 2.1 200 09:39 14.11.2020
5524 Clouds 11 1018 81 10000 2.1 200 09:21 14.11.2020
5525 Clouds 11 1017 87 10000 2.1 210 08:40 14.11.2020
5526 Clouds 11 1017 87 10000 1 0 07:55 14.11.2020
5527 Clouds 11 1017 81 10000 1.5 220 07:36 14.11.2020
5528 Clouds 10 1017 87 10000 2.1 220 06:38 14.11.2020
5529 Clouds 10 1017 87 10000 2.1 220 06:20 14.11.2020
5530 Clouds 11 1017 81 10000 3.6 210 04:39 14.11.2020
5531 Clouds 11 1017 87 10000 2.6 230 01:29 14.11.2020
5532 Clouds 11 1017 87 10000 2.1 240 00:24 14.11.2020
5533 Clouds 11 1017 87 10000 3.1 240 23:33 13.11.2020
5534 Clouds 12 1017 81 10000 4.6 240 22:58 13.11.2020
5535 Clouds 12 1016 76 10000 2.6 220 22:39 13.11.2020
5536 Rain 12 1016 76 10000 2.6 220 22:20 13.11.2020
5537 Clouds 11 1016 81 10000 3.1 230 21:44 13.11.2020
5538 Clouds 11 1016 81 10000 3.1 230 21:23 13.11.2020
5539 Rain 11 1016 81 10000 1 190 20:51 13.11.2020
5540 Clouds 10 1016 81 10000 2.1 160 20:32 13.11.2020
5541 Clear 10 1016 81 10000 1 0 19:55 13.11.2020
5542 Clear 10 1016 81 10000 1 0 19:36 13.11.2020
5543 Clear 9 1016 81 10000 1 0 19:18 13.11.2020
5544 Clear 9 1016 87 10000 1.5 140 18:32 13.11.2020
5545 Clouds 9 1016 76 10000 1.5 200 17:44 13.11.2020
5546 Clouds 10 1016 76 10000 1.5 200 17:21 13.11.2020
5547 Clouds 10 1016 76 10000 2.6 200 16:57 13.11.2020
5548 Clear 10 1016 76 10000 2.6 200 16:39 13.11.2020
5549 Clear 10 1016 76 10000 2.6 200 16:20 13.11.2020
5550 Clouds 11 1017 76 10000 4.6 220 15:39 13.11.2020
5551 Clouds 11 1017 76 10000 4.6 220 15:21 13.11.2020
5552 Clouds 11 1017 76 10000 4.6 210 14:38 13.11.2020
5553 Clouds 11 1018 76 10000 4.6 230 14:18 13.11.2020
5554 Clouds 11 1018 76 10000 4.6 230 14:18 13.11.2020
5555 Clouds 11 1018 71 10000 4.6 240 13:32 13.11.2020
5556 Clear 11 1018 66 10000 3.6 200 12:59 13.11.2020
5557 Clear 11 1018 71 10000 3.6 200 12:40 13.11.2020
5558 Clear 11 1018 71 10000 3.6 200 12:22 13.11.2020
5559 Clear 11 1018 71 10000 3.6 190 11:47 13.11.2020
5560 Clear 10 1019 81 10000 3.1 170 11:23 13.11.2020
5561 Clear 9 1019 81 10000 3.1 170 10:52 13.11.2020
5562 Clear 8 1019 81 10000 3.1 170 10:33 13.11.2020
5563 Clear 7 1019 87 10000 2.6 160 09:53 13.11.2020
5564 Clear 7 1019 81 10000 2.6 160 09:32 13.11.2020
5565 Clear 6 1019 87 10000 2.6 160 08:54 13.11.2020
5566 Clear 5 1019 93 10000 2.1 160 08:30 13.11.2020
5567 Clear 5 1019 86 10000 1 0 07:51 13.11.2020
5568 Clear 5 1019 86 10000 2.1 150 07:29 13.11.2020
5569 Clouds 5 1019 93 10000 1 0 06:57 13.11.2020
5570 Clouds 5 1019 93 10000 1 0 06:37 13.11.2020
5571 Clear 6 1019 87 10000 2.6 200 05:42 13.11.2020
5572 Clouds 8 1019 81 10000 3.6 210 04:24 13.11.2020
5573 Clouds 9 1019 81 10000 3.6 230 01:43 13.11.2020
5574 Clear 9 1019 81 10000 3.6 230 00:37 13.11.2020
5575 Clear 9 1019 76 10000 3.1 240 23:59 12.11.2020
5576 Clear 9 1019 81 10000 3.1 230 23:36 12.11.2020
5577 Clear 9 1019 76 10000 3.6 230 23:18 12.11.2020
5578 Clouds 9 1019 81 10000 3.1 220 22:41 12.11.2020
5579 Clouds 9 1019 81 10000 2.6 210 22:20 12.11.2020
5580 Clouds 8 1019 87 10000 2.6 200 21:41 12.11.2020
5581 Clouds 8 1019 87 10000 2.6 200 21:23 12.11.2020
5582 Clouds 8 1019 87 10000 2.6 200 20:57 12.11.2020
5583 Clouds 8 1018 87 10000 2.6 200 20:38 12.11.2020
5584 Clouds 8 1018 81 10000 2.6 190 20:18 12.11.2020
5585 Clear 8 1018 81 10000 2.1 180 19:42 12.11.2020
5586 Clear 8 1018 81 10000 2.1 180 19:24 12.11.2020
5587 Clear 8 1018 81 10000 3.1 200 18:48 12.11.2020
5588 Clear 8 1018 81 10000 3.6 210 18:22 12.11.2020
5589 Clear 8 1018 81 10000 4.1 210 17:45 12.11.2020
5590 Clear 9 1018 81 10000 4.1 210 17:26 12.11.2020
5591 Clouds 10 1018 76 10000 3.6 210 16:46 12.11.2020
5592 Clouds 10 1018 76 10000 3.6 210 16:25 12.11.2020
5593 Clouds 10 1018 76 10000 3.6 210 15:57 12.11.2020
5594 Clouds 10 1017 76 10000 4.1 210 15:39 12.11.2020
5595 Clouds 10 1017 76 10000 4.1 210 15:20 12.11.2020
5596 Clouds 10 1017 76 10000 3.6 200 14:43 12.11.2020
5597 Clouds 10 1017 76 10000 3.6 200 14:25 12.11.2020
5598 Clouds 10 1017 76 10000 5.7 210 13:49 12.11.2020
5599 Clouds 10 1018 76 10000 6.7 220 13:21 12.11.2020
5600 Clouds 10 1018 100 10000 4.6 0 12:59 12.11.2020
5601 Clouds 10 1018 100 10000 2.1 170 12:39 12.11.2020
5602 Clear 8 1018 100 10000 2.1 120 12:18 12.11.2020
5603 Clouds 7 1018 100 10000 1.5 90 11:45 12.11.2020
5604 Clouds 7 1018 100 10000 1.5 90 11:26 12.11.2020
5605 Clouds 6 1018 100 6000 3.1 110 10:41 12.11.2020
5606 Clouds 7 1018 100 6000 3.1 110 10:23 12.11.2020
5607 Fog 6 1018 100 550 2.1 120 09:46 12.11.2020
5608 Fog 5 1018 100 550 2.1 120 09:22 12.11.2020
5609 Fog 5 1018 100 300 2.1 171 08:57 12.11.2020
5610 Fog 5 1018 100 400 1 0 08:39 12.11.2020
5611 Fog 4 1018 100 400 1 0 08:19 12.11.2020
5612 Fog 4 1019 100 350 1.5 140 07:42 12.11.2020
5613 Fog 4 1019 100 350 1.5 140 07:19 12.11.2020
5614 Clear 4 1016 97 10000 0.45 115 06:49 12.11.2020
5615 Clear 5 1020 96 10000 0.45 95 05:31 12.11.2020
5616 Clear 6 1020 95 10000 0.89 113 03:22 12.11.2020
5617 Clear 6 1021 95 10000 0.89 135 02:24 12.11.2020
5618 Clouds 7 1022 95 10000 0.89 95 23:59 11.11.2020
5619 Clouds 6 1022 93 10000 0.89 0 23:25 11.11.2020
5620 Clouds 7 1022 93 10000 0.89 0 22:59 11.11.2020
5621 Clouds 7 1022 93 10000 0.45 0 22:39 11.11.2020
5622 Clouds 7 1022 93 10000 1.34 0 22:21 11.11.2020
5623 Clouds 7 1022 93 10000 2.24 0 21:54 11.11.2020
5624 Clouds 7 1022 92 10000 2.24 0 21:36 11.11.2020
5625 Fog 7 1023 100 900 2.1 130 21:18 11.11.2020
5626 Fog 7 1023 100 900 2.1 130 20:41 11.11.2020
5627 Fog 7 1023 100 900 2.1 130 20:21 11.11.2020
5628 Fog 7 1023 100 650 2.6 120 19:49 11.11.2020
5629 Fog 7 1024 100 600 2.1 110 19:31 11.11.2020
5630 Clouds 8 1024 93 900 2.1 130 18:55 11.11.2020
5631 Clouds 8 1024 93 1200 1 0 18:36 11.11.2020
5632 Drizzle 8 1024 87 1600 1.5 110 17:45 11.11.2020
5633 Drizzle 8 1024 87 1600 1.5 110 17:24 11.11.2020
5634 Drizzle 8 1024 87 2100 1 150 16:57 11.11.2020
5635 Drizzle 8 1024 87 2600 1.5 210 16:37 11.11.2020
5636 Drizzle 8 1024 87 2600 1.5 210 16:19 11.11.2020
5637 Clouds 9 1024 81 9000 2.6 150 15:39 11.11.2020
5638 Clouds 9 1024 81 9000 2.6 150 15:21 11.11.2020
5639 Clouds 8 1024 87 10000 2.1 150 14:43 11.11.2020
5640 Clouds 8 1024 87 10000 2.1 150 14:23 11.11.2020
5641 Clouds 8 1025 93 10000 2.6 120 13:48 11.11.2020
5642 Clouds 8 1025 93 10000 2.6 120 13:23 11.11.2020
5643 Clouds 7 1026 93 9000 2.1 150 12:21 11.11.2020
5644 Clouds 6 1026 93 9000 2.1 150 11:51 11.11.2020
5645 Clouds 6 1026 100 7000 2.1 150 11:33 11.11.2020
5646 Clouds 6 1026 93 6000 2.1 140 10:56 11.11.2020
5647 Clouds 6 1026 93 6000 1.5 150 10:37 11.11.2020
5648 Clouds 5 1026 93 6000 1.5 150 10:18 11.11.2020
5649 Clouds 5 1026 100 5000 1 0 09:42 11.11.2020
5650 Clouds 5 1026 100 5000 1 0 09:21 11.11.2020
5651 Clouds 4 1026 93 5000 1.5 140 08:43 11.11.2020
5652 Clouds 4 1026 93 5000 1.5 140 08:25 11.11.2020
5653 Mist 4 1026 93 4800 1.5 140 07:46 11.11.2020
5654 Clouds 4 1026 93 3500 1.5 130 06:33 11.11.2020
5655 Clouds 4 1026 93 3300 1.5 130 05:46 11.11.2020
5656 Clouds 3 1027 93 3600 2.1 120 01:59 11.11.2020
5657 Clouds 3 1028 86 3100 1.5 150 00:58 11.11.2020
5658 Clouds 3 1027 86 1400 2.1 140 00:25 11.11.2020
5659 Clouds 3 1028 86 2300 2.6 150 23:42 10.11.2020
5660 Clouds 3 1028 86 2300 2.6 150 23:23 10.11.2020
5661 Mist 3 1028 93 4800 1.5 160 22:51 10.11.2020
5662 Mist 3 1028 93 5000 1.5 160 22:27 10.11.2020
5663 Clouds 3 1028 86 6000 1.5 130 21:43 10.11.2020
5664 Clouds 3 1028 86 6000 1.5 130 21:25 10.11.2020
5665 Clouds 3 1028 86 6000 2.1 140 20:58 10.11.2020
5666 Clouds 3 1028 86 6000 1 0 20:40 10.11.2020
5667 Clouds 3 1028 86 6000 1 0 20:22 10.11.2020
5668 Clouds 3 1028 93 6000 1.5 130 19:47 10.11.2020
5669 Clouds 3 1028 92 10000 1.34 0 19:28 10.11.2020
5670 Clouds 3 1028 93 6000 2.6 140 18:58 10.11.2020
5671 Mist 3 1027 93 4900 4.1 130 18:39 10.11.2020
5672 Mist 3 1028 93 4500 4.6 120 18:18 10.11.2020
5673 Clouds 4 1028 86 6000 4.6 120 17:43 10.11.2020
5674 Clouds 4 1028 86 6000 4.6 120 17:25 10.11.2020
5675 Mist 4 1027 86 5000 4.1 100 16:44 10.11.2020
5676 Mist 5 1027 86 5000 4.1 100 16:24 10.11.2020
5677 Clouds 5 1027 93 6000 3.1 120 15:57 10.11.2020
5678 Clouds 5 1027 86 5000 3.6 130 15:38 10.11.2020
5679 Clouds 5 1027 86 5000 3.6 130 15:20 10.11.2020
5680 Clouds 6 1028 86 6000 3.6 120 14:41 10.11.2020
5681 Clouds 6 1028 86 6000 3.6 120 14:22 10.11.2020
5682 Mist 6 1027 86 5000 3.6 140 13:54 10.11.2020
5683 Mist 6 1028 86 5000 4.1 130 13:36 10.11.2020
5684 Mist 6 1028 86 5000 3.6 100 13:18 10.11.2020
5685 Mist 5 1028 86 4200 4.1 110 12:44 10.11.2020
5686 Mist 6 1028 86 4200 4.1 110 12:23 10.11.2020
5687 Clouds 5 1028 86 5000 3.1 150 11:39 10.11.2020
5688 Clouds 5 1028 86 5000 3.1 150 11:20 10.11.2020
5689 Mist 5 1027 86 3900 3.6 110 10:44 10.11.2020
5690 Mist 5 1027 86 3900 3.6 110 10:26 10.11.2020
5691 Mist 5 1027 86 3900 3.6 110 09:51 10.11.2020
5692 Mist 5 1027 86 3900 3.1 120 09:27 10.11.2020
5693 Mist 5 1027 86 3600 3.1 140 08:59 10.11.2020
5694 Mist 5 1027 86 3900 2.6 140 08:40 10.11.2020
5695 Mist 5 1027 86 3900 2.6 140 08:22 10.11.2020
5696 Mist 5 1027 86 4700 2.1 150 07:39 10.11.2020
5697 Mist 5 1027 86 4700 2.1 150 07:20 10.11.2020
5698 Clouds 5 1027 86 4600 3.1 140 06:38 10.11.2020
5699 Clear 5 1026 86 4200 3.6 110 05:34 10.11.2020
5700 Clear 5 1027 86 4600 3.1 130 04:36 10.11.2020
5701 Clear 5 1027 86 4400 4.1 110 01:41 10.11.2020
5702 Clouds 5 1027 86 5000 4.1 120 00:55 10.11.2020
5703 Clouds 5 1027 86 5000 4.1 110 23:51 09.11.2020
5704 Clouds 5 1027 86 4800 3.6 100 23:23 09.11.2020
5705 Clouds 5 1026 93 5000 3.6 120 22:42 09.11.2020
5706 Clouds 5 1026 93 5000 3.6 120 22:23 09.11.2020
5707 Clouds 5 1026 87 5000 4.6 110 21:45 09.11.2020
5708 Clouds 5 1026 87 5000 4.6 110 21:27 09.11.2020
5709 Mist 6 1026 87 5000 4.1 130 20:45 09.11.2020
5710 Mist 6 1026 87 5000 4.1 130 20:22 09.11.2020
5711 Mist 6 1026 87 5000 4.1 130 19:57 09.11.2020
5712 Mist 6 1026 87 4700 4.6 120 19:39 09.11.2020
5713 Mist 6 1026 87 5000 4.1 130 19:19 09.11.2020
5714 Mist 6 1026 87 4900 4.6 110 18:41 09.11.2020
5715 Mist 6 1026 87 4600 4.1 120 18:20 09.11.2020
5716 Mist 6 1026 87 4400 4.6 110 17:48 09.11.2020
5717 Mist 6 1026 87 4400 4.6 110 17:29 09.11.2020
5718 Mist 6 1026 87 4000 4.1 90 16:46 09.11.2020
5719 Mist 6 1026 87 4000 4.1 90 16:27 09.11.2020
5720 Mist 6 1025 87 4500 3.1 110 15:51 09.11.2020
5721 Mist 7 1025 87 4500 3.1 110 15:30 09.11.2020
5722 Mist 7 1025 87 5000 4.1 90 14:57 09.11.2020
5723 Mist 7 1025 81 5000 4.1 100 14:37 09.11.2020
5724 Mist 7 1025 81 5000 4.1 100 14:19 09.11.2020
5725 Mist 7 1026 93 5000 3.6 100 13:43 09.11.2020
5726 Clouds 7 1026 93 6000 3.1 110 13:19 09.11.2020
5727 Mist 5 1026 93 2500 3.1 110 12:47 09.11.2020
5728 Mist 5 1026 93 2500 3.1 110 12:21 09.11.2020
5729 Clouds 5 1026 93 5000 3.6 90 11:55 09.11.2020
5730 Clouds 5 1026 93 5000 3.1 110 11:36 09.11.2020
5731 Mist 4 1026 93 4300 4.1 110 11:18 09.11.2020
5732 Mist 4 1026 93 4000 4.1 100 10:41 09.11.2020
5733 Mist 5 1026 93 4000 4.1 100 10:22 09.11.2020
5734 Mist 4 1026 93 2200 3.1 100 09:41 09.11.2020
5735 Mist 4 1026 93 2200 3.1 100 09:23 09.11.2020
5736 Mist 4 1025 93 2500 3.1 110 08:39 09.11.2020
5737 Mist 3 1025 93 3900 3.6 100 08:19 09.11.2020
5738 Mist 4 1025 93 3500 2.1 90 07:40 09.11.2020
5739 Mist 4 1025 93 3500 2.1 90 07:19 09.11.2020
5740 Clouds 3 1025 93 3200 2.1 110 06:31 09.11.2020
5741 Clouds 4 1025 93 650 2.1 90 03:22 09.11.2020
5742 Clouds 4 1024 93 1200 2.1 110 01:43 09.11.2020
5743 Clouds 4 1025 93 1000 2.1 100 00:59 09.11.2020
5744 Clouds 5 1025 93 3800 2.1 100 23:53 08.11.2020
5745 Clouds 5 1025 93 3800 2.1 100 23:53 08.11.2020
5746 Clouds 5 1025 93 2300 1.5 90 23:30 08.11.2020
5747 Clouds 5 1024 93 3500 1 110 22:55 08.11.2020
5748 Clouds 5 1024 93 1200 1.5 110 22:36 08.11.2020
5749 Clouds 6 1024 87 5000 2.1 90 22:18 08.11.2020
5750 Clouds 6 1024 87 1700 2.1 100 21:38 08.11.2020
5751 Clouds 6 1024 87 1700 2.1 100 21:19 08.11.2020
5752 Clouds 6 1024 87 4500 2.6 100 20:54 08.11.2020
5753 Clear 7 1024 87 10000 1.5 100 20:36 08.11.2020
5754 Clear 7 1024 93 10000 2.1 80 20:18 08.11.2020
5755 Clear 7 1024 93 10000 1 0 19:42 08.11.2020
5756 Clear 8 1024 93 10000 1 0 19:21 08.11.2020
5757 Clear 8 1024 93 10000 0.5 90 18:48 08.11.2020
5758 Clear 8 1024 93 10000 0.5 90 18:48 08.11.2020
5759 Clear 8 1024 87 10000 2.37 118 18:22 08.11.2020
5760 Clear 9 1023 81 10000 2.37 118 17:58 08.11.2020
5761 Clear 10 1023 76 10000 1 0 17:39 08.11.2020
5762 Clear 10 1023 76 10000 1 0 17:19 08.11.2020
5763 Clear 11 1023 76 10000 1.5 120 16:56 08.11.2020
5764 Clear 12 1023 66 10000 2.6 100 16:37 08.11.2020
5765 Clear 12 1023 66 10000 2.6 100 16:18 08.11.2020
5766 Clear 14 1023 54 10000 1.5 90 15:43 08.11.2020
5767 Clear 14 1023 54 10000 1.5 90 15:23 08.11.2020
5768 Clear 14 1024 58 10000 1.5 90 14:42 08.11.2020
5769 Clear 14 1024 58 10000 1.5 90 14:23 08.11.2020
5770 Clear 14 1024 54 10000 2.6 100 13:47 08.11.2020
5771 Clear 14 1024 54 10000 0.5 0 13:24 08.11.2020
5772 Clear 13 1024 58 10000 1 0 12:47 08.11.2020
5773 Clear 13 1024 58 10000 1 0 12:29 08.11.2020
5774 Clear 12 1024 62 10000 1 0 11:58 08.11.2020
5775 Clear 11 1024 66 10000 1 0 11:40 08.11.2020
5776 Clear 10 1024 66 10000 1 0 11:22 08.11.2020
5777 Clear 9 1024 87 10000 1 0 10:51 08.11.2020
5778 Clear 7 1024 93 10000 1.5 110 10:20 08.11.2020
5779 Clear 5 1024 93 10000 1 110 09:59 08.11.2020
5780 Clear 5 1024 93 10000 1.5 90 09:41 08.11.2020
5781 Clear 4 1024 86 8000 1.5 80 09:18 08.11.2020
5782 Clear 3 1024 86 3900 1 100 08:42 08.11.2020
5783 Clear 3 1024 86 3900 1 100 08:21 08.11.2020
5784 Clear 3 1024 86 3900 1 100 08:21 08.11.2020
5785 Clear 2 1024 93 8000 1.5 110 07:53 08.11.2020
5786 Clear 2 1023 93 9000 1.5 100 07:30 08.11.2020
5787 Clear 3 1023 93 5000 2.1 100 06:27 08.11.2020
5788 Clear 2 1024 93 8000 0.5 90 05:54 08.11.2020
5789 Clear 3 1023 86 6000 1 90 04:50 08.11.2020
5790 Clear 3 1023 93 5000 2.1 100 02:20 08.11.2020
5791 Clouds 4 1023 93 6000 2.1 100 01:19 08.11.2020
5792 Clouds 4 1023 93 6000 2.1 100 01:19 08.11.2020
5793 Clouds 4 1023 93 6000 2.1 100 01:19 08.11.2020
5794 Clouds 4 1024 86 5000 2.1 100 00:31 08.11.2020
5795 Clouds 5 1024 86 5000 1 100 23:51 07.11.2020
5796 Clouds 5 1024 86 6000 0.5 0 23:31 07.11.2020
5797 Clouds 5 1024 93 8000 1 0 22:48 07.11.2020
5798 Clear 5 1024 93 6000 1.74 202 22:28 07.11.2020
5799 Clear 6 1024 87 2400 1.5 100 21:58 07.11.2020
5800 Clear 6 1024 93 4900 1.5 100 21:40 07.11.2020
5801 Clear 6 1024 93 7000 1 90 21:19 07.11.2020
5802 Clear 7 1024 93 7000 1 90 20:46 07.11.2020
5803 Clear 7 1024 87 8000 1.5 90 20:28 07.11.2020
5804 Clear 7 1024 87 10000 1.5 80 19:48 07.11.2020
5805 Clear 7 1024 87 10000 1.5 100 19:27 07.11.2020
5806 Clear 8 1024 87 10000 1.5 208 18:45 07.11.2020
5807 Clear 8 1024 87 10000 1.54 216 18:26 07.11.2020
5808 Clear 8 1024 81 10000 1.5 100 17:57 07.11.2020
5809 Clear 9 1024 76 10000 1 0 17:37 07.11.2020
5810 Clear 10 1024 66 10000 1 0 16:54 07.11.2020
5811 Clear 11 1024 62 10000 1.5 160 16:36 07.11.2020
5812 Clear 12 1025 58 10000 1 0 16:18 07.11.2020
5813 Clear 12 1025 58 10000 1.5 110 15:41 07.11.2020
5814 Clear 12 1025 58 10000 1.5 110 15:22 07.11.2020
5815 Clear 13 1025 62 10000 1.5 90 14:45 07.11.2020
5816 Clear 12 1025 62 10000 1.5 90 14:26 07.11.2020
5817 Clear 12 1025 66 10000 2.1 130 13:56 07.11.2020
5818 Clear 12 1026 66 10000 2.6 150 13:31 07.11.2020
5819 Clear 11 1026 66 10000 2.1 150 12:52 07.11.2020
5820 Clear 10 1026 70 10000 1.5 100 12:26 07.11.2020
5821 Clear 8 1027 93 10000 2.1 130 11:45 07.11.2020
5822 Clear 8 1027 93 10000 2.1 130 11:23 07.11.2020
5823 Clouds 7 1027 93 8000 1.5 130 10:46 07.11.2020
5824 Clouds 6 1027 93 8000 1.5 130 10:27 07.11.2020
5825 Clouds 6 1027 93 8000 1.5 140 09:57 07.11.2020
5826 Mist 4 1027 93 4200 1.5 110 09:37 07.11.2020
5827 Mist 4 1028 93 4300 1 0 08:56 07.11.2020
5828 Clouds 4 1028 93 5000 1.46 158 08:37 07.11.2020
5829 Clouds 4 1027 93 6000 1.5 150 07:56 07.11.2020
5830 Clouds 4 1027 93 5000 0.5 0 07:32 07.11.2020
5831 Clear 4 1027 93 5000 1 150 06:48 07.11.2020
5832 Clear 4 1028 100 4100 2.6 130 05:37 07.11.2020
5833 Clear 6 1029 93 4400 1.5 150 03:25 07.11.2020
5834 Clear 7 1030 93 5000 3.6 110 01:45 07.11.2020
5835 Clear 7 1030 100 4500 3.1 130 01:25 07.11.2020
5836 Clear 8 1030 93 5000 2.6 100 00:28 07.11.2020
5837 Clear 8 1031 93 2700 3.1 120 23:30 06.11.2020
5838 Clear 8 1031 93 5000 2.6 100 22:46 06.11.2020
5839 Clear 8 1031 93 5000 2.6 100 22:20 06.11.2020
5840 Clear 8 1032 93 3700 2.1 130 21:59 06.11.2020
5841 Clear 8 1032 93 1500 2.1 150 21:41 06.11.2020
5842 Clear 8 1032 93 1500 2.1 150 21:20 06.11.2020
5843 Clouds 8 1032 93 2500 2.1 170 20:44 06.11.2020
5844 Clouds 8 1032 93 2500 2.1 170 20:20 06.11.2020
5845 Clouds 8 1032 93 2000 2.1 130 19:45 06.11.2020
5846 Clouds 8 1032 93 2000 2.1 130 19:27 06.11.2020
5847 Clouds 8 1032 93 2300 2.1 130 18:56 06.11.2020
5848 Clouds 9 1032 87 4800 1.5 120 18:38 06.11.2020
5849 Clouds 9 1032 87 4800 1.5 120 18:19 06.11.2020
5850 Clouds 9 1033 87 7000 1.5 90 17:42 06.11.2020
5851 Clouds 9 1033 87 7000 1.5 90 17:24 06.11.2020
5852 Clouds 9 1033 93 10000 1 0 16:43 06.11.2020
5853 Clouds 9 1033 93 10000 1 0 16:22 06.11.2020
5854 Clouds 9 1033 93 10000 1 0 15:47 06.11.2020
5855 Clouds 10 1033 93 10000 1 0 15:26 06.11.2020
5856 Clouds 10 1034 87 10000 1 0 14:50 06.11.2020
5857 Clouds 10 1034 87 9000 1.5 320 14:23 06.11.2020
5858 Clouds 10 1034 93 10000 2.6 320 13:42 06.11.2020
5859 Clouds 10 1034 93 10000 2.6 320 13:21 06.11.2020
5860 Clouds 9 1035 93 10000 2.1 300 12:43 06.11.2020
5861 Clouds 9 1035 93 10000 2.1 300 12:23 06.11.2020
5862 Clouds 9 1035 93 10000 2.6 280 11:40 06.11.2020
5863 Clouds 9 1035 93 10000 2.6 280 11:21 06.11.2020
5864 Clouds 9 1035 87 7000 2.1 290 10:38 06.11.2020
5865 Clouds 9 1035 87 7000 2.1 290 10:19 06.11.2020
5866 Clouds 8 1035 93 6000 2.1 280 09:46 06.11.2020
5867 Clouds 8 1035 93 5000 2.1 260 09:21 06.11.2020
5868 Mist 8 1035 93 4500 2.6 300 08:49 06.11.2020
5869 Mist 8 1035 87 4700 3.1 270 08:28 06.11.2020
5870 Mist 8 1035 87 4500 2.6 260 07:49 06.11.2020
5871 Clouds 8 1035 87 7000 2.6 260 07:30 06.11.2020
5872 Clouds 8 1035 87 8000 2.6 250 06:51 06.11.2020
5873 Clouds 8 1035 87 5000 2.6 260 05:44 06.11.2020
5874 Clouds 8 1035 87 8000 2.6 260 03:46 06.11.2020
5875 Clouds 8 1036 81 10000 3.1 260 00:51 06.11.2020
5876 Clouds 8 1036 81 10000 2.6 260 00:19 06.11.2020
5877 Clouds 8 1036 81 10000 2.6 260 23:31 05.11.2020
5878 Clouds 8 1036 87 10000 3.1 260 22:58 05.11.2020
5879 Clouds 8 1036 87 10000 3.1 260 22:37 05.11.2020
5880 Clouds 8 1036 87 10000 3.1 250 22:19 05.11.2020
5881 Clouds 7 1036 87 10000 3.1 250 21:43 05.11.2020
5882 Clouds 7 1036 87 10000 3.1 250 21:22 05.11.2020
5883 Clouds 7 1036 87 10000 2.6 250 20:55 05.11.2020
5884 Clouds 6 1036 87 10000 3.1 250 20:37 05.11.2020
5885 Clear 7 1036 87 10000 3.6 250 20:18 05.11.2020
5886 Clear 7 1036 87 10000 3.1 240 19:41 05.11.2020
5887 Clear 7 1036 87 10000 3.1 240 19:23 05.11.2020
5888 Clear 8 1036 81 10000 3.6 250 18:46 05.11.2020
5889 Clear 8 1036 81 10000 3.6 240 18:26 05.11.2020
5890 Clear 8 1036 81 10000 3.6 250 17:54 05.11.2020
5891 Clear 8 1036 81 10000 4.1 240 17:36 05.11.2020
5892 Clear 8 1036 81 10000 3.6 240 17:18 05.11.2020
5893 Clouds 9 1036 76 10000 4.1 240 16:41 05.11.2020
5894 Clouds 9 1036 76 10000 4.1 240 16:21 05.11.2020
5895 Clouds 9 1036 76 10000 4.6 240 15:49 05.11.2020
5896 Clouds 10 1036 71 10000 4.6 250 15:24 05.11.2020
5897 Clouds 10 1037 76 10000 5.1 240 14:47 05.11.2020
5898 Clouds 10 1037 71 10000 5.7 260 14:29 05.11.2020
5899 Clouds 10 1037 71 10000 5.1 260 13:49 05.11.2020
5900 Clouds 10 1037 71 10000 5.1 260 13:30 05.11.2020
5901 Clouds 10 1037 71 10000 5.1 260 13:30 05.11.2020
5902 Clouds 10 1037 71 10000 4.6 270 12:53 05.11.2020
5903 Clouds 10 1038 81 10000 4.6 270 12:29 05.11.2020
5904 Clear 10 1038 76 10000 4.6 270 11:57 05.11.2020
5905 Clear 9 1038 81 10000 4.1 260 11:38 05.11.2020
5906 Clear 8 1038 87 10000 3.1 250 11:19 05.11.2020
5907 Clouds 8 1038 84 10000 2.24 0 10:45 05.11.2020
5908 Clear 7 1038 93 10000 3.6 260 10:26 05.11.2020
5909 Clear 5 1038 93 10000 2.1 280 09:48 05.11.2020
5910 Clear 4 1038 93 10000 2.1 280 09:23 05.11.2020
5911 Clouds 3 1037 93 8000 2.1 260 08:45 05.11.2020
5912 Clear 3 1037 93 8000 2.1 260 08:26 05.11.2020
5913 Clear 2 1037 93 7000 0.5 0 07:42 05.11.2020
5914 Clear 2 1037 93 7000 0.5 0 07:23 05.11.2020
5915 Clear 3 1036 86 8000 0.5 230 06:42 05.11.2020
5916 Clear 3 1036 86 8000 0.5 230 06:42 05.11.2020
5917 Clear 2 1037 93 8000 2.92 245 05:54 05.11.2020
5918 Clear 3 1036 86 10000 1.5 270 01:41 05.11.2020
5919 Clear 4 1036 86 10000 1.5 250 00:35 05.11.2020
5920 Clear 4 1036 86 10000 1.5 280 23:47 04.11.2020
5921 Clear 4 1035 86 10000 1.5 280 23:27 04.11.2020
5922 Clear 5 1035 86 10000 1.5 270 22:55 04.11.2020
5923 Clear 5 1035 80 10000 1 0 22:36 04.11.2020
5924 Clear 5 1035 80 10000 1 0 22:18 04.11.2020
5925 Clear 5 1035 81 10000 1.5 280 21:43 04.11.2020
5926 Clear 5 1035 81 10000 1.5 280 21:24 04.11.2020
5927 Clear 5 1035 81 10000 1 240 20:46 04.11.2020
5928 Clear 5 1034 86 10000 3.04 237 20:28 04.11.2020
5929 Clear 5 1034 81 10000 2.1 280 19:55 04.11.2020
5930 Clouds 6 1033 75 10000 2.1 280 19:37 04.11.2020
5931 Clear 6 1033 75 10000 1.5 260 19:19 04.11.2020
5932 Clear 6 1033 81 10000 2.1 270 18:39 04.11.2020
5933 Clear 6 1033 81 10000 2.1 270 18:21 04.11.2020
5934 Clear 7 1032 75 10000 1.5 250 17:46 04.11.2020
5935 Clouds 8 1032 75 10000 2.1 270 17:25 04.11.2020
5936 Clouds 9 1031 70 10000 3.1 290 16:45 04.11.2020
5937 Clouds 9 1031 70 10000 3.1 290 16:25 04.11.2020
5938 Clouds 9 1031 70 10000 3.6 300 15:57 04.11.2020
5939 Clouds 11 1031 62 10000 4.6 260 15:39 04.11.2020
5940 Clouds 11 1031 62 10000 4.6 260 15:20 04.11.2020
5941 Clouds 11 1031 71 10000 4.6 280 14:43 04.11.2020
5942 Clouds 10 1031 71 10000 4.6 280 14:24 04.11.2020
5943 Clouds 11 1031 71 10000 5.1 280 13:51 04.11.2020
5944 Clouds 11 1030 71 10000 5.7 280 13:21 04.11.2020
5945 Clouds 11 1030 71 10000 5.7 280 12:58 04.11.2020
5946 Clouds 11 1030 71 10000 6.2 280 12:39 04.11.2020
5947 Clouds 11 1030 71 10000 6.2 280 12:39 04.11.2020
5948 Clouds 11 1030 71 10000 6.2 280 12:21 04.11.2020
5949 Clouds 10 1030 70 10000 5.7 260 11:44 04.11.2020
5950 Clear 10 1029 70 10000 6.2 250 11:21 04.11.2020
5951 Clear 10 1029 70 10000 6.2 250 10:49 04.11.2020
5952 Clear 9 1029 75 10000 5.1 250 10:24 04.11.2020
5953 Clear 8 1029 75 10000 5.1 250 09:55 04.11.2020
5954 Clear 7 1028 75 10000 5.1 240 09:28 04.11.2020
5955 Clear 7 1028 75 10000 4.6 240 08:49 04.11.2020
5956 Clear 6 1028 81 10000 4.6 240 08:23 04.11.2020
5957 Clear 6 1027 81 10000 4.1 230 07:58 04.11.2020
5958 Clear 6 1027 81 10000 4.1 250 07:37 04.11.2020
5959 Clear 6 1027 81 10000 4.1 250 07:18 04.11.2020
5960 Clear 6 1026 81 10000 5.1 250 06:39 04.11.2020
5961 Clear 6 1026 75 10000 4.1 240 05:24 04.11.2020
5962 Clear 7 1024 70 10000 4.6 250 02:31 04.11.2020
5963 Clear 8 1024 70 10000 3.1 240 01:38 04.11.2020
5964 Clear 9 1023 66 10000 4.1 250 00:25 04.11.2020
5965 Clear 9 1023 66 10000 5.7 260 23:28 03.11.2020
5966 Clear 9 1023 70 10000 4.6 250 22:58 03.11.2020
5967 Clouds 10 1022 66 10000 5.7 250 22:39 03.11.2020
5968 Clouds 10 1022 66 10000 5.7 250 22:19 03.11.2020
5969 Clouds 10 1022 62 10000 4.1 230 21:43 03.11.2020
5970 Clouds 10 1022 62 10000 4.1 230 21:25 03.11.2020
5971 Clear 10 1022 66 10000 2.6 200 20:56 03.11.2020
5972 Clear 10 1021 76 10000 2.1 180 20:38 03.11.2020
5973 Clear 9 1021 76 10000 2.1 180 20:18 03.11.2020
5974 Clear 9 1021 87 10000 1.5 160 19:41 03.11.2020
5975 Clear 9 1021 87 10000 1.5 160 19:19 03.11.2020
5976 Clear 9 1021 81 10000 1.5 100 18:41 03.11.2020
5977 Clear 9 1021 81 10000 3.48 189 18:19 03.11.2020
5978 Clear 9 1021 81 10000 3.48 189 17:53 03.11.2020
5979 Clear 9 1021 76 10000 3.48 189 17:34 03.11.2020
5980 Clear 11 1021 71 10000 2.63 189 16:52 03.11.2020
5981 Clear 11 1021 66 10000 2.1 280 16:31 03.11.2020
5982 Clear 11 1021 66 10000 2.6 290 15:59 03.11.2020
5983 Clouds 12 1022 62 10000 2.1 290 15:41 03.11.2020
5984 Clouds 12 1022 62 10000 2.1 290 15:21 03.11.2020
5985 Clouds 13 1022 62 10000 3.6 280 14:46 03.11.2020
5986 Clouds 13 1022 62 10000 3.6 280 14:27 03.11.2020
5987 Clouds 13 1022 66 10000 4.6 290 13:43 03.11.2020
5988 Clouds 13 1022 66 10000 4.6 290 13:23 03.11.2020
5989 Clouds 12 1022 66 10000 4.6 290 12:48 03.11.2020
5990 Clouds 12 1022 62 10000 5.7 240 12:27 03.11.2020
5991 Clouds 12 1022 66 10000 5.7 260 11:59 03.11.2020
5992 Clouds 12 1022 71 10000 4.6 260 11:40 03.11.2020
5993 Clouds 12 1022 71 10000 4.6 260 11:18 03.11.2020
5994 Clouds 11 1022 71 10000 5.1 250 10:39 03.11.2020
5995 Clouds 11 1022 71 10000 5.1 250 10:20 03.11.2020
5996 Clouds 11 1022 71 10000 3.6 240 09:49 03.11.2020
5997 Clear 10 1021 76 10000 4.1 250 09:31 03.11.2020
5998 Clear 10 1021 76 10000 4.6 240 08:55 03.11.2020
5999 Clouds 10 1021 76 10000 4.6 240 08:34 03.11.2020
6000 Clear 10 1020 76 10000 5.1 250 07:49 03.11.2020
6001 Clear 10 1020 76 10000 4.6 250 07:22 03.11.2020
6002 Clear 10 1020 76 10000 4.6 250 06:45 03.11.2020
6003 Clear 11 1018 76 10000 4.6 260 05:19 03.11.2020
6004 Clouds 11 1016 81 10000 2.6 280 02:20 03.11.2020
6005 Clear 13 1014 82 10000 5.7 270 00:41 03.11.2020
6006 Clear 13 1014 82 10000 4.6 270 23:52 02.11.2020
6007 Drizzle 14 1013 82 10000 5.7 280 23:33 02.11.2020
6008 Clouds 14 1013 87 10000 5.7 280 22:54 02.11.2020
6009 Clouds 14 1012 77 8000 5.7 280 22:35 02.11.2020
6010 Rain 15 1011 87 10000 5.7 280 21:59 02.11.2020
6011 Rain 15 1011 87 9000 8.2 290 21:38 02.11.2020
6012 Rain 15 1011 87 9000 8.2 290 21:19 02.11.2020
6013 Rain 19 1009 68 10000 6.2 240 20:40 02.11.2020
6014 Clouds 20 1009 64 10000 6.7 240 20:20 02.11.2020
6015 Clouds 19 1009 64 10000 6.7 240 19:48 02.11.2020
6016 Clouds 19 1009 64 10000 6.7 240 19:48 02.11.2020
6017 Clouds 19 1008 64 10000 6.2 240 19:27 02.11.2020
6018 Clouds 19 1008 64 10000 4.6 230 18:57 02.11.2020
6019 Clouds 19 1008 64 10000 5.1 220 18:39 02.11.2020
6020 Clouds 19 1008 64 10000 6.2 230 18:20 02.11.2020
6021 Clouds 19 1008 64 10000 4.1 220 17:43 02.11.2020
6022 Clouds 19 1008 64 10000 4.1 220 17:25 02.11.2020
6023 Clouds 19 1008 64 10000 4.6 220 16:56 02.11.2020
6024 Clouds 20 1008 60 10000 6.2 230 16:37 02.11.2020
6025 Clouds 20 1008 60 10000 5.7 240 16:18 02.11.2020
6026 Clouds 20 1007 64 10000 4.6 230 15:39 02.11.2020
6027 Clouds 20 1007 64 10000 4.6 230 15:20 02.11.2020
6028 Clouds 20 1007 64 10000 4.6 230 15:20 02.11.2020
6029 Clouds 21 1008 60 10000 7.2 240 14:51 02.11.2020
6030 Clouds 21 1007 68 10000 5.7 220 14:20 02.11.2020
6031 Clouds 21 1007 64 10000 7.2 230 13:51 02.11.2020
6032 Clouds 21 1008 64 10000 6.7 250 13:23 02.11.2020
6033 Clouds 20 1008 72 10000 6.7 230 12:55 02.11.2020
6034 Clouds 19 1008 72 10000 6.2 230 12:30 02.11.2020
6035 Clouds 19 1008 77 10000 6.2 230 11:56 02.11.2020
6036 Clouds 19 1008 77 10000 7.2 220 11:37 02.11.2020
6037 Clouds 19 1008 77 10000 7.2 220 11:18 02.11.2020
6038 Clouds 19 1008 77 10000 6.2 220 10:41 02.11.2020
6039 Clouds 19 1008 77 10000 6.2 220 10:18 02.11.2020
6040 Clouds 18 1008 77 10000 5.1 220 09:48 02.11.2020
6041 Clouds 18 1008 77 10000 5.7 220 09:23 02.11.2020
6042 Clouds 17 1008 82 10000 6.2 220 08:40 02.11.2020
6043 Clouds 17 1008 82 10000 6.2 220 08:20 02.11.2020
6044 Clouds 17 1007 82 10000 5.1 220 07:49 02.11.2020
6045 Clouds 17 1007 82 10000 5.7 220 06:49 02.11.2020
6046 Rain 17 1007 82 10000 5.1 220 06:24 02.11.2020
6047 Clouds 16 1008 82 10000 4.6 200 01:40 02.11.2020
6048 Clouds 16 1008 82 10000 4.6 200 01:22 02.11.2020
6049 Rain 16 1009 87 10000 5.1 220 00:33 02.11.2020
6050 Rain 16 1009 77 10000 5.7 220 23:41 01.11.2020
6051 Rain 16 1009 77 10000 5.7 220 23:23 01.11.2020
6052 Clouds 16 1008 77 10000 6.2 210 22:46 01.11.2020
6053 Clouds 16 1009 77 10000 6.7 220 22:25 01.11.2020
6054 Clouds 16 1009 77 10000 5.7 220 21:58 01.11.2020
6055 Clouds 16 1009 77 10000 5.7 220 21:38 01.11.2020
6056 Clouds 16 1009 77 10000 5.7 220 21:20 01.11.2020
6057 Clouds 16 1009 77 10000 4.6 210 20:41 01.11.2020
6058 Clouds 16 1009 77 10000 4.6 210 20:23 01.11.2020
6059 Clouds 16 1009 77 10000 5.1 210 19:43 01.11.2020
6060 Clouds 16 1009 77 10000 5.1 210 19:24 01.11.2020
6061 Clouds 16 1009 72 10000 4.6 200 18:44 01.11.2020
6062 Rain 16 1009 72 10000 4.6 200 18:20 01.11.2020
6063 Rain 16 1009 72 10000 4.6 200 18:20 01.11.2020
6064 Clouds 16 1009 72 10000 4.6 200 17:59 01.11.2020
6065 Clouds 16 1009 72 10000 4.6 200 17:41 01.11.2020
6066 Clouds 16 1009 72 10000 4.6 200 17:22 01.11.2020
6067 Clouds 16 1010 72 10000 4.1 210 16:42 01.11.2020
6068 Clouds 16 1010 72 10000 4.1 210 16:21 01.11.2020
6069 Clouds 16 1010 72 10000 5.7 220 15:55 01.11.2020
6070 Clouds 16 1010 72 10000 5.1 220 15:37 01.11.2020
6071 Clouds 16 1010 72 10000 5.1 220 15:18 01.11.2020
6072 Clouds 16 1011 72 10000 6.2 220 14:45 01.11.2020
6073 Clouds 16 1011 72 10000 6.2 220 14:22 01.11.2020
6074 Clouds 16 1012 72 10000 4.1 210 13:49 01.11.2020
6075 Clouds 15 1012 77 10000 3.6 210 13:31 01.11.2020
6076 Clouds 16 1012 77 10000 3.6 210 12:58 01.11.2020
6077 Clouds 16 1013 77 10000 3.6 210 12:38 01.11.2020
6078 Clouds 15 1013 77 10000 3.6 210 12:18 01.11.2020
6079 Clear 15 1013 82 10000 3.1 190 11:46 01.11.2020
6080 Clouds 14 1013 82 10000 3.6 190 11:18 01.11.2020
6081 Clouds 14 1013 82 10000 2.6 190 10:42 01.11.2020
6082 Clouds 14 1013 82 10000 2.6 190 10:23 01.11.2020
6083 Clouds 13 1014 87 10000 3.1 200 09:48 01.11.2020
6084 Clouds 13 1014 82 10000 2.1 190 09:19 01.11.2020
6085 Rain 12 1014 87 10000 2.6 190 08:38 01.11.2020
6086 Rain 12 1014 87 10000 2.6 210 07:51 01.11.2020
6087 Clouds 12 1014 87 10000 3.1 210 06:48 01.11.2020
6088 Clouds 12 1015 87 6000 3.1 210 02:31 01.11.2020
6089 Rain 12 1015 81 10000 2.1 220 01:38 01.11.2020
6090 Rain 11 1015 81 10000 2.6 170 23:56 31.10.2020
6091 Clouds 11 1015 81 10000 2.6 150 23:23 31.10.2020
6092 Clouds 10 1015 87 10000 2.1 130 22:45 31.10.2020
6093 Clouds 10 1015 87 10000 2.1 130 22:24 31.10.2020
6094 Clouds 10 1015 87 10000 2.1 130 22:24 31.10.2020
6095 Clouds 11 1015 87 10000 2.6 110 21:46 31.10.2020
6096 Clouds 11 1016 81 10000 2.1 120 21:22 31.10.2020
6097 Clouds 11 1016 81 10000 3.1 150 20:44 31.10.2020
6098 Clear 11 1016 81 10000 3.1 150 20:21 31.10.2020
6099 Clear 11 1016 87 10000 2.6 130 19:58 31.10.2020
6100 Clear 12 1017 82 10000 2.6 160 19:38 31.10.2020
6101 Clear 12 1017 82 10000 2.6 160 19:18 31.10.2020
6102 Clear 13 1017 76 10000 3.1 150 18:43 31.10.2020
6103 Clouds 14 1018 72 10000 3.1 170 17:49 31.10.2020
6104 Clouds 14 1018 77 10000 3.6 160 17:29 31.10.2020
6105 Clouds 14 1018 77 10000 3.6 160 16:59 31.10.2020
6106 Clouds 15 1018 77 10000 2.6 150 16:40 31.10.2020
6107 Clouds 16 1018 72 10000 2.6 140 15:59 31.10.2020
6108 Clouds 16 1019 72 10000 3.1 190 15:38 31.10.2020
6109 Clouds 16 1019 72 10000 3.1 190 15:19 31.10.2020
6110 Clouds 16 1019 77 10000 3.1 190 14:46 31.10.2020
6111 Clouds 16 1020 77 10000 3.1 210 14:27 31.10.2020
6112 Clouds 16 1020 77 10000 2.6 220 13:50 31.10.2020
6113 Clouds 16 1021 82 10000 4.1 220 13:24 31.10.2020
6114 Clouds 16 1021 87 10000 2.6 190 12:42 31.10.2020
6115 Clouds 15 1022 82 10000 2.6 190 11:48 31.10.2020
6116 Clouds 15 1022 82 10000 3.1 220 11:29 31.10.2020
6117 Clouds 15 1022 87 10000 2.6 200 10:58 31.10.2020
6118 Clouds 15 1022 93 10000 2.6 210 10:36 31.10.2020
6119 Clouds 14 1022 93 10000 3.1 250 09:45 31.10.2020
6120 Clouds 14 1022 93 10000 3.6 250 09:27 31.10.2020
6121 Clouds 13 1022 93 7000 3.1 250 08:40 31.10.2020
6122 Clouds 13 1022 93 6000 2.6 260 07:59 31.10.2020
6123 Clouds 13 1022 93 5000 2.6 270 07:27 31.10.2020
6124 Clouds 13 1022 93 4500 2.6 270 06:42 31.10.2020
6125 Clouds 13 1022 93 4500 2.6 270 06:20 31.10.2020
6126 Clouds 13 1021 93 3600 4.6 270 03:46 31.10.2020
6127 Clouds 14 1021 87 10000 5.7 260 01:44 31.10.2020
6128 Clouds 14 1021 82 10000 5.1 260 00:49 31.10.2020
6129 Clouds 14 1020 82 10000 6.2 260 23:53 30.10.2020
6130 Clouds 14 1020 82 10000 5.7 260 23:28 30.10.2020
6131 Clouds 14 1020 87 10000 5.7 260 22:56 30.10.2020
6132 Clouds 13 1020 93 10000 5.1 260 22:37 30.10.2020
6133 Rain 13 1020 93 10000 5.1 260 22:18 30.10.2020
6134 Clouds 13 1019 93 9000 5.1 260 21:42 30.10.2020
6135 Rain 13 1019 93 9000 5.1 260 21:22 30.10.2020
6136 Clouds 13 1019 93 10000 6.2 270 20:45 30.10.2020
6137 Clouds 13 1019 93 10000 6.2 270 20:26 30.10.2020
6138 Clouds 13 1019 93 10000 5.7 260 19:54 30.10.2020
6139 Clouds 13 1018 93 10000 5.1 270 19:22 30.10.2020
6140 Clouds 13 1018 93 7000 5.7 260 18:59 30.10.2020
6141 Clouds 13 1018 93 7000 5.7 260 18:59 30.10.2020
6142 Clouds 13 1018 93 10000 5.7 260 18:41 30.10.2020
6143 Clouds 13 1018 93 10000 5.7 260 18:22 30.10.2020
6144 Clouds 13 1017 93 7000 5.7 260 17:43 30.10.2020
6145 Clouds 13 1017 93 3500 6.2 260 17:20 30.10.2020
6146 Rain 13 1017 93 3500 6.2 260 16:50 30.10.2020
6147 Rain 13 1017 93 3500 6.2 260 16:24 30.10.2020
6148 Drizzle 14 1016 87 6000 6.2 260 15:42 30.10.2020
6149 Drizzle 14 1016 87 6000 6.2 260 15:24 30.10.2020
6150 Clouds 14 1016 93 7000 6.7 260 14:58 30.10.2020
6151 Mist 14 1016 87 3400 7.2 260 14:39 30.10.2020
6152 Mist 14 1016 87 3400 7.2 260 14:21 30.10.2020
6153 Mist 14 1016 87 3400 7.2 260 14:21 30.10.2020
6154 Mist 14 1016 87 3400 7.2 260 14:21 30.10.2020
6155 Rain 13 1015 93 5000 7.2 250 13:41 30.10.2020
6156 Clouds 13 1015 93 5000 7.2 250 13:20 30.10.2020
6157 Clouds 13 1015 93 6000 6.2 260 12:46 30.10.2020
6158 Clouds 13 1015 93 7000 6.2 250 12:22 30.10.2020
6159 Rain 13 1015 93 7000 5.7 250 11:54 30.10.2020
6160 Rain 14 1015 82 10000 7.2 260 11:21 30.10.2020
6161 Rain 14 1015 82 10000 7.2 260 10:50 30.10.2020
6162 Rain 13 1015 93 10000 5.7 260 10:25 30.10.2020
6163 Clouds 13 1014 87 10000 5.7 250 09:48 30.10.2020
6164 Clouds 13 1014 87 10000 5.7 250 09:25 30.10.2020
6165 Clouds 12 1014 93 10000 4.1 250 08:59 30.10.2020
6166 Clouds 12 1014 93 10000 4.6 240 08:31 30.10.2020
6167 Clouds 12 1014 87 9000 5.1 240 07:53 30.10.2020
6168 Clouds 12 1013 87 10000 4.6 240 07:35 30.10.2020
6169 Rain 11 1013 93 10000 4.6 230 06:50 30.10.2020
6170 Rain 11 1013 93 10000 4.1 230 05:53 30.10.2020
6171 Rain 9 1014 93 10000 2.6 190 02:53 30.10.2020
6172 Rain 9 1015 87 10000 2.6 160 01:20 30.10.2020
6173 Rain 9 1016 87 10000 2.6 190 23:59 29.10.2020
6174 Rain 9 1016 81 10000 3.6 220 23:41 29.10.2020
6175 Rain 9 1016 81 10000 3.6 220 23:23 29.10.2020
6176 Rain 9 1017 81 10000 4.1 230 22:44 29.10.2020
6177 Rain 9 1017 81 10000 4.1 230 22:25 29.10.2020
6178 Rain 10 1017 71 10000 4.1 240 21:44 29.10.2020
6179 Rain 10 1017 71 10000 4.1 240 21:24 29.10.2020
6180 Clear 10 1016 70 10000 3.1 230 20:43 29.10.2020
6181 Clear 10 1016 70 10000 3.1 230 20:24 29.10.2020
6182 Clear 9 1016 70 10000 3.6 240 19:57 29.10.2020
6183 Clear 9 1016 70 10000 4.6 240 19:38 29.10.2020
6184 Clear 9 1016 70 10000 4.6 240 19:18 29.10.2020
6185 Clear 10 1016 66 10000 4.6 260 18:45 29.10.2020
6186 Clear 10 1016 66 10000 4.6 260 18:25 29.10.2020
6187 Clouds 10 1015 71 10000 4.6 260 17:42 29.10.2020
6188 Clouds 10 1015 71 10000 4.6 260 17:23 29.10.2020
6189 Clouds 11 1015 66 10000 5.1 260 16:54 29.10.2020
6190 Clouds 11 1015 66 10000 6.7 260 16:23 29.10.2020
6191 Clouds 11 1015 66 10000 6.7 260 15:59 29.10.2020
6192 Clouds 11 1014 66 10000 6.2 270 15:40 29.10.2020
6193 Clouds 12 1014 66 10000 6.2 270 15:22 29.10.2020
6194 Clouds 12 1014 62 10000 6.7 260 14:59 29.10.2020
6195 Clouds 12 1014 62 10000 6.7 260 14:40 29.10.2020
6196 Clouds 12 1014 62 10000 6.7 260 14:19 29.10.2020
6197 Clouds 12 1013 62 10000 7.7 270 13:45 29.10.2020
6198 Clouds 12 1013 66 10000 8.2 270 13:24 29.10.2020
6199 Clouds 11 1013 66 10000 8.2 270 12:43 29.10.2020
6200 Clouds 11 1013 71 10000 8.2 260 12:19 29.10.2020
6201 Clouds 11 1013 71 10000 8.2 260 11:48 29.10.2020
6202 Clouds 11 1012 71 10000 7.7 260 11:26 29.10.2020
6203 Clouds 11 1012 76 10000 7.7 0 10:58 29.10.2020
6204 Clouds 10 1011 76 10000 6.7 260 10:36 29.10.2020
6205 Clouds 10 1011 76 10000 6.2 250 10:18 29.10.2020
6206 Clouds 10 1011 76 10000 6.2 250 09:46 29.10.2020
6207 Clear 9 1010 81 10000 5.7 250 09:20 29.10.2020
6208 Clear 8 1009 76 10000 6.2 250 08:40 29.10.2020
6209 Clear 8 1009 81 10000 6.7 240 08:22 29.10.2020
6210 Clear 9 1009 81 10000 6.7 240 07:49 29.10.2020
6211 Clouds 9 1008 81 10000 6.7 250 06:59 29.10.2020
6212 Rain 9 1007 76 10000 5.1 250 06:28 29.10.2020
6213 Clouds 10 1007 81 10000 6.7 250 04:48 29.10.2020
6214 Rain 12 1003 77 10000 3.13 211 02:18 29.10.2020
6215 Clouds 11 1007 78 10000 2.68 183 00:38 29.10.2020
6216 Clouds 11 1007 78 10000 4.02 173 00:19 29.10.2020
6217 Clouds 12 1007 77 10000 3.13 195 23:41 28.10.2020
6218 Clouds 12 1005 79 10000 4.47 197 23:20 28.10.2020
6219 Clear 11 1008 62 10000 4.1 200 22:43 28.10.2020
6220 Clear 11 1008 62 10000 4.1 200 22:23 28.10.2020
6221 Clear 11 1008 62 10000 4.1 200 21:45 28.10.2020
6222 Clear 11 1008 66 10000 3.6 200 21:26 28.10.2020
6223 Clear 11 1009 66 10000 3.1 180 20:58 28.10.2020
6224 Clear 11 1009 66 10000 3.6 200 20:40 28.10.2020
6225 Clear 11 1009 71 10000 3.1 190 20:18 28.10.2020
6226 Clear 11 1009 71 10000 2.6 180 19:42 28.10.2020
6227 Clear 11 1009 71 10000 2.6 180 19:24 28.10.2020
6228 Clouds 11 1009 71 10000 2.6 190 18:43 28.10.2020
6229 Clouds 11 1009 71 10000 2.6 190 18:20 28.10.2020
6230 Clear 12 1008 62 10000 4.6 220 17:43 28.10.2020
6231 Clear 13 1008 62 10000 4.6 220 17:21 28.10.2020
6232 Clouds 14 1008 62 10000 5.1 220 16:47 28.10.2020
6233 Clouds 14 1008 58 10000 4.6 230 16:29 28.10.2020
6234 Clouds 15 1008 58 10000 4.6 220 15:45 28.10.2020
6235 Rain 15 1005 70 10000 4.47 192 15:20 28.10.2020
6236 Clouds 15 1008 62 10000 5.7 230 14:57 28.10.2020
6237 Clouds 15 1008 62 10000 5.7 230 14:38 28.10.2020
6238 Clouds 15 1008 62 10000 5.7 230 14:18 28.10.2020
6239 Clouds 15 1008 68 10000 3.13 243 12:39 28.10.2020
6240 Rain 14 1008 70 10000 3.13 238 12:20 28.10.2020
6241 Clouds 14 1008 71 10000 4.02 236 11:44 28.10.2020
6242 Clouds 13 1008 76 10000 4.6 210 11:23 28.10.2020
6243 Clear 13 1008 76 10000 3.1 210 10:59 28.10.2020
6244 Clear 13 1008 76 10000 3.1 210 10:40 28.10.2020
6245 Clear 13 1008 76 10000 3.1 210 10:22 28.10.2020
6246 Clear 12 1007 76 10000 4.6 210 09:41 28.10.2020
6247 Clear 11 1007 76 10000 4.6 210 09:22 28.10.2020
6248 Clear 11 1007 76 10000 5.1 210 08:49 28.10.2020
6249 Clouds 11 1007 76 10000 3.6 220 08:27 28.10.2020
6250 Clouds 11 1006 76 10000 4.1 220 07:49 28.10.2020
6251 Clouds 11 1006 71 10000 5.1 220 07:30 28.10.2020
6252 Clouds 11 1005 71 10000 5.7 220 06:42 28.10.2020
6253 Clouds 11 1005 71 10000 5.7 220 05:52 28.10.2020
6254 Clouds 11 1005 71 10000 4.6 200 05:21 28.10.2020
6255 Clouds 11 1004 71 10000 4.6 200 04:26 28.10.2020
6256 Clouds 11 1005 62 10000 5.1 200 02:26 28.10.2020
6257 Clouds 11 1005 62 10000 4.6 190 01:52 28.10.2020
6258 Clouds 11 1005 62 10000 5.1 190 00:29 28.10.2020
6259 Clouds 11 1005 62 10000 4.1 180 23:45 27.10.2020
6260 Clouds 11 1005 62 10000 4.1 180 23:21 27.10.2020
6261 Clouds 10 1006 66 10000 3.6 190 22:44 27.10.2020
6262 Clouds 10 1006 66 10000 3.6 190 22:19 27.10.2020
6263 Clouds 10 1006 66 10000 3.6 190 21:57 27.10.2020
6264 Clouds 10 1006 71 10000 3.6 190 21:37 27.10.2020
6265 Clouds 10 1006 71 10000 3.6 190 21:19 27.10.2020
6266 Clouds 10 1006 71 10000 3.1 180 20:50 27.10.2020
6267 Clear 11 1006 66 10000 4.1 190 20:24 27.10.2020
6268 Clear 10 1006 66 10000 4.6 190 19:57 27.10.2020
6269 Clear 11 1006 66 10000 4.6 190 19:37 27.10.2020
6270 Clear 11 1006 66 10000 4.6 190 19:18 27.10.2020
6271 Clear 11 1006 66 10000 4.1 190 18:44 27.10.2020
6272 Clear 11 1006 66 10000 4.1 190 18:22 27.10.2020
6273 Clouds 11 1006 66 10000 4.1 190 17:59 27.10.2020
6274 Clouds 11 1006 66 10000 4.1 190 17:40 27.10.2020
6275 Clouds 11 1006 62 10000 4.6 200 17:18 27.10.2020
6276 Clear 12 1006 62 10000 4.1 190 16:42 27.10.2020
6277 Clear 12 1006 62 10000 4.1 190 16:23 27.10.2020
6278 Clouds 12 1006 58 10000 4.6 200 15:42 27.10.2020
6279 Clouds 12 1006 58 10000 4.6 200 15:24 27.10.2020
6280 Clouds 12 1006 58 10000 5.1 200 14:50 27.10.2020
6281 Clouds 12 1007 58 10000 4.6 200 14:30 27.10.2020
6282 Clouds 12 1007 62 10000 5.1 200 13:58 27.10.2020
6283 Clouds 12 1007 62 10000 4.6 220 13:31 27.10.2020
6284 Clouds 12 1007 62 10000 6.2 210 12:49 27.10.2020
6285 Clear 12 1007 62 10000 5.7 220 12:30 27.10.2020
6286 Clear 12 1007 62 10000 6.2 220 11:59 27.10.2020
6287 Clear 12 1007 62 10000 6.7 220 11:41 27.10.2020
6288 Clear 12 1007 62 10000 6.7 220 11:21 27.10.2020
6289 Clear 11 1006 62 10000 5.1 230 10:46 27.10.2020
6290 Clear 11 1006 66 10000 4.1 220 10:22 27.10.2020
6291 Clear 10 1006 71 10000 2.6 200 09:42 27.10.2020
6292 Clear 9 1006 76 10000 3.6 190 09:23 27.10.2020
6293 Clear 9 1006 76 10000 3.6 210 08:33 27.10.2020
6294 Clear 8 1006 81 10000 3.1 200 07:58 27.10.2020
6295 Clear 8 1005 76 10000 4.1 190 07:40 27.10.2020
6296 Clear 8 1005 76 10000 4.1 190 07:21 27.10.2020
6297 Clouds 9 1005 76 10000 3.6 200 06:21 27.10.2020
6298 Clouds 9 1005 76 10000 3.1 200 05:51 27.10.2020
6299 Clouds 9 1005 76 10000 3.1 210 05:32 27.10.2020
6300 Clouds 8 1004 81 10000 3.1 190 04:43 27.10.2020
6301 Clouds 9 1004 76 10000 3.6 210 02:29 27.10.2020
6302 Clouds 9 1005 76 10000 5.1 210 00:51 27.10.2020
6303 Clouds 9 1004 76 10000 4.1 210 23:43 26.10.2020
6304 Clouds 9 1004 76 10000 4.1 210 23:19 26.10.2020
6305 Clouds 9 1004 81 10000 3.1 190 22:46 26.10.2020
6306 Clouds 9 1004 81 10000 3.1 190 22:21 26.10.2020
6307 Clouds 9 1004 87 10000 2.6 180 21:45 26.10.2020
6308 Clouds 9 1004 87 10000 2.6 180 21:21 26.10.2020
6309 Clouds 9 1004 81 10000 3.1 200 20:58 26.10.2020
6310 Clear 9 1003 81 10000 3.1 210 20:39 26.10.2020
6311 Clouds 9 1003 87 10000 2.6 200 20:18 26.10.2020
6312 Clouds 10 1003 93 10000 2.6 200 19:47 26.10.2020
6313 Clouds 10 1003 93 10000 2.6 200 19:23 26.10.2020
6314 Clear 10 1003 93 10000 1.5 190 18:45 26.10.2020
6315 Clear 10 1003 93 10000 1.5 190 18:25 26.10.2020
6316 Clouds 10 1003 93 10000 2.82 236 17:59 26.10.2020
6317 Clouds 10 1003 93 10000 1.5 180 17:39 26.10.2020
6318 Clear 10 1002 93 10000 1.5 140 17:21 26.10.2020
6319 Clear 11 1002 87 10000 2.1 130 16:43 26.10.2020
6320 Clear 11 1002 87 10000 2.6 150 16:21 26.10.2020
6321 Clear 11 1002 87 10000 1 0 15:43 26.10.2020
6322 Rain 11 1002 87 10000 1 0 15:25 26.10.2020
6323 Clear 11 1002 87 10000 1 0 14:53 26.10.2020
6324 Clouds 11 1002 93 10000 1.5 260 14:34 26.10.2020
6325 Rain 11 1002 93 9000 5.7 250 13:46 26.10.2020
6326 Rain 11 1002 93 10000 2.1 160 13:28 26.10.2020
6327 Rain 11 1002 87 10000 2.1 150 12:58 26.10.2020
6328 Rain 11 1002 87 10000 2.6 160 12:36 26.10.2020
6329 Rain 11 1002 87 9000 2.6 170 12:18 26.10.2020
6330 Drizzle 11 1002 87 10000 2.6 160 11:45 26.10.2020
6331 Rain 11 1002 87 10000 2.6 160 11:23 26.10.2020
6332 Rain 11 1002 87 10000 2.1 150 10:57 26.10.2020
6333 Rain 11 1002 87 10000 2.1 150 10:38 26.10.2020
6334 Rain 11 1002 81 10000 1.5 170 10:18 26.10.2020
6335 Rain 11 1002 81 10000 1.5 170 09:39 26.10.2020
6336 Rain 11 1002 81 10000 2.1 160 09:18 26.10.2020
6337 Rain 11 1002 81 10000 2.1 180 08:27 26.10.2020
6338 Clear 11 1002 81 10000 2.1 180 07:52 26.10.2020
6339 Clear 11 1002 81 10000 2.1 160 07:31 26.10.2020
6340 Clouds 11 1002 81 10000 2.1 170 06:19 26.10.2020
6341 Rain 11 1002 81 10000 2.6 180 04:21 26.10.2020
6342 Clouds 11 1002 81 10000 2.1 140 03:21 26.10.2020
6343 Clouds 12 1002 76 10000 2.1 170 03:21 26.10.2020
6344 Clouds 11 1002 81 10000 2.1 140 03:21 26.10.2020
6345 Clouds 11 1002 81 10000 2.1 140 03:21 26.10.2020
6346 Clouds 12 1003 76 10000 2.6 230 01:37 26.10.2020
6347 Clouds 12 1003 76 10000 2.1 200 00:44 26.10.2020
6348 Clouds 12 1003 76 10000 2.1 200 00:25 26.10.2020
6349 Rain 12 1003 76 10000 3.1 190 23:38 25.10.2020
6350 Clouds 13 1003 76 10000 3.1 190 23:19 25.10.2020
6351 Clouds 13 1003 76 10000 2.6 200 22:40 25.10.2020
6352 Clouds 13 1003 76 10000 2.6 200 22:40 25.10.2020
6353 Rain 13 1003 76 10000 2.6 200 22:20 25.10.2020
6354 Clear 12 1003 81 10000 2.6 150 21:40 25.10.2020
6355 Clear 12 1003 81 10000 2.6 150 21:21 25.10.2020
6356 Clear 12 1003 81 10000 2.6 160 20:46 25.10.2020
6357 Clear 12 1003 81 10000 2.6 160 20:46 25.10.2020
6358 Clear 12 1003 87 10000 2.1 140 20:27 25.10.2020
6359 Rain 12 1003 81 10000 2.1 130 19:59 25.10.2020
6360 Rain 12 1003 81 10000 2.6 150 19:41 25.10.2020
6361 Rain 12 1003 81 10000 2.6 150 19:21 25.10.2020
6362 Rain 13 1003 76 10000 3.1 150 18:55 25.10.2020
6363 Rain 13 1003 76 10000 2.6 150 18:36 25.10.2020
6364 Rain 13 1003 67 10000 3.1 140 18:18 25.10.2020
6365 Rain 13 1003 71 10000 2.6 130 17:39 25.10.2020
6366 Rain 14 1003 71 10000 2.6 130 17:21 25.10.2020
6367 Clear 14 1003 67 10000 2.1 130 16:57 25.10.2020
6368 Clear 14 1004 71 10000 2.1 130 16:38 25.10.2020
6369 Clear 15 1004 71 10000 1.5 110 16:18 25.10.2020
6370 Clear 15 1004 67 10000 2.1 100 15:45 25.10.2020
6371 Clear 15 1004 67 10000 2.1 100 15:25 25.10.2020
6372 Clear 15 1004 62 10000 2.6 190 14:46 25.10.2020
6373 Clear 15 1004 62 10000 3.6 210 14:28 25.10.2020
6374 Clear 15 1005 62 10000 3.6 190 13:43 25.10.2020
6375 Clear 15 1005 62 10000 3.6 190 13:21 25.10.2020
6376 Clear 16 1005 59 10000 4.6 190 12:49 25.10.2020
6377 Clear 16 1005 63 10000 4.1 190 12:27 25.10.2020
6378 Clear 16 1005 63 10000 4.1 190 12:27 25.10.2020
6379 Clear 15 1006 62 10000 6.7 190 11:57 25.10.2020
6380 Clear 15 1006 62 10000 5.7 170 11:38 25.10.2020
6381 Clear 15 1006 62 10000 5.7 170 11:38 25.10.2020
6382 Clear 15 1006 62 10000 5.7 170 11:18 25.10.2020
6383 Clear 15 1006 62 10000 4.6 180 10:44 25.10.2020
6384 Clear 15 1006 62 10000 4.6 180 10:25 25.10.2020
6385 Clear 14 1006 67 10000 5.7 180 09:48 25.10.2020
6386 Clear 14 1006 67 10000 5.7 180 09:20 25.10.2020
6387 Clouds 14 1006 67 10000 4.6 180 08:55 25.10.2020
6388 Clouds 14 1006 67 10000 3.1 160 08:36 25.10.2020
6389 Clouds 14 1006 67 10000 3.1 160 08:18 25.10.2020
6390 Clouds 14 1006 67 10000 4.6 190 07:41 25.10.2020
6391 Clouds 13 1006 67 10000 4.6 200 06:52 25.10.2020
6392 Clouds 13 1007 71 10000 2.6 180 06:19 25.10.2020
6393 Clouds 13 1007 67 10000 5.1 200 05:18 25.10.2020
6394 Clouds 13 1007 67 10000 5.1 190 04:20 25.10.2020
6395 Clouds 13 1009 67 10000 2.1 160 02:19 25.10.2020
6396 Clouds 14 1010 67 10000 4.1 180 00:52 25.10.2020
6397 Clouds 14 1010 67 10000 6.2 200 00:28 25.10.2020
6398 Clouds 14 1010 71 10000 4.6 190 23:54 24.10.2020
6399 Clouds 14 1010 71 10000 3.6 180 23:31 24.10.2020
6400 Clouds 14 1010 71 10000 4.1 200 22:58 24.10.2020
6401 Clouds 14 1011 67 10000 4.1 200 22:39 24.10.2020
6402 Clouds 14 1011 67 10000 4.1 200 22:21 24.10.2020
6403 Clouds 14 1011 67 10000 3.6 200 21:43 24.10.2020
6404 Clouds 15 1011 67 10000 3.6 200 21:22 24.10.2020
6405 Clouds 15 1011 67 10000 3.6 200 20:58 24.10.2020
6406 Clouds 15 1011 67 10000 4.1 210 20:39 24.10.2020
6407 Clouds 15 1011 67 10000 4.1 210 20:20 24.10.2020
6408 Clouds 14 1011 67 10000 4.6 220 19:40 24.10.2020
6409 Clouds 14 1011 67 10000 4.6 220 19:22 24.10.2020
6410 Clouds 15 1011 67 10000 5.1 220 18:49 24.10.2020
6411 Clouds 15 1011 67 10000 5.7 220 18:28 24.10.2020
6412 Clouds 15 1012 67 10000 4.6 220 17:44 24.10.2020
6413 Clouds 15 1012 67 10000 4.6 220 17:25 24.10.2020
6414 Clouds 16 1012 67 10000 5.7 220 16:53 24.10.2020
6415 Clouds 16 1012 67 10000 6.2 220 16:35 24.10.2020
6416 Clouds 16 1012 67 10000 5.1 220 15:57 24.10.2020
6417 Clouds 16 1012 67 10000 5.1 240 15:38 24.10.2020
6418 Clouds 16 1012 67 10000 5.1 240 15:18 24.10.2020
6419 Clouds 16 1012 67 10000 5.1 230 14:39 24.10.2020
6420 Clouds 16 1013 77 10000 5.7 230 14:21 24.10.2020
6421 Clouds 16 1013 77 10000 6.2 250 13:44 24.10.2020
6422 Clouds 15 1013 77 10000 6.2 250 13:20 24.10.2020
6423 Clouds 15 1013 82 10000 6.2 240 12:41 24.10.2020
6424 Clouds 15 1013 82 10000 5.7 240 12:20 24.10.2020
6425 Clouds 14 1013 82 10000 5.7 240 11:50 24.10.2020
6426 Rain 14 1013 82 10000 5.7 240 11:24 24.10.2020
6427 Clouds 13 1013 87 10000 4.6 230 10:48 24.10.2020
6428 Clouds 13 1013 87 10000 4.6 230 10:29 24.10.2020
6429 Clouds 13 1012 87 10000 4.1 230 09:48 24.10.2020
6430 Clouds 12 1012 76 10000 3.6 230 09:27 24.10.2020
6431 Clouds 12 1012 76 10000 3.6 230 09:27 24.10.2020
6432 Clouds 11 1012 87 10000 3.1 220 08:58 24.10.2020
6433 Clouds 11 1012 93 10000 3.6 230 08:19 24.10.2020
6434 Clouds 11 1011 93 10000 3.1 220 07:53 24.10.2020
6435 Clouds 11 1011 87 10000 3.1 220 07:22 24.10.2020
6436 Clouds 12 1011 93 10000 3.1 220 06:52 24.10.2020
6437 Clouds 12 1011 93 10000 3.1 220 06:22 24.10.2020
6438 Clouds 12 1011 93 10000 2.1 210 02:30 24.10.2020
6439 Clouds 11 1011 93 10000 1.5 180 01:19 24.10.2020
6440 Clouds 10 1011 93 10000 1.5 190 00:40 24.10.2020
6441 Rain 11 1011 93 10000 1.5 190 00:21 24.10.2020
6442 Clouds 11 1011 93 7000 4.02 233 23:49 23.10.2020
6443 Rain 11 1011 93 10000 1.5 180 23:25 23.10.2020
6444 Clouds 11 1010 93 10000 1 0 22:57 23.10.2020
6445 Clouds 12 1010 93 10000 1.5 200 22:37 23.10.2020
6446 Clouds 12 1010 93 10000 1.5 200 22:18 23.10.2020
6447 Clouds 12 1010 100 6000 2.88 226 21:45 23.10.2020
6448 Clouds 12 1010 100 6000 2.74 219 21:24 23.10.2020
6449 Mist 12 1010 100 4100 2.74 219 20:41 23.10.2020
6450 Mist 12 1010 100 4100 2.35 220 20:23 23.10.2020
6451 Fog 12 1010 93 900 1 300 19:52 23.10.2020
6452 Fog 13 1010 93 750 2.39 152 19:32 23.10.2020
6453 Mist 13 1010 93 2500 1 100 18:57 23.10.2020
6454 Mist 13 1010 93 4500 2.39 152 18:37 23.10.2020
6455 Mist 13 1010 93 4500 1.78 134 18:19 23.10.2020
6456 Drizzle 13 1010 93 6000 1.78 134 17:42 23.10.2020
6457 Rain 14 1010 93 6000 1.14 51 17:20 23.10.2020
6458 Rain 14 1010 93 4200 0.5 0 16:39 23.10.2020
6459 Rain 14 1010 93 4200 0.5 0 16:20 23.10.2020
6460 Rain 14 1010 93 3800 1.5 340 15:43 23.10.2020
6461 Rain 14 1010 93 3800 1.5 340 15:23 23.10.2020
6462 Rain 14 1010 93 4100 0.7 353 14:53 23.10.2020
6463 Rain 14 1010 93 4700 0.7 353 14:35 23.10.2020
6464 Rain 14 1011 93 6000 1.01 340 13:56 23.10.2020
6465 Rain 14 1011 93 10000 1 100 13:37 23.10.2020
6466 Rain 15 1011 87 10000 0.5 0 13:19 23.10.2020
6467 Clouds 14 1011 93 10000 0.5 0 12:47 23.10.2020
6468 Clouds 14 1011 93 10000 0.5 0 12:24 23.10.2020
6469 Clouds 14 1011 93 10000 1 110 11:47 23.10.2020
6470 Clouds 14 1011 93 10000 1 110 11:22 23.10.2020
6471 Clouds 13 1011 93 10000 2.1 90 10:45 23.10.2020
6472 Clouds 13 1011 93 10000 2.1 90 10:25 23.10.2020
6473 Clear 13 1011 93 10000 1.5 90 09:46 23.10.2020
6474 Clear 12 1011 93 10000 1.5 90 09:27 23.10.2020
6475 Clear 12 1011 93 10000 1.96 229 08:52 23.10.2020
6476 Clear 12 1011 93 10000 1.96 229 08:32 23.10.2020
6477 Clear 12 1011 93 10000 2.61 233 07:46 23.10.2020
6478 Clear 12 1011 93 10000 2.89 232 07:22 23.10.2020
6479 Clouds 11 1011 93 10000 2.98 235 06:20 23.10.2020
6480 Clouds 12 1011 93 10000 1.5 270 05:44 23.10.2020
6481 Clouds 13 1011 82 10000 3.76 228 02:33 23.10.2020
6482 Clouds 13 1011 82 10000 2.1 220 01:52 23.10.2020
6483 Clouds 13 1011 82 10000 2.6 230 00:48 23.10.2020
6484 Clouds 14 1011 82 10000 3.6 230 23:54 22.10.2020
6485 Clouds 14 1011 77 10000 3.1 230 23:30 22.10.2020
6486 Clouds 15 1011 72 10000 5.1 220 22:54 22.10.2020
6487 Clouds 15 1011 72 10000 5.1 230 22:36 22.10.2020
6488 Rain 15 1010 72 10000 5.7 230 22:18 22.10.2020
6489 Rain 15 1010 77 10000 2.1 220 21:42 22.10.2020
6490 Rain 16 1010 77 10000 2.1 220 21:23 22.10.2020
6491 Rain 16 1010 72 10000 3.6 170 20:57 22.10.2020
6492 Thunderstorm 16 1010 72 10000 3.1 160 20:39 22.10.2020
6493 Thunderstorm 15 1010 72 10000 3.1 160 20:18 22.10.2020
6494 Clear 16 1010 77 10000 2.6 170 19:40 22.10.2020
6495 Clear 16 1010 77 10000 2.6 170 19:19 22.10.2020
6496 Clouds 17 1011 77 10000 1 0 18:43 22.10.2020
6497 Clouds 17 1011 77 10000 1 0 18:21 22.10.2020
6498 Rain 18 1011 77 10000 3.1 220 17:47 22.10.2020
6499 Clear 18 1011 63 10000 4.6 230 17:26 22.10.2020
6500 Clouds 19 1011 60 10000 5.1 230 16:58 22.10.2020
6501 Clouds 19 1011 63 10000 5.1 230 16:40 22.10.2020
6502 Clouds 19 1011 63 10000 5.1 230 16:22 22.10.2020
6503 Clouds 19 1011 64 10000 4.6 220 15:44 22.10.2020
6504 Clouds 19 1011 64 10000 4.6 220 15:25 22.10.2020
6505 Clouds 20 1011 68 10000 4.6 230 14:49 22.10.2020
6506 Clouds 19 1012 68 10000 5.7 230 14:25 22.10.2020
6507 Clouds 19 1012 68 10000 5.1 230 13:49 22.10.2020
6508 Clouds 20 1012 72 10000 3.6 220 13:24 22.10.2020
6509 Clouds 20 1012 72 10000 3.6 220 13:24 22.10.2020
6510 Clouds 18 1012 72 10000 4.6 220 12:57 22.10.2020
6511 Clouds 18 1012 72 10000 5.1 230 12:27 22.10.2020
6512 Rain 17 1012 67 10000 4.6 220 11:50 22.10.2020
6513 Clouds 17 1012 72 10000 4.1 220 11:20 22.10.2020
6514 Clouds 16 1012 72 10000 4.6 220 10:52 22.10.2020
6515 Clouds 16 1011 72 10000 5.1 220 10:30 22.10.2020
6516 Clouds 15 1011 77 10000 3.6 220 09:57 22.10.2020
6517 Clouds 15 1010 76 10000 3.6 220 09:39 22.10.2020
6518 Clouds 15 1010 76 10000 4.1 240 08:57 22.10.2020
6519 Clouds 14 1010 82 10000 3.6 230 08:38 22.10.2020
6520 Clouds 14 1010 76 10000 2.6 230 08:18 22.10.2020
6521 Clouds 13 1009 82 10000 0.5 0 07:43 22.10.2020
6522 Clouds 14 1009 81 10000 1.34 0 06:59 22.10.2020
6523 Clouds 14 1009 81 10000 1.34 0 06:36 22.10.2020
6524 Clouds 15 1009 80 10000 0.45 352 05:42 22.10.2020
6525 Clouds 15 1009 77 10000 1.34 233 05:22 22.10.2020
6526 Clouds 16 1007 69 10000 3.58 239 02:25 22.10.2020
6527 Clouds 17 1005 59 10000 6.2 220 00:36 22.10.2020
6528 Clouds 17 1005 55 10000 6.2 220 00:18 22.10.2020
6529 Clouds 17 1005 52 10000 6.7 220 23:38 21.10.2020
6530 Clouds 18 1005 52 10000 7.7 220 22:58 21.10.2020
6531 Clouds 18 1004 48 10000 7.2 220 22:37 21.10.2020
6532 Clouds 17 1004 48 10000 7.2 220 22:18 21.10.2020
6533 Clouds 17 1004 51 10000 5.1 210 21:44 21.10.2020
6534 Clouds 17 1004 51 10000 5.1 210 21:19 21.10.2020
6535 Clouds 17 1004 55 10000 3.6 190 20:55 21.10.2020
6536 Clouds 17 1004 51 10000 4.6 190 20:36 21.10.2020
6537 Clouds 17 1004 48 10000 5.1 180 20:18 21.10.2020
6538 Clouds 16 1004 51 10000 3.6 180 19:40 21.10.2020
6539 Clouds 16 1004 51 10000 3.6 180 19:22 21.10.2020
6540 Clouds 17 1004 51 10000 3.6 170 18:49 21.10.2020
6541 Clouds 17 1004 55 10000 3.1 170 18:27 21.10.2020
6542 Clouds 17 1004 51 10000 4.1 180 17:50 21.10.2020
6543 Clouds 16 1004 55 10000 3.6 170 17:22 21.10.2020
6544 Clouds 16 1005 55 10000 4.6 180 16:58 21.10.2020
6545 Clouds 16 1005 55 10000 4.6 180 16:38 21.10.2020
6546 Clouds 16 1005 55 10000 4.6 200 16:19 21.10.2020
6547 Clouds 16 1005 59 10000 3.6 0 15:44 21.10.2020
6548 Rain 15 1005 67 10000 3.1 210 15:21 21.10.2020
6549 Clouds 15 1006 76 10000 3.1 190 14:49 21.10.2020
6550 Clouds 14 1006 76 10000 3.6 200 14:29 21.10.2020
6551 Clouds 14 1007 87 10000 4.1 200 13:58 21.10.2020
6552 Rain 14 1007 87 10000 4.1 200 13:40 21.10.2020
6553 Rain 14 1007 87 10000 2.6 200 13:20 21.10.2020
6554 Rain 13 1007 82 10000 2.1 150 12:40 21.10.2020
6555 Rain 13 1007 87 10000 2.1 150 12:20 21.10.2020
6556 Rain 12 1007 93 10000 2.1 130 11:46 21.10.2020
6557 Rain 12 1007 93 10000 3.1 100 11:21 21.10.2020
6558 Clouds 12 1007 87 10000 2.6 120 10:57 21.10.2020
6559 Clouds 12 1007 87 10000 2.6 120 10:38 21.10.2020
6560 Clouds 11 1008 93 10000 2.1 120 10:20 21.10.2020
6561 Rain 11 1007 93 10000 2.1 110 09:42 21.10.2020
6562 Rain 11 1007 93 10000 2.1 120 09:18 21.10.2020
6563 Rain 11 1007 87 10000 2.1 140 08:40 21.10.2020
6564 Rain 11 1007 87 10000 1.5 110 08:22 21.10.2020
6565 Rain 11 1007 87 10000 1.5 110 08:22 21.10.2020
6566 Rain 12 1008 81 10000 2.6 160 07:55 21.10.2020
6567 Rain 11 1008 87 10000 1.5 140 07:20 21.10.2020
6568 Rain 12 1008 90 10000 0.89 0 06:46 21.10.2020
6569 Rain 11 1008 88 10000 5.32 210 06:24 21.10.2020
6570 Rain 12 1008 91 10000 0.45 0 03:38 21.10.2020
6571 Rain 12 1010 89 10000 0.45 0 00:31 21.10.2020
6572 Clouds 12 1010 88 10000 0.89 0 23:37 20.10.2020
6573 Rain 12 1011 88 10000 2.24 0 22:47 20.10.2020
6574 Rain 12 1011 88 10000 2.68 0 22:25 20.10.2020
6575 Rain 12 1011 89 10000 1.34 0 21:48 20.10.2020
6576 Clouds 12 1011 93 10000 3.1 210 21:20 20.10.2020
6577 Rain 12 1011 93 10000 3.1 210 20:44 20.10.2020
6578 Rain 12 1011 93 10000 3.1 210 20:24 20.10.2020
6579 Rain 12 1010 87 10000 3.1 200 19:57 20.10.2020
6580 Rain 12 1010 87 10000 3.1 200 19:39 20.10.2020
6581 Rain 12 1010 81 10000 3.6 220 19:20 20.10.2020
6582 Rain 12 1010 76 10000 3.6 230 18:45 20.10.2020
6583 Rain 12 1011 71 10000 3.6 230 18:26 20.10.2020
6584 Rain 13 1011 62 10000 2.1 250 17:42 20.10.2020
6585 Rain 13 1011 62 10000 3.6 220 17:23 20.10.2020
6586 Clouds 14 1010 58 10000 3.1 210 16:47 20.10.2020
6587 Rain 14 1010 58 10000 3.1 210 16:47 20.10.2020
6588 Clouds 14 1010 58 10000 3.1 200 16:26 20.10.2020
6589 Rain 14 1010 58 10000 4.6 220 15:50 20.10.2020
6590 Clouds 15 1011 54 10000 4.6 230 15:31 20.10.2020
6591 Clouds 15 1011 54 10000 4.1 200 14:56 20.10.2020
6592 Clouds 15 1011 54 10000 4.1 200 14:37 20.10.2020
6593 Clouds 15 1011 54 10000 2.1 0 14:19 20.10.2020
6594 Clouds 14 1012 66 10000 1 0 13:42 20.10.2020
6595 Clouds 13 1012 71 10000 3.1 160 13:22 20.10.2020
6596 Clouds 12 1012 71 10000 3.1 160 12:56 20.10.2020
6597 Clouds 11 1012 71 10000 3.1 160 12:38 20.10.2020
6598 Clouds 10 1012 66 10000 4.1 150 12:19 20.10.2020
6599 Clouds 9 1012 76 10000 3.1 150 11:37 20.10.2020
6600 Clouds 8 1012 81 10000 3.6 120 11:18 20.10.2020
6601 Clouds 7 1013 81 10000 2.6 110 10:29 20.10.2020
6602 Clouds 6 1013 86 10000 3.1 120 09:51 20.10.2020
6603 Clouds 5 1013 86 10000 3.1 100 09:21 20.10.2020
6604 Clouds 5 1014 86 10000 2.6 90 08:58 20.10.2020
6605 Clouds 5 1014 86 10000 2.6 90 08:36 20.10.2020
6606 Clouds 5 1014 86 10000 2.6 100 07:52 20.10.2020
6607 Clouds 5 1015 93 10000 2.1 100 07:25 20.10.2020
6608 Clouds 5 1012 93 10000 0.89 113 06:30 20.10.2020
6609 Clouds 4 1013 94 10000 0.89 232 05:43 20.10.2020
6610 Clouds 4 1015 94 10000 3.92 142 03:56 20.10.2020
6611 Clouds 5 1014 98 10000 3.6 145 02:19 20.10.2020
6612 Clouds 5 1017 91 10000 3.62 154 00:59 20.10.2020
6613 Clouds 5 1017 91 10000 3.62 154 00:41 20.10.2020
6614 Clouds 6 1017 91 10000 3.18 162 00:21 20.10.2020
6615 Clouds 5 1017 91 10000 3.18 162 23:47 19.10.2020
6616 Clouds 6 1018 59 10000 0.89 151 23:23 19.10.2020
6617 Clouds 6 1018 90 10000 2.99 162 22:44 19.10.2020
6618 Clouds 6 1018 89 10000 2.99 151 22:24 19.10.2020
6619 Clouds 7 1018 89 10000 2.99 151 21:48 19.10.2020
6620 Clear 8 1020 87 10000 1.5 110 21:22 19.10.2020
6621 Clear 9 1020 87 10000 1.5 110 20:52 19.10.2020
6622 Clear 9 1020 87 10000 1.5 110 20:33 19.10.2020
6623 Clouds 9 1020 87 10000 1 130 19:56 19.10.2020
6624 Clouds 9 1020 87 10000 1 130 19:38 19.10.2020
6625 Clouds 10 1021 81 10000 1.33 174 19:18 19.10.2020
6626 Clouds 10 1021 81 10000 1.5 170 18:42 19.10.2020
6627 Clouds 10 1021 76 10000 1.5 0 18:19 19.10.2020
6628 Clouds 11 1021 76 10000 2.1 230 17:46 19.10.2020
6629 Clouds 12 1021 71 10000 2.6 220 17:26 19.10.2020
6630 Clouds 11 1021 66 10000 3.1 220 16:52 19.10.2020
6631 Clouds 12 1021 71 10000 3.1 210 16:28 19.10.2020
6632 Clouds 11 1019 84 10000 0.89 257 15:46 19.10.2020
6633 Clouds 12 1019 83 10000 1.79 257 15:25 19.10.2020
6634 Clouds 12 1019 83 10000 1.79 257 15:25 19.10.2020
6635 Clouds 12 1019 80 10000 1.79 259 14:53 19.10.2020
6636 Clouds 12 1019 80 10000 2.24 258 14:28 19.10.2020
6637 Clouds 12 1022 78 10000 0.89 0 13:59 19.10.2020
6638 Clouds 12 1022 77 10000 2.24 0 13:41 19.10.2020
6639 Clouds 12 1022 76 10000 2.24 317 13:22 19.10.2020
6640 Clouds 12 1022 76 10000 2.24 239 12:43 19.10.2020
6641 Clouds 11 1022 78 10000 2.24 250 12:25 19.10.2020
6642 Clouds 10 1022 87 10000 3.1 230 11:42 19.10.2020
6643 Rain 10 1022 87 10000 3.1 230 11:21 19.10.2020
6644 Clouds 10 1022 93 9000 1.5 0 10:44 19.10.2020
6645 Clouds 9 1022 93 9000 1.5 0 10:23 19.10.2020
6646 Clouds 8 1021 93 6000 1.5 210 09:56 19.10.2020
6647 Clouds 7 1021 93 6000 1.5 0 09:25 19.10.2020
6648 Clouds 7 1021 93 6000 1 0 08:59 19.10.2020
6649 Clouds 8 1021 87 9000 2.1 250 08:41 19.10.2020
6650 Clouds 8 1021 87 9000 2.1 250 08:20 19.10.2020
6651 Clouds 8 1021 93 9000 1.5 0 07:20 19.10.2020
6652 Clouds 8 1019 95 10000 2.44 243 06:36 19.10.2020
6653 Clouds 7 1018 94 10000 3.14 251 04:47 19.10.2020
6654 Clouds 7 1018 94 10000 0.45 267 03:45 19.10.2020
6655 Clouds 8 1016 96 10000 3.4 246 01:42 19.10.2020
6656 Clouds 8 1016 95 10000 3.6 250 00:38 19.10.2020
6657 Clouds 8 1018 75 10000 1.34 269 23:56 18.10.2020
6658 Clouds 8 1020 91 10000 2.24 0 23:38 18.10.2020
6659 Clouds 8 1020 91 10000 1.34 0 23:19 18.10.2020
6660 Clouds 8 1020 91 10000 2.24 0 22:44 18.10.2020
6661 Clouds 9 1020 91 10000 1.34 0 22:19 18.10.2020
6662 Clouds 9 1020 90 10000 1.34 0 21:43 18.10.2020
6663 Clouds 9 1019 93 7000 2.1 280 21:23 18.10.2020
6664 Clouds 9 1019 93 7000 2.1 280 20:46 18.10.2020
6665 Rain 9 1019 93 7000 2.1 280 20:24 18.10.2020
6666 Clouds 9 1019 87 9000 2.1 280 19:56 18.10.2020
6667 Clouds 9 1019 93 10000 3.6 260 19:38 18.10.2020
6668 Clouds 9 1019 93 10000 3.6 260 19:19 18.10.2020
6669 Clouds 9 1018 93 10000 3.6 290 18:46 18.10.2020
6670 Clouds 9 1018 93 10000 3.6 290 18:24 18.10.2020
6671 Mist 9 1018 93 3300 5.7 270 17:41 18.10.2020
6672 Mist 9 1018 93 3300 5.7 270 17:22 18.10.2020
6673 Clouds 10 1018 93 10000 4.6 280 16:44 18.10.2020
6674 Rain 10 1018 93 10000 4.6 280 16:26 18.10.2020
6675 Mist 10 1018 93 4500 4.6 260 15:57 18.10.2020
6676 Mist 10 1018 87 3000 4.6 260 15:38 18.10.2020
6677 Rain 10 1018 87 3000 4.6 260 15:18 18.10.2020
6678 Clouds 10 1018 87 9000 6.2 260 14:47 18.10.2020
6679 Rain 10 1018 87 5000 6.2 270 14:27 18.10.2020
6680 Drizzle 10 1019 81 10000 6.2 270 13:47 18.10.2020
6681 Drizzle 10 1019 81 10000 7.2 260 13:27 18.10.2020
6682 Clouds 10 1019 76 10000 6.7 270 12:59 18.10.2020
6683 Clouds 9 1019 76 10000 6.7 260 12:40 18.10.2020